<?xml version='1.0' encoding='UTF-8'?><gpx version="1.1" creator="JPX - https://github.com/jenetics/jpx" xmlns="http://www.topografix.com/GPX/1/1"><trk><trkseg><trkpt lat="44.2793926" lon="8.4347949"><ele>10.0</ele><time>2026-04-26T07:09:00.636Z</time></trkpt><trkpt lat="44.2793428" lon="8.4346716"><ele>10.0</ele><time>2026-04-26T07:09:01.636Z</time></trkpt><trkpt lat="44.2792883" lon="8.4345206"><ele>10.0</ele><time>2026-04-26T07:09:02.636Z</time></trkpt><trkpt lat="44.2792215" lon="8.4343304"><ele>10.0</ele><time>2026-04-26T07:09:03.636Z</time></trkpt><trkpt lat="44.2791547" lon="8.4341362"><ele>10.0</ele><time>2026-04-26T07:09:04.636Z</time></trkpt><trkpt lat="44.2790971" lon="8.4339866"><ele>10.0</ele><time>2026-04-26T07:09:05.636Z</time></trkpt><trkpt lat="44.2790488" lon="8.4338675"><ele>10.0</ele><time>2026-04-26T07:09:06.636Z</time></trkpt><trkpt lat="44.2790054" lon="8.4337898"><ele>10.0</ele><time>2026-04-26T07:09:07.636Z</time></trkpt><trkpt lat="44.2789356" lon="8.4336493"><ele>10.0</ele><time>2026-04-26T07:09:09.636Z</time></trkpt><trkpt lat="44.2788996" lon="8.4335561"><ele>9.833333333333334</ele><time>2026-04-26T07:09:10.636Z</time></trkpt><trkpt lat="44.2788558" lon="8.4334899"><ele>9.666666666666668</ele><time>2026-04-26T07:09:11.636Z</time></trkpt><trkpt lat="44.2787953" lon="8.4334582"><ele>9.5</ele><time>2026-04-26T07:09:12.636Z</time></trkpt><trkpt lat="44.2787291" lon="8.4334618"><ele>9.333333333333334</ele><time>2026-04-26T07:09:13.636Z</time></trkpt><trkpt lat="44.2786562" lon="8.433516"><ele>9.166666666666666</ele><time>2026-04-26T07:09:14.637Z</time></trkpt><trkpt lat="44.2785794" lon="8.4336195"><ele>9.0</ele><time>2026-04-26T07:09:15.636Z</time></trkpt><trkpt lat="44.2784943" lon="8.4337629"><ele>8.6</ele><time>2026-04-26T07:09:16.636Z</time></trkpt><trkpt lat="44.2784139" lon="8.4338936"><ele>8.2</ele><time>2026-04-26T07:09:17.636Z</time></trkpt><trkpt lat="44.2783317" lon="8.4339872"><ele>7.799999999999999</ele><time>2026-04-26T07:09:18.636Z</time></trkpt><trkpt lat="44.278252" lon="8.4340582"><ele>7.3999999999999995</ele><time>2026-04-26T07:09:19.636Z</time></trkpt><trkpt lat="44.2781627" lon="8.4341068"><ele>7.0</ele><time>2026-04-26T07:09:20.636Z</time></trkpt><trkpt lat="44.2780613" lon="8.4341447"><ele>6.8</ele><time>2026-04-26T07:09:21.636Z</time></trkpt><trkpt lat="44.2779515" lon="8.4341736"><ele>6.6</ele><time>2026-04-26T07:09:22.636Z</time></trkpt><trkpt lat="44.277841" lon="8.4341959"><ele>6.3999999999999995</ele><time>2026-04-26T07:09:23.636Z</time></trkpt><trkpt lat="44.2777274" lon="8.4342071"><ele>6.199999999999999</ele><time>2026-04-26T07:09:24.636Z</time></trkpt><trkpt lat="44.2776164" lon="8.4342159"><ele>6.0</ele><time>2026-04-26T07:09:25.636Z</time></trkpt><trkpt lat="44.2775033" lon="8.4342365"><ele>6.0</ele><time>2026-04-26T07:09:26.636Z</time></trkpt><trkpt lat="44.2773912" lon="8.4342557"><ele>6.0</ele><time>2026-04-26T07:09:27.636Z</time></trkpt><trkpt lat="44.2772824" lon="8.4342625"><ele>6.0</ele><time>2026-04-26T07:09:28.637Z</time></trkpt><trkpt lat="44.2771768" lon="8.4342607"><ele>6.0</ele><time>2026-04-26T07:09:29.636Z</time></trkpt><trkpt lat="44.2770694" lon="8.4342604"><ele>6.0</ele><time>2026-04-26T07:09:30.636Z</time></trkpt><trkpt lat="44.2769581" lon="8.4342646"><ele>6.75</ele><time>2026-04-26T07:09:31.636Z</time></trkpt><trkpt lat="44.2768316" lon="8.4342826"><ele>7.5</ele><time>2026-04-26T07:09:32.636Z</time></trkpt><trkpt lat="44.2767088" lon="8.4342935"><ele>8.25</ele><time>2026-04-26T07:09:33.636Z</time></trkpt><trkpt lat="44.2765881" lon="8.4342994"><ele>9.0</ele><time>2026-04-26T07:09:34.636Z</time></trkpt><trkpt lat="44.2764667" lon="8.4343153"><ele>8.833333333333334</ele><time>2026-04-26T07:09:35.636Z</time></trkpt><trkpt lat="44.2763546" lon="8.4343345"><ele>8.666666666666666</ele><time>2026-04-26T07:09:36.636Z</time></trkpt><trkpt lat="44.2762602" lon="8.4343472"><ele>8.5</ele><time>2026-04-26T07:09:37.636Z</time></trkpt><trkpt lat="44.276182" lon="8.434353"><ele>8.333333333333332</ele><time>2026-04-26T07:09:38.636Z</time></trkpt><trkpt lat="44.2761173" lon="8.4343361"><ele>8.166666666666666</ele><time>2026-04-26T07:09:39.637Z</time></trkpt><trkpt lat="44.2760671" lon="8.4342796"><ele>8.0</ele><time>2026-04-26T07:09:40.636Z</time></trkpt><trkpt lat="44.2760275" lon="8.4341884"><ele>8.0</ele><time>2026-04-26T07:09:41.636Z</time></trkpt><trkpt lat="44.2760002" lon="8.4340543"><ele>8.0</ele><time>2026-04-26T07:09:42.636Z</time></trkpt><trkpt lat="44.275968" lon="8.4339128"><ele>8.0</ele><time>2026-04-26T07:09:43.636Z</time></trkpt><trkpt lat="44.2759317" lon="8.4337691"><ele>8.0</ele><time>2026-04-26T07:09:44.636Z</time></trkpt><trkpt lat="44.2758897" lon="8.4336248"><ele>8.0</ele><time>2026-04-26T07:09:45.636Z</time></trkpt><trkpt lat="44.2758329" lon="8.4334894"><ele>8.4</ele><time>2026-04-26T07:09:46.636Z</time></trkpt><trkpt lat="44.2757793" lon="8.4333423"><ele>8.8</ele><time>2026-04-26T07:09:47.637Z</time></trkpt><trkpt lat="44.2757273" lon="8.4331981"><ele>9.2</ele><time>2026-04-26T07:09:48.636Z</time></trkpt><trkpt lat="44.2756776" lon="8.4330718"><ele>9.6</ele><time>2026-04-26T07:09:49.636Z</time></trkpt><trkpt lat="44.2756205" lon="8.4329621"><ele>10.0</ele><time>2026-04-26T07:09:50.636Z</time></trkpt><trkpt lat="44.2755464" lon="8.4328972"><ele>11.2</ele><time>2026-04-26T07:09:51.637Z</time></trkpt><trkpt lat="44.2754504" lon="8.4328886"><ele>12.4</ele><time>2026-04-26T07:09:52.636Z</time></trkpt><trkpt lat="44.2753496" lon="8.4329355"><ele>13.600000000000001</ele><time>2026-04-26T07:09:53.636Z</time></trkpt><trkpt lat="44.2752488" lon="8.4330233"><ele>14.8</ele><time>2026-04-26T07:09:54.637Z</time></trkpt><trkpt lat="44.2751445" lon="8.4331238"><ele>16.0</ele><time>2026-04-26T07:09:55.636Z</time></trkpt><trkpt lat="44.2750284" lon="8.4332412"><ele>16.0</ele><time>2026-04-26T07:09:56.636Z</time></trkpt><trkpt lat="44.2749086" lon="8.433347"><ele>16.0</ele><time>2026-04-26T07:09:57.636Z</time></trkpt><trkpt lat="44.274797" lon="8.4334433"><ele>16.0</ele><time>2026-04-26T07:09:58.636Z</time></trkpt><trkpt lat="44.274698" lon="8.433525"><ele>16.0</ele><time>2026-04-26T07:09:59.636Z</time></trkpt><trkpt lat="44.2746202" lon="8.433578"><ele>15.666666666666666</ele><time>2026-04-26T07:10:00.636Z</time></trkpt><trkpt lat="44.2745553" lon="8.4335966"><ele>15.333333333333332</ele><time>2026-04-26T07:10:01.636Z</time></trkpt><trkpt lat="44.2744924" lon="8.4335689"><ele>15.0</ele><time>2026-04-26T07:10:02.636Z</time></trkpt><trkpt lat="44.2744339" lon="8.4334978"><ele>14.666666666666668</ele><time>2026-04-26T07:10:03.636Z</time></trkpt><trkpt lat="44.2743812" lon="8.4333797"><ele>14.333333333333334</ele><time>2026-04-26T07:10:04.636Z</time></trkpt><trkpt lat="44.2743206" lon="8.4332448"><ele>14.0</ele><time>2026-04-26T07:10:05.636Z</time></trkpt><trkpt lat="44.2742494" lon="8.4331057"><ele>15.25</ele><time>2026-04-26T07:10:06.636Z</time></trkpt><trkpt lat="44.2741656" lon="8.4329683"><ele>16.5</ele><time>2026-04-26T07:10:07.636Z</time></trkpt><trkpt lat="44.2740675" lon="8.432836"><ele>17.75</ele><time>2026-04-26T07:10:08.637Z</time></trkpt><trkpt lat="44.273959" lon="8.4327049"><ele>19.0</ele><time>2026-04-26T07:10:09.636Z</time></trkpt><trkpt lat="44.2738467" lon="8.4325825"><ele>19.75</ele><time>2026-04-26T07:10:10.636Z</time></trkpt><trkpt lat="44.2737327" lon="8.4324633"><ele>20.5</ele><time>2026-04-26T07:10:11.636Z</time></trkpt><trkpt lat="44.2736134" lon="8.4323376"><ele>21.25</ele><time>2026-04-26T07:10:12.636Z</time></trkpt><trkpt lat="44.2734887" lon="8.4322036"><ele>22.0</ele><time>2026-04-26T07:10:13.636Z</time></trkpt><trkpt lat="44.2733651" lon="8.4320678"><ele>21.333333333333332</ele><time>2026-04-26T07:10:14.636Z</time></trkpt><trkpt lat="44.2732402" lon="8.4319339"><ele>20.666666666666668</ele><time>2026-04-26T07:10:15.636Z</time></trkpt><trkpt lat="44.2731166" lon="8.4317983"><ele>20.0</ele><time>2026-04-26T07:10:16.636Z</time></trkpt><trkpt lat="44.2729976" lon="8.4316585"><ele>20.0</ele><time>2026-04-26T07:10:17.636Z</time></trkpt><trkpt lat="44.2728809" lon="8.4315153"><ele>20.0</ele><time>2026-04-26T07:10:18.636Z</time></trkpt><trkpt lat="44.2727661" lon="8.4313689"><ele>20.0</ele><time>2026-04-26T07:10:19.636Z</time></trkpt><trkpt lat="44.2726572" lon="8.4312157"><ele>18.666666666666668</ele><time>2026-04-26T07:10:20.636Z</time></trkpt><trkpt lat="44.2725526" lon="8.4310542"><ele>17.333333333333332</ele><time>2026-04-26T07:10:21.636Z</time></trkpt><trkpt lat="44.2724528" lon="8.4308842"><ele>16.0</ele><time>2026-04-26T07:10:22.636Z</time></trkpt><trkpt lat="44.2723577" lon="8.4307093"><ele>16.0</ele><time>2026-04-26T07:10:23.637Z</time></trkpt><trkpt lat="44.2722632" lon="8.4305292"><ele>16.0</ele><time>2026-04-26T07:10:24.636Z</time></trkpt><trkpt lat="44.272174" lon="8.4303553"><ele>16.0</ele><time>2026-04-26T07:10:25.636Z</time></trkpt><trkpt lat="44.2720813" lon="8.430172"><ele>15.666666666666666</ele><time>2026-04-26T07:10:26.636Z</time></trkpt><trkpt lat="44.2719895" lon="8.4299858"><ele>15.333333333333332</ele><time>2026-04-26T07:10:27.636Z</time></trkpt><trkpt lat="44.2718909" lon="8.4297994"><ele>15.0</ele><time>2026-04-26T07:10:28.636Z</time></trkpt><trkpt lat="44.271786" lon="8.4296187"><ele>14.666666666666668</ele><time>2026-04-26T07:10:29.636Z</time></trkpt><trkpt lat="44.2716745" lon="8.4294476"><ele>14.333333333333334</ele><time>2026-04-26T07:10:30.636Z</time></trkpt><trkpt lat="44.2715576" lon="8.4292799"><ele>14.0</ele><time>2026-04-26T07:10:31.636Z</time></trkpt><trkpt lat="44.2714414" lon="8.429115"><ele>14.0</ele><time>2026-04-26T07:10:32.636Z</time></trkpt><trkpt lat="44.2713216" lon="8.4289574"><ele>14.0</ele><time>2026-04-26T07:10:33.636Z</time></trkpt><trkpt lat="44.2711981" lon="8.4288043"><ele>14.0</ele><time>2026-04-26T07:10:34.636Z</time></trkpt><trkpt lat="44.2710733" lon="8.4286538"><ele>13.666666666666668</ele><time>2026-04-26T07:10:35.636Z</time></trkpt><trkpt lat="44.2709471" lon="8.4284982"><ele>13.333333333333332</ele><time>2026-04-26T07:10:36.636Z</time></trkpt><trkpt lat="44.2708257" lon="8.4283407"><ele>13.0</ele><time>2026-04-26T07:10:37.636Z</time></trkpt><trkpt lat="44.2706956" lon="8.4281754"><ele>13.666666666666666</ele><time>2026-04-26T07:10:38.636Z</time></trkpt><trkpt lat="44.2705671" lon="8.4280175"><ele>14.333333333333332</ele><time>2026-04-26T07:10:39.636Z</time></trkpt><trkpt lat="44.2704446" lon="8.4278615"><ele>15.0</ele><time>2026-04-26T07:10:40.636Z</time></trkpt><trkpt lat="44.2703238" lon="8.4277081"><ele>17.0</ele><time>2026-04-26T07:10:41.636Z</time></trkpt><trkpt lat="44.2701998" lon="8.4275487"><ele>19.0</ele><time>2026-04-26T07:10:42.636Z</time></trkpt><trkpt lat="44.2700704" lon="8.4273949"><ele>21.0</ele><time>2026-04-26T07:10:43.636Z</time></trkpt><trkpt lat="44.2699462" lon="8.4272373"><ele>21.0</ele><time>2026-04-26T07:10:44.636Z</time></trkpt><trkpt lat="44.2698231" lon="8.427083"><ele>21.0</ele><time>2026-04-26T07:10:45.636Z</time></trkpt><trkpt lat="44.2696955" lon="8.4269293"><ele>21.0</ele><time>2026-04-26T07:10:46.636Z</time></trkpt><trkpt lat="44.2695729" lon="8.4267676"><ele>22.0</ele><time>2026-04-26T07:10:47.636Z</time></trkpt><trkpt lat="44.2694522" lon="8.4266149"><ele>23.0</ele><time>2026-04-26T07:10:48.636Z</time></trkpt><trkpt lat="44.2693296" lon="8.4264619"><ele>24.0</ele><time>2026-04-26T07:10:49.636Z</time></trkpt><trkpt lat="44.2692037" lon="8.4263131"><ele>23.333333333333332</ele><time>2026-04-26T07:10:50.636Z</time></trkpt><trkpt lat="44.2690804" lon="8.4261665"><ele>22.666666666666664</ele><time>2026-04-26T07:10:51.637Z</time></trkpt><trkpt lat="44.2689612" lon="8.426022"><ele>22.0</ele><time>2026-04-26T07:10:52.636Z</time></trkpt><trkpt lat="44.2688433" lon="8.4258714"><ele>21.25</ele><time>2026-04-26T07:10:53.636Z</time></trkpt><trkpt lat="44.2687425" lon="8.4257185"><ele>20.5</ele><time>2026-04-26T07:10:54.637Z</time></trkpt><trkpt lat="44.2686508" lon="8.425561"><ele>19.75</ele><time>2026-04-26T07:10:55.636Z</time></trkpt><trkpt lat="44.2685829" lon="8.4253762"><ele>19.0</ele><time>2026-04-26T07:10:56.636Z</time></trkpt><trkpt lat="44.2685389" lon="8.4251916"><ele>19.0</ele><time>2026-04-26T07:10:57.636Z</time></trkpt><trkpt lat="44.2685199" lon="8.4250094"><ele>19.0</ele><time>2026-04-26T07:10:58.636Z</time></trkpt><trkpt lat="44.2685136" lon="8.4248328"><ele>19.0</ele><time>2026-04-26T07:10:59.636Z</time></trkpt><trkpt lat="44.2685176" lon="8.4246514"><ele>19.0</ele><time>2026-04-26T07:11:00.636Z</time></trkpt><trkpt lat="44.268521" lon="8.4244653"><ele>20.0</ele><time>2026-04-26T07:11:01.636Z</time></trkpt><trkpt lat="44.2685317" lon="8.4242841"><ele>21.0</ele><time>2026-04-26T07:11:02.636Z</time></trkpt><trkpt lat="44.2685363" lon="8.4241011"><ele>22.0</ele><time>2026-04-26T07:11:03.636Z</time></trkpt><trkpt lat="44.2685345" lon="8.4239131"><ele>23.0</ele><time>2026-04-26T07:11:04.637Z</time></trkpt><trkpt lat="44.2685222" lon="8.4237231"><ele>23.25</ele><time>2026-04-26T07:11:05.636Z</time></trkpt><trkpt lat="44.2684984" lon="8.4235273"><ele>23.5</ele><time>2026-04-26T07:11:06.637Z</time></trkpt><trkpt lat="44.2684664" lon="8.4233332"><ele>23.75</ele><time>2026-04-26T07:11:07.637Z</time></trkpt><trkpt lat="44.2684289" lon="8.4231427"><ele>24.0</ele><time>2026-04-26T07:11:08.636Z</time></trkpt><trkpt lat="44.2683899" lon="8.4229529"><ele>25.25</ele><time>2026-04-26T07:11:09.636Z</time></trkpt><trkpt lat="44.2683515" lon="8.4227631"><ele>26.5</ele><time>2026-04-26T07:11:10.636Z</time></trkpt><trkpt lat="44.2683137" lon="8.4225808"><ele>27.75</ele><time>2026-04-26T07:11:11.636Z</time></trkpt><trkpt lat="44.2682871" lon="8.4223882"><ele>29.0</ele><time>2026-04-26T07:11:12.636Z</time></trkpt><trkpt lat="44.2682718" lon="8.4222061"><ele>30.4</ele><time>2026-04-26T07:11:13.636Z</time></trkpt><trkpt lat="44.2682822" lon="8.4220463"><ele>31.799999999999997</ele><time>2026-04-26T07:11:14.636Z</time></trkpt><trkpt lat="44.2683069" lon="8.4219292"><ele>33.2</ele><time>2026-04-26T07:11:15.636Z</time></trkpt><trkpt lat="44.2683338" lon="8.4217585"><ele>34.6</ele><time>2026-04-26T07:11:17.636Z</time></trkpt><trkpt lat="44.2683348" lon="8.4216557"><ele>36.0</ele><time>2026-04-26T07:11:18.636Z</time></trkpt><trkpt lat="44.2683455" lon="8.4215467"><ele>36.0</ele><time>2026-04-26T07:11:19.636Z</time></trkpt><trkpt lat="44.2683703" lon="8.4214165"><ele>36.0</ele><time>2026-04-26T07:11:20.636Z</time></trkpt><trkpt lat="44.2684087" lon="8.421269"><ele>36.0</ele><time>2026-04-26T07:11:21.636Z</time></trkpt><trkpt lat="44.2684461" lon="8.4211161"><ele>36.0</ele><time>2026-04-26T07:11:22.636Z</time></trkpt><trkpt lat="44.2684596" lon="8.4209671"><ele>36.0</ele><time>2026-04-26T07:11:23.636Z</time></trkpt><trkpt lat="44.2684459" lon="8.4208227"><ele>36.6</ele><time>2026-04-26T07:11:24.636Z</time></trkpt><trkpt lat="44.2684056" lon="8.4206923"><ele>37.2</ele><time>2026-04-26T07:11:25.636Z</time></trkpt><trkpt lat="44.2683484" lon="8.4205759"><ele>37.8</ele><time>2026-04-26T07:11:26.636Z</time></trkpt><trkpt lat="44.2682981" lon="8.4204726"><ele>38.4</ele><time>2026-04-26T07:11:27.636Z</time></trkpt><trkpt lat="44.2682674" lon="8.4203603"><ele>39.0</ele><time>2026-04-26T07:11:28.636Z</time></trkpt><trkpt lat="44.2682541" lon="8.4202363"><ele>39.4</ele><time>2026-04-26T07:11:29.636Z</time></trkpt><trkpt lat="44.2682472" lon="8.420107"><ele>39.8</ele><time>2026-04-26T07:11:30.636Z</time></trkpt><trkpt lat="44.2682398" lon="8.4199734"><ele>40.199999999999996</ele><time>2026-04-26T07:11:31.636Z</time></trkpt><trkpt lat="44.268238" lon="8.4198356"><ele>40.599999999999994</ele><time>2026-04-26T07:11:32.636Z</time></trkpt><trkpt lat="44.2682517" lon="8.4196862"><ele>41.0</ele><time>2026-04-26T07:11:33.636Z</time></trkpt><trkpt lat="44.2682678" lon="8.4195304"><ele>41.75</ele><time>2026-04-26T07:11:34.636Z</time></trkpt><trkpt lat="44.2682895" lon="8.4193446"><ele>42.5</ele><time>2026-04-26T07:11:35.636Z</time></trkpt><trkpt lat="44.2683069" lon="8.4191506"><ele>43.25</ele><time>2026-04-26T07:11:36.636Z</time></trkpt><trkpt lat="44.2683336" lon="8.4189645"><ele>44.0</ele><time>2026-04-26T07:11:37.636Z</time></trkpt><trkpt lat="44.2683543" lon="8.4187775"><ele>45.25</ele><time>2026-04-26T07:11:38.636Z</time></trkpt><trkpt lat="44.2683766" lon="8.4185911"><ele>46.5</ele><time>2026-04-26T07:11:39.636Z</time></trkpt><trkpt lat="44.2684" lon="8.4184077"><ele>47.75</ele><time>2026-04-26T07:11:40.637Z</time></trkpt><trkpt lat="44.2684201" lon="8.4182296"><ele>49.0</ele><time>2026-04-26T07:11:41.636Z</time></trkpt><trkpt lat="44.2684343" lon="8.4180641"><ele>50.6</ele><time>2026-04-26T07:11:42.636Z</time></trkpt><trkpt lat="44.2684577" lon="8.4179119"><ele>52.2</ele><time>2026-04-26T07:11:43.636Z</time></trkpt><trkpt lat="44.2684858" lon="8.4177845"><ele>53.800000000000004</ele><time>2026-04-26T07:11:44.636Z</time></trkpt><trkpt lat="44.2685262" lon="8.4176722"><ele>55.400000000000006</ele><time>2026-04-26T07:11:45.636Z</time></trkpt><trkpt lat="44.2685756" lon="8.4175632"><ele>57.0</ele><time>2026-04-26T07:11:46.636Z</time></trkpt><trkpt lat="44.2686294" lon="8.4174529"><ele>57.0</ele><time>2026-04-26T07:11:47.636Z</time></trkpt><trkpt lat="44.2686697" lon="8.4173606"><ele>57.0</ele><time>2026-04-26T07:11:48.636Z</time></trkpt><trkpt lat="44.268689" lon="8.4171968"><ele>57.0</ele><time>2026-04-26T07:11:50.636Z</time></trkpt><trkpt lat="44.2686591" lon="8.4171032"><ele>57.0</ele><time>2026-04-26T07:11:51.636Z</time></trkpt><trkpt lat="44.2686104" lon="8.4170142"><ele>57.0</ele><time>2026-04-26T07:11:52.637Z</time></trkpt><trkpt lat="44.2685551" lon="8.4169167"><ele>57.0</ele><time>2026-04-26T07:11:53.636Z</time></trkpt><trkpt lat="44.2685168" lon="8.4168084"><ele>58.166666666666664</ele><time>2026-04-26T07:11:54.636Z</time></trkpt><trkpt lat="44.2684956" lon="8.4166763"><ele>59.33333333333333</ele><time>2026-04-26T07:11:55.636Z</time></trkpt><trkpt lat="44.268497" lon="8.4165347"><ele>60.5</ele><time>2026-04-26T07:11:56.636Z</time></trkpt><trkpt lat="44.2685029" lon="8.4164069"><ele>61.666666666666664</ele><time>2026-04-26T07:11:57.637Z</time></trkpt><trkpt lat="44.2685295" lon="8.4162951"><ele>62.83333333333333</ele><time>2026-04-26T07:11:58.636Z</time></trkpt><trkpt lat="44.2685525" lon="8.4161954"><ele>64.0</ele><time>2026-04-26T07:11:59.636Z</time></trkpt><trkpt lat="44.2685794" lon="8.4160863"><ele>65.2</ele><time>2026-04-26T07:12:00.636Z</time></trkpt><trkpt lat="44.2686115" lon="8.415968"><ele>66.4</ele><time>2026-04-26T07:12:01.636Z</time></trkpt><trkpt lat="44.2686468" lon="8.4158449"><ele>67.6</ele><time>2026-04-26T07:12:02.636Z</time></trkpt><trkpt lat="44.2686756" lon="8.4157332"><ele>68.8</ele><time>2026-04-26T07:12:03.637Z</time></trkpt><trkpt lat="44.2686975" lon="8.4155806"><ele>70.0</ele><time>2026-04-26T07:12:05.636Z</time></trkpt><trkpt lat="44.268692" lon="8.4154492"><ele>70.83333333333333</ele><time>2026-04-26T07:12:07.636Z</time></trkpt><trkpt lat="44.2686868" lon="8.415312"><ele>71.66666666666666</ele><time>2026-04-26T07:12:09.636Z</time></trkpt><trkpt lat="44.268708" lon="8.4151501"><ele>72.5</ele><time>2026-04-26T07:12:11.636Z</time></trkpt><trkpt lat="44.268726" lon="8.4150589"><ele>73.33333333333333</ele><time>2026-04-26T07:12:12.636Z</time></trkpt><trkpt lat="44.268745" lon="8.4149638"><ele>74.16666666666667</ele><time>2026-04-26T07:12:13.636Z</time></trkpt><trkpt lat="44.2687681" lon="8.4148627"><ele>75.0</ele><time>2026-04-26T07:12:14.636Z</time></trkpt><trkpt lat="44.2687979" lon="8.414766"><ele>75.0</ele><time>2026-04-26T07:12:15.637Z</time></trkpt><trkpt lat="44.2688332" lon="8.4146806"><ele>75.0</ele><time>2026-04-26T07:12:16.636Z</time></trkpt><trkpt lat="44.2688434" lon="8.414508"><ele>75.0</ele><time>2026-04-26T07:12:18.636Z</time></trkpt><trkpt lat="44.2688411" lon="8.4144149"><ele>75.0</ele><time>2026-04-26T07:12:19.636Z</time></trkpt><trkpt lat="44.2688475" lon="8.4143176"><ele>75.0</ele><time>2026-04-26T07:12:20.636Z</time></trkpt><trkpt lat="44.2688599" lon="8.4142167"><ele>75.0</ele><time>2026-04-26T07:12:21.636Z</time></trkpt><trkpt lat="44.2688835" lon="8.4141118"><ele>75.33333333333333</ele><time>2026-04-26T07:12:22.636Z</time></trkpt><trkpt lat="44.2689153" lon="8.4140083"><ele>75.66666666666667</ele><time>2026-04-26T07:12:23.637Z</time></trkpt><trkpt lat="44.2689573" lon="8.4139089"><ele>76.0</ele><time>2026-04-26T07:12:24.636Z</time></trkpt><trkpt lat="44.2690043" lon="8.4138042"><ele>76.33333333333334</ele><time>2026-04-26T07:12:25.636Z</time></trkpt><trkpt lat="44.2690468" lon="8.4137015"><ele>76.66666666666667</ele><time>2026-04-26T07:12:26.637Z</time></trkpt><trkpt lat="44.2690848" lon="8.4136014"><ele>77.0</ele><time>2026-04-26T07:12:27.636Z</time></trkpt><trkpt lat="44.2691128" lon="8.4134949"><ele>82.16666666666667</ele><time>2026-04-26T07:12:28.636Z</time></trkpt><trkpt lat="44.2691266" lon="8.413371"><ele>87.33333333333334</ele><time>2026-04-26T07:12:29.636Z</time></trkpt><trkpt lat="44.2691328" lon="8.4132503"><ele>92.5</ele><time>2026-04-26T07:12:30.636Z</time></trkpt><trkpt lat="44.2691389" lon="8.4131489"><ele>97.66666666666667</ele><time>2026-04-26T07:12:31.636Z</time></trkpt><trkpt lat="44.2691546" lon="8.4130544"><ele>102.83333333333333</ele><time>2026-04-26T07:12:32.636Z</time></trkpt><trkpt lat="44.2691664" lon="8.4129056"><ele>108.0</ele><time>2026-04-26T07:12:34.636Z</time></trkpt><trkpt lat="44.2691155" lon="8.4127372"><ele>109.0</ele><time>2026-04-26T07:12:36.636Z</time></trkpt><trkpt lat="44.2690928" lon="8.41265"><ele>110.0</ele><time>2026-04-26T07:12:37.636Z</time></trkpt><trkpt lat="44.2690779" lon="8.4124907"><ele>111.0</ele><time>2026-04-26T07:12:39.636Z</time></trkpt><trkpt lat="44.2691162" lon="8.4123504"><ele>112.0</ele><time>2026-04-26T07:12:41.636Z</time></trkpt><trkpt lat="44.2691474" lon="8.4122626"><ele>113.0</ele><time>2026-04-26T07:12:42.636Z</time></trkpt><trkpt lat="44.2691702" lon="8.4121731"><ele>114.0</ele><time>2026-04-26T07:12:43.636Z</time></trkpt><trkpt lat="44.2692021" lon="8.4120217"><ele>114.6</ele><time>2026-04-26T07:12:45.636Z</time></trkpt><trkpt lat="44.2691993" lon="8.4118914"><ele>115.2</ele><time>2026-04-26T07:12:47.636Z</time></trkpt><trkpt lat="44.2691587" lon="8.4117882"><ele>115.79999999999998</ele><time>2026-04-26T07:12:49.636Z</time></trkpt><trkpt lat="44.2691129" lon="8.4116701"><ele>116.39999999999999</ele><time>2026-04-26T07:12:51.636Z</time></trkpt><trkpt lat="44.2691126" lon="8.4115495"><ele>117.0</ele><time>2026-04-26T07:12:53.636Z</time></trkpt><trkpt lat="44.2691367" lon="8.411397"><ele>116.39999999999999</ele><time>2026-04-26T07:12:55.636Z</time></trkpt><trkpt lat="44.2691717" lon="8.4112419"><ele>115.79999999999998</ele><time>2026-04-26T07:12:57.636Z</time></trkpt><trkpt lat="44.2692258" lon="8.4111149"><ele>115.2</ele><time>2026-04-26T07:12:59.636Z</time></trkpt><trkpt lat="44.2692817" lon="8.4109967"><ele>114.6</ele><time>2026-04-26T07:13:01.636Z</time></trkpt><trkpt lat="44.2693346" lon="8.4109042"><ele>114.0</ele><time>2026-04-26T07:13:03.636Z</time></trkpt><trkpt lat="44.2694003" lon="8.4108508"><ele>114.0</ele><time>2026-04-26T07:13:05.636Z</time></trkpt><trkpt lat="44.2694834" lon="8.4108025"><ele>114.0</ele><time>2026-04-26T07:13:07.636Z</time></trkpt><trkpt lat="44.2695655" lon="8.4107472"><ele>114.0</ele><time>2026-04-26T07:13:09.636Z</time></trkpt><trkpt lat="44.2696579" lon="8.4107067"><ele>114.0</ele><time>2026-04-26T07:13:11.637Z</time></trkpt><trkpt lat="44.2697601" lon="8.4106745"><ele>114.0</ele><time>2026-04-26T07:13:13.636Z</time></trkpt><trkpt lat="44.2698522" lon="8.4106723"><ele>120.2</ele><time>2026-04-26T07:13:15.636Z</time></trkpt><trkpt lat="44.2699371" lon="8.4107308"><ele>126.4</ele><time>2026-04-26T07:13:17.636Z</time></trkpt><trkpt lat="44.2700191" lon="8.4107544"><ele>132.6</ele><time>2026-04-26T07:13:19.636Z</time></trkpt><trkpt lat="44.2701022" lon="8.4107079"><ele>138.8</ele><time>2026-04-26T07:13:21.636Z</time></trkpt><trkpt lat="44.2701637" lon="8.4106027"><ele>145.0</ele><time>2026-04-26T07:13:23.636Z</time></trkpt><trkpt lat="44.2702403" lon="8.4105037"><ele>145.0</ele><time>2026-04-26T07:13:25.636Z</time></trkpt><trkpt lat="44.270362" lon="8.410444"><ele>145.0</ele><time>2026-04-26T07:13:27.636Z</time></trkpt><trkpt lat="44.2704294" lon="8.4103944"><ele>145.0</ele><time>2026-04-26T07:13:28.636Z</time></trkpt><trkpt lat="44.2704916" lon="8.4103453"><ele>145.0</ele><time>2026-04-26T07:13:29.636Z</time></trkpt><trkpt lat="44.2705878" lon="8.410271"><ele>145.0</ele><time>2026-04-26T07:13:31.636Z</time></trkpt><trkpt lat="44.2706313" lon="8.4101984"><ele>150.0</ele><time>2026-04-26T07:13:33.637Z</time></trkpt><trkpt lat="44.2706454" lon="8.4100763"><ele>155.0</ele><time>2026-04-26T07:13:35.636Z</time></trkpt><trkpt lat="44.2706515" lon="8.4099269"><ele>160.0</ele><time>2026-04-26T07:13:37.636Z</time></trkpt><trkpt lat="44.2706543" lon="8.4097929"><ele>165.0</ele><time>2026-04-26T07:13:39.636Z</time></trkpt><trkpt lat="44.2706612" lon="8.409666"><ele>170.0</ele><time>2026-04-26T07:13:41.636Z</time></trkpt><trkpt lat="44.2706639" lon="8.4095225"><ele>170.0</ele><time>2026-04-26T07:13:43.636Z</time></trkpt><trkpt lat="44.2707058" lon="8.40941"><ele>170.0</ele><time>2026-04-26T07:13:45.636Z</time></trkpt><trkpt lat="44.2707816" lon="8.4093729"><ele>170.0</ele><time>2026-04-26T07:13:47.636Z</time></trkpt><trkpt lat="44.2708489" lon="8.4094567"><ele>170.0</ele><time>2026-04-26T07:13:49.636Z</time></trkpt><trkpt lat="44.2708992" lon="8.4096021"><ele>170.0</ele><time>2026-04-26T07:13:51.636Z</time></trkpt><trkpt lat="44.2709448" lon="8.4097101"><ele>170.0</ele><time>2026-04-26T07:13:53.636Z</time></trkpt><trkpt lat="44.2710077" lon="8.4097553"><ele>170.0</ele><time>2026-04-26T07:13:55.636Z</time></trkpt><trkpt lat="44.2710733" lon="8.4097407"><ele>170.0</ele><time>2026-04-26T07:13:58.636Z</time></trkpt><trkpt lat="44.2711917" lon="8.4096893"><ele>170.0</ele><time>2026-04-26T07:14:12.636Z</time></trkpt><trkpt lat="44.2712589" lon="8.4096624"><ele>170.0</ele><time>2026-04-26T07:14:13.636Z</time></trkpt><trkpt lat="44.2713314" lon="8.4096318"><ele>170.0</ele><time>2026-04-26T07:14:14.636Z</time></trkpt><trkpt lat="44.2714028" lon="8.40961"><ele>172.8</ele><time>2026-04-26T07:14:15.636Z</time></trkpt><trkpt lat="44.2714737" lon="8.4096063"><ele>175.6</ele><time>2026-04-26T07:14:16.636Z</time></trkpt><trkpt lat="44.2715475" lon="8.4096058"><ele>178.39999999999998</ele><time>2026-04-26T07:14:17.636Z</time></trkpt><trkpt lat="44.2716607" lon="8.4096612"><ele>181.2</ele><time>2026-04-26T07:14:19.637Z</time></trkpt><trkpt lat="44.2717487" lon="8.4097457"><ele>184.0</ele><time>2026-04-26T07:14:21.636Z</time></trkpt><trkpt lat="44.2718431" lon="8.4098325"><ele>185.2</ele><time>2026-04-26T07:14:23.636Z</time></trkpt><trkpt lat="44.2719233" lon="8.4099588"><ele>186.39999999999998</ele><time>2026-04-26T07:14:25.636Z</time></trkpt><trkpt lat="44.2719888" lon="8.4100473"><ele>187.6</ele><time>2026-04-26T07:14:27.636Z</time></trkpt><trkpt lat="44.272079" lon="8.4100385"><ele>188.8</ele><time>2026-04-26T07:14:29.636Z</time></trkpt><trkpt lat="44.2721755" lon="8.4099413"><ele>190.0</ele><time>2026-04-26T07:14:31.636Z</time></trkpt><trkpt lat="44.2722221" lon="8.409872"><ele>192.66666666666669</ele><time>2026-04-26T07:14:32.637Z</time></trkpt><trkpt lat="44.2722739" lon="8.4097974"><ele>195.33333333333334</ele><time>2026-04-26T07:14:33.636Z</time></trkpt><trkpt lat="44.2723264" lon="8.4097317"><ele>198.0</ele><time>2026-04-26T07:14:34.636Z</time></trkpt><trkpt lat="44.2723831" lon="8.409661"><ele>200.66666666666669</ele><time>2026-04-26T07:14:35.636Z</time></trkpt><trkpt lat="44.2724396" lon="8.4095804"><ele>203.33333333333334</ele><time>2026-04-26T07:14:36.636Z</time></trkpt><trkpt lat="44.2725015" lon="8.4094889"><ele>206.0</ele><time>2026-04-26T07:14:37.636Z</time></trkpt><trkpt lat="44.2725693" lon="8.4093947"><ele>206.00000000000003</ele><time>2026-04-26T07:14:38.636Z</time></trkpt><trkpt lat="44.272633" lon="8.4093083"><ele>206.0</ele><time>2026-04-26T07:14:39.636Z</time></trkpt><trkpt lat="44.2726982" lon="8.4092337"><ele>206.0</ele><time>2026-04-26T07:14:40.636Z</time></trkpt><trkpt lat="44.2727616" lon="8.409173"><ele>206.0</ele><time>2026-04-26T07:14:41.636Z</time></trkpt><trkpt lat="44.2728611" lon="8.4090953"><ele>206.00000000000003</ele><time>2026-04-26T07:14:43.636Z</time></trkpt><trkpt lat="44.2729164" lon="8.4090503"><ele>206.0</ele><time>2026-04-26T07:14:45.636Z</time></trkpt><trkpt lat="44.2729612" lon="8.4089541"><ele>205.42857142857142</ele><time>2026-04-26T07:14:52.636Z</time></trkpt><trkpt lat="44.272987" lon="8.4088128"><ele>204.85714285714286</ele><time>2026-04-26T07:14:54.636Z</time></trkpt><trkpt lat="44.2729983" lon="8.4087138"><ele>204.28571428571428</ele><time>2026-04-26T07:14:55.636Z</time></trkpt><trkpt lat="44.2730115" lon="8.4086207"><ele>203.71428571428572</ele><time>2026-04-26T07:14:56.636Z</time></trkpt><trkpt lat="44.2730292" lon="8.4085276"><ele>203.14285714285714</ele><time>2026-04-26T07:14:57.636Z</time></trkpt><trkpt lat="44.273063" lon="8.4084491"><ele>202.57142857142856</ele><time>2026-04-26T07:14:58.636Z</time></trkpt><trkpt lat="44.2731067" lon="8.4083836"><ele>202.0</ele><time>2026-04-26T07:14:59.636Z</time></trkpt><trkpt lat="44.2731874" lon="8.4082656"><ele>205.99999999999997</ele><time>2026-04-26T07:15:01.636Z</time></trkpt><trkpt lat="44.2732127" lon="8.408184"><ele>210.0</ele><time>2026-04-26T07:15:02.636Z</time></trkpt><trkpt lat="44.2732342" lon="8.4080773"><ele>214.0</ele><time>2026-04-26T07:15:03.636Z</time></trkpt><trkpt lat="44.2732601" lon="8.4079621"><ele>218.0</ele><time>2026-04-26T07:15:04.636Z</time></trkpt><trkpt lat="44.2732958" lon="8.4078526"><ele>221.99999999999997</ele><time>2026-04-26T07:15:05.636Z</time></trkpt><trkpt lat="44.2733329" lon="8.4077566"><ele>226.0</ele><time>2026-04-26T07:15:06.637Z</time></trkpt><trkpt lat="44.2733741" lon="8.4076509"><ele>226.0</ele><time>2026-04-26T07:15:07.636Z</time></trkpt><trkpt lat="44.2733982" lon="8.4075448"><ele>226.00000000000003</ele><time>2026-04-26T07:15:08.636Z</time></trkpt><trkpt lat="44.2734114" lon="8.4074475"><ele>226.00000000000003</ele><time>2026-04-26T07:15:09.636Z</time></trkpt><trkpt lat="44.2734516" lon="8.407296"><ele>226.0</ele><time>2026-04-26T07:15:11.636Z</time></trkpt><trkpt lat="44.2735305" lon="8.4071791"><ele>226.0</ele><time>2026-04-26T07:15:13.636Z</time></trkpt><trkpt lat="44.2736272" lon="8.4070896"><ele>228.20000000000002</ele><time>2026-04-26T07:15:15.636Z</time></trkpt><trkpt lat="44.2737342" lon="8.4070069"><ele>230.40000000000003</ele><time>2026-04-26T07:15:17.636Z</time></trkpt><trkpt lat="44.2738381" lon="8.4069701"><ele>232.6</ele><time>2026-04-26T07:15:19.636Z</time></trkpt><trkpt lat="44.2739265" lon="8.4069094"><ele>234.8</ele><time>2026-04-26T07:15:21.637Z</time></trkpt><trkpt lat="44.2739934" lon="8.4068245"><ele>237.0</ele><time>2026-04-26T07:15:23.636Z</time></trkpt><trkpt lat="44.2740235" lon="8.4067219"><ele>237.0</ele><time>2026-04-26T07:15:25.636Z</time></trkpt><trkpt lat="44.2740279" lon="8.4066341"><ele>237.0</ele><time>2026-04-26T07:15:27.636Z</time></trkpt><trkpt lat="44.2739592" lon="8.4065797"><ele>237.0</ele><time>2026-04-26T07:15:30.636Z</time></trkpt><trkpt lat="44.2738535" lon="8.4065745"><ele>237.0</ele><time>2026-04-26T07:15:32.636Z</time></trkpt><trkpt lat="44.2737882" lon="8.4065685"><ele>237.0</ele><time>2026-04-26T07:15:33.636Z</time></trkpt><trkpt lat="44.2736641" lon="8.4065287"><ele>237.0</ele><time>2026-04-26T07:15:35.636Z</time></trkpt><trkpt lat="44.2735904" lon="8.4065188"><ele>236.99999999999997</ele><time>2026-04-26T07:15:36.636Z</time></trkpt><trkpt lat="44.2735161" lon="8.4065041"><ele>237.0</ele><time>2026-04-26T07:15:37.636Z</time></trkpt><trkpt lat="44.2734461" lon="8.406489"><ele>236.99999999999997</ele><time>2026-04-26T07:15:38.636Z</time></trkpt><trkpt lat="44.2733816" lon="8.4064588"><ele>236.99999999999997</ele><time>2026-04-26T07:15:39.636Z</time></trkpt><trkpt lat="44.273323" lon="8.4064193"><ele>237.0</ele><time>2026-04-26T07:15:40.636Z</time></trkpt><trkpt lat="44.2732678" lon="8.4063692"><ele>236.99999999999997</ele><time>2026-04-26T07:15:41.636Z</time></trkpt><trkpt lat="44.2732168" lon="8.4063106"><ele>236.99999999999997</ele><time>2026-04-26T07:15:42.636Z</time></trkpt><trkpt lat="44.2731682" lon="8.4062371"><ele>238.5</ele><time>2026-04-26T07:15:43.636Z</time></trkpt><trkpt lat="44.2731303" lon="8.4061504"><ele>240.0</ele><time>2026-04-26T07:15:44.636Z</time></trkpt><trkpt lat="44.2730901" lon="8.4060533"><ele>241.5</ele><time>2026-04-26T07:15:45.636Z</time></trkpt><trkpt lat="44.273041" lon="8.4059463"><ele>243.0</ele><time>2026-04-26T07:15:46.636Z</time></trkpt><trkpt lat="44.2729896" lon="8.4058502"><ele>244.5</ele><time>2026-04-26T07:15:47.636Z</time></trkpt><trkpt lat="44.2729528" lon="8.4057623"><ele>246.0</ele><time>2026-04-26T07:15:48.637Z</time></trkpt><trkpt lat="44.2729173" lon="8.4056177"><ele>246.5714285714286</ele><time>2026-04-26T07:15:50.636Z</time></trkpt><trkpt lat="44.2729303" lon="8.4055246"><ele>247.14285714285717</ele><time>2026-04-26T07:15:52.636Z</time></trkpt><trkpt lat="44.272998" lon="8.405433"><ele>247.71428571428572</ele><time>2026-04-26T07:15:54.636Z</time></trkpt><trkpt lat="44.2730589" lon="8.4053883"><ele>248.2857142857143</ele><time>2026-04-26T07:15:55.636Z</time></trkpt><trkpt lat="44.2731265" lon="8.4053503"><ele>248.8571428571429</ele><time>2026-04-26T07:15:56.636Z</time></trkpt><trkpt lat="44.2731838" lon="8.4053099"><ele>249.42857142857142</ele><time>2026-04-26T07:15:57.636Z</time></trkpt><trkpt lat="44.2732432" lon="8.4052365"><ele>250.0</ele><time>2026-04-26T07:15:59.636Z</time></trkpt><trkpt lat="44.2732714" lon="8.4051441"><ele>250.0</ele><time>2026-04-26T07:16:08.636Z</time></trkpt><trkpt lat="44.2733155" lon="8.405059"><ele>250.0</ele><time>2026-04-26T07:16:10.636Z</time></trkpt><trkpt lat="44.2733699" lon="8.4049399"><ele>250.0</ele><time>2026-04-26T07:16:12.636Z</time></trkpt><trkpt lat="44.2734468" lon="8.4047897"><ele>250.0</ele><time>2026-04-26T07:16:14.636Z</time></trkpt><trkpt lat="44.2735042" lon="8.4047167"><ele>250.0</ele><time>2026-04-26T07:16:15.637Z</time></trkpt><trkpt lat="44.2735684" lon="8.4046386"><ele>251.33333333333331</ele><time>2026-04-26T07:16:16.636Z</time></trkpt><trkpt lat="44.2736279" lon="8.4045656"><ele>252.66666666666666</ele><time>2026-04-26T07:16:17.636Z</time></trkpt><trkpt lat="44.2736929" lon="8.4044839"><ele>254.0</ele><time>2026-04-26T07:16:18.637Z</time></trkpt><trkpt lat="44.273747" lon="8.4044191"><ele>255.33333333333331</ele><time>2026-04-26T07:16:19.636Z</time></trkpt><trkpt lat="44.2738141" lon="8.4043585"><ele>256.6666666666667</ele><time>2026-04-26T07:16:21.636Z</time></trkpt><trkpt lat="44.2738621" lon="8.4042823"><ele>258.0</ele><time>2026-04-26T07:16:23.636Z</time></trkpt><trkpt lat="44.2738917" lon="8.4041435"><ele>258.0</ele><time>2026-04-26T07:16:25.636Z</time></trkpt><trkpt lat="44.2739064" lon="8.4039696"><ele>258.0</ele><time>2026-04-26T07:16:27.636Z</time></trkpt><trkpt lat="44.27393" lon="8.4038079"><ele>258.0</ele><time>2026-04-26T07:16:29.636Z</time></trkpt><trkpt lat="44.2739871" lon="8.4036839"><ele>258.0</ele><time>2026-04-26T07:16:31.636Z</time></trkpt><trkpt lat="44.2740567" lon="8.4035683"><ele>261.0</ele><time>2026-04-26T07:16:33.636Z</time></trkpt><trkpt lat="44.2740828" lon="8.4034652"><ele>264.0</ele><time>2026-04-26T07:16:35.636Z</time></trkpt><trkpt lat="44.2740537" lon="8.4033415"><ele>267.0</ele><time>2026-04-26T07:16:37.636Z</time></trkpt><trkpt lat="44.2739881" lon="8.4032446"><ele>270.0</ele><time>2026-04-26T07:16:39.636Z</time></trkpt><trkpt lat="44.2739401" lon="8.4031848"><ele>273.0</ele><time>2026-04-26T07:16:41.636Z</time></trkpt><trkpt lat="44.2739083" lon="8.4030956"><ele>276.0</ele><time>2026-04-26T07:16:55.636Z</time></trkpt><trkpt lat="44.2739773" lon="8.4030841"><ele>279.1666666666667</ele><time>2026-04-26T07:16:59.636Z</time></trkpt><trkpt lat="44.2740608" lon="8.4031305"><ele>282.3333333333333</ele><time>2026-04-26T07:17:05.636Z</time></trkpt><trkpt lat="44.274127" lon="8.4031796"><ele>285.5</ele><time>2026-04-26T07:17:07.636Z</time></trkpt><trkpt lat="44.2741163" lon="8.4030642"><ele>288.66666666666663</ele><time>2026-04-26T07:17:36.637Z</time></trkpt><trkpt lat="44.2741049" lon="8.4029545"><ele>291.8333333333333</ele><time>2026-04-26T07:17:39.636Z</time></trkpt><trkpt lat="44.2740409" lon="8.4028749"><ele>295.0</ele><time>2026-04-26T07:17:47.636Z</time></trkpt><trkpt lat="44.2739531" lon="8.4028214"><ele>296.6</ele><time>2026-04-26T07:17:49.636Z</time></trkpt><trkpt lat="44.2738977" lon="8.4027503"><ele>298.2</ele><time>2026-04-26T07:17:51.636Z</time></trkpt><trkpt lat="44.2738467" lon="8.4026645"><ele>299.8</ele><time>2026-04-26T07:17:54.636Z</time></trkpt><trkpt lat="44.2737756" lon="8.4026155"><ele>301.4</ele><time>2026-04-26T07:18:22.636Z</time></trkpt><trkpt lat="44.273657" lon="8.4026164"><ele>303.0</ele><time>2026-04-26T07:18:24.636Z</time></trkpt><trkpt lat="44.2735313" lon="8.402624"><ele>303.0</ele><time>2026-04-26T07:18:26.636Z</time></trkpt><trkpt lat="44.2734193" lon="8.4026272"><ele>303.0</ele><time>2026-04-26T07:18:28.636Z</time></trkpt><trkpt lat="44.2733197" lon="8.4025979"><ele>303.0</ele><time>2026-04-26T07:18:30.636Z</time></trkpt><trkpt lat="44.2732176" lon="8.402517"><ele>303.0</ele><time>2026-04-26T07:18:32.636Z</time></trkpt><trkpt lat="44.2731573" lon="8.4024747"><ele>303.0</ele><time>2026-04-26T07:18:33.636Z</time></trkpt><trkpt lat="44.2730406" lon="8.4023948"><ele>299.6666666666667</ele><time>2026-04-26T07:18:35.637Z</time></trkpt><trkpt lat="44.2729779" lon="8.4023385"><ele>296.3333333333333</ele><time>2026-04-26T07:18:36.636Z</time></trkpt><trkpt lat="44.2729152" lon="8.4022804"><ele>293.0</ele><time>2026-04-26T07:18:37.636Z</time></trkpt><trkpt lat="44.2728513" lon="8.4022245"><ele>289.66666666666663</ele><time>2026-04-26T07:18:38.637Z</time></trkpt><trkpt lat="44.2727799" lon="8.4021917"><ele>286.3333333333333</ele><time>2026-04-26T07:18:39.636Z</time></trkpt><trkpt lat="44.2726994" lon="8.4021794"><ele>283.0</ele><time>2026-04-26T07:18:40.636Z</time></trkpt><trkpt lat="44.2726223" lon="8.4021787"><ele>283.0</ele><time>2026-04-26T07:18:41.636Z</time></trkpt><trkpt lat="44.2725446" lon="8.4021799"><ele>283.0</ele><time>2026-04-26T07:18:42.636Z</time></trkpt><trkpt lat="44.2724658" lon="8.4021763"><ele>283.0</ele><time>2026-04-26T07:18:43.636Z</time></trkpt><trkpt lat="44.2723925" lon="8.4021545"><ele>283.0</ele><time>2026-04-26T07:18:44.636Z</time></trkpt><trkpt lat="44.2723252" lon="8.4021151"><ele>283.0</ele><time>2026-04-26T07:18:45.636Z</time></trkpt><trkpt lat="44.2722642" lon="8.402056"><ele>283.0</ele><time>2026-04-26T07:18:46.636Z</time></trkpt><trkpt lat="44.2722169" lon="8.4019815"><ele>286.0</ele><time>2026-04-26T07:18:47.636Z</time></trkpt><trkpt lat="44.2721788" lon="8.4018984"><ele>289.0</ele><time>2026-04-26T07:18:48.637Z</time></trkpt><trkpt lat="44.2721217" lon="8.4017414"><ele>292.0</ele><time>2026-04-26T07:18:50.636Z</time></trkpt><trkpt lat="44.2720827" lon="8.4016468"><ele>295.0</ele><time>2026-04-26T07:18:51.636Z</time></trkpt><trkpt lat="44.2720401" lon="8.4015595"><ele>298.0</ele><time>2026-04-26T07:18:52.636Z</time></trkpt><trkpt lat="44.2720004" lon="8.4014767"><ele>301.0</ele><time>2026-04-26T07:18:53.636Z</time></trkpt><trkpt lat="44.2719479" lon="8.4013525"><ele>301.0</ele><time>2026-04-26T07:18:55.636Z</time></trkpt><trkpt lat="44.2719092" lon="8.4012342"><ele>301.0</ele><time>2026-04-26T07:18:57.636Z</time></trkpt><trkpt lat="44.271853" lon="8.4011669"><ele>301.0</ele><time>2026-04-26T07:18:59.636Z</time></trkpt><trkpt lat="44.2717756" lon="8.4011836"><ele>301.0</ele><time>2026-04-26T07:19:01.636Z</time></trkpt><trkpt lat="44.2717198" lon="8.4013192"><ele>301.0</ele><time>2026-04-26T07:19:03.636Z</time></trkpt><trkpt lat="44.271697" lon="8.401423"><ele>301.0</ele><time>2026-04-26T07:19:04.636Z</time></trkpt><trkpt lat="44.2716676" lon="8.401521"><ele>301.0</ele><time>2026-04-26T07:19:05.636Z</time></trkpt><trkpt lat="44.2716348" lon="8.4015988"><ele>301.0</ele><time>2026-04-26T07:19:06.636Z</time></trkpt><trkpt lat="44.2715491" lon="8.4016727"><ele>301.0</ele><time>2026-04-26T07:19:08.636Z</time></trkpt><trkpt lat="44.2714794" lon="8.4016777"><ele>301.0</ele><time>2026-04-26T07:19:09.636Z</time></trkpt><trkpt lat="44.2713859" lon="8.4016707"><ele>301.0</ele><time>2026-04-26T07:19:10.636Z</time></trkpt><trkpt lat="44.271279" lon="8.4016638"><ele>301.0</ele><time>2026-04-26T07:19:11.636Z</time></trkpt><trkpt lat="44.2711708" lon="8.4016606"><ele>302.40000000000003</ele><time>2026-04-26T07:19:12.636Z</time></trkpt><trkpt lat="44.2710594" lon="8.4016813"><ele>303.8</ele><time>2026-04-26T07:19:13.636Z</time></trkpt><trkpt lat="44.270947" lon="8.4017125"><ele>305.20000000000005</ele><time>2026-04-26T07:19:14.636Z</time></trkpt><trkpt lat="44.2708353" lon="8.401752"><ele>306.6</ele><time>2026-04-26T07:19:15.636Z</time></trkpt><trkpt lat="44.2707327" lon="8.4017949"><ele>308.0</ele><time>2026-04-26T07:19:16.636Z</time></trkpt><trkpt lat="44.2706391" lon="8.4018361"><ele>305.6</ele><time>2026-04-26T07:19:17.636Z</time></trkpt><trkpt lat="44.27056" lon="8.4018741"><ele>303.20000000000005</ele><time>2026-04-26T07:19:18.636Z</time></trkpt><trkpt lat="44.270448" lon="8.4019062"><ele>300.8</ele><time>2026-04-26T07:19:20.636Z</time></trkpt><trkpt lat="44.2703722" lon="8.401845"><ele>298.40000000000003</ele><time>2026-04-26T07:19:22.636Z</time></trkpt><trkpt lat="44.2703105" lon="8.40173"><ele>296.0</ele><time>2026-04-26T07:19:24.636Z</time></trkpt><trkpt lat="44.2702865" lon="8.4016423"><ele>296.0</ele><time>2026-04-26T07:19:25.636Z</time></trkpt><trkpt lat="44.2702716" lon="8.4015431"><ele>296.0</ele><time>2026-04-26T07:19:26.636Z</time></trkpt><trkpt lat="44.2702431" lon="8.4014498"><ele>296.0</ele><time>2026-04-26T07:19:27.636Z</time></trkpt><trkpt lat="44.2701993" lon="8.4013639"><ele>296.0</ele><time>2026-04-26T07:19:28.636Z</time></trkpt><trkpt lat="44.2701407" lon="8.4012868"><ele>296.0</ele><time>2026-04-26T07:19:29.637Z</time></trkpt><trkpt lat="44.2700787" lon="8.4012218"><ele>296.0</ele><time>2026-04-26T07:19:30.636Z</time></trkpt><trkpt lat="44.2700247" lon="8.4011481"><ele>293.83333333333337</ele><time>2026-04-26T07:19:31.636Z</time></trkpt><trkpt lat="44.2699708" lon="8.4010641"><ele>291.6666666666667</ele><time>2026-04-26T07:19:32.636Z</time></trkpt><trkpt lat="44.2699292" lon="8.4009878"><ele>289.5</ele><time>2026-04-26T07:19:33.636Z</time></trkpt><trkpt lat="44.2698673" lon="8.4008488"><ele>287.3333333333333</ele><time>2026-04-26T07:19:35.636Z</time></trkpt><trkpt lat="44.2698499" lon="8.4007599"><ele>285.16666666666663</ele><time>2026-04-26T07:19:37.636Z</time></trkpt><trkpt lat="44.2698128" lon="8.4006731"><ele>283.0</ele><time>2026-04-26T07:21:46.637Z</time></trkpt><trkpt lat="44.2697487" lon="8.4005418"><ele>283.0</ele><time>2026-04-26T07:21:48.636Z</time></trkpt><trkpt lat="44.2697066" lon="8.4004615"><ele>283.0</ele><time>2026-04-26T07:21:49.636Z</time></trkpt><trkpt lat="44.2696225" lon="8.4003408"><ele>283.0</ele><time>2026-04-26T07:21:51.637Z</time></trkpt><trkpt lat="44.2695346" lon="8.4002698"><ele>283.0</ele><time>2026-04-26T07:21:53.636Z</time></trkpt><trkpt lat="44.2694874" lon="8.4002102"><ele>283.0</ele><time>2026-04-26T07:21:55.636Z</time></trkpt><trkpt lat="44.2694499" lon="8.4001257"><ele>283.0</ele><time>2026-04-26T07:21:57.636Z</time></trkpt><trkpt lat="44.2694348" lon="8.4000128"><ele>283.0</ele><time>2026-04-26T07:21:59.636Z</time></trkpt><trkpt lat="44.2694515" lon="8.39982"><ele>283.0</ele><time>2026-04-26T07:22:01.636Z</time></trkpt><trkpt lat="44.2694686" lon="8.3996998"><ele>283.0</ele><time>2026-04-26T07:22:02.636Z</time></trkpt><trkpt lat="44.2694831" lon="8.399582"><ele>283.0</ele><time>2026-04-26T07:22:03.636Z</time></trkpt><trkpt lat="44.2694971" lon="8.399478"><ele>283.0</ele><time>2026-04-26T07:22:04.636Z</time></trkpt><trkpt lat="44.2695148" lon="8.3993834"><ele>283.0</ele><time>2026-04-26T07:22:05.636Z</time></trkpt><trkpt lat="44.2695521" lon="8.3992264"><ele>283.0</ele><time>2026-04-26T07:22:07.636Z</time></trkpt><trkpt lat="44.2696218" lon="8.3989757"><ele>283.0</ele><time>2026-04-26T07:22:10.636Z</time></trkpt><trkpt lat="44.2696401" lon="8.3988764"><ele>283.0</ele><time>2026-04-26T07:22:11.636Z</time></trkpt><trkpt lat="44.2696586" lon="8.3987771"><ele>285.0</ele><time>2026-04-26T07:22:12.636Z</time></trkpt><trkpt lat="44.2696688" lon="8.3986739"><ele>287.0</ele><time>2026-04-26T07:22:13.636Z</time></trkpt><trkpt lat="44.2696756" lon="8.3985735"><ele>289.0</ele><time>2026-04-26T07:22:14.637Z</time></trkpt><trkpt lat="44.2696821" lon="8.3984792"><ele>291.0</ele><time>2026-04-26T07:22:15.636Z</time></trkpt><trkpt lat="44.2697416" lon="8.3983208"><ele>293.0</ele><time>2026-04-26T07:22:17.636Z</time></trkpt><trkpt lat="44.2697867" lon="8.3982408"><ele>295.0</ele><time>2026-04-26T07:22:18.636Z</time></trkpt><trkpt lat="44.2698284" lon="8.3981702"><ele>299.5</ele><time>2026-04-26T07:22:19.636Z</time></trkpt><trkpt lat="44.2698881" lon="8.3980778"><ele>304.0</ele><time>2026-04-26T07:22:21.636Z</time></trkpt><trkpt lat="44.269884" lon="8.3979743"><ele>308.5</ele><time>2026-04-26T07:22:23.636Z</time></trkpt><trkpt lat="44.2698266" lon="8.3978921"><ele>313.0</ele><time>2026-04-26T07:22:25.636Z</time></trkpt><trkpt lat="44.269733" lon="8.3978792"><ele>317.5</ele><time>2026-04-26T07:22:27.636Z</time></trkpt><trkpt lat="44.2696394" lon="8.3978772"><ele>322.0</ele><time>2026-04-26T07:22:29.636Z</time></trkpt><trkpt lat="44.2695562" lon="8.3978695"><ele>322.20000000000005</ele><time>2026-04-26T07:22:31.636Z</time></trkpt><trkpt lat="44.2694737" lon="8.397882"><ele>322.4</ele><time>2026-04-26T07:22:33.636Z</time></trkpt><trkpt lat="44.2693932" lon="8.3979235"><ele>322.6</ele><time>2026-04-26T07:22:50.637Z</time></trkpt><trkpt lat="44.2693089" lon="8.3979462"><ele>322.79999999999995</ele><time>2026-04-26T07:22:52.636Z</time></trkpt><trkpt lat="44.2692088" lon="8.3979147"><ele>323.0</ele><time>2026-04-26T07:22:54.636Z</time></trkpt><trkpt lat="44.2691009" lon="8.3978608"><ele>323.00000000000006</ele><time>2026-04-26T07:22:56.636Z</time></trkpt><trkpt lat="44.2690383" lon="8.3978504"><ele>323.0</ele><time>2026-04-26T07:22:57.636Z</time></trkpt><trkpt lat="44.2689743" lon="8.3978512"><ele>323.0</ele><time>2026-04-26T07:22:58.636Z</time></trkpt><trkpt lat="44.2689057" lon="8.3978506"><ele>323.0</ele><time>2026-04-26T07:22:59.636Z</time></trkpt><trkpt lat="44.2688395" lon="8.397851"><ele>323.0</ele><time>2026-04-26T07:23:00.636Z</time></trkpt><trkpt lat="44.2687761" lon="8.3978435"><ele>323.00000000000006</ele><time>2026-04-26T07:23:01.636Z</time></trkpt><trkpt lat="44.2686676" lon="8.3977766"><ele>323.0</ele><time>2026-04-26T07:23:03.636Z</time></trkpt><trkpt lat="44.2685927" lon="8.3976826"><ele>322.79999999999995</ele><time>2026-04-26T07:23:05.636Z</time></trkpt><trkpt lat="44.2685015" lon="8.3975898"><ele>322.6</ele><time>2026-04-26T07:23:07.636Z</time></trkpt><trkpt lat="44.2683959" lon="8.3975378"><ele>322.4</ele><time>2026-04-26T07:23:09.636Z</time></trkpt><trkpt lat="44.2682742" lon="8.397562"><ele>322.20000000000005</ele><time>2026-04-26T07:23:11.636Z</time></trkpt><trkpt lat="44.268204" lon="8.3975969"><ele>322.0</ele><time>2026-04-26T07:23:12.636Z</time></trkpt><trkpt lat="44.2681426" lon="8.3976418"><ele>319.0</ele><time>2026-04-26T07:23:13.636Z</time></trkpt><trkpt lat="44.268082" lon="8.3976854"><ele>316.0</ele><time>2026-04-26T07:23:14.636Z</time></trkpt><trkpt lat="44.267961" lon="8.3977385"><ele>313.0</ele><time>2026-04-26T07:23:16.636Z</time></trkpt><trkpt lat="44.2678496" lon="8.3977304"><ele>310.0</ele><time>2026-04-26T07:23:18.636Z</time></trkpt><trkpt lat="44.2677684" lon="8.3976459"><ele>307.0</ele><time>2026-04-26T07:23:20.636Z</time></trkpt><trkpt lat="44.2677433" lon="8.397514"><ele>307.0</ele><time>2026-04-26T07:23:22.636Z</time></trkpt><trkpt lat="44.2677737" lon="8.3973853"><ele>307.0</ele><time>2026-04-26T07:23:24.636Z</time></trkpt><trkpt lat="44.267774" lon="8.3972582"><ele>307.0</ele><time>2026-04-26T07:23:26.636Z</time></trkpt><trkpt lat="44.2677052" lon="8.397157"><ele>307.0</ele><time>2026-04-26T07:23:28.636Z</time></trkpt><trkpt lat="44.2676439" lon="8.3971289"><ele>307.0</ele><time>2026-04-26T07:23:29.636Z</time></trkpt><trkpt lat="44.2675739" lon="8.3971128"><ele>307.0</ele><time>2026-04-26T07:23:30.636Z</time></trkpt><trkpt lat="44.2675052" lon="8.3971051"><ele>310.0</ele><time>2026-04-26T07:23:31.636Z</time></trkpt><trkpt lat="44.2674164" lon="8.3970396"><ele>313.0</ele><time>2026-04-26T07:23:33.636Z</time></trkpt><trkpt lat="44.2673998" lon="8.3969176"><ele>316.0</ele><time>2026-04-26T07:23:35.636Z</time></trkpt><trkpt lat="44.2674147" lon="8.3967702"><ele>319.0</ele><time>2026-04-26T07:23:37.636Z</time></trkpt><trkpt lat="44.2674422" lon="8.3966096"><ele>322.0</ele><time>2026-04-26T07:23:39.636Z</time></trkpt><trkpt lat="44.2674581" lon="8.3965196"><ele>322.0</ele><time>2026-04-26T07:23:40.636Z</time></trkpt><trkpt lat="44.2674747" lon="8.3964161"><ele>322.0</ele><time>2026-04-26T07:23:41.637Z</time></trkpt><trkpt lat="44.2675003" lon="8.3963091"><ele>322.0</ele><time>2026-04-26T07:23:42.636Z</time></trkpt><trkpt lat="44.2675274" lon="8.3962083"><ele>322.0</ele><time>2026-04-26T07:23:43.636Z</time></trkpt><trkpt lat="44.2675501" lon="8.3961189"><ele>322.0</ele><time>2026-04-26T07:23:44.636Z</time></trkpt><trkpt lat="44.2675716" lon="8.3960289"><ele>322.0</ele><time>2026-04-26T07:23:45.636Z</time></trkpt><trkpt lat="44.2676145" lon="8.3958714"><ele>322.40000000000003</ele><time>2026-04-26T07:23:47.636Z</time></trkpt><trkpt lat="44.267626" lon="8.395722"><ele>322.8</ele><time>2026-04-26T07:23:49.636Z</time></trkpt><trkpt lat="44.2676066" lon="8.3955496"><ele>323.2</ele><time>2026-04-26T07:23:51.636Z</time></trkpt><trkpt lat="44.2675982" lon="8.3954469"><ele>323.6</ele><time>2026-04-26T07:23:52.636Z</time></trkpt><trkpt lat="44.2675915" lon="8.3953443"><ele>324.0</ele><time>2026-04-26T07:23:53.637Z</time></trkpt><trkpt lat="44.2675818" lon="8.3952419"><ele>324.3333333333333</ele><time>2026-04-26T07:23:54.636Z</time></trkpt><trkpt lat="44.2675764" lon="8.3951408"><ele>324.6666666666667</ele><time>2026-04-26T07:23:55.636Z</time></trkpt><trkpt lat="44.2675696" lon="8.3950363"><ele>325.0</ele><time>2026-04-26T07:23:56.636Z</time></trkpt><trkpt lat="44.2675633" lon="8.3949425"><ele>325.33333333333337</ele><time>2026-04-26T07:23:57.636Z</time></trkpt><trkpt lat="44.267558" lon="8.3948452"><ele>325.6666666666667</ele><time>2026-04-26T07:23:58.636Z</time></trkpt><trkpt lat="44.267553" lon="8.3947537"><ele>326.0</ele><time>2026-04-26T07:23:59.636Z</time></trkpt><trkpt lat="44.2675571" lon="8.3945849"><ele>326.33333333333337</ele><time>2026-04-26T07:24:01.636Z</time></trkpt><trkpt lat="44.2675632" lon="8.3944477"><ele>326.6666666666667</ele><time>2026-04-26T07:24:03.636Z</time></trkpt><trkpt lat="44.2675585" lon="8.3943355"><ele>327.0</ele><time>2026-04-26T07:24:05.636Z</time></trkpt><trkpt lat="44.2675799" lon="8.3942044"><ele>327.3333333333333</ele><time>2026-04-26T07:24:16.636Z</time></trkpt><trkpt lat="44.267611" lon="8.3941005"><ele>327.66666666666663</ele><time>2026-04-26T07:24:18.636Z</time></trkpt><trkpt lat="44.2676419" lon="8.3940096"><ele>328.0</ele><time>2026-04-26T07:24:20.637Z</time></trkpt><trkpt lat="44.2676576" lon="8.3939146"><ele>328.4</ele><time>2026-04-26T07:24:22.636Z</time></trkpt><trkpt lat="44.2676389" lon="8.3938104"><ele>328.79999999999995</ele><time>2026-04-26T07:24:25.636Z</time></trkpt><trkpt lat="44.2675669" lon="8.3937404"><ele>329.2</ele><time>2026-04-26T07:24:28.636Z</time></trkpt><trkpt lat="44.2674843" lon="8.3937193"><ele>329.6</ele><time>2026-04-26T07:24:30.636Z</time></trkpt><trkpt lat="44.2673729" lon="8.3937225"><ele>330.0</ele><time>2026-04-26T07:24:32.636Z</time></trkpt><trkpt lat="44.2672338" lon="8.39368"><ele>330.0</ele><time>2026-04-26T07:24:34.636Z</time></trkpt><trkpt lat="44.2671616" lon="8.3936706"><ele>330.0</ele><time>2026-04-26T07:24:35.636Z</time></trkpt><trkpt lat="44.2670207" lon="8.3937193"><ele>330.0</ele><time>2026-04-26T07:24:37.636Z</time></trkpt><trkpt lat="44.2669531" lon="8.3937551"><ele>330.0</ele><time>2026-04-26T07:24:38.637Z</time></trkpt><trkpt lat="44.2668878" lon="8.3937868"><ele>330.0</ele><time>2026-04-26T07:24:39.636Z</time></trkpt><trkpt lat="44.2667905" lon="8.3937548"><ele>330.0</ele><time>2026-04-26T07:24:41.636Z</time></trkpt><trkpt lat="44.2667191" lon="8.3936408"><ele>330.0</ele><time>2026-04-26T07:24:43.636Z</time></trkpt><trkpt lat="44.2666714" lon="8.3935106"><ele>330.0</ele><time>2026-04-26T07:24:45.636Z</time></trkpt><trkpt lat="44.2666219" lon="8.3934267"><ele>330.0</ele><time>2026-04-26T07:24:47.636Z</time></trkpt><trkpt lat="44.2665401" lon="8.3933788"><ele>330.0</ele><time>2026-04-26T07:24:50.636Z</time></trkpt><trkpt lat="44.2664442" lon="8.3933429"><ele>326.6</ele><time>2026-04-26T07:24:52.637Z</time></trkpt><trkpt lat="44.2663367" lon="8.3933268"><ele>323.2</ele><time>2026-04-26T07:24:54.636Z</time></trkpt><trkpt lat="44.2662374" lon="8.3933111"><ele>319.8</ele><time>2026-04-26T07:24:56.636Z</time></trkpt><trkpt lat="44.2661588" lon="8.393194"><ele>316.4</ele><time>2026-04-26T07:24:59.636Z</time></trkpt><trkpt lat="44.2661682" lon="8.3930412"><ele>313.0</ele><time>2026-04-26T07:25:01.636Z</time></trkpt><trkpt lat="44.2661827" lon="8.3929443"><ele>313.0</ele><time>2026-04-26T07:25:02.636Z</time></trkpt><trkpt lat="44.2662041" lon="8.392754"><ele>313.0</ele><time>2026-04-26T07:25:04.636Z</time></trkpt><trkpt lat="44.2662266" lon="8.3926583"><ele>313.0</ele><time>2026-04-26T07:25:05.636Z</time></trkpt><trkpt lat="44.2662569" lon="8.3925575"><ele>313.0</ele><time>2026-04-26T07:25:06.636Z</time></trkpt><trkpt lat="44.2663055" lon="8.3923503"><ele>313.0</ele><time>2026-04-26T07:25:08.636Z</time></trkpt><trkpt lat="44.2663078" lon="8.3922416"><ele>312.4</ele><time>2026-04-26T07:25:09.636Z</time></trkpt><trkpt lat="44.2663173" lon="8.3920125"><ele>311.8</ele><time>2026-04-26T07:25:11.636Z</time></trkpt><trkpt lat="44.2663314" lon="8.3919014"><ele>311.2</ele><time>2026-04-26T07:25:12.636Z</time></trkpt><trkpt lat="44.2663482" lon="8.3917949"><ele>310.6</ele><time>2026-04-26T07:25:13.637Z</time></trkpt><trkpt lat="44.266374" lon="8.3917022"><ele>310.0</ele><time>2026-04-26T07:25:14.636Z</time></trkpt><trkpt lat="44.2664182" lon="8.3916151"><ele>316.0</ele><time>2026-04-26T07:25:15.636Z</time></trkpt><trkpt lat="44.2665259" lon="8.3914425"><ele>322.0</ele><time>2026-04-26T07:25:17.636Z</time></trkpt><trkpt lat="44.2665788" lon="8.3913557"><ele>328.0</ele><time>2026-04-26T07:25:18.636Z</time></trkpt><trkpt lat="44.2666798" lon="8.3911925"><ele>334.0</ele><time>2026-04-26T07:25:20.637Z</time></trkpt><trkpt lat="44.2667323" lon="8.3911099"><ele>334.0</ele><time>2026-04-26T07:25:21.636Z</time></trkpt><trkpt lat="44.2667787" lon="8.3910345"><ele>334.0</ele><time>2026-04-26T07:25:22.636Z</time></trkpt><trkpt lat="44.266823" lon="8.3909586"><ele>334.0</ele><time>2026-04-26T07:25:23.637Z</time></trkpt><trkpt lat="44.2669003" lon="8.3907698"><ele>334.0</ele><time>2026-04-26T07:25:25.636Z</time></trkpt><trkpt lat="44.2669754" lon="8.3906014"><ele>334.0</ele><time>2026-04-26T07:25:27.636Z</time></trkpt><trkpt lat="44.2670358" lon="8.3905326"><ele>330.66666666666663</ele><time>2026-04-26T07:25:28.636Z</time></trkpt><trkpt lat="44.2671421" lon="8.3903607"><ele>327.3333333333333</ele><time>2026-04-26T07:25:30.636Z</time></trkpt><trkpt lat="44.2672444" lon="8.3901709"><ele>324.0</ele><time>2026-04-26T07:25:32.637Z</time></trkpt><trkpt lat="44.2673144" lon="8.389994"><ele>330.8333333333333</ele><time>2026-04-26T07:25:34.636Z</time></trkpt><trkpt lat="44.2673509" lon="8.3899155"><ele>337.6666666666667</ele><time>2026-04-26T07:25:35.636Z</time></trkpt><trkpt lat="44.2673998" lon="8.3898582"><ele>344.5</ele><time>2026-04-26T07:25:36.636Z</time></trkpt><trkpt lat="44.2674969" lon="8.3897826"><ele>351.33333333333337</ele><time>2026-04-26T07:25:38.636Z</time></trkpt><trkpt lat="44.2675594" lon="8.3896673"><ele>358.1666666666667</ele><time>2026-04-26T07:25:40.636Z</time></trkpt><trkpt lat="44.2675947" lon="8.3895358"><ele>365.0</ele><time>2026-04-26T07:25:42.636Z</time></trkpt><trkpt lat="44.2675968" lon="8.3894417"><ele>365.1666666666667</ele><time>2026-04-26T07:25:44.636Z</time></trkpt><trkpt lat="44.2675551" lon="8.3893715"><ele>365.33333333333337</ele><time>2026-04-26T07:25:46.636Z</time></trkpt><trkpt lat="44.2674468" lon="8.3892799"><ele>365.5</ele><time>2026-04-26T07:25:48.636Z</time></trkpt><trkpt lat="44.2673908" lon="8.3892343"><ele>365.6666666666667</ele><time>2026-04-26T07:25:49.637Z</time></trkpt><trkpt lat="44.2673121" lon="8.3891478"><ele>365.8333333333333</ele><time>2026-04-26T07:25:51.636Z</time></trkpt><trkpt lat="44.2672844" lon="8.3890267"><ele>366.0</ele><time>2026-04-26T07:25:53.636Z</time></trkpt><trkpt lat="44.2672899" lon="8.3888834"><ele>363.4</ele><time>2026-04-26T07:25:55.636Z</time></trkpt><trkpt lat="44.2672783" lon="8.3887195"><ele>360.8</ele><time>2026-04-26T07:25:57.636Z</time></trkpt><trkpt lat="44.2672623" lon="8.3886338"><ele>358.2</ele><time>2026-04-26T07:25:58.636Z</time></trkpt><trkpt lat="44.2672294" lon="8.388556"><ele>355.59999999999997</ele><time>2026-04-26T07:25:59.637Z</time></trkpt><trkpt lat="44.2671846" lon="8.3884764"><ele>353.0</ele><time>2026-04-26T07:26:00.636Z</time></trkpt><trkpt lat="44.2670897" lon="8.3883215"><ele>353.0</ele><time>2026-04-26T07:26:02.636Z</time></trkpt><trkpt lat="44.2669989" lon="8.3882047"><ele>353.0</ele><time>2026-04-26T07:26:04.636Z</time></trkpt><trkpt lat="44.2669268" lon="8.3880778"><ele>353.0</ele><time>2026-04-26T07:26:06.636Z</time></trkpt><trkpt lat="44.266857" lon="8.3879461"><ele>353.0</ele><time>2026-04-26T07:26:08.637Z</time></trkpt><trkpt lat="44.26682" lon="8.3878693"><ele>353.0</ele><time>2026-04-26T07:26:09.636Z</time></trkpt><trkpt lat="44.266782" lon="8.3877921"><ele>355.5</ele><time>2026-04-26T07:26:10.636Z</time></trkpt><trkpt lat="44.266751" lon="8.3877012"><ele>358.0</ele><time>2026-04-26T07:26:11.636Z</time></trkpt><trkpt lat="44.2667181" lon="8.3876055"><ele>360.5</ele><time>2026-04-26T07:26:12.636Z</time></trkpt><trkpt lat="44.2666834" lon="8.3875111"><ele>363.0</ele><time>2026-04-26T07:26:13.636Z</time></trkpt><trkpt lat="44.2666498" lon="8.387413"><ele>365.5</ele><time>2026-04-26T07:26:14.636Z</time></trkpt><trkpt lat="44.2666176" lon="8.387312"><ele>368.0</ele><time>2026-04-26T07:26:15.636Z</time></trkpt><trkpt lat="44.2665766" lon="8.3872102"><ele>370.0</ele><time>2026-04-26T07:26:16.636Z</time></trkpt><trkpt lat="44.2664987" lon="8.387009"><ele>372.0</ele><time>2026-04-26T07:26:18.636Z</time></trkpt><trkpt lat="44.2664674" lon="8.3869183"><ele>374.0</ele><time>2026-04-26T07:26:19.636Z</time></trkpt><trkpt lat="44.2664456" lon="8.3868308"><ele>376.0</ele><time>2026-04-26T07:26:20.636Z</time></trkpt><trkpt lat="44.2664306" lon="8.3866517"><ele>378.0</ele><time>2026-04-26T07:26:22.636Z</time></trkpt><trkpt lat="44.2664146" lon="8.3864367"><ele>379.4</ele><time>2026-04-26T07:26:24.636Z</time></trkpt><trkpt lat="44.2663973" lon="8.3863346"><ele>380.79999999999995</ele><time>2026-04-26T07:26:25.636Z</time></trkpt><trkpt lat="44.2663885" lon="8.3862311"><ele>382.2</ele><time>2026-04-26T07:26:26.636Z</time></trkpt><trkpt lat="44.2663872" lon="8.3860387"><ele>383.6</ele><time>2026-04-26T07:26:28.636Z</time></trkpt><trkpt lat="44.2664052" lon="8.3858815"><ele>385.0</ele><time>2026-04-26T07:26:30.636Z</time></trkpt><trkpt lat="44.2664499" lon="8.3857425"><ele>385.0</ele><time>2026-04-26T07:26:32.636Z</time></trkpt><trkpt lat="44.2665381" lon="8.3856436"><ele>385.0</ele><time>2026-04-26T07:26:34.636Z</time></trkpt><trkpt lat="44.2666435" lon="8.3855703"><ele>385.0</ele><time>2026-04-26T07:26:36.636Z</time></trkpt><trkpt lat="44.2667481" lon="8.3855369"><ele>385.0</ele><time>2026-04-26T07:26:38.637Z</time></trkpt><trkpt lat="44.2668318" lon="8.385508"><ele>385.0</ele><time>2026-04-26T07:26:40.637Z</time></trkpt><trkpt lat="44.2668868" lon="8.3854366"><ele>386.1666666666667</ele><time>2026-04-26T07:26:43.636Z</time></trkpt><trkpt lat="44.2669406" lon="8.3853316"><ele>387.33333333333337</ele><time>2026-04-26T07:26:49.637Z</time></trkpt><trkpt lat="44.2669564" lon="8.3852081"><ele>388.5</ele><time>2026-04-26T07:26:51.636Z</time></trkpt><trkpt lat="44.2669077" lon="8.3850899"><ele>389.66666666666663</ele><time>2026-04-26T07:26:54.636Z</time></trkpt><trkpt lat="44.2668559" lon="8.3850141"><ele>390.8333333333333</ele><time>2026-04-26T07:26:56.636Z</time></trkpt><trkpt lat="44.266797" lon="8.3849242"><ele>392.0</ele><time>2026-04-26T07:26:58.636Z</time></trkpt><trkpt lat="44.266731" lon="8.3848017"><ele>396.0</ele><time>2026-04-26T07:27:00.636Z</time></trkpt><trkpt lat="44.2666508" lon="8.3846662"><ele>400.0</ele><time>2026-04-26T07:27:02.636Z</time></trkpt><trkpt lat="44.2665606" lon="8.3845168"><ele>404.0</ele><time>2026-04-26T07:27:04.636Z</time></trkpt><trkpt lat="44.2664872" lon="8.3843564"><ele>408.0</ele><time>2026-04-26T07:27:06.636Z</time></trkpt><trkpt lat="44.2664792" lon="8.384204"><ele>408.0</ele><time>2026-04-26T07:27:08.636Z</time></trkpt><trkpt lat="44.2665012" lon="8.3840868"><ele>408.0</ele><time>2026-04-26T07:27:10.636Z</time></trkpt><trkpt lat="44.2665754" lon="8.3839701"><ele>408.0</ele><time>2026-04-26T07:27:12.636Z</time></trkpt><trkpt lat="44.2666431" lon="8.3838601"><ele>408.0</ele><time>2026-04-26T07:27:14.636Z</time></trkpt><trkpt lat="44.266665" lon="8.3837186"><ele>408.0</ele><time>2026-04-26T07:27:16.636Z</time></trkpt><trkpt lat="44.2666153" lon="8.383573"><ele>404.75</ele><time>2026-04-26T07:27:18.637Z</time></trkpt><trkpt lat="44.2665015" lon="8.3835009"><ele>401.5</ele><time>2026-04-26T07:27:20.636Z</time></trkpt><trkpt lat="44.2664121" lon="8.3834187"><ele>398.25</ele><time>2026-04-26T07:27:22.636Z</time></trkpt><trkpt lat="44.2663611" lon="8.3832895"><ele>395.0</ele><time>2026-04-26T07:27:24.636Z</time></trkpt><trkpt lat="44.266288" lon="8.3831287"><ele>395.0</ele><time>2026-04-26T07:27:26.636Z</time></trkpt><trkpt lat="44.2662413" lon="8.3830514"><ele>395.0</ele><time>2026-04-26T07:27:27.636Z</time></trkpt><trkpt lat="44.2661956" lon="8.382971"><ele>395.0</ele><time>2026-04-26T07:27:28.636Z</time></trkpt><trkpt lat="44.2661454" lon="8.382899"><ele>395.0</ele><time>2026-04-26T07:27:29.636Z</time></trkpt><trkpt lat="44.266054" lon="8.382732"><ele>395.0</ele><time>2026-04-26T07:27:31.637Z</time></trkpt><trkpt lat="44.2660055" lon="8.3825972"><ele>399.16666666666663</ele><time>2026-04-26T07:27:33.636Z</time></trkpt><trkpt lat="44.2660111" lon="8.382449"><ele>403.3333333333333</ele><time>2026-04-26T07:27:35.637Z</time></trkpt><trkpt lat="44.2660308" lon="8.3823592"><ele>407.5</ele><time>2026-04-26T07:27:36.636Z</time></trkpt><trkpt lat="44.2660532" lon="8.3822627"><ele>411.66666666666663</ele><time>2026-04-26T07:27:37.636Z</time></trkpt><trkpt lat="44.2660722" lon="8.382152"><ele>415.8333333333333</ele><time>2026-04-26T07:27:38.636Z</time></trkpt><trkpt lat="44.2660902" lon="8.3820383"><ele>420.0</ele><time>2026-04-26T07:27:39.636Z</time></trkpt><trkpt lat="44.2660807" lon="8.3818377"><ele>425.5</ele><time>2026-04-26T07:27:42.636Z</time></trkpt><trkpt lat="44.2660122" lon="8.3817669"><ele>431.0</ele><time>2026-04-26T07:27:44.636Z</time></trkpt><trkpt lat="44.2658856" lon="8.3817472"><ele>436.5</ele><time>2026-04-26T07:27:46.636Z</time></trkpt><trkpt lat="44.2657499" lon="8.3816683"><ele>442.0</ele><time>2026-04-26T07:27:48.636Z</time></trkpt><trkpt lat="44.265627" lon="8.3816128"><ele>440.8</ele><time>2026-04-26T07:27:50.636Z</time></trkpt><trkpt lat="44.2654904" lon="8.3816535"><ele>439.6</ele><time>2026-04-26T07:27:52.636Z</time></trkpt><trkpt lat="44.2654269" lon="8.381685"><ele>438.40000000000003</ele><time>2026-04-26T07:27:53.637Z</time></trkpt><trkpt lat="44.2653282" lon="8.3817163"><ele>437.20000000000005</ele><time>2026-04-26T07:27:55.636Z</time></trkpt><trkpt lat="44.2652557" lon="8.3816636"><ele>436.0</ele><time>2026-04-26T07:27:57.636Z</time></trkpt><trkpt lat="44.2651933" lon="8.381524"><ele>436.00000000000006</ele><time>2026-04-26T07:27:59.636Z</time></trkpt><trkpt lat="44.2651738" lon="8.3814401"><ele>436.0</ele><time>2026-04-26T07:28:00.636Z</time></trkpt><trkpt lat="44.2651661" lon="8.3812777"><ele>436.0</ele><time>2026-04-26T07:28:02.637Z</time></trkpt><trkpt lat="44.2651508" lon="8.3811505"><ele>436.0</ele><time>2026-04-26T07:28:05.636Z</time></trkpt><trkpt lat="44.2651834" lon="8.381052"><ele>436.00000000000006</ele><time>2026-04-26T07:28:13.636Z</time></trkpt><trkpt lat="44.2652557" lon="8.3810733"><ele>436.0</ele><time>2026-04-26T07:28:15.636Z</time></trkpt><trkpt lat="44.2653611" lon="8.3811338"><ele>440.33333333333337</ele><time>2026-04-26T07:28:17.636Z</time></trkpt><trkpt lat="44.2654792" lon="8.3811983"><ele>444.66666666666663</ele><time>2026-04-26T07:28:19.636Z</time></trkpt><trkpt lat="44.26563" lon="8.3811265"><ele>449.0</ele><time>2026-04-26T07:28:22.636Z</time></trkpt><trkpt lat="44.2655842" lon="8.3808713"><ele>449.0</ele><time>2026-04-26T07:28:25.636Z</time></trkpt><trkpt lat="44.2655248" lon="8.3807484"><ele>449.0</ele><time>2026-04-26T07:28:26.636Z</time></trkpt><trkpt lat="44.2654058" lon="8.3804697"><ele>449.0</ele><time>2026-04-26T07:28:28.637Z</time></trkpt><trkpt lat="44.2653461" lon="8.3803172"><ele>453.5</ele><time>2026-04-26T07:28:29.636Z</time></trkpt><trkpt lat="44.2652805" lon="8.3801609"><ele>458.0</ele><time>2026-04-26T07:28:30.636Z</time></trkpt><trkpt lat="44.2651992" lon="8.3800139"><ele>462.5</ele><time>2026-04-26T07:28:31.636Z</time></trkpt><trkpt lat="44.2651187" lon="8.3798606"><ele>467.0</ele><time>2026-04-26T07:28:32.636Z</time></trkpt><trkpt lat="44.265045" lon="8.3797116"><ele>470.0</ele><time>2026-04-26T07:28:33.636Z</time></trkpt><trkpt lat="44.2649846" lon="8.379563"><ele>473.0</ele><time>2026-04-26T07:28:34.636Z</time></trkpt><trkpt lat="44.2649352" lon="8.3794189"><ele>476.0</ele><time>2026-04-26T07:28:35.636Z</time></trkpt><trkpt lat="44.2648609" lon="8.3791599"><ele>479.0</ele><time>2026-04-26T07:28:37.636Z</time></trkpt><trkpt lat="44.2648181" lon="8.3790463"><ele>473.4</ele><time>2026-04-26T07:28:38.636Z</time></trkpt><trkpt lat="44.264776" lon="8.378934"><ele>467.79999999999995</ele><time>2026-04-26T07:28:39.636Z</time></trkpt><trkpt lat="44.2647526" lon="8.3788028"><ele>462.20000000000005</ele><time>2026-04-26T07:28:40.636Z</time></trkpt><trkpt lat="44.2647384" lon="8.3786482"><ele>456.6</ele><time>2026-04-26T07:28:41.636Z</time></trkpt><trkpt lat="44.2647261" lon="8.3784804"><ele>451.0</ele><time>2026-04-26T07:28:42.637Z</time></trkpt><trkpt lat="44.2647153" lon="8.3783126"><ele>451.0</ele><time>2026-04-26T07:28:43.636Z</time></trkpt><trkpt lat="44.2647076" lon="8.3781428"><ele>451.0</ele><time>2026-04-26T07:28:44.637Z</time></trkpt><trkpt lat="44.2647077" lon="8.3779693"><ele>451.0</ele><time>2026-04-26T07:28:45.636Z</time></trkpt><trkpt lat="44.2647005" lon="8.3777922"><ele>451.0</ele><time>2026-04-26T07:28:46.636Z</time></trkpt><trkpt lat="44.264683" lon="8.3776246"><ele>453.8</ele><time>2026-04-26T07:28:47.636Z</time></trkpt><trkpt lat="44.2646574" lon="8.3774666"><ele>456.6</ele><time>2026-04-26T07:28:48.636Z</time></trkpt><trkpt lat="44.2646233" lon="8.3773193"><ele>459.4</ele><time>2026-04-26T07:28:49.636Z</time></trkpt><trkpt lat="44.2645875" lon="8.377175"><ele>462.2</ele><time>2026-04-26T07:28:50.636Z</time></trkpt><trkpt lat="44.264557" lon="8.3770371"><ele>465.0</ele><time>2026-04-26T07:28:51.636Z</time></trkpt><trkpt lat="44.2645367" lon="8.3769083"><ele>469.6</ele><time>2026-04-26T07:28:52.636Z</time></trkpt><trkpt lat="44.2645183" lon="8.37679"><ele>474.2</ele><time>2026-04-26T07:28:53.637Z</time></trkpt><trkpt lat="44.2644967" lon="8.3766867"><ele>478.79999999999995</ele><time>2026-04-26T07:28:54.636Z</time></trkpt><trkpt lat="44.26446" lon="8.3766083"><ele>483.4</ele><time>2026-04-26T07:28:55.636Z</time></trkpt><trkpt lat="44.2643517" lon="8.3764767"><ele>488.0</ele><time>2026-04-26T07:28:57.636Z</time></trkpt><trkpt lat="44.264195" lon="8.3763683"><ele>488.59999999999997</ele><time>2026-04-26T07:28:59.636Z</time></trkpt><trkpt lat="44.264125" lon="8.3762833"><ele>489.19999999999993</ele><time>2026-04-26T07:29:00.636Z</time></trkpt><trkpt lat="44.2640717" lon="8.3761817"><ele>489.8</ele><time>2026-04-26T07:29:01.636Z</time></trkpt><trkpt lat="44.2639433" lon="8.3760183"><ele>490.4</ele><time>2026-04-26T07:29:03.636Z</time></trkpt><trkpt lat="44.26386" lon="8.3759683"><ele>491.0</ele><time>2026-04-26T07:29:04.636Z</time></trkpt><trkpt lat="44.263775" lon="8.3759283"><ele>491.0</ele><time>2026-04-26T07:29:05.636Z</time></trkpt><trkpt lat="44.2636983" lon="8.3758933"><ele>491.0</ele><time>2026-04-26T07:29:06.636Z</time></trkpt><trkpt lat="44.2636383" lon="8.3758417"><ele>491.0</ele><time>2026-04-26T07:29:07.636Z</time></trkpt><trkpt lat="44.2635767" lon="8.375695"><ele>491.0</ele><time>2026-04-26T07:29:09.637Z</time></trkpt><trkpt lat="44.2635283" lon="8.3754917"><ele>491.0</ele><time>2026-04-26T07:29:11.636Z</time></trkpt><trkpt lat="44.26344" lon="8.37535"><ele>493.6</ele><time>2026-04-26T07:29:13.636Z</time></trkpt><trkpt lat="44.26336" lon="8.3752233"><ele>496.20000000000005</ele><time>2026-04-26T07:29:15.636Z</time></trkpt><trkpt lat="44.2633617" lon="8.375085"><ele>498.79999999999995</ele><time>2026-04-26T07:29:17.636Z</time></trkpt><trkpt lat="44.2634" lon="8.37501"><ele>501.4</ele><time>2026-04-26T07:29:18.636Z</time></trkpt><trkpt lat="44.2634517" lon="8.3749333"><ele>504.0</ele><time>2026-04-26T07:29:19.636Z</time></trkpt><trkpt lat="44.2635517" lon="8.374765"><ele>506.0</ele><time>2026-04-26T07:29:21.636Z</time></trkpt><trkpt lat="44.2636417" lon="8.3745567"><ele>508.0</ele><time>2026-04-26T07:29:23.636Z</time></trkpt><trkpt lat="44.263675" lon="8.3744633"><ele>510.0</ele><time>2026-04-26T07:29:24.636Z</time></trkpt><trkpt lat="44.2637083" lon="8.3743583"><ele>512.0</ele><time>2026-04-26T07:29:25.636Z</time></trkpt><trkpt lat="44.2637383" lon="8.3742733"><ele>514.0</ele><time>2026-04-26T07:29:26.636Z</time></trkpt><trkpt lat="44.2637647" lon="8.3741849"><ele>514.0</ele><time>2026-04-26T07:29:27.636Z</time></trkpt><trkpt lat="44.2637982" lon="8.3740971"><ele>514.0</ele><time>2026-04-26T07:29:28.636Z</time></trkpt><trkpt lat="44.2638434" lon="8.3740168"><ele>514.0</ele><time>2026-04-26T07:29:29.637Z</time></trkpt><trkpt lat="44.2638951" lon="8.3739398"><ele>514.0</ele><time>2026-04-26T07:29:30.636Z</time></trkpt><trkpt lat="44.2639438" lon="8.3738626"><ele>514.0</ele><time>2026-04-26T07:29:31.636Z</time></trkpt><trkpt lat="44.2639912" lon="8.3737796"><ele>514.0</ele><time>2026-04-26T07:29:32.636Z</time></trkpt><trkpt lat="44.2640464" lon="8.3736077"><ele>517.6666666666667</ele><time>2026-04-26T07:29:34.636Z</time></trkpt><trkpt lat="44.2640257" lon="8.3734455"><ele>521.3333333333334</ele><time>2026-04-26T07:29:36.636Z</time></trkpt><trkpt lat="44.2639928" lon="8.3732819"><ele>525.0</ele><time>2026-04-26T07:29:38.636Z</time></trkpt><trkpt lat="44.2639947" lon="8.3731911"><ele>528.6666666666666</ele><time>2026-04-26T07:29:39.636Z</time></trkpt><trkpt lat="44.264014" lon="8.373096"><ele>532.3333333333333</ele><time>2026-04-26T07:29:40.636Z</time></trkpt><trkpt lat="44.2640357" lon="8.3729985"><ele>536.0</ele><time>2026-04-26T07:29:41.636Z</time></trkpt><trkpt lat="44.2640652" lon="8.3728082"><ele>538.6</ele><time>2026-04-26T07:29:43.636Z</time></trkpt><trkpt lat="44.2640813" lon="8.3725978"><ele>541.2</ele><time>2026-04-26T07:29:45.636Z</time></trkpt><trkpt lat="44.2640842" lon="8.3724866"><ele>543.8</ele><time>2026-04-26T07:29:46.636Z</time></trkpt><trkpt lat="44.2640875" lon="8.3723796"><ele>546.4</ele><time>2026-04-26T07:29:47.636Z</time></trkpt><trkpt lat="44.2640926" lon="8.3722752"><ele>549.0</ele><time>2026-04-26T07:29:48.636Z</time></trkpt><trkpt lat="44.2640923" lon="8.3721661"><ele>551.0</ele><time>2026-04-26T07:29:49.636Z</time></trkpt><trkpt lat="44.2640887" lon="8.3720513"><ele>553.0</ele><time>2026-04-26T07:29:50.637Z</time></trkpt><trkpt lat="44.2640937" lon="8.3719338"><ele>555.0</ele><time>2026-04-26T07:29:51.636Z</time></trkpt><trkpt lat="44.264131" lon="8.3717083"><ele>557.0</ele><time>2026-04-26T07:29:53.636Z</time></trkpt><trkpt lat="44.2641677" lon="8.3715036"><ele>557.75</ele><time>2026-04-26T07:29:55.636Z</time></trkpt><trkpt lat="44.2642274" lon="8.3713086"><ele>558.5</ele><time>2026-04-26T07:29:57.636Z</time></trkpt><trkpt lat="44.264265" lon="8.3712082"><ele>559.25</ele><time>2026-04-26T07:29:58.636Z</time></trkpt><trkpt lat="44.2643289" lon="8.3709885"><ele>560.0</ele><time>2026-04-26T07:30:00.636Z</time></trkpt><trkpt lat="44.264348" lon="8.3708099"><ele>560.0</ele><time>2026-04-26T07:30:02.636Z</time></trkpt><trkpt lat="44.2643435" lon="8.370696"><ele>560.0</ele><time>2026-04-26T07:30:04.636Z</time></trkpt><trkpt lat="44.2643342" lon="8.3705919"><ele>560.0</ele><time>2026-04-26T07:30:06.636Z</time></trkpt><trkpt lat="44.2642912" lon="8.3704499"><ele>560.0</ele><time>2026-04-26T07:30:08.636Z</time></trkpt><trkpt lat="44.264186" lon="8.3702559"><ele>560.0</ele><time>2026-04-26T07:30:10.636Z</time></trkpt><trkpt lat="44.2640396" lon="8.3700507"><ele>559.25</ele><time>2026-04-26T07:30:12.636Z</time></trkpt><trkpt lat="44.2639531" lon="8.3699544"><ele>558.5</ele><time>2026-04-26T07:30:13.636Z</time></trkpt><trkpt lat="44.2638609" lon="8.3698564"><ele>557.75</ele><time>2026-04-26T07:30:14.636Z</time></trkpt><trkpt lat="44.2637672" lon="8.369755"><ele>557.0</ele><time>2026-04-26T07:30:15.636Z</time></trkpt><trkpt lat="44.2636723" lon="8.3696433"><ele>560.0</ele><time>2026-04-26T07:30:16.636Z</time></trkpt><trkpt lat="44.2635842" lon="8.3695244"><ele>563.0</ele><time>2026-04-26T07:30:17.636Z</time></trkpt><trkpt lat="44.2634979" lon="8.3693916"><ele>566.0</ele><time>2026-04-26T07:30:18.636Z</time></trkpt><trkpt lat="44.2634144" lon="8.3692636"><ele>569.0</ele><time>2026-04-26T07:30:19.636Z</time></trkpt><trkpt lat="44.263334" lon="8.3691347"><ele>569.0</ele><time>2026-04-26T07:30:20.636Z</time></trkpt><trkpt lat="44.2632547" lon="8.3690083"><ele>569.0</ele><time>2026-04-26T07:30:21.636Z</time></trkpt><trkpt lat="44.2631804" lon="8.3688788"><ele>569.0</ele><time>2026-04-26T07:30:22.636Z</time></trkpt><trkpt lat="44.2631088" lon="8.3687365"><ele>569.0</ele><time>2026-04-26T07:30:23.636Z</time></trkpt><trkpt lat="44.2630393" lon="8.3685937"><ele>569.5</ele><time>2026-04-26T07:30:24.636Z</time></trkpt><trkpt lat="44.2629701" lon="8.3684583"><ele>570.0</ele><time>2026-04-26T07:30:25.636Z</time></trkpt><trkpt lat="44.2628525" lon="8.3682081"><ele>570.5</ele><time>2026-04-26T07:30:27.636Z</time></trkpt><trkpt lat="44.2628125" lon="8.3680956"><ele>571.0</ele><time>2026-04-26T07:30:28.636Z</time></trkpt><trkpt lat="44.2627829" lon="8.3679888"><ele>572.8</ele><time>2026-04-26T07:30:29.637Z</time></trkpt><trkpt lat="44.2627586" lon="8.3677673"><ele>574.6</ele><time>2026-04-26T07:30:31.636Z</time></trkpt><trkpt lat="44.2627736" lon="8.3676457"><ele>576.4</ele><time>2026-04-26T07:30:32.636Z</time></trkpt><trkpt lat="44.2627817" lon="8.3675395"><ele>578.2</ele><time>2026-04-26T07:30:33.636Z</time></trkpt><trkpt lat="44.2627785" lon="8.3674442"><ele>580.0</ele><time>2026-04-26T07:30:34.636Z</time></trkpt><trkpt lat="44.2627493" lon="8.3673649"><ele>580.0</ele><time>2026-04-26T07:30:35.636Z</time></trkpt><trkpt lat="44.2627024" lon="8.3672917"><ele>580.0</ele><time>2026-04-26T07:30:36.636Z</time></trkpt><trkpt lat="44.2626312" lon="8.3672289"><ele>580.0</ele><time>2026-04-26T07:30:37.636Z</time></trkpt><trkpt lat="44.2624768" lon="8.3670816"><ele>580.0</ele><time>2026-04-26T07:30:39.636Z</time></trkpt><trkpt lat="44.2624035" lon="8.3670049"><ele>580.0</ele><time>2026-04-26T07:30:40.636Z</time></trkpt><trkpt lat="44.262331" lon="8.3669359"><ele>579.5</ele><time>2026-04-26T07:30:41.636Z</time></trkpt><trkpt lat="44.2622671" lon="8.3668742"><ele>579.0</ele><time>2026-04-26T07:30:42.636Z</time></trkpt><trkpt lat="44.2621568" lon="8.3667514"><ele>578.5</ele><time>2026-04-26T07:30:44.636Z</time></trkpt><trkpt lat="44.2621155" lon="8.3666795"><ele>578.0</ele><time>2026-04-26T07:30:45.636Z</time></trkpt><trkpt lat="44.2620841" lon="8.3665958"><ele>577.5</ele><time>2026-04-26T07:30:46.636Z</time></trkpt><trkpt lat="44.2620638" lon="8.3665076"><ele>577.0</ele><time>2026-04-26T07:30:47.636Z</time></trkpt><trkpt lat="44.2620558" lon="8.3662921"><ele>579.25</ele><time>2026-04-26T07:30:49.636Z</time></trkpt><trkpt lat="44.2620669" lon="8.3661628"><ele>581.5</ele><time>2026-04-26T07:30:50.636Z</time></trkpt><trkpt lat="44.2620767" lon="8.3660197"><ele>583.75</ele><time>2026-04-26T07:30:51.636Z</time></trkpt><trkpt lat="44.2620893" lon="8.3657334"><ele>586.0</ele><time>2026-04-26T07:30:53.636Z</time></trkpt><trkpt lat="44.2620944" lon="8.365602"><ele>586.75</ele><time>2026-04-26T07:30:54.637Z</time></trkpt><trkpt lat="44.262091" lon="8.3654712"><ele>587.5</ele><time>2026-04-26T07:30:55.636Z</time></trkpt><trkpt lat="44.2620685" lon="8.3651931"><ele>588.25</ele><time>2026-04-26T07:30:57.636Z</time></trkpt><trkpt lat="44.2620582" lon="8.365053"><ele>589.0</ele><time>2026-04-26T07:30:58.636Z</time></trkpt><trkpt lat="44.2620472" lon="8.3649214"><ele>589.5</ele><time>2026-04-26T07:30:59.636Z</time></trkpt><trkpt lat="44.262059" lon="8.3646494"><ele>590.0</ele><time>2026-04-26T07:31:01.637Z</time></trkpt><trkpt lat="44.2620763" lon="8.3645093"><ele>590.5</ele><time>2026-04-26T07:31:02.636Z</time></trkpt><trkpt lat="44.2620842" lon="8.3643767"><ele>591.0</ele><time>2026-04-26T07:31:03.636Z</time></trkpt><trkpt lat="44.2620683" lon="8.3640868"><ele>593.0</ele><time>2026-04-26T07:31:05.636Z</time></trkpt><trkpt lat="44.2620205" lon="8.3637975"><ele>595.0</ele><time>2026-04-26T07:31:07.636Z</time></trkpt><trkpt lat="44.26199" lon="8.3636633"><ele>597.0</ele><time>2026-04-26T07:31:08.636Z</time></trkpt><trkpt lat="44.2619483" lon="8.3635267"><ele>599.0</ele><time>2026-04-26T07:31:09.636Z</time></trkpt><trkpt lat="44.2619083" lon="8.3634"><ele>599.0</ele><time>2026-04-26T07:31:10.636Z</time></trkpt><trkpt lat="44.2618667" lon="8.36328"><ele>599.0</ele><time>2026-04-26T07:31:11.636Z</time></trkpt><trkpt lat="44.2618317" lon="8.3631767"><ele>599.0</ele><time>2026-04-26T07:31:12.636Z</time></trkpt><trkpt lat="44.261795" lon="8.3630967"><ele>599.0</ele><time>2026-04-26T07:31:13.637Z</time></trkpt><trkpt lat="44.2617533" lon="8.3629733"><ele>599.0</ele><time>2026-04-26T07:31:15.636Z</time></trkpt><trkpt lat="44.261745" lon="8.3628767"><ele>599.0</ele><time>2026-04-26T07:31:17.636Z</time></trkpt><trkpt lat="44.2617483" lon="8.36273"><ele>601.1666666666666</ele><time>2026-04-26T07:31:19.636Z</time></trkpt><trkpt lat="44.2617367" lon="8.3625717"><ele>603.3333333333333</ele><time>2026-04-26T07:31:21.637Z</time></trkpt><trkpt lat="44.2617267" lon="8.3624733"><ele>605.5</ele><time>2026-04-26T07:31:22.637Z</time></trkpt><trkpt lat="44.2617083" lon="8.3623717"><ele>607.6666666666666</ele><time>2026-04-26T07:31:23.637Z</time></trkpt><trkpt lat="44.26168" lon="8.3622717"><ele>609.8333333333334</ele><time>2026-04-26T07:31:24.636Z</time></trkpt><trkpt lat="44.26164" lon="8.362185"><ele>612.0</ele><time>2026-04-26T07:31:25.636Z</time></trkpt><trkpt lat="44.2615767" lon="8.362105"><ele>612.5</ele><time>2026-04-26T07:31:26.636Z</time></trkpt><trkpt lat="44.261525" lon="8.3620283"><ele>613.0</ele><time>2026-04-26T07:31:27.636Z</time></trkpt><trkpt lat="44.2614667" lon="8.3619383"><ele>613.5</ele><time>2026-04-26T07:31:28.636Z</time></trkpt><trkpt lat="44.2614067" lon="8.36184"><ele>614.0</ele><time>2026-04-26T07:31:29.636Z</time></trkpt><trkpt lat="44.2613433" lon="8.3617483"><ele>614.5</ele><time>2026-04-26T07:31:30.637Z</time></trkpt><trkpt lat="44.2612717" lon="8.3616733"><ele>615.0</ele><time>2026-04-26T07:31:31.636Z</time></trkpt><trkpt lat="44.26119" lon="8.36162"><ele>615.0</ele><time>2026-04-26T07:31:32.636Z</time></trkpt><trkpt lat="44.26109" lon="8.36159"><ele>615.0</ele><time>2026-04-26T07:31:33.636Z</time></trkpt><trkpt lat="44.2609817" lon="8.361565"><ele>615.0</ele><time>2026-04-26T07:31:34.636Z</time></trkpt><trkpt lat="44.26088" lon="8.3615367"><ele>615.0</ele><time>2026-04-26T07:31:35.636Z</time></trkpt><trkpt lat="44.2607883" lon="8.3614983"><ele>615.0</ele><time>2026-04-26T07:31:36.636Z</time></trkpt><trkpt lat="44.2607" lon="8.3614583"><ele>615.0</ele><time>2026-04-26T07:31:37.636Z</time></trkpt><trkpt lat="44.26062" lon="8.3614133"><ele>615.0</ele><time>2026-04-26T07:31:38.636Z</time></trkpt><trkpt lat="44.2605467" lon="8.3613683"><ele>615.0</ele><time>2026-04-26T07:31:39.636Z</time></trkpt><trkpt lat="44.2604833" lon="8.361315"><ele>615.0</ele><time>2026-04-26T07:31:40.637Z</time></trkpt><trkpt lat="44.260415" lon="8.36127"><ele>615.0</ele><time>2026-04-26T07:31:41.637Z</time></trkpt><trkpt lat="44.2603433" lon="8.36124"><ele>615.0</ele><time>2026-04-26T07:31:42.636Z</time></trkpt><trkpt lat="44.2602717" lon="8.3612117"><ele>614.6</ele><time>2026-04-26T07:31:43.636Z</time></trkpt><trkpt lat="44.2602117" lon="8.3611767"><ele>614.2</ele><time>2026-04-26T07:31:44.636Z</time></trkpt><trkpt lat="44.260135" lon="8.3610933"><ele>613.8</ele><time>2026-04-26T07:31:46.636Z</time></trkpt><trkpt lat="44.2600817" lon="8.3609467"><ele>613.4</ele><time>2026-04-26T07:31:48.636Z</time></trkpt><trkpt lat="44.2600617" lon="8.36086"><ele>613.0</ele><time>2026-04-26T07:31:49.636Z</time></trkpt><trkpt lat="44.2600117" lon="8.3607283"><ele>613.0</ele><time>2026-04-26T07:31:51.636Z</time></trkpt><trkpt lat="44.2598983" lon="8.3606617"><ele>613.0</ele><time>2026-04-26T07:31:53.636Z</time></trkpt><trkpt lat="44.2597867" lon="8.3606417"><ele>613.0</ele><time>2026-04-26T07:31:55.636Z</time></trkpt><trkpt lat="44.2596933" lon="8.3606367"><ele>613.0</ele><time>2026-04-26T07:31:57.636Z</time></trkpt><trkpt lat="44.259615" lon="8.36059"><ele>613.0</ele><time>2026-04-26T07:31:59.636Z</time></trkpt><trkpt lat="44.25955" lon="8.3605333"><ele>611.1666666666667</ele><time>2026-04-26T07:32:01.636Z</time></trkpt><trkpt lat="44.2594817" lon="8.3604767"><ele>609.3333333333334</ele><time>2026-04-26T07:32:03.637Z</time></trkpt><trkpt lat="44.2594133" lon="8.360415"><ele>607.5</ele><time>2026-04-26T07:32:05.636Z</time></trkpt><trkpt lat="44.2593367" lon="8.360365"><ele>605.6666666666666</ele><time>2026-04-26T07:32:07.636Z</time></trkpt><trkpt lat="44.2592467" lon="8.3603283"><ele>603.8333333333333</ele><time>2026-04-26T07:32:09.636Z</time></trkpt><trkpt lat="44.259155" lon="8.360285"><ele>602.0</ele><time>2026-04-26T07:32:11.636Z</time></trkpt><trkpt lat="44.259065" lon="8.360235"><ele>602.0</ele><time>2026-04-26T07:32:13.636Z</time></trkpt><trkpt lat="44.2589833" lon="8.3601683"><ele>602.0</ele><time>2026-04-26T07:32:15.636Z</time></trkpt><trkpt lat="44.2589183" lon="8.3601033"><ele>602.0</ele><time>2026-04-26T07:32:17.636Z</time></trkpt><trkpt lat="44.2588583" lon="8.3599833"><ele>602.0</ele><time>2026-04-26T07:32:19.636Z</time></trkpt><trkpt lat="44.2588083" lon="8.3598317"><ele>602.0</ele><time>2026-04-26T07:32:21.636Z</time></trkpt><trkpt lat="44.2587417" lon="8.359705"><ele>595.75</ele><time>2026-04-26T07:32:23.637Z</time></trkpt><trkpt lat="44.25866" lon="8.3596133"><ele>589.5</ele><time>2026-04-26T07:32:25.636Z</time></trkpt><trkpt lat="44.258555" lon="8.359515"><ele>583.25</ele><time>2026-04-26T07:32:27.636Z</time></trkpt><trkpt lat="44.258465" lon="8.359415"><ele>577.0</ele><time>2026-04-26T07:32:29.636Z</time></trkpt><trkpt lat="44.2583667" lon="8.359315"><ele>577.0</ele><time>2026-04-26T07:32:31.637Z</time></trkpt><trkpt lat="44.2583183" lon="8.3592467"><ele>577.0</ele><time>2026-04-26T07:32:32.637Z</time></trkpt><trkpt lat="44.25823" lon="8.3591133"><ele>577.0</ele><time>2026-04-26T07:32:34.636Z</time></trkpt><trkpt lat="44.2581817" lon="8.3590417"><ele>577.0</ele><time>2026-04-26T07:32:35.636Z</time></trkpt><trkpt lat="44.2581283" lon="8.3589733"><ele>577.0</ele><time>2026-04-26T07:32:36.636Z</time></trkpt><trkpt lat="44.2580767" lon="8.35891"><ele>577.0</ele><time>2026-04-26T07:32:37.636Z</time></trkpt><trkpt lat="44.25799" lon="8.3588017"><ele>575.0</ele><time>2026-04-26T07:32:39.636Z</time></trkpt><trkpt lat="44.2579217" lon="8.3586767"><ele>573.0</ele><time>2026-04-26T07:32:41.636Z</time></trkpt><trkpt lat="44.2578817" lon="8.358595"><ele>571.0</ele><time>2026-04-26T07:32:42.636Z</time></trkpt><trkpt lat="44.2578383" lon="8.3585"><ele>569.0</ele><time>2026-04-26T07:32:43.636Z</time></trkpt><trkpt lat="44.2577967" lon="8.3584017"><ele>567.0</ele><time>2026-04-26T07:32:44.636Z</time></trkpt><trkpt lat="44.25775" lon="8.35829"><ele>565.0</ele><time>2026-04-26T07:32:45.636Z</time></trkpt><trkpt lat="44.2577067" lon="8.3581833"><ele>565.0</ele><time>2026-04-26T07:32:46.636Z</time></trkpt><trkpt lat="44.2576667" lon="8.3580733"><ele>565.0</ele><time>2026-04-26T07:32:47.636Z</time></trkpt><trkpt lat="44.2576183" lon="8.3579867"><ele>565.0</ele><time>2026-04-26T07:32:48.636Z</time></trkpt><trkpt lat="44.2575783" lon="8.3579"><ele>565.0</ele><time>2026-04-26T07:32:49.636Z</time></trkpt><trkpt lat="44.2575528" lon="8.3578009"><ele>565.0</ele><time>2026-04-26T07:32:50.636Z</time></trkpt><trkpt lat="44.2575348" lon="8.3576821"><ele>565.0</ele><time>2026-04-26T07:32:51.636Z</time></trkpt><trkpt lat="44.2575182" lon="8.3575588"><ele>567.6</ele><time>2026-04-26T07:32:52.636Z</time></trkpt><trkpt lat="44.2574986" lon="8.3574415"><ele>570.2</ele><time>2026-04-26T07:32:53.636Z</time></trkpt><trkpt lat="44.2574768" lon="8.357341"><ele>572.8</ele><time>2026-04-26T07:32:54.636Z</time></trkpt><trkpt lat="44.2574603" lon="8.3571839"><ele>575.4</ele><time>2026-04-26T07:32:56.636Z</time></trkpt><trkpt lat="44.2574821" lon="8.3570224"><ele>578.0</ele><time>2026-04-26T07:32:58.636Z</time></trkpt><trkpt lat="44.2574773" lon="8.3568596"><ele>578.6</ele><time>2026-04-26T07:33:00.636Z</time></trkpt><trkpt lat="44.2574217" lon="8.356713"><ele>579.1999999999999</ele><time>2026-04-26T07:33:02.637Z</time></trkpt><trkpt lat="44.257369" lon="8.3566067"><ele>579.8</ele><time>2026-04-26T07:33:04.636Z</time></trkpt><trkpt lat="44.2573011" lon="8.3565164"><ele>580.4</ele><time>2026-04-26T07:33:06.636Z</time></trkpt><trkpt lat="44.2571707" lon="8.356468"><ele>581.0</ele><time>2026-04-26T07:33:08.636Z</time></trkpt><trkpt lat="44.257093" lon="8.3564948"><ele>581.0</ele><time>2026-04-26T07:33:09.636Z</time></trkpt><trkpt lat="44.2570134" lon="8.3565266"><ele>581.0</ele><time>2026-04-26T07:33:10.637Z</time></trkpt><trkpt lat="44.2569327" lon="8.3565521"><ele>581.0</ele><time>2026-04-26T07:33:11.636Z</time></trkpt><trkpt lat="44.2568533" lon="8.3565527"><ele>581.0</ele><time>2026-04-26T07:33:12.636Z</time></trkpt><trkpt lat="44.256778" lon="8.3565448"><ele>581.0</ele><time>2026-04-26T07:33:13.636Z</time></trkpt><trkpt lat="44.2567005" lon="8.3565387"><ele>581.0</ele><time>2026-04-26T07:33:14.636Z</time></trkpt><trkpt lat="44.2566273" lon="8.3565441"><ele>581.0</ele><time>2026-04-26T07:33:15.636Z</time></trkpt><trkpt lat="44.2565596" lon="8.3565765"><ele>581.0</ele><time>2026-04-26T07:33:16.636Z</time></trkpt><trkpt lat="44.2564915" lon="8.3566165"><ele>581.0</ele><time>2026-04-26T07:33:17.637Z</time></trkpt><trkpt lat="44.2564231" lon="8.3566447"><ele>581.0</ele><time>2026-04-26T07:33:18.637Z</time></trkpt><trkpt lat="44.2563573" lon="8.3566514"><ele>581.0</ele><time>2026-04-26T07:33:19.636Z</time></trkpt><trkpt lat="44.2562516" lon="8.3565692"><ele>581.0</ele><time>2026-04-26T07:33:21.636Z</time></trkpt><trkpt lat="44.2561848" lon="8.3564617"><ele>580.5</ele><time>2026-04-26T07:33:23.636Z</time></trkpt><trkpt lat="44.2561048" lon="8.3564209"><ele>580.0</ele><time>2026-04-26T07:33:25.636Z</time></trkpt><trkpt lat="44.2559911" lon="8.3564348"><ele>579.5</ele><time>2026-04-26T07:33:27.636Z</time></trkpt><trkpt lat="44.2559213" lon="8.3564583"><ele>579.0</ele><time>2026-04-26T07:33:28.637Z</time></trkpt><trkpt lat="44.2558485" lon="8.356493"><ele>578.5</ele><time>2026-04-26T07:33:29.636Z</time></trkpt><trkpt lat="44.2557782" lon="8.3565475"><ele>578.0</ele><time>2026-04-26T07:33:30.636Z</time></trkpt><trkpt lat="44.2557116" lon="8.3566103"><ele>578.0</ele><time>2026-04-26T07:33:31.636Z</time></trkpt><trkpt lat="44.255651" lon="8.3566859"><ele>578.0</ele><time>2026-04-26T07:33:32.636Z</time></trkpt><trkpt lat="44.2556058" lon="8.3567692"><ele>578.0</ele><time>2026-04-26T07:33:33.636Z</time></trkpt><trkpt lat="44.2555669" lon="8.3568576"><ele>578.0</ele><time>2026-04-26T07:33:34.636Z</time></trkpt><trkpt lat="44.2555233" lon="8.356922"><ele>578.0</ele><time>2026-04-26T07:33:35.636Z</time></trkpt><trkpt lat="44.2554152" lon="8.3569475"><ele>578.0</ele><time>2026-04-26T07:33:37.636Z</time></trkpt><trkpt lat="44.2553591" lon="8.3568995"><ele>579.5</ele><time>2026-04-26T07:33:38.636Z</time></trkpt><trkpt lat="44.255265" lon="8.3568046"><ele>581.0</ele><time>2026-04-26T07:33:40.636Z</time></trkpt><trkpt lat="44.2552034" lon="8.3567703"><ele>582.5</ele><time>2026-04-26T07:33:41.636Z</time></trkpt><trkpt lat="44.2551349" lon="8.3567403"><ele>584.0</ele><time>2026-04-26T07:33:42.636Z</time></trkpt><trkpt lat="44.2550573" lon="8.3567207"><ele>585.5</ele><time>2026-04-26T07:33:43.636Z</time></trkpt><trkpt lat="44.2549683" lon="8.3567215"><ele>587.0</ele><time>2026-04-26T07:33:44.636Z</time></trkpt><trkpt lat="44.2548798" lon="8.3567275"><ele>587.0</ele><time>2026-04-26T07:33:45.636Z</time></trkpt><trkpt lat="44.2547901" lon="8.3567241"><ele>587.0</ele><time>2026-04-26T07:33:46.637Z</time></trkpt><trkpt lat="44.2547003" lon="8.3567277"><ele>587.0</ele><time>2026-04-26T07:33:47.636Z</time></trkpt><trkpt lat="44.2546178" lon="8.3567504"><ele>587.0</ele><time>2026-04-26T07:33:48.636Z</time></trkpt><trkpt lat="44.2545334" lon="8.3567724"><ele>587.0</ele><time>2026-04-26T07:33:49.636Z</time></trkpt><trkpt lat="44.2544574" lon="8.3567864"><ele>587.0</ele><time>2026-04-26T07:33:50.636Z</time></trkpt><trkpt lat="44.2543851" lon="8.3568089"><ele>585.3333333333333</ele><time>2026-04-26T07:33:51.637Z</time></trkpt><trkpt lat="44.2543206" lon="8.3568326"><ele>583.6666666666666</ele><time>2026-04-26T07:33:52.636Z</time></trkpt><trkpt lat="44.2541942" lon="8.3568518"><ele>582.0</ele><time>2026-04-26T07:33:54.637Z</time></trkpt><trkpt lat="44.254129" lon="8.3568553"><ele>580.3333333333334</ele><time>2026-04-26T07:33:55.636Z</time></trkpt><trkpt lat="44.2540233" lon="8.3568183"><ele>578.6666666666667</ele><time>2026-04-26T07:33:57.636Z</time></trkpt><trkpt lat="44.25396" lon="8.35678"><ele>577.0</ele><time>2026-04-26T07:33:58.636Z</time></trkpt><trkpt lat="44.2538967" lon="8.3567417"><ele>576.6</ele><time>2026-04-26T07:33:59.636Z</time></trkpt><trkpt lat="44.2538367" lon="8.356715"><ele>576.2</ele><time>2026-04-26T07:34:00.636Z</time></trkpt><trkpt lat="44.253745" lon="8.35669"><ele>575.8</ele><time>2026-04-26T07:34:02.637Z</time></trkpt><trkpt lat="44.253645" lon="8.3567017"><ele>575.4</ele><time>2026-04-26T07:34:04.636Z</time></trkpt><trkpt lat="44.2535433" lon="8.3567267"><ele>575.0</ele><time>2026-04-26T07:34:06.636Z</time></trkpt><trkpt lat="44.253455" lon="8.3567"><ele>575.0</ele><time>2026-04-26T07:34:08.636Z</time></trkpt><trkpt lat="44.253365" lon="8.35666"><ele>575.0</ele><time>2026-04-26T07:34:10.636Z</time></trkpt><trkpt lat="44.2532717" lon="8.356695"><ele>575.0</ele><time>2026-04-26T07:34:12.636Z</time></trkpt><trkpt lat="44.2532067" lon="8.35673"><ele>575.0</ele><time>2026-04-26T07:34:13.636Z</time></trkpt><trkpt lat="44.2531367" lon="8.3567683"><ele>575.0</ele><time>2026-04-26T07:34:14.636Z</time></trkpt><trkpt lat="44.2530817" lon="8.3568183"><ele>575.0</ele><time>2026-04-26T07:34:15.636Z</time></trkpt><trkpt lat="44.2530367" lon="8.3568983"><ele>576.3333333333333</ele><time>2026-04-26T07:34:16.636Z</time></trkpt><trkpt lat="44.2529967" lon="8.35699"><ele>577.6666666666666</ele><time>2026-04-26T07:34:17.636Z</time></trkpt><trkpt lat="44.2529567" lon="8.3570733"><ele>579.0</ele><time>2026-04-26T07:34:18.636Z</time></trkpt><trkpt lat="44.2529217" lon="8.357165"><ele>580.3333333333334</ele><time>2026-04-26T07:34:19.636Z</time></trkpt><trkpt lat="44.25289" lon="8.3572733"><ele>581.6666666666667</ele><time>2026-04-26T07:34:20.636Z</time></trkpt><trkpt lat="44.2528617" lon="8.3573883"><ele>583.0</ele><time>2026-04-26T07:34:21.636Z</time></trkpt><trkpt lat="44.2528333" lon="8.3574817"><ele>583.0</ele><time>2026-04-26T07:34:22.636Z</time></trkpt><trkpt lat="44.25281" lon="8.3575767"><ele>583.0</ele><time>2026-04-26T07:34:23.636Z</time></trkpt><trkpt lat="44.2528067" lon="8.35768"><ele>583.0</ele><time>2026-04-26T07:34:24.636Z</time></trkpt><trkpt lat="44.2528217" lon="8.3577833"><ele>583.0</ele><time>2026-04-26T07:34:25.636Z</time></trkpt><trkpt lat="44.25284" lon="8.35787"><ele>583.0</ele><time>2026-04-26T07:34:26.636Z</time></trkpt><trkpt lat="44.252815" lon="8.3580067"><ele>583.0</ele><time>2026-04-26T07:34:28.636Z</time></trkpt><trkpt lat="44.252705" lon="8.358075"><ele>581.6666666666667</ele><time>2026-04-26T07:34:30.636Z</time></trkpt><trkpt lat="44.2526267" lon="8.3580767"><ele>580.3333333333334</ele><time>2026-04-26T07:34:31.636Z</time></trkpt><trkpt lat="44.2525383" lon="8.3580717"><ele>579.0</ele><time>2026-04-26T07:34:32.636Z</time></trkpt><trkpt lat="44.2524517" lon="8.3580617"><ele>577.6666666666666</ele><time>2026-04-26T07:34:33.636Z</time></trkpt><trkpt lat="44.2523717" lon="8.3580533"><ele>576.3333333333333</ele><time>2026-04-26T07:34:34.636Z</time></trkpt><trkpt lat="44.2523017" lon="8.3580417"><ele>575.0</ele><time>2026-04-26T07:34:35.636Z</time></trkpt><trkpt lat="44.2522033" lon="8.3580467"><ele>575.0</ele><time>2026-04-26T07:34:37.636Z</time></trkpt><trkpt lat="44.2521283" lon="8.3580817"><ele>575.0</ele><time>2026-04-26T07:34:39.636Z</time></trkpt><trkpt lat="44.252075" lon="8.358185"><ele>575.0</ele><time>2026-04-26T07:34:41.636Z</time></trkpt><trkpt lat="44.2519917" lon="8.3582967"><ele>575.0</ele><time>2026-04-26T07:34:43.637Z</time></trkpt><trkpt lat="44.2518817" lon="8.3583733"><ele>575.0</ele><time>2026-04-26T07:34:45.636Z</time></trkpt><trkpt lat="44.2518217" lon="8.358405"><ele>575.0</ele><time>2026-04-26T07:34:46.636Z</time></trkpt><trkpt lat="44.2517567" lon="8.3584417"><ele>575.0</ele><time>2026-04-26T07:34:47.636Z</time></trkpt><trkpt lat="44.25168" lon="8.35851"><ele>575.0</ele><time>2026-04-26T07:34:48.636Z</time></trkpt><trkpt lat="44.2515817" lon="8.3585917"><ele>575.0</ele><time>2026-04-26T07:34:49.636Z</time></trkpt><trkpt lat="44.2514533" lon="8.3586933"><ele>575.0</ele><time>2026-04-26T07:34:50.637Z</time></trkpt><trkpt lat="44.2513217" lon="8.3587983"><ele>574.75</ele><time>2026-04-26T07:34:51.637Z</time></trkpt><trkpt lat="44.25121" lon="8.3588783"><ele>574.5</ele><time>2026-04-26T07:34:52.637Z</time></trkpt><trkpt lat="44.2511183" lon="8.35897"><ele>574.25</ele><time>2026-04-26T07:34:53.637Z</time></trkpt><trkpt lat="44.2510367" lon="8.3590633"><ele>574.0</ele><time>2026-04-26T07:34:54.637Z</time></trkpt><trkpt lat="44.2509533" lon="8.35916"><ele>574.0</ele><time>2026-04-26T07:34:55.637Z</time></trkpt><trkpt lat="44.2508817" lon="8.359275"><ele>574.0</ele><time>2026-04-26T07:34:56.637Z</time></trkpt><trkpt lat="44.2508183" lon="8.3593817"><ele>574.0</ele><time>2026-04-26T07:34:57.637Z</time></trkpt><trkpt lat="44.2507583" lon="8.3594733"><ele>574.0</ele><time>2026-04-26T07:34:58.637Z</time></trkpt><trkpt lat="44.2507067" lon="8.3595767"><ele>574.0</ele><time>2026-04-26T07:34:59.637Z</time></trkpt><trkpt lat="44.2506683" lon="8.3596983"><ele>572.0</ele><time>2026-04-26T07:35:00.638Z</time></trkpt><trkpt lat="44.250615" lon="8.3597967"><ele>570.0</ele><time>2026-04-26T07:35:01.637Z</time></trkpt><trkpt lat="44.25056" lon="8.35989"><ele>568.0</ele><time>2026-04-26T07:35:02.637Z</time></trkpt><trkpt lat="44.2504983" lon="8.3599667"><ele>566.0</ele><time>2026-04-26T07:35:03.637Z</time></trkpt><trkpt lat="44.25043" lon="8.360025"><ele>564.0</ele><time>2026-04-26T07:35:04.637Z</time></trkpt><trkpt lat="44.2503583" lon="8.3600633"><ele>562.0</ele><time>2026-04-26T07:35:05.637Z</time></trkpt><trkpt lat="44.2502967" lon="8.3600967"><ele>562.0</ele><time>2026-04-26T07:35:06.637Z</time></trkpt><trkpt lat="44.2501783" lon="8.3600883"><ele>562.0</ele><time>2026-04-26T07:35:08.637Z</time></trkpt><trkpt lat="44.2501233" lon="8.36004"><ele>562.0</ele><time>2026-04-26T07:35:09.637Z</time></trkpt><trkpt lat="44.2500667" lon="8.35997"><ele>562.0</ele><time>2026-04-26T07:35:10.637Z</time></trkpt><trkpt lat="44.2500017" lon="8.35988"><ele>562.0</ele><time>2026-04-26T07:35:11.637Z</time></trkpt><trkpt lat="44.2499367" lon="8.3597717"><ele>562.2</ele><time>2026-04-26T07:35:12.637Z</time></trkpt><trkpt lat="44.24986" lon="8.3596733"><ele>562.4000000000001</ele><time>2026-04-26T07:35:13.637Z</time></trkpt><trkpt lat="44.24978" lon="8.3595833"><ele>562.5999999999999</ele><time>2026-04-26T07:35:14.637Z</time></trkpt><trkpt lat="44.249705" lon="8.3594983"><ele>562.8</ele><time>2026-04-26T07:35:15.638Z</time></trkpt><trkpt lat="44.2496283" lon="8.359415"><ele>563.0</ele><time>2026-04-26T07:35:16.637Z</time></trkpt><trkpt lat="44.249535" lon="8.3593433"><ele>563.0</ele><time>2026-04-26T07:35:17.637Z</time></trkpt><trkpt lat="44.2494483" lon="8.359285"><ele>563.0</ele><time>2026-04-26T07:35:18.637Z</time></trkpt><trkpt lat="44.2493717" lon="8.35922"><ele>563.0</ele><time>2026-04-26T07:35:19.637Z</time></trkpt><trkpt lat="44.2493017" lon="8.3591483"><ele>563.0</ele><time>2026-04-26T07:35:20.637Z</time></trkpt><trkpt lat="44.2492367" lon="8.3590783"><ele>563.0</ele><time>2026-04-26T07:35:21.638Z</time></trkpt><trkpt lat="44.2491833" lon="8.3590017"><ele>563.0</ele><time>2026-04-26T07:35:22.637Z</time></trkpt><trkpt lat="44.2491333" lon="8.358925"><ele>564.0</ele><time>2026-04-26T07:35:23.637Z</time></trkpt><trkpt lat="44.249065" lon="8.3588467"><ele>565.0</ele><time>2026-04-26T07:35:24.637Z</time></trkpt><trkpt lat="44.2489683" lon="8.358785"><ele>566.0</ele><time>2026-04-26T07:35:25.637Z</time></trkpt><trkpt lat="44.2488733" lon="8.3587133"><ele>567.0</ele><time>2026-04-26T07:35:26.638Z</time></trkpt><trkpt lat="44.2487833" lon="8.358625"><ele>568.0</ele><time>2026-04-26T07:35:27.637Z</time></trkpt><trkpt lat="44.2487017" lon="8.35853"><ele>568.0</ele><time>2026-04-26T07:35:28.637Z</time></trkpt><trkpt lat="44.2486317" lon="8.3584383"><ele>568.0</ele><time>2026-04-26T07:35:29.637Z</time></trkpt><trkpt lat="44.2485633" lon="8.358355"><ele>568.0</ele><time>2026-04-26T07:35:30.637Z</time></trkpt><trkpt lat="44.248505" lon="8.3582717"><ele>568.0</ele><time>2026-04-26T07:35:31.637Z</time></trkpt><trkpt lat="44.24846" lon="8.3581933"><ele>568.0</ele><time>2026-04-26T07:35:32.637Z</time></trkpt><trkpt lat="44.2483933" lon="8.358065"><ele>567.6</ele><time>2026-04-26T07:35:34.637Z</time></trkpt><trkpt lat="44.2483367" lon="8.3579983"><ele>567.1999999999999</ele><time>2026-04-26T07:35:36.637Z</time></trkpt><trkpt lat="44.2483283" lon="8.3578917"><ele>566.8</ele><time>2026-04-26T07:43:00.637Z</time></trkpt><trkpt lat="44.2483567" lon="8.3577717"><ele>566.4</ele><time>2026-04-26T07:43:14.637Z</time></trkpt><trkpt lat="44.2483983" lon="8.3576"><ele>566.0</ele><time>2026-04-26T07:43:16.637Z</time></trkpt><trkpt lat="44.2484233" lon="8.3574783"><ele>566.0</ele><time>2026-04-26T07:43:17.637Z</time></trkpt><trkpt lat="44.2484567" lon="8.3573617"><ele>566.0</ele><time>2026-04-26T07:43:18.637Z</time></trkpt><trkpt lat="44.248495" lon="8.3572617"><ele>566.0</ele><time>2026-04-26T07:43:19.637Z</time></trkpt><trkpt lat="44.2485367" lon="8.357165"><ele>566.0</ele><time>2026-04-26T07:43:20.637Z</time></trkpt><trkpt lat="44.248595" lon="8.3570817"><ele>566.0</ele><time>2026-04-26T07:43:21.637Z</time></trkpt><trkpt lat="44.2486583" lon="8.35703"><ele>566.0</ele><time>2026-04-26T07:43:22.637Z</time></trkpt><trkpt lat="44.2487083" lon="8.3569717"><ele>564.8333333333333</ele><time>2026-04-26T07:43:23.637Z</time></trkpt><trkpt lat="44.2487683" lon="8.3568333"><ele>563.6666666666666</ele><time>2026-04-26T07:43:25.637Z</time></trkpt><trkpt lat="44.248775" lon="8.3567433"><ele>562.5</ele><time>2026-04-26T07:43:26.637Z</time></trkpt><trkpt lat="44.2487883" lon="8.356635"><ele>561.3333333333334</ele><time>2026-04-26T07:43:27.637Z</time></trkpt><trkpt lat="44.2488183" lon="8.35653"><ele>560.1666666666667</ele><time>2026-04-26T07:43:28.637Z</time></trkpt><trkpt lat="44.2488617" lon="8.356405"><ele>559.0</ele><time>2026-04-26T07:43:29.638Z</time></trkpt><trkpt lat="44.2489117" lon="8.3562767"><ele>558.1666666666667</ele><time>2026-04-26T07:43:30.637Z</time></trkpt><trkpt lat="44.2489583" lon="8.35616"><ele>557.3333333333334</ele><time>2026-04-26T07:43:31.637Z</time></trkpt><trkpt lat="44.2490117" lon="8.3560617"><ele>556.5</ele><time>2026-04-26T07:43:32.637Z</time></trkpt><trkpt lat="44.2490533" lon="8.3559683"><ele>555.6666666666666</ele><time>2026-04-26T07:43:33.637Z</time></trkpt><trkpt lat="44.24908" lon="8.35587"><ele>554.8333333333333</ele><time>2026-04-26T07:43:34.637Z</time></trkpt><trkpt lat="44.249095" lon="8.3557717"><ele>554.0</ele><time>2026-04-26T07:43:35.637Z</time></trkpt><trkpt lat="44.249095" lon="8.3556767"><ele>559.0</ele><time>2026-04-26T07:43:36.637Z</time></trkpt><trkpt lat="44.2490883" lon="8.3555867"><ele>564.0</ele><time>2026-04-26T07:43:37.637Z</time></trkpt><trkpt lat="44.2490783" lon="8.3554883"><ele>569.0</ele><time>2026-04-26T07:43:38.637Z</time></trkpt><trkpt lat="44.2490717" lon="8.3553833"><ele>574.0</ele><time>2026-04-26T07:43:39.637Z</time></trkpt><trkpt lat="44.2490733" lon="8.3552667"><ele>579.0</ele><time>2026-04-26T07:43:40.637Z</time></trkpt><trkpt lat="44.2490817" lon="8.35515"><ele>584.0</ele><time>2026-04-26T07:43:41.638Z</time></trkpt><trkpt lat="44.2490967" lon="8.35505"><ele>584.0</ele><time>2026-04-26T07:43:42.637Z</time></trkpt><trkpt lat="44.249125" lon="8.3549533"><ele>584.0</ele><time>2026-04-26T07:43:43.637Z</time></trkpt><trkpt lat="44.24916" lon="8.3548583"><ele>584.0</ele><time>2026-04-26T07:43:44.638Z</time></trkpt><trkpt lat="44.2491967" lon="8.3547617"><ele>584.0</ele><time>2026-04-26T07:43:45.637Z</time></trkpt><trkpt lat="44.2492367" lon="8.3546617"><ele>584.0</ele><time>2026-04-26T07:43:46.637Z</time></trkpt><trkpt lat="44.2492767" lon="8.3545567"><ele>584.0</ele><time>2026-04-26T07:43:47.637Z</time></trkpt><trkpt lat="44.2493133" lon="8.3544533"><ele>583.6666666666666</ele><time>2026-04-26T07:43:48.637Z</time></trkpt><trkpt lat="44.2493483" lon="8.3543483"><ele>583.3333333333333</ele><time>2026-04-26T07:43:49.637Z</time></trkpt><trkpt lat="44.24938" lon="8.354255"><ele>583.0</ele><time>2026-04-26T07:43:50.637Z</time></trkpt><trkpt lat="44.24941" lon="8.3541667"><ele>582.6666666666666</ele><time>2026-04-26T07:43:51.638Z</time></trkpt><trkpt lat="44.2494417" lon="8.35409"><ele>582.3333333333334</ele><time>2026-04-26T07:43:52.637Z</time></trkpt><trkpt lat="44.249475" lon="8.3539517"><ele>582.0</ele><time>2026-04-26T07:43:54.637Z</time></trkpt><trkpt lat="44.24945" lon="8.35383"><ele>581.8571428571429</ele><time>2026-04-26T07:43:56.637Z</time></trkpt><trkpt lat="44.2494017" lon="8.3537533"><ele>581.7142857142857</ele><time>2026-04-26T07:43:57.638Z</time></trkpt><trkpt lat="44.2493533" lon="8.3536717"><ele>581.5714285714286</ele><time>2026-04-26T07:43:58.637Z</time></trkpt><trkpt lat="44.2493233" lon="8.3535767"><ele>581.4285714285714</ele><time>2026-04-26T07:43:59.637Z</time></trkpt><trkpt lat="44.249305" lon="8.35348"><ele>581.2857142857142</ele><time>2026-04-26T07:44:00.637Z</time></trkpt><trkpt lat="44.2493017" lon="8.3533767"><ele>581.1428571428571</ele><time>2026-04-26T07:44:01.637Z</time></trkpt><trkpt lat="44.2493083" lon="8.3532717"><ele>581.0</ele><time>2026-04-26T07:44:02.637Z</time></trkpt><trkpt lat="44.2493317" lon="8.3531483"><ele>580.8333333333333</ele><time>2026-04-26T07:44:03.637Z</time></trkpt><trkpt lat="44.2493617" lon="8.35302"><ele>580.6666666666666</ele><time>2026-04-26T07:44:04.637Z</time></trkpt><trkpt lat="44.2493917" lon="8.352885"><ele>580.5</ele><time>2026-04-26T07:44:05.637Z</time></trkpt><trkpt lat="44.2494317" lon="8.3527683"><ele>580.3333333333334</ele><time>2026-04-26T07:44:06.637Z</time></trkpt><trkpt lat="44.2494667" lon="8.3526633"><ele>580.1666666666667</ele><time>2026-04-26T07:44:07.637Z</time></trkpt><trkpt lat="44.2494967" lon="8.352575"><ele>580.0</ele><time>2026-04-26T07:44:08.637Z</time></trkpt><trkpt lat="44.2495183" lon="8.3524917"><ele>580.0</ele><time>2026-04-26T07:44:09.637Z</time></trkpt><trkpt lat="44.24951" lon="8.3523217"><ele>580.0</ele><time>2026-04-26T07:44:11.637Z</time></trkpt><trkpt lat="44.249485" lon="8.3522133"><ele>580.0</ele><time>2026-04-26T07:44:12.638Z</time></trkpt><trkpt lat="44.2494633" lon="8.35209"><ele>580.0</ele><time>2026-04-26T07:44:13.637Z</time></trkpt><trkpt lat="44.249455" lon="8.3519783"><ele>580.0</ele><time>2026-04-26T07:44:14.638Z</time></trkpt><trkpt lat="44.249455" lon="8.3518617"><ele>579.5</ele><time>2026-04-26T07:44:15.637Z</time></trkpt><trkpt lat="44.2494767" lon="8.3517517"><ele>579.0</ele><time>2026-04-26T07:44:16.637Z</time></trkpt><trkpt lat="44.2495233" lon="8.3516717"><ele>578.5</ele><time>2026-04-26T07:44:17.637Z</time></trkpt><trkpt lat="44.2495767" lon="8.3515783"><ele>578.0</ele><time>2026-04-26T07:44:18.637Z</time></trkpt><trkpt lat="44.2496333" lon="8.3515"><ele>577.5</ele><time>2026-04-26T07:44:19.637Z</time></trkpt><trkpt lat="44.2496783" lon="8.3514133"><ele>577.0</ele><time>2026-04-26T07:44:20.637Z</time></trkpt><trkpt lat="44.2497217" lon="8.351345"><ele>578.8000000000001</ele><time>2026-04-26T07:44:21.637Z</time></trkpt><trkpt lat="44.2498133" lon="8.3512433"><ele>580.6</ele><time>2026-04-26T07:44:23.637Z</time></trkpt><trkpt lat="44.249875" lon="8.3512"><ele>582.4000000000001</ele><time>2026-04-26T07:44:24.637Z</time></trkpt><trkpt lat="44.24994" lon="8.351175"><ele>584.2</ele><time>2026-04-26T07:44:25.637Z</time></trkpt><trkpt lat="44.2500517" lon="8.351115"><ele>586.0</ele><time>2026-04-26T07:44:27.637Z</time></trkpt><trkpt lat="44.250115" lon="8.3509933"><ele>586.0</ele><time>2026-04-26T07:44:29.637Z</time></trkpt><trkpt lat="44.2501533" lon="8.350815"><ele>586.0</ele><time>2026-04-26T07:44:31.637Z</time></trkpt><trkpt lat="44.2501733" lon="8.3507067"><ele>586.0</ele><time>2026-04-26T07:44:32.637Z</time></trkpt><trkpt lat="44.2502" lon="8.3505983"><ele>586.0</ele><time>2026-04-26T07:44:33.637Z</time></trkpt><trkpt lat="44.250235" lon="8.3505033"><ele>586.0</ele><time>2026-04-26T07:44:34.638Z</time></trkpt><trkpt lat="44.2502767" lon="8.35042"><ele>586.0</ele><time>2026-04-26T07:44:35.637Z</time></trkpt><trkpt lat="44.2503217" lon="8.3503183"><ele>584.5</ele><time>2026-04-26T07:44:36.637Z</time></trkpt><trkpt lat="44.2503717" lon="8.3502217"><ele>583.0</ele><time>2026-04-26T07:44:37.637Z</time></trkpt><trkpt lat="44.25042" lon="8.3501333"><ele>581.5</ele><time>2026-04-26T07:44:38.637Z</time></trkpt><trkpt lat="44.2504667" lon="8.3500533"><ele>580.0</ele><time>2026-04-26T07:44:39.637Z</time></trkpt><trkpt lat="44.2505033" lon="8.3499633"><ele>578.5</ele><time>2026-04-26T07:44:40.637Z</time></trkpt><trkpt lat="44.250535" lon="8.349885"><ele>577.0</ele><time>2026-04-26T07:44:41.637Z</time></trkpt><trkpt lat="44.25057" lon="8.3497917"><ele>575.3333333333334</ele><time>2026-04-26T07:44:42.637Z</time></trkpt><trkpt lat="44.250595" lon="8.3496967"><ele>573.6666666666667</ele><time>2026-04-26T07:44:43.638Z</time></trkpt><trkpt lat="44.2506267" lon="8.349595"><ele>572.0</ele><time>2026-04-26T07:44:44.637Z</time></trkpt><trkpt lat="44.2506567" lon="8.3494917"><ele>570.3333333333334</ele><time>2026-04-26T07:44:45.637Z</time></trkpt><trkpt lat="44.2506967" lon="8.34938"><ele>568.6666666666666</ele><time>2026-04-26T07:44:46.637Z</time></trkpt><trkpt lat="44.2507483" lon="8.3492983"><ele>567.0</ele><time>2026-04-26T07:44:47.637Z</time></trkpt><trkpt lat="44.250795" lon="8.3492217"><ele>569.0</ele><time>2026-04-26T07:44:48.637Z</time></trkpt><trkpt lat="44.25085" lon="8.349155"><ele>571.0</ele><time>2026-04-26T07:44:49.637Z</time></trkpt><trkpt lat="44.2509117" lon="8.34911"><ele>573.0</ele><time>2026-04-26T07:44:50.637Z</time></trkpt><trkpt lat="44.2509733" lon="8.3490683"><ele>575.0</ele><time>2026-04-26T07:44:51.637Z</time></trkpt><trkpt lat="44.2510283" lon="8.3490167"><ele>577.0</ele><time>2026-04-26T07:44:52.637Z</time></trkpt><trkpt lat="44.2510733" lon="8.3489433"><ele>579.0</ele><time>2026-04-26T07:44:53.637Z</time></trkpt><trkpt lat="44.2511117" lon="8.34887"><ele>581.0</ele><time>2026-04-26T07:44:54.637Z</time></trkpt><trkpt lat="44.251165" lon="8.3487817"><ele>581.0</ele><time>2026-04-26T07:44:55.637Z</time></trkpt><trkpt lat="44.2512117" lon="8.3487133"><ele>581.0</ele><time>2026-04-26T07:44:56.637Z</time></trkpt><trkpt lat="44.2512567" lon="8.3486483"><ele>581.0</ele><time>2026-04-26T07:44:57.637Z</time></trkpt><trkpt lat="44.2513083" lon="8.3485817"><ele>581.0</ele><time>2026-04-26T07:44:58.637Z</time></trkpt><trkpt lat="44.2513583" lon="8.3485183"><ele>581.0</ele><time>2026-04-26T07:44:59.637Z</time></trkpt><trkpt lat="44.2514167" lon="8.34844"><ele>581.0</ele><time>2026-04-26T07:45:00.637Z</time></trkpt><trkpt lat="44.25147" lon="8.348375"><ele>581.0</ele><time>2026-04-26T07:45:01.637Z</time></trkpt><trkpt lat="44.25152" lon="8.348315"><ele>583.8333333333333</ele><time>2026-04-26T07:45:02.637Z</time></trkpt><trkpt lat="44.2516033" lon="8.34818"><ele>586.6666666666666</ele><time>2026-04-26T07:45:04.637Z</time></trkpt><trkpt lat="44.251645" lon="8.3480917"><ele>589.5</ele><time>2026-04-26T07:45:05.637Z</time></trkpt><trkpt lat="44.2516867" lon="8.348"><ele>592.3333333333334</ele><time>2026-04-26T07:45:06.637Z</time></trkpt><trkpt lat="44.2517317" lon="8.3479167"><ele>595.1666666666667</ele><time>2026-04-26T07:45:07.637Z</time></trkpt><trkpt lat="44.2517767" lon="8.3478383"><ele>598.0</ele><time>2026-04-26T07:45:08.637Z</time></trkpt><trkpt lat="44.2518217" lon="8.3477667"><ele>598.0</ele><time>2026-04-26T07:45:09.637Z</time></trkpt><trkpt lat="44.2518633" lon="8.347695"><ele>598.0</ele><time>2026-04-26T07:45:10.637Z</time></trkpt><trkpt lat="44.25191" lon="8.3476267"><ele>598.0</ele><time>2026-04-26T07:45:11.637Z</time></trkpt><trkpt lat="44.2519583" lon="8.347565"><ele>598.0</ele><time>2026-04-26T07:45:12.637Z</time></trkpt><trkpt lat="44.252005" lon="8.3475017"><ele>598.0</ele><time>2026-04-26T07:45:13.637Z</time></trkpt><trkpt lat="44.2520633" lon="8.347375"><ele>598.0</ele><time>2026-04-26T07:45:15.638Z</time></trkpt><trkpt lat="44.252055" lon="8.34721"><ele>597.8333333333334</ele><time>2026-04-26T07:45:17.637Z</time></trkpt><trkpt lat="44.25206" lon="8.34712"><ele>597.6666666666667</ele><time>2026-04-26T07:45:18.637Z</time></trkpt><trkpt lat="44.2520917" lon="8.3470183"><ele>597.5</ele><time>2026-04-26T07:45:19.637Z</time></trkpt><trkpt lat="44.2521117" lon="8.346915"><ele>597.3333333333334</ele><time>2026-04-26T07:45:20.637Z</time></trkpt><trkpt lat="44.25211" lon="8.346795"><ele>597.1666666666666</ele><time>2026-04-26T07:45:21.637Z</time></trkpt><trkpt lat="44.25211" lon="8.346685"><ele>597.0</ele><time>2026-04-26T07:45:22.637Z</time></trkpt><trkpt lat="44.2521117" lon="8.34658"><ele>597.0000000000001</ele><time>2026-04-26T07:45:23.637Z</time></trkpt><trkpt lat="44.2521133" lon="8.346475"><ele>597.0</ele><time>2026-04-26T07:45:24.637Z</time></trkpt><trkpt lat="44.25211" lon="8.346375"><ele>597.0</ele><time>2026-04-26T07:45:25.637Z</time></trkpt><trkpt lat="44.25211" lon="8.3462783"><ele>597.0</ele><time>2026-04-26T07:45:26.638Z</time></trkpt><trkpt lat="44.25211" lon="8.3461683"><ele>597.0</ele><time>2026-04-26T07:45:27.637Z</time></trkpt><trkpt lat="44.2521083" lon="8.3460667"><ele>597.0000000000001</ele><time>2026-04-26T07:45:28.637Z</time></trkpt><trkpt lat="44.2520967" lon="8.3459717"><ele>597.0</ele><time>2026-04-26T07:45:29.637Z</time></trkpt><trkpt lat="44.252065" lon="8.345815"><ele>596.6</ele><time>2026-04-26T07:45:31.637Z</time></trkpt><trkpt lat="44.2520467" lon="8.3457017"><ele>596.2</ele><time>2026-04-26T07:45:33.637Z</time></trkpt><trkpt lat="44.2520617" lon="8.3455883"><ele>595.8</ele><time>2026-04-26T07:45:35.637Z</time></trkpt><trkpt lat="44.2521133" lon="8.3455217"><ele>595.4</ele><time>2026-04-26T07:45:37.637Z</time></trkpt><trkpt lat="44.2521767" lon="8.3454233"><ele>595.0</ele><time>2026-04-26T07:45:39.637Z</time></trkpt><trkpt lat="44.2522333" lon="8.3452767"><ele>594.8571428571429</ele><time>2026-04-26T07:45:41.638Z</time></trkpt><trkpt lat="44.2522533" lon="8.345185"><ele>594.7142857142858</ele><time>2026-04-26T07:45:42.637Z</time></trkpt><trkpt lat="44.2522683" lon="8.345085"><ele>594.5714285714286</ele><time>2026-04-26T07:45:43.637Z</time></trkpt><trkpt lat="44.2522683" lon="8.3449817"><ele>594.4285714285714</ele><time>2026-04-26T07:45:44.637Z</time></trkpt><trkpt lat="44.2522667" lon="8.3448767"><ele>594.2857142857143</ele><time>2026-04-26T07:45:45.637Z</time></trkpt><trkpt lat="44.2522633" lon="8.3447717"><ele>594.1428571428571</ele><time>2026-04-26T07:45:46.637Z</time></trkpt><trkpt lat="44.2522567" lon="8.344675"><ele>594.0</ele><time>2026-04-26T07:45:47.637Z</time></trkpt><trkpt lat="44.25224" lon="8.3445833"><ele>594.5</ele><time>2026-04-26T07:45:48.637Z</time></trkpt><trkpt lat="44.2522217" lon="8.3444933"><ele>595.0</ele><time>2026-04-26T07:45:49.637Z</time></trkpt><trkpt lat="44.2522017" lon="8.3444017"><ele>595.5</ele><time>2026-04-26T07:45:50.637Z</time></trkpt><trkpt lat="44.2521833" lon="8.3443083"><ele>596.0</ele><time>2026-04-26T07:45:51.638Z</time></trkpt><trkpt lat="44.25217" lon="8.3442167"><ele>596.5</ele><time>2026-04-26T07:45:52.638Z</time></trkpt><trkpt lat="44.25213" lon="8.3440533"><ele>597.0</ele><time>2026-04-26T07:45:54.637Z</time></trkpt><trkpt lat="44.2521033" lon="8.3439667"><ele>597.3333333333334</ele><time>2026-04-26T07:45:55.637Z</time></trkpt><trkpt lat="44.2520867" lon="8.343875"><ele>597.6666666666666</ele><time>2026-04-26T07:45:56.637Z</time></trkpt><trkpt lat="44.2520867" lon="8.3437817"><ele>598.0</ele><time>2026-04-26T07:45:57.637Z</time></trkpt><trkpt lat="44.2520933" lon="8.3436783"><ele>598.3333333333333</ele><time>2026-04-26T07:45:58.637Z</time></trkpt><trkpt lat="44.25208" lon="8.3435667"><ele>598.6666666666666</ele><time>2026-04-26T07:45:59.637Z</time></trkpt><trkpt lat="44.252065" lon="8.343455"><ele>599.0</ele><time>2026-04-26T07:46:00.637Z</time></trkpt><trkpt lat="44.2520517" lon="8.3433367"><ele>599.0</ele><time>2026-04-26T07:46:01.637Z</time></trkpt><trkpt lat="44.25204" lon="8.3432167"><ele>599.0</ele><time>2026-04-26T07:46:02.637Z</time></trkpt><trkpt lat="44.25203" lon="8.3430983"><ele>599.0</ele><time>2026-04-26T07:46:03.638Z</time></trkpt><trkpt lat="44.252025" lon="8.3429883"><ele>599.0</ele><time>2026-04-26T07:46:04.637Z</time></trkpt><trkpt lat="44.252025" lon="8.3428867"><ele>599.0</ele><time>2026-04-26T07:46:05.637Z</time></trkpt><trkpt lat="44.25202" lon="8.3427767"><ele>599.0</ele><time>2026-04-26T07:46:06.637Z</time></trkpt><trkpt lat="44.25202" lon="8.3426733"><ele>599.3333333333333</ele><time>2026-04-26T07:46:07.637Z</time></trkpt><trkpt lat="44.252025" lon="8.3425783"><ele>599.6666666666666</ele><time>2026-04-26T07:46:08.637Z</time></trkpt><trkpt lat="44.2520417" lon="8.3424833"><ele>600.0</ele><time>2026-04-26T07:46:09.637Z</time></trkpt><trkpt lat="44.25206" lon="8.3423867"><ele>600.3333333333334</ele><time>2026-04-26T07:46:10.637Z</time></trkpt><trkpt lat="44.2520833" lon="8.34228"><ele>600.6666666666667</ele><time>2026-04-26T07:46:11.637Z</time></trkpt><trkpt lat="44.2521267" lon="8.3421767"><ele>601.0</ele><time>2026-04-26T07:46:12.637Z</time></trkpt><trkpt lat="44.252185" lon="8.342085"><ele>602.8</ele><time>2026-04-26T07:46:13.637Z</time></trkpt><trkpt lat="44.25224" lon="8.34198"><ele>604.6</ele><time>2026-04-26T07:46:14.637Z</time></trkpt><trkpt lat="44.2522983" lon="8.3418633"><ele>606.4</ele><time>2026-04-26T07:46:15.637Z</time></trkpt><trkpt lat="44.2523483" lon="8.341735"><ele>608.2</ele><time>2026-04-26T07:46:16.637Z</time></trkpt><trkpt lat="44.252395" lon="8.3416117"><ele>610.0</ele><time>2026-04-26T07:46:17.637Z</time></trkpt><trkpt lat="44.252445" lon="8.3414883"><ele>606.4</ele><time>2026-04-26T07:46:18.637Z</time></trkpt><trkpt lat="44.252495" lon="8.341365"><ele>602.8</ele><time>2026-04-26T07:46:19.637Z</time></trkpt><trkpt lat="44.252555" lon="8.34126"><ele>599.2</ele><time>2026-04-26T07:46:20.637Z</time></trkpt><trkpt lat="44.25262" lon="8.341165"><ele>595.6</ele><time>2026-04-26T07:46:21.637Z</time></trkpt><trkpt lat="44.2526867" lon="8.341085"><ele>592.0</ele><time>2026-04-26T07:46:22.637Z</time></trkpt><trkpt lat="44.2527567" lon="8.3410033"><ele>592.0</ele><time>2026-04-26T07:46:23.637Z</time></trkpt><trkpt lat="44.2528217" lon="8.3409217"><ele>592.0</ele><time>2026-04-26T07:46:24.637Z</time></trkpt><trkpt lat="44.2528767" lon="8.34084"><ele>592.0</ele><time>2026-04-26T07:46:25.637Z</time></trkpt><trkpt lat="44.252925" lon="8.3407617"><ele>592.0</ele><time>2026-04-26T07:46:26.637Z</time></trkpt><trkpt lat="44.25297" lon="8.3406817"><ele>592.0</ele><time>2026-04-26T07:46:27.637Z</time></trkpt><trkpt lat="44.25302" lon="8.3406167"><ele>592.0</ele><time>2026-04-26T07:46:28.637Z</time></trkpt><trkpt lat="44.2530733" lon="8.3405433"><ele>592.8000000000001</ele><time>2026-04-26T07:46:29.637Z</time></trkpt><trkpt lat="44.25315" lon="8.34042"><ele>593.6</ele><time>2026-04-26T07:46:31.637Z</time></trkpt><trkpt lat="44.2531967" lon="8.340245"><ele>594.4000000000001</ele><time>2026-04-26T07:46:33.637Z</time></trkpt><trkpt lat="44.25323" lon="8.3401633"><ele>595.2</ele><time>2026-04-26T07:46:34.637Z</time></trkpt><trkpt lat="44.25328" lon="8.340095"><ele>596.0</ele><time>2026-04-26T07:46:35.637Z</time></trkpt><trkpt lat="44.25333" lon="8.340025"><ele>596.0</ele><time>2026-04-26T07:46:36.637Z</time></trkpt><trkpt lat="44.2533717" lon="8.3399483"><ele>596.0</ele><time>2026-04-26T07:46:37.638Z</time></trkpt><trkpt lat="44.2534067" lon="8.3398583"><ele>596.0</ele><time>2026-04-26T07:46:38.638Z</time></trkpt><trkpt lat="44.253445" lon="8.3397683"><ele>596.0</ele><time>2026-04-26T07:46:39.637Z</time></trkpt><trkpt lat="44.2534817" lon="8.3396833"><ele>596.0</ele><time>2026-04-26T07:46:40.637Z</time></trkpt><trkpt lat="44.2535133" lon="8.3395883"><ele>596.0</ele><time>2026-04-26T07:46:41.637Z</time></trkpt><trkpt lat="44.2535283" lon="8.33949"><ele>596.0</ele><time>2026-04-26T07:46:42.637Z</time></trkpt><trkpt lat="44.2535317" lon="8.339395"><ele>597.1666666666666</ele><time>2026-04-26T07:46:43.637Z</time></trkpt><trkpt lat="44.253515" lon="8.3392883"><ele>598.3333333333333</ele><time>2026-04-26T07:46:44.638Z</time></trkpt><trkpt lat="44.25348" lon="8.3391867"><ele>599.5</ele><time>2026-04-26T07:46:45.637Z</time></trkpt><trkpt lat="44.2534417" lon="8.33909"><ele>600.6666666666666</ele><time>2026-04-26T07:46:46.638Z</time></trkpt><trkpt lat="44.2533983" lon="8.3389833"><ele>601.8333333333334</ele><time>2026-04-26T07:46:47.638Z</time></trkpt><trkpt lat="44.253365" lon="8.338885"><ele>603.0</ele><time>2026-04-26T07:46:48.637Z</time></trkpt><trkpt lat="44.2533367" lon="8.3387917"><ele>604.7142857142858</ele><time>2026-04-26T07:46:49.637Z</time></trkpt><trkpt lat="44.2533183" lon="8.3386983"><ele>606.4285714285713</ele><time>2026-04-26T07:46:50.637Z</time></trkpt><trkpt lat="44.2533" lon="8.3385883"><ele>608.1428571428571</ele><time>2026-04-26T07:46:51.637Z</time></trkpt><trkpt lat="44.253275" lon="8.3384983"><ele>609.8571428571429</ele><time>2026-04-26T07:46:52.637Z</time></trkpt><trkpt lat="44.2532367" lon="8.3384283"><ele>611.5714285714287</ele><time>2026-04-26T07:46:53.637Z</time></trkpt><trkpt lat="44.2532017" lon="8.3383517"><ele>613.2857142857142</ele><time>2026-04-26T07:46:54.637Z</time></trkpt><trkpt lat="44.253175" lon="8.3382217"><ele>615.0</ele><time>2026-04-26T07:46:56.637Z</time></trkpt><trkpt lat="44.25321" lon="8.3380983"><ele>617.5</ele><time>2026-04-26T07:46:58.637Z</time></trkpt><trkpt lat="44.2533083" lon="8.3380117"><ele>620.0</ele><time>2026-04-26T07:47:00.637Z</time></trkpt><trkpt lat="44.253365" lon="8.3379617"><ele>622.5</ele><time>2026-04-26T07:47:01.637Z</time></trkpt><trkpt lat="44.2534333" lon="8.3379233"><ele>625.0</ele><time>2026-04-26T07:47:02.637Z</time></trkpt><trkpt lat="44.2535117" lon="8.33791"><ele>627.5</ele><time>2026-04-26T07:47:03.637Z</time></trkpt><trkpt lat="44.2535767" lon="8.3379017"><ele>630.0</ele><time>2026-04-26T07:47:04.637Z</time></trkpt><trkpt lat="44.25365" lon="8.3378767"><ele>630.0</ele><time>2026-04-26T07:47:05.637Z</time></trkpt><trkpt lat="44.2537283" lon="8.3378433"><ele>630.0</ele><time>2026-04-26T07:47:06.637Z</time></trkpt><trkpt lat="44.2538517" lon="8.337785"><ele>630.0</ele><time>2026-04-26T07:47:08.637Z</time></trkpt><trkpt lat="44.2539583" lon="8.3376967"><ele>630.0</ele><time>2026-04-26T07:47:10.637Z</time></trkpt><trkpt lat="44.2540667" lon="8.3376333"><ele>627.8</ele><time>2026-04-26T07:47:12.637Z</time></trkpt><trkpt lat="44.2541717" lon="8.3376483"><ele>625.6</ele><time>2026-04-26T07:47:14.637Z</time></trkpt><trkpt lat="44.2542617" lon="8.337605"><ele>623.4</ele><time>2026-04-26T07:47:16.637Z</time></trkpt><trkpt lat="44.2543217" lon="8.337475"><ele>621.2</ele><time>2026-04-26T07:47:18.637Z</time></trkpt><trkpt lat="44.25435" lon="8.3373917"><ele>619.0</ele><time>2026-04-26T07:47:19.637Z</time></trkpt><trkpt lat="44.2544" lon="8.33724"><ele>620.3333333333334</ele><time>2026-04-26T07:47:21.637Z</time></trkpt><trkpt lat="44.2544367" lon="8.3371217"><ele>621.6666666666667</ele><time>2026-04-26T07:47:23.637Z</time></trkpt><trkpt lat="44.25439" lon="8.33704"><ele>623.0</ele><time>2026-04-26T07:47:25.637Z</time></trkpt><trkpt lat="44.2542817" lon="8.3369817"><ele>624.3333333333334</ele><time>2026-04-26T07:47:27.637Z</time></trkpt><trkpt lat="44.25422" lon="8.336935"><ele>625.6666666666666</ele><time>2026-04-26T07:47:28.637Z</time></trkpt><trkpt lat="44.2541567" lon="8.3368717"><ele>627.0</ele><time>2026-04-26T07:47:29.637Z</time></trkpt><trkpt lat="44.2540983" lon="8.3367933"><ele>627.0</ele><time>2026-04-26T07:47:30.637Z</time></trkpt><trkpt lat="44.25405" lon="8.3366967"><ele>627.0</ele><time>2026-04-26T07:47:31.638Z</time></trkpt><trkpt lat="44.2540117" lon="8.3366033"><ele>627.0</ele><time>2026-04-26T07:47:32.637Z</time></trkpt><trkpt lat="44.2539767" lon="8.3365033"><ele>627.0</ele><time>2026-04-26T07:47:33.637Z</time></trkpt><trkpt lat="44.2539333" lon="8.3364167"><ele>627.0</ele><time>2026-04-26T07:47:34.637Z</time></trkpt><trkpt lat="44.2538883" lon="8.3363233"><ele>627.0</ele><time>2026-04-26T07:47:35.637Z</time></trkpt><trkpt lat="44.2538367" lon="8.3362067"><ele>628.3333333333334</ele><time>2026-04-26T07:47:36.637Z</time></trkpt><trkpt lat="44.253785" lon="8.3360883"><ele>629.6666666666666</ele><time>2026-04-26T07:47:37.637Z</time></trkpt><trkpt lat="44.2537467" lon="8.3359833"><ele>631.0</ele><time>2026-04-26T07:47:38.637Z</time></trkpt><trkpt lat="44.2537283" lon="8.3358817"><ele>632.3333333333333</ele><time>2026-04-26T07:47:39.637Z</time></trkpt><trkpt lat="44.253725" lon="8.335775"><ele>633.6666666666666</ele><time>2026-04-26T07:47:40.637Z</time></trkpt><trkpt lat="44.2537383" lon="8.3356783"><ele>635.0</ele><time>2026-04-26T07:47:41.637Z</time></trkpt><trkpt lat="44.2537667" lon="8.335585"><ele>634.8333333333333</ele><time>2026-04-26T07:47:42.637Z</time></trkpt><trkpt lat="44.25381" lon="8.33549"><ele>634.6666666666666</ele><time>2026-04-26T07:47:43.637Z</time></trkpt><trkpt lat="44.253855" lon="8.335385"><ele>634.5</ele><time>2026-04-26T07:47:44.637Z</time></trkpt><trkpt lat="44.2539017" lon="8.3352767"><ele>634.3333333333334</ele><time>2026-04-26T07:47:45.637Z</time></trkpt><trkpt lat="44.2539483" lon="8.33516"><ele>634.1666666666667</ele><time>2026-04-26T07:47:46.637Z</time></trkpt><trkpt lat="44.2539933" lon="8.335045"><ele>634.0</ele><time>2026-04-26T07:47:47.637Z</time></trkpt><trkpt lat="44.254045" lon="8.33494"><ele>634.0</ele><time>2026-04-26T07:47:48.637Z</time></trkpt><trkpt lat="44.2541083" lon="8.334845"><ele>634.0</ele><time>2026-04-26T07:47:49.637Z</time></trkpt><trkpt lat="44.2541767" lon="8.334755"><ele>634.0</ele><time>2026-04-26T07:47:50.637Z</time></trkpt><trkpt lat="44.2542533" lon="8.3346833"><ele>634.0</ele><time>2026-04-26T07:47:51.637Z</time></trkpt><trkpt lat="44.254345" lon="8.3346317"><ele>634.0</ele><time>2026-04-26T07:47:52.637Z</time></trkpt><trkpt lat="44.254435" lon="8.3345917"><ele>634.5</ele><time>2026-04-26T07:47:53.637Z</time></trkpt><trkpt lat="44.2545133" lon="8.3345517"><ele>635.0</ele><time>2026-04-26T07:47:54.637Z</time></trkpt><trkpt lat="44.2545833" lon="8.3345017"><ele>635.5</ele><time>2026-04-26T07:47:55.637Z</time></trkpt><trkpt lat="44.2546433" lon="8.3344233"><ele>636.0</ele><time>2026-04-26T07:47:56.637Z</time></trkpt><trkpt lat="44.2546867" lon="8.33433"><ele>636.5</ele><time>2026-04-26T07:47:57.637Z</time></trkpt><trkpt lat="44.2547167" lon="8.3342233"><ele>637.0</ele><time>2026-04-26T07:47:58.637Z</time></trkpt><trkpt lat="44.25474" lon="8.3341083"><ele>637.0</ele><time>2026-04-26T07:47:59.637Z</time></trkpt><trkpt lat="44.2547683" lon="8.33398"><ele>637.0</ele><time>2026-04-26T07:48:00.637Z</time></trkpt><trkpt lat="44.2548067" lon="8.3338383"><ele>637.0</ele><time>2026-04-26T07:48:01.637Z</time></trkpt><trkpt lat="44.254855" lon="8.3337067"><ele>637.0</ele><time>2026-04-26T07:48:02.637Z</time></trkpt><trkpt lat="44.2549133" lon="8.3335733"><ele>637.0</ele><time>2026-04-26T07:48:03.637Z</time></trkpt><trkpt lat="44.2549867" lon="8.3334483"><ele>639.0</ele><time>2026-04-26T07:48:04.637Z</time></trkpt><trkpt lat="44.255065" lon="8.3333217"><ele>641.0</ele><time>2026-04-26T07:48:05.637Z</time></trkpt><trkpt lat="44.2551467" lon="8.3331983"><ele>643.0</ele><time>2026-04-26T07:48:06.637Z</time></trkpt><trkpt lat="44.2552317" lon="8.3330917"><ele>645.0</ele><time>2026-04-26T07:48:07.637Z</time></trkpt><trkpt lat="44.2553233" lon="8.332995"><ele>645.2</ele><time>2026-04-26T07:48:08.637Z</time></trkpt><trkpt lat="44.25542" lon="8.33291"><ele>645.4</ele><time>2026-04-26T07:48:09.637Z</time></trkpt><trkpt lat="44.2555117" lon="8.3328283"><ele>645.5999999999999</ele><time>2026-04-26T07:48:10.637Z</time></trkpt><trkpt lat="44.2556083" lon="8.332765"><ele>645.8</ele><time>2026-04-26T07:48:11.637Z</time></trkpt><trkpt lat="44.255695" lon="8.3327117"><ele>646.0</ele><time>2026-04-26T07:48:12.637Z</time></trkpt><trkpt lat="44.2557883" lon="8.3326617"><ele>648.25</ele><time>2026-04-26T07:48:13.637Z</time></trkpt><trkpt lat="44.2558867" lon="8.3325867"><ele>650.5</ele><time>2026-04-26T07:48:14.637Z</time></trkpt><trkpt lat="44.2559883" lon="8.3324917"><ele>652.75</ele><time>2026-04-26T07:48:15.637Z</time></trkpt><trkpt lat="44.256085" lon="8.3323917"><ele>655.0</ele><time>2026-04-26T07:48:16.637Z</time></trkpt><trkpt lat="44.2561683" lon="8.3323"><ele>655.0</ele><time>2026-04-26T07:48:17.637Z</time></trkpt><trkpt lat="44.2562483" lon="8.3322267"><ele>655.0</ele><time>2026-04-26T07:48:18.637Z</time></trkpt><trkpt lat="44.2563233" lon="8.3321583"><ele>655.0</ele><time>2026-04-26T07:48:19.637Z</time></trkpt><trkpt lat="44.2563917" lon="8.3320817"><ele>655.0</ele><time>2026-04-26T07:48:20.637Z</time></trkpt><trkpt lat="44.25645" lon="8.3319883"><ele>655.0</ele><time>2026-04-26T07:48:21.637Z</time></trkpt><trkpt lat="44.2564917" lon="8.331885"><ele>655.0</ele><time>2026-04-26T07:48:22.638Z</time></trkpt><trkpt lat="44.25652" lon="8.3317833"><ele>655.4</ele><time>2026-04-26T07:48:23.637Z</time></trkpt><trkpt lat="44.25654" lon="8.331645"><ele>655.8</ele><time>2026-04-26T07:48:25.637Z</time></trkpt><trkpt lat="44.25654" lon="8.3315133"><ele>656.2</ele><time>2026-04-26T07:48:44.637Z</time></trkpt><trkpt lat="44.2565483" lon="8.3313767"><ele>656.6</ele><time>2026-04-26T07:48:46.637Z</time></trkpt><trkpt lat="44.2566083" lon="8.33123"><ele>657.0</ele><time>2026-04-26T07:48:48.637Z</time></trkpt><trkpt lat="44.2566517" lon="8.331165"><ele>659.6666666666666</ele><time>2026-04-26T07:48:49.637Z</time></trkpt><trkpt lat="44.256705" lon="8.3311117"><ele>662.3333333333334</ele><time>2026-04-26T07:48:50.637Z</time></trkpt><trkpt lat="44.25678" lon="8.3310633"><ele>665.0</ele><time>2026-04-26T07:48:51.637Z</time></trkpt><trkpt lat="44.2568717" lon="8.3310233"><ele>667.6666666666667</ele><time>2026-04-26T07:48:52.637Z</time></trkpt><trkpt lat="44.2569583" lon="8.3309833"><ele>670.3333333333334</ele><time>2026-04-26T07:48:53.637Z</time></trkpt><trkpt lat="44.2570533" lon="8.33095"><ele>673.0</ele><time>2026-04-26T07:48:54.638Z</time></trkpt><trkpt lat="44.257145" lon="8.33091"><ele>673.0</ele><time>2026-04-26T07:48:55.637Z</time></trkpt><trkpt lat="44.25724" lon="8.330905"><ele>673.0</ele><time>2026-04-26T07:48:56.637Z</time></trkpt><trkpt lat="44.25733" lon="8.330925"><ele>673.0</ele><time>2026-04-26T07:48:57.638Z</time></trkpt><trkpt lat="44.2574267" lon="8.3309383"><ele>673.0</ele><time>2026-04-26T07:48:58.637Z</time></trkpt><trkpt lat="44.25753" lon="8.3309517"><ele>673.0</ele><time>2026-04-26T07:48:59.638Z</time></trkpt><trkpt lat="44.2576233" lon="8.3309417"><ele>673.5</ele><time>2026-04-26T07:49:00.637Z</time></trkpt><trkpt lat="44.25771" lon="8.3309333"><ele>674.0</ele><time>2026-04-26T07:49:01.637Z</time></trkpt><trkpt lat="44.2577983" lon="8.3309383"><ele>674.5</ele><time>2026-04-26T07:49:02.637Z</time></trkpt><trkpt lat="44.25788" lon="8.3309633"><ele>675.0</ele><time>2026-04-26T07:49:03.637Z</time></trkpt><trkpt lat="44.2579567" lon="8.33101"><ele>675.5</ele><time>2026-04-26T07:49:04.637Z</time></trkpt><trkpt lat="44.25804" lon="8.3310683"><ele>676.0</ele><time>2026-04-26T07:49:05.637Z</time></trkpt><trkpt lat="44.2581267" lon="8.331145"><ele>676.0</ele><time>2026-04-26T07:49:06.637Z</time></trkpt><trkpt lat="44.2582233" lon="8.331235"><ele>676.0</ele><time>2026-04-26T07:49:07.637Z</time></trkpt><trkpt lat="44.25832" lon="8.3313367"><ele>676.0</ele><time>2026-04-26T07:49:08.637Z</time></trkpt><trkpt lat="44.2584183" lon="8.3314417"><ele>676.0</ele><time>2026-04-26T07:49:09.637Z</time></trkpt><trkpt lat="44.25852" lon="8.3315167"><ele>673.0</ele><time>2026-04-26T07:49:10.637Z</time></trkpt><trkpt lat="44.25863" lon="8.3315833"><ele>670.0</ele><time>2026-04-26T07:49:11.637Z</time></trkpt><trkpt lat="44.258745" lon="8.331645"><ele>667.0</ele><time>2026-04-26T07:49:12.637Z</time></trkpt><trkpt lat="44.258845" lon="8.3316983"><ele>664.0</ele><time>2026-04-26T07:49:13.637Z</time></trkpt><trkpt lat="44.25894" lon="8.3317317"><ele>661.0</ele><time>2026-04-26T07:49:14.637Z</time></trkpt><trkpt lat="44.25903" lon="8.3317367"><ele>661.0</ele><time>2026-04-26T07:49:15.637Z</time></trkpt><trkpt lat="44.2591167" lon="8.3317333"><ele>661.0</ele><time>2026-04-26T07:49:16.637Z</time></trkpt><trkpt lat="44.2592083" lon="8.3317267"><ele>661.0</ele><time>2026-04-26T07:49:17.637Z</time></trkpt><trkpt lat="44.2592917" lon="8.3317283"><ele>661.0</ele><time>2026-04-26T07:49:18.637Z</time></trkpt><trkpt lat="44.2593933" lon="8.3317517"><ele>661.0</ele><time>2026-04-26T07:49:19.637Z</time></trkpt><trkpt lat="44.25952" lon="8.3317867"><ele>661.0</ele><time>2026-04-26T07:49:20.637Z</time></trkpt><trkpt lat="44.2596433" lon="8.3318267"><ele>661.0</ele><time>2026-04-26T07:49:21.637Z</time></trkpt><trkpt lat="44.2597467" lon="8.3318667"><ele>661.0</ele><time>2026-04-26T07:49:22.637Z</time></trkpt><trkpt lat="44.2598283" lon="8.3318917"><ele>661.0</ele><time>2026-04-26T07:49:23.637Z</time></trkpt><trkpt lat="44.2599" lon="8.3319"><ele>661.0</ele><time>2026-04-26T07:49:24.637Z</time></trkpt><trkpt lat="44.2600183" lon="8.33184"><ele>660.0</ele><time>2026-04-26T07:49:26.637Z</time></trkpt><trkpt lat="44.26009" lon="8.331765"><ele>659.0</ele><time>2026-04-26T07:49:27.638Z</time></trkpt><trkpt lat="44.26016" lon="8.3316783"><ele>658.0</ele><time>2026-04-26T07:49:28.637Z</time></trkpt><trkpt lat="44.2602417" lon="8.3315917"><ele>657.0</ele><time>2026-04-26T07:49:29.637Z</time></trkpt><trkpt lat="44.2603317" lon="8.33152"><ele>656.0</ele><time>2026-04-26T07:49:30.637Z</time></trkpt><trkpt lat="44.26042" lon="8.331475"><ele>656.0</ele><time>2026-04-26T07:49:31.637Z</time></trkpt><trkpt lat="44.2605017" lon="8.3314683"><ele>656.0</ele><time>2026-04-26T07:49:32.638Z</time></trkpt><trkpt lat="44.26059" lon="8.331475"><ele>656.0</ele><time>2026-04-26T07:49:33.637Z</time></trkpt><trkpt lat="44.2606733" lon="8.3315183"><ele>656.0</ele><time>2026-04-26T07:49:34.637Z</time></trkpt><trkpt lat="44.260765" lon="8.33157"><ele>656.0</ele><time>2026-04-26T07:49:35.637Z</time></trkpt><trkpt lat="44.26085" lon="8.3316117"><ele>656.0</ele><time>2026-04-26T07:49:36.637Z</time></trkpt><trkpt lat="44.2609417" lon="8.331625"><ele>655.1666666666666</ele><time>2026-04-26T07:49:37.637Z</time></trkpt><trkpt lat="44.26103" lon="8.33163"><ele>654.3333333333333</ele><time>2026-04-26T07:49:38.637Z</time></trkpt><trkpt lat="44.2611083" lon="8.331615"><ele>653.5</ele><time>2026-04-26T07:49:39.637Z</time></trkpt><trkpt lat="44.2611783" lon="8.3315767"><ele>652.6666666666666</ele><time>2026-04-26T07:49:40.637Z</time></trkpt><trkpt lat="44.26124" lon="8.33152"><ele>651.8333333333334</ele><time>2026-04-26T07:49:41.637Z</time></trkpt><trkpt lat="44.2613" lon="8.33146"><ele>651.0</ele><time>2026-04-26T07:49:42.637Z</time></trkpt><trkpt lat="44.2613617" lon="8.3313583"><ele>650.75</ele><time>2026-04-26T07:49:43.637Z</time></trkpt><trkpt lat="44.261425" lon="8.3312333"><ele>650.5</ele><time>2026-04-26T07:49:44.638Z</time></trkpt><trkpt lat="44.2615" lon="8.3310967"><ele>650.25</ele><time>2026-04-26T07:49:45.637Z</time></trkpt><trkpt lat="44.261585" lon="8.330955"><ele>650.0</ele><time>2026-04-26T07:49:46.637Z</time></trkpt><trkpt lat="44.2616617" lon="8.33082"><ele>650.0</ele><time>2026-04-26T07:49:47.637Z</time></trkpt><trkpt lat="44.2617267" lon="8.330685"><ele>650.0</ele><time>2026-04-26T07:49:48.637Z</time></trkpt><trkpt lat="44.2617783" lon="8.3305667"><ele>650.0</ele><time>2026-04-26T07:49:49.637Z</time></trkpt><trkpt lat="44.2618183" lon="8.3304433"><ele>650.0</ele><time>2026-04-26T07:49:50.637Z</time></trkpt><trkpt lat="44.2618517" lon="8.3303133"><ele>650.0</ele><time>2026-04-26T07:49:51.637Z</time></trkpt><trkpt lat="44.2618783" lon="8.330185"><ele>651.6666666666666</ele><time>2026-04-26T07:49:52.637Z</time></trkpt><trkpt lat="44.2618967" lon="8.330065"><ele>653.3333333333333</ele><time>2026-04-26T07:49:53.637Z</time></trkpt><trkpt lat="44.2619233" lon="8.3299467"><ele>655.0</ele><time>2026-04-26T07:49:54.637Z</time></trkpt><trkpt lat="44.261955" lon="8.3298483"><ele>656.6666666666666</ele><time>2026-04-26T07:49:55.637Z</time></trkpt><trkpt lat="44.261995" lon="8.32971"><ele>658.3333333333334</ele><time>2026-04-26T07:49:57.637Z</time></trkpt><trkpt lat="44.2619733" lon="8.32961"><ele>660.0</ele><time>2026-04-26T07:52:23.637Z</time></trkpt><trkpt lat="44.26193" lon="8.32971"><ele>660.0</ele><time>2026-04-26T07:52:26.637Z</time></trkpt><trkpt lat="44.2619033" lon="8.3298717"><ele>660.0</ele><time>2026-04-26T07:52:28.637Z</time></trkpt><trkpt lat="44.261885" lon="8.329985"><ele>660.0</ele><time>2026-04-26T07:52:29.637Z</time></trkpt><trkpt lat="44.2618783" lon="8.3301117"><ele>660.0</ele><time>2026-04-26T07:52:30.638Z</time></trkpt><trkpt lat="44.26187" lon="8.330235"><ele>660.0</ele><time>2026-04-26T07:52:31.637Z</time></trkpt><trkpt lat="44.2618383" lon="8.3303583"><ele>660.0</ele><time>2026-04-26T07:52:32.637Z</time></trkpt><trkpt lat="44.2617917" lon="8.3304933"><ele>660.0</ele><time>2026-04-26T07:52:33.638Z</time></trkpt><trkpt lat="44.261745" lon="8.3306283"><ele>660.0</ele><time>2026-04-26T07:52:34.637Z</time></trkpt><trkpt lat="44.2616867" lon="8.330775"><ele>660.0</ele><time>2026-04-26T07:52:35.638Z</time></trkpt><trkpt lat="44.2616133" lon="8.3309167"><ele>657.5</ele><time>2026-04-26T07:52:36.637Z</time></trkpt><trkpt lat="44.26153" lon="8.33105"><ele>655.0</ele><time>2026-04-26T07:52:37.637Z</time></trkpt><trkpt lat="44.26145" lon="8.3311633"><ele>652.5</ele><time>2026-04-26T07:52:38.637Z</time></trkpt><trkpt lat="44.2613783" lon="8.3312817"><ele>650.0</ele><time>2026-04-26T07:52:39.637Z</time></trkpt><trkpt lat="44.2613" lon="8.33138"><ele>650.1666666666666</ele><time>2026-04-26T07:52:40.637Z</time></trkpt><trkpt lat="44.261235" lon="8.3314567"><ele>650.3333333333333</ele><time>2026-04-26T07:52:41.638Z</time></trkpt><trkpt lat="44.2611733" lon="8.33152"><ele>650.5</ele><time>2026-04-26T07:52:42.638Z</time></trkpt><trkpt lat="44.2610983" lon="8.3315633"><ele>650.6666666666666</ele><time>2026-04-26T07:52:43.638Z</time></trkpt><trkpt lat="44.2610217" lon="8.33158"><ele>650.8333333333334</ele><time>2026-04-26T07:52:44.637Z</time></trkpt><trkpt lat="44.2609183" lon="8.3315883"><ele>651.0</ele><time>2026-04-26T07:52:45.637Z</time></trkpt><trkpt lat="44.26082" lon="8.3315833"><ele>651.0</ele><time>2026-04-26T07:52:46.637Z</time></trkpt><trkpt lat="44.2607167" lon="8.3315333"><ele>651.0</ele><time>2026-04-26T07:52:47.637Z</time></trkpt><trkpt lat="44.2606117" lon="8.33148"><ele>651.0</ele><time>2026-04-26T07:52:48.637Z</time></trkpt><trkpt lat="44.2605183" lon="8.33144"><ele>651.0</ele><time>2026-04-26T07:52:49.638Z</time></trkpt><trkpt lat="44.2604267" lon="8.3314467"><ele>651.0</ele><time>2026-04-26T07:52:50.637Z</time></trkpt><trkpt lat="44.2603383" lon="8.33149"><ele>652.0</ele><time>2026-04-26T07:52:51.637Z</time></trkpt><trkpt lat="44.2602467" lon="8.3315617"><ele>653.0</ele><time>2026-04-26T07:52:52.637Z</time></trkpt><trkpt lat="44.2601567" lon="8.33166"><ele>654.0</ele><time>2026-04-26T07:52:53.637Z</time></trkpt><trkpt lat="44.260075" lon="8.331755"><ele>655.0</ele><time>2026-04-26T07:52:54.637Z</time></trkpt><trkpt lat="44.260005" lon="8.3318317"><ele>656.0</ele><time>2026-04-26T07:52:55.637Z</time></trkpt><trkpt lat="44.2599433" lon="8.331875"><ele>656.0</ele><time>2026-04-26T07:52:56.637Z</time></trkpt><trkpt lat="44.25988" lon="8.3318983"><ele>656.0</ele><time>2026-04-26T07:52:57.637Z</time></trkpt><trkpt lat="44.2598117" lon="8.3318817"><ele>656.0</ele><time>2026-04-26T07:52:58.637Z</time></trkpt><trkpt lat="44.259735" lon="8.33184"><ele>656.0</ele><time>2026-04-26T07:52:59.637Z</time></trkpt><trkpt lat="44.25964" lon="8.3317883"><ele>656.0</ele><time>2026-04-26T07:53:00.637Z</time></trkpt><trkpt lat="44.2595367" lon="8.3317433"><ele>656.0</ele><time>2026-04-26T07:53:01.637Z</time></trkpt><trkpt lat="44.2594267" lon="8.3317133"><ele>655.5999999999999</ele><time>2026-04-26T07:53:02.637Z</time></trkpt><trkpt lat="44.2593233" lon="8.3317"><ele>655.2</ele><time>2026-04-26T07:53:03.637Z</time></trkpt><trkpt lat="44.2592233" lon="8.3316983"><ele>654.8</ele><time>2026-04-26T07:53:04.637Z</time></trkpt><trkpt lat="44.2591267" lon="8.331705"><ele>654.4000000000001</ele><time>2026-04-26T07:53:05.637Z</time></trkpt><trkpt lat="44.2590333" lon="8.3317133"><ele>654.0</ele><time>2026-04-26T07:53:06.637Z</time></trkpt><trkpt lat="44.2589417" lon="8.3316933"><ele>654.0</ele><time>2026-04-26T07:53:07.637Z</time></trkpt><trkpt lat="44.258845" lon="8.3316583"><ele>654.0</ele><time>2026-04-26T07:53:08.637Z</time></trkpt><trkpt lat="44.2587467" lon="8.3315983"><ele>654.0</ele><time>2026-04-26T07:53:09.638Z</time></trkpt><trkpt lat="44.2586417" lon="8.3315433"><ele>654.0</ele><time>2026-04-26T07:53:10.637Z</time></trkpt><trkpt lat="44.2585367" lon="8.3314933"><ele>654.0</ele><time>2026-04-26T07:53:11.637Z</time></trkpt><trkpt lat="44.25844" lon="8.331445"><ele>656.2</ele><time>2026-04-26T07:53:12.637Z</time></trkpt><trkpt lat="44.2583483" lon="8.331375"><ele>658.4000000000001</ele><time>2026-04-26T07:53:13.637Z</time></trkpt><trkpt lat="44.25825" lon="8.3312983"><ele>660.6</ele><time>2026-04-26T07:53:14.637Z</time></trkpt><trkpt lat="44.2581617" lon="8.3312133"><ele>662.8</ele><time>2026-04-26T07:53:15.637Z</time></trkpt><trkpt lat="44.2580633" lon="8.3311167"><ele>665.0</ele><time>2026-04-26T07:53:16.637Z</time></trkpt><trkpt lat="44.25797" lon="8.3310283"><ele>665.0</ele><time>2026-04-26T07:53:17.637Z</time></trkpt><trkpt lat="44.2578833" lon="8.3309633"><ele>665.0</ele><time>2026-04-26T07:53:18.637Z</time></trkpt><trkpt lat="44.2577967" lon="8.3309283"><ele>665.0</ele><time>2026-04-26T07:53:19.637Z</time></trkpt><trkpt lat="44.2577033" lon="8.3309183"><ele>665.0</ele><time>2026-04-26T07:53:20.637Z</time></trkpt><trkpt lat="44.257595" lon="8.33092"><ele>665.0</ele><time>2026-04-26T07:53:21.637Z</time></trkpt><trkpt lat="44.2574817" lon="8.3309233"><ele>665.0</ele><time>2026-04-26T07:53:22.637Z</time></trkpt><trkpt lat="44.257365" lon="8.330915"><ele>665.0</ele><time>2026-04-26T07:53:23.637Z</time></trkpt><trkpt lat="44.2572567" lon="8.330915"><ele>665.0</ele><time>2026-04-26T07:53:24.637Z</time></trkpt><trkpt lat="44.2571467" lon="8.3309267"><ele>665.0</ele><time>2026-04-26T07:53:25.637Z</time></trkpt><trkpt lat="44.2570433" lon="8.3309433"><ele>665.0</ele><time>2026-04-26T07:53:26.637Z</time></trkpt><trkpt lat="44.2569467" lon="8.3309683"><ele>667.0</ele><time>2026-04-26T07:53:27.637Z</time></trkpt><trkpt lat="44.2567633" lon="8.3310783"><ele>669.0</ele><time>2026-04-26T07:53:29.637Z</time></trkpt><trkpt lat="44.25663" lon="8.3311983"><ele>671.0</ele><time>2026-04-26T07:53:31.637Z</time></trkpt><trkpt lat="44.256575" lon="8.3312467"><ele>673.0</ele><time>2026-04-26T07:53:33.638Z</time></trkpt><trkpt lat="44.2564767" lon="8.331385"><ele>671.2</ele><time>2026-04-26T07:53:35.637Z</time></trkpt><trkpt lat="44.256375" lon="8.33152"><ele>669.4</ele><time>2026-04-26T07:53:37.637Z</time></trkpt><trkpt lat="44.2563083" lon="8.3316083"><ele>667.6</ele><time>2026-04-26T07:53:38.637Z</time></trkpt><trkpt lat="44.2562417" lon="8.3316833"><ele>665.8000000000001</ele><time>2026-04-26T07:53:39.637Z</time></trkpt><trkpt lat="44.2561583" lon="8.33174"><ele>664.0</ele><time>2026-04-26T07:53:40.637Z</time></trkpt><trkpt lat="44.256075" lon="8.3317783"><ele>664.0</ele><time>2026-04-26T07:53:41.637Z</time></trkpt><trkpt lat="44.2559217" lon="8.3317817"><ele>664.0</ele><time>2026-04-26T07:53:43.637Z</time></trkpt><trkpt lat="44.2558533" lon="8.3317417"><ele>664.0</ele><time>2026-04-26T07:53:44.638Z</time></trkpt><trkpt lat="44.2557967" lon="8.331675"><ele>664.0</ele><time>2026-04-26T07:53:45.637Z</time></trkpt><trkpt lat="44.2557483" lon="8.3315917"><ele>664.0</ele><time>2026-04-26T07:53:46.637Z</time></trkpt><trkpt lat="44.25571" lon="8.3314867"><ele>666.5</ele><time>2026-04-26T07:53:47.637Z</time></trkpt><trkpt lat="44.2556733" lon="8.33138"><ele>669.0</ele><time>2026-04-26T07:53:48.637Z</time></trkpt><trkpt lat="44.2556467" lon="8.3312517"><ele>671.5</ele><time>2026-04-26T07:53:49.638Z</time></trkpt><trkpt lat="44.2556433" lon="8.330985"><ele>674.0</ele><time>2026-04-26T07:53:51.638Z</time></trkpt><trkpt lat="44.2556567" lon="8.3308667"><ele>674.0</ele><time>2026-04-26T07:53:52.637Z</time></trkpt><trkpt lat="44.2556767" lon="8.3307683"><ele>674.0</ele><time>2026-04-26T07:53:53.637Z</time></trkpt><trkpt lat="44.2557017" lon="8.330675"><ele>674.0</ele><time>2026-04-26T07:53:54.637Z</time></trkpt><trkpt lat="44.2557383" lon="8.3305767"><ele>674.0</ele><time>2026-04-26T07:53:55.637Z</time></trkpt><trkpt lat="44.2557817" lon="8.3304817"><ele>674.0</ele><time>2026-04-26T07:53:56.637Z</time></trkpt><trkpt lat="44.2558283" lon="8.3303817"><ele>674.0</ele><time>2026-04-26T07:53:57.637Z</time></trkpt><trkpt lat="44.2558467" lon="8.330285"><ele>674.0</ele><time>2026-04-26T07:53:58.637Z</time></trkpt><trkpt lat="44.255865" lon="8.3301233"><ele>674.0</ele><time>2026-04-26T07:54:00.637Z</time></trkpt><trkpt lat="44.2559017" lon="8.330005"><ele>674.0</ele><time>2026-04-26T07:54:02.637Z</time></trkpt><trkpt lat="44.2559667" lon="8.3298733"><ele>674.0</ele><time>2026-04-26T07:54:04.637Z</time></trkpt><trkpt lat="44.2560083" lon="8.329785"><ele>674.0</ele><time>2026-04-26T07:54:05.637Z</time></trkpt><trkpt lat="44.2560433" lon="8.3296817"><ele>674.0</ele><time>2026-04-26T07:54:06.637Z</time></trkpt><trkpt lat="44.256145" lon="8.3294967"><ele>674.0</ele><time>2026-04-26T07:54:08.637Z</time></trkpt><trkpt lat="44.256205" lon="8.329415"><ele>674.0</ele><time>2026-04-26T07:54:09.637Z</time></trkpt><trkpt lat="44.2562533" lon="8.3293267"><ele>674.0</ele><time>2026-04-26T07:54:10.637Z</time></trkpt><trkpt lat="44.2562817" lon="8.3292167"><ele>674.0</ele><time>2026-04-26T07:54:11.637Z</time></trkpt><trkpt lat="44.25631" lon="8.3290883"><ele>674.0</ele><time>2026-04-26T07:54:12.637Z</time></trkpt><trkpt lat="44.25633" lon="8.3289517"><ele>674.0</ele><time>2026-04-26T07:54:13.637Z</time></trkpt><trkpt lat="44.2563533" lon="8.3288333"><ele>674.0</ele><time>2026-04-26T07:54:14.637Z</time></trkpt><trkpt lat="44.2563783" lon="8.3287083"><ele>674.0</ele><time>2026-04-26T07:54:15.637Z</time></trkpt><trkpt lat="44.2563933" lon="8.3285817"><ele>674.0</ele><time>2026-04-26T07:54:16.637Z</time></trkpt><trkpt lat="44.25641" lon="8.3284683"><ele>675.2</ele><time>2026-04-26T07:54:17.637Z</time></trkpt><trkpt lat="44.2564267" lon="8.3283467"><ele>676.4000000000001</ele><time>2026-04-26T07:54:18.637Z</time></trkpt><trkpt lat="44.2564467" lon="8.3282083"><ele>677.6</ele><time>2026-04-26T07:54:19.638Z</time></trkpt><trkpt lat="44.2564533" lon="8.32806"><ele>678.8</ele><time>2026-04-26T07:54:20.637Z</time></trkpt><trkpt lat="44.25645" lon="8.3279267"><ele>680.0</ele><time>2026-04-26T07:54:21.637Z</time></trkpt><trkpt lat="44.2564383" lon="8.3278083"><ele>682.2</ele><time>2026-04-26T07:54:22.637Z</time></trkpt><trkpt lat="44.25641" lon="8.3276917"><ele>684.4</ele><time>2026-04-26T07:54:23.637Z</time></trkpt><trkpt lat="44.25637" lon="8.3275983"><ele>686.5999999999999</ele><time>2026-04-26T07:54:24.637Z</time></trkpt><trkpt lat="44.2563033" lon="8.3274833"><ele>688.8</ele><time>2026-04-26T07:54:25.637Z</time></trkpt><trkpt lat="44.2562433" lon="8.3273817"><ele>691.0</ele><time>2026-04-26T07:54:26.637Z</time></trkpt><trkpt lat="44.2561933" lon="8.3272633"><ele>691.1999999999999</ele><time>2026-04-26T07:54:27.637Z</time></trkpt><trkpt lat="44.2561533" lon="8.3271267"><ele>691.4</ele><time>2026-04-26T07:54:28.637Z</time></trkpt><trkpt lat="44.2561283" lon="8.3269817"><ele>691.6</ele><time>2026-04-26T07:54:29.637Z</time></trkpt><trkpt lat="44.256115" lon="8.3268433"><ele>691.8</ele><time>2026-04-26T07:54:30.637Z</time></trkpt><trkpt lat="44.25611" lon="8.326715"><ele>692.0</ele><time>2026-04-26T07:54:31.637Z</time></trkpt><trkpt lat="44.2561083" lon="8.326595"><ele>692.0</ele><time>2026-04-26T07:54:32.637Z</time></trkpt><trkpt lat="44.2561233" lon="8.3264733"><ele>692.0</ele><time>2026-04-26T07:54:33.637Z</time></trkpt><trkpt lat="44.256155" lon="8.3263617"><ele>692.0</ele><time>2026-04-26T07:54:34.637Z</time></trkpt><trkpt lat="44.25616" lon="8.3261383"><ele>692.0</ele><time>2026-04-26T07:54:36.637Z</time></trkpt><trkpt lat="44.2560533" lon="8.3258917"><ele>695.6666666666666</ele><time>2026-04-26T07:54:38.637Z</time></trkpt><trkpt lat="44.2559767" lon="8.325755"><ele>699.3333333333334</ele><time>2026-04-26T07:54:39.638Z</time></trkpt><trkpt lat="44.2559033" lon="8.3256133"><ele>703.0</ele><time>2026-04-26T07:54:40.638Z</time></trkpt><trkpt lat="44.25577" lon="8.3253517"><ele>703.0</ele><time>2026-04-26T07:54:42.638Z</time></trkpt><trkpt lat="44.2557067" lon="8.32523"><ele>703.0</ele><time>2026-04-26T07:54:43.638Z</time></trkpt><trkpt lat="44.2556567" lon="8.32512"><ele>703.0</ele><time>2026-04-26T07:54:44.638Z</time></trkpt><trkpt lat="44.25561" lon="8.3250133"><ele>703.0</ele><time>2026-04-26T07:54:45.638Z</time></trkpt><trkpt lat="44.25557" lon="8.3249117"><ele>703.0</ele><time>2026-04-26T07:54:46.638Z</time></trkpt><trkpt lat="44.255545" lon="8.324815"><ele>703.0</ele><time>2026-04-26T07:54:47.638Z</time></trkpt><trkpt lat="44.255535" lon="8.3247133"><ele>703.0</ele><time>2026-04-26T07:54:48.639Z</time></trkpt><trkpt lat="44.2555367" lon="8.3246067"><ele>703.0</ele><time>2026-04-26T07:54:49.638Z</time></trkpt><trkpt lat="44.2555217" lon="8.3243733"><ele>703.0</ele><time>2026-04-26T07:54:51.638Z</time></trkpt><trkpt lat="44.25548" lon="8.3241667"><ele>703.0</ele><time>2026-04-26T07:54:53.638Z</time></trkpt><trkpt lat="44.255455" lon="8.3240617"><ele>703.0</ele><time>2026-04-26T07:54:54.638Z</time></trkpt><trkpt lat="44.255435" lon="8.32397"><ele>703.0</ele><time>2026-04-26T07:54:55.638Z</time></trkpt><trkpt lat="44.255425" lon="8.3238817"><ele>703.0</ele><time>2026-04-26T07:54:56.638Z</time></trkpt><trkpt lat="44.255445" lon="8.3237217"><ele>703.0</ele><time>2026-04-26T07:54:58.639Z</time></trkpt><trkpt lat="44.2555333" lon="8.3235133"><ele>703.0</ele><time>2026-04-26T07:55:01.638Z</time></trkpt><trkpt lat="44.25558" lon="8.3234533"><ele>706.2857142857142</ele><time>2026-04-26T07:55:02.638Z</time></trkpt><trkpt lat="44.255635" lon="8.3234033"><ele>709.5714285714286</ele><time>2026-04-26T07:55:03.638Z</time></trkpt><trkpt lat="44.25569" lon="8.32336"><ele>712.8571428571429</ele><time>2026-04-26T07:55:04.638Z</time></trkpt><trkpt lat="44.2557533" lon="8.32332"><ele>716.1428571428571</ele><time>2026-04-26T07:55:05.639Z</time></trkpt><trkpt lat="44.2558183" lon="8.3232883"><ele>719.4285714285714</ele><time>2026-04-26T07:55:06.638Z</time></trkpt><trkpt lat="44.2558817" lon="8.323255"><ele>722.7142857142857</ele><time>2026-04-26T07:55:07.639Z</time></trkpt><trkpt lat="44.2559433" lon="8.3232183"><ele>726.0</ele><time>2026-04-26T07:55:08.638Z</time></trkpt><trkpt lat="44.2560017" lon="8.3231833"><ele>726.0</ele><time>2026-04-26T07:55:09.638Z</time></trkpt><trkpt lat="44.2560617" lon="8.323145"><ele>726.0</ele><time>2026-04-26T07:55:10.638Z</time></trkpt><trkpt lat="44.2561817" lon="8.3230967"><ele>726.0</ele><time>2026-04-26T07:55:12.638Z</time></trkpt><trkpt lat="44.25631" lon="8.32305"><ele>726.0</ele><time>2026-04-26T07:55:14.638Z</time></trkpt><trkpt lat="44.25638" lon="8.32302"><ele>726.0</ele><time>2026-04-26T07:55:15.639Z</time></trkpt><trkpt lat="44.2564433" lon="8.3229767"><ele>729.0</ele><time>2026-04-26T07:55:16.638Z</time></trkpt><trkpt lat="44.2565067" lon="8.3229217"><ele>732.0</ele><time>2026-04-26T07:55:17.638Z</time></trkpt><trkpt lat="44.2565567" lon="8.32285"><ele>735.0</ele><time>2026-04-26T07:55:18.638Z</time></trkpt><trkpt lat="44.2566383" lon="8.3227317"><ele>738.0</ele><time>2026-04-26T07:55:20.638Z</time></trkpt><trkpt lat="44.2567283" lon="8.3225967"><ele>741.0</ele><time>2026-04-26T07:55:22.639Z</time></trkpt><trkpt lat="44.256785" lon="8.3225167"><ele>741.0</ele><time>2026-04-26T07:55:23.639Z</time></trkpt><trkpt lat="44.2568483" lon="8.322425"><ele>741.0</ele><time>2026-04-26T07:55:24.638Z</time></trkpt><trkpt lat="44.2569167" lon="8.3223283"><ele>741.0</ele><time>2026-04-26T07:55:25.638Z</time></trkpt><trkpt lat="44.2570432" lon="8.322125"><ele>741.0</ele><time>2026-04-26T07:55:27.638Z</time></trkpt><trkpt lat="44.2570983" lon="8.3220132"><ele>738.6666666666666</ele><time>2026-04-26T07:55:28.638Z</time></trkpt><trkpt lat="44.25715" lon="8.321887"><ele>736.3333333333333</ele><time>2026-04-26T07:55:29.638Z</time></trkpt><trkpt lat="44.2572107" lon="8.3217417"><ele>734.0</ele><time>2026-04-26T07:55:30.638Z</time></trkpt><trkpt lat="44.2573275" lon="8.3214212"><ele>745.5</ele><time>2026-04-26T07:55:32.638Z</time></trkpt><trkpt lat="44.2574342" lon="8.3211016"><ele>757.0</ele><time>2026-04-26T07:55:34.638Z</time></trkpt><trkpt lat="44.257561" lon="8.3208149"><ele>757.0</ele><time>2026-04-26T07:55:36.638Z</time></trkpt><trkpt lat="44.2576326" lon="8.3206845"><ele>757.0</ele><time>2026-04-26T07:55:37.639Z</time></trkpt><trkpt lat="44.2576835" lon="8.3205676"><ele>757.0</ele><time>2026-04-26T07:55:38.638Z</time></trkpt><trkpt lat="44.2577239" lon="8.3204654"><ele>757.0</ele><time>2026-04-26T07:55:39.638Z</time></trkpt><trkpt lat="44.2578096" lon="8.3202899"><ele>753.5</ele><time>2026-04-26T07:55:41.638Z</time></trkpt><trkpt lat="44.2579012" lon="8.3201218"><ele>750.0</ele><time>2026-04-26T07:55:43.638Z</time></trkpt><trkpt lat="44.2580099" lon="8.31996"><ele>746.5</ele><time>2026-04-26T07:55:45.638Z</time></trkpt><trkpt lat="44.2580728" lon="8.3198771"><ele>743.0</ele><time>2026-04-26T07:55:46.638Z</time></trkpt><trkpt lat="44.2581334" lon="8.319791"><ele>748.25</ele><time>2026-04-26T07:55:47.638Z</time></trkpt><trkpt lat="44.2581887" lon="8.3197012"><ele>753.5</ele><time>2026-04-26T07:55:48.638Z</time></trkpt><trkpt lat="44.258236" lon="8.3196074"><ele>758.75</ele><time>2026-04-26T07:55:49.638Z</time></trkpt><trkpt lat="44.2583009" lon="8.3193983"><ele>764.0</ele><time>2026-04-26T07:55:51.638Z</time></trkpt><trkpt lat="44.2583764" lon="8.319226"><ele>764.0</ele><time>2026-04-26T07:55:53.638Z</time></trkpt><trkpt lat="44.2585068" lon="8.3190789"><ele>764.0</ele><time>2026-04-26T07:55:55.638Z</time></trkpt><trkpt lat="44.2585705" lon="8.3190087"><ele>764.0</ele><time>2026-04-26T07:55:56.638Z</time></trkpt><trkpt lat="44.2586416" lon="8.3189445"><ele>764.0</ele><time>2026-04-26T07:55:57.638Z</time></trkpt><trkpt lat="44.2587122" lon="8.3188885"><ele>764.0</ele><time>2026-04-26T07:55:58.638Z</time></trkpt><trkpt lat="44.2587839" lon="8.3188326"><ele>760.25</ele><time>2026-04-26T07:55:59.638Z</time></trkpt><trkpt lat="44.2588554" lon="8.3187671"><ele>756.5</ele><time>2026-04-26T07:56:00.638Z</time></trkpt><trkpt lat="44.2589758" lon="8.3186234"><ele>752.75</ele><time>2026-04-26T07:56:02.638Z</time></trkpt><trkpt lat="44.25906" lon="8.3184723"><ele>749.0</ele><time>2026-04-26T07:56:04.638Z</time></trkpt><trkpt lat="44.2591206" lon="8.3183084"><ele>754.1666666666666</ele><time>2026-04-26T07:56:06.638Z</time></trkpt><trkpt lat="44.2591402" lon="8.3182176"><ele>759.3333333333333</ele><time>2026-04-26T07:56:07.638Z</time></trkpt><trkpt lat="44.2591633" lon="8.3181226"><ele>764.5</ele><time>2026-04-26T07:56:08.638Z</time></trkpt><trkpt lat="44.259228" lon="8.3179329"><ele>769.6666666666666</ele><time>2026-04-26T07:56:10.638Z</time></trkpt><trkpt lat="44.2592727" lon="8.3178457"><ele>774.8333333333334</ele><time>2026-04-26T07:56:11.638Z</time></trkpt><trkpt lat="44.2593257" lon="8.3177672"><ele>780.0</ele><time>2026-04-26T07:56:12.638Z</time></trkpt><trkpt lat="44.2593815" lon="8.3176832"><ele>780.0</ele><time>2026-04-26T07:56:13.638Z</time></trkpt><trkpt lat="44.2594659" lon="8.3175031"><ele>780.0</ele><time>2026-04-26T07:56:15.638Z</time></trkpt><trkpt lat="44.2594789" lon="8.3173838"><ele>780.0</ele><time>2026-04-26T07:56:16.638Z</time></trkpt><trkpt lat="44.2594846" lon="8.3172603"><ele>780.0</ele><time>2026-04-26T07:56:17.638Z</time></trkpt><trkpt lat="44.2594935" lon="8.3171549"><ele>780.0</ele><time>2026-04-26T07:56:18.638Z</time></trkpt><trkpt lat="44.259516" lon="8.317055"><ele>779.6666666666666</ele><time>2026-04-26T07:56:19.638Z</time></trkpt><trkpt lat="44.2595556" lon="8.3169504"><ele>779.3333333333333</ele><time>2026-04-26T07:56:20.638Z</time></trkpt><trkpt lat="44.2596022" lon="8.3168437"><ele>779.0</ele><time>2026-04-26T07:56:21.639Z</time></trkpt><trkpt lat="44.259645" lon="8.3167299"><ele>778.6666666666666</ele><time>2026-04-26T07:56:22.638Z</time></trkpt><trkpt lat="44.2596801" lon="8.316621"><ele>778.3333333333333</ele><time>2026-04-26T07:56:23.638Z</time></trkpt><trkpt lat="44.2596951" lon="8.3164987"><ele>778.0</ele><time>2026-04-26T07:56:24.639Z</time></trkpt><trkpt lat="44.2597008" lon="8.3163743"><ele>778.0</ele><time>2026-04-26T07:56:25.638Z</time></trkpt><trkpt lat="44.2597001" lon="8.3161173"><ele>778.0</ele><time>2026-04-26T07:56:27.638Z</time></trkpt><trkpt lat="44.2596998" lon="8.3159898"><ele>778.0</ele><time>2026-04-26T07:56:28.638Z</time></trkpt><trkpt lat="44.2597265" lon="8.3157177"><ele>778.0</ele><time>2026-04-26T07:56:30.638Z</time></trkpt><trkpt lat="44.2597366" lon="8.3155704"><ele>778.0</ele><time>2026-04-26T07:56:31.638Z</time></trkpt><trkpt lat="44.2597012" lon="8.315303"><ele>778.0</ele><time>2026-04-26T07:56:33.638Z</time></trkpt><trkpt lat="44.2596367" lon="8.3151767"><ele>778.0</ele><time>2026-04-26T07:56:34.638Z</time></trkpt><trkpt lat="44.25949" lon="8.3149317"><ele>780.2</ele><time>2026-04-26T07:56:36.638Z</time></trkpt><trkpt lat="44.2594217" lon="8.3148167"><ele>782.4</ele><time>2026-04-26T07:56:37.638Z</time></trkpt><trkpt lat="44.2593833" lon="8.3147183"><ele>784.6</ele><time>2026-04-26T07:56:38.638Z</time></trkpt><trkpt lat="44.2593617" lon="8.314605"><ele>786.8000000000001</ele><time>2026-04-26T07:56:39.638Z</time></trkpt><trkpt lat="44.25936" lon="8.314375"><ele>789.0</ele><time>2026-04-26T07:56:41.638Z</time></trkpt><trkpt lat="44.2593783" lon="8.314245"><ele>790.5</ele><time>2026-04-26T07:56:42.638Z</time></trkpt><trkpt lat="44.259405" lon="8.314095"><ele>792.0</ele><time>2026-04-26T07:56:43.638Z</time></trkpt><trkpt lat="44.2594317" lon="8.3139183"><ele>793.5</ele><time>2026-04-26T07:56:44.638Z</time></trkpt><trkpt lat="44.2594517" lon="8.3137083"><ele>795.0</ele><time>2026-04-26T07:56:45.638Z</time></trkpt><trkpt lat="44.25947" lon="8.313495"><ele>795.0</ele><time>2026-04-26T07:56:46.639Z</time></trkpt><trkpt lat="44.25948" lon="8.3132783"><ele>795.0</ele><time>2026-04-26T07:56:47.638Z</time></trkpt><trkpt lat="44.25952" lon="8.3128833"><ele>795.0</ele><time>2026-04-26T07:56:49.638Z</time></trkpt><trkpt lat="44.2595333" lon="8.3125383"><ele>795.0</ele><time>2026-04-26T07:56:51.638Z</time></trkpt><trkpt lat="44.2595517" lon="8.312365"><ele>795.0</ele><time>2026-04-26T07:56:52.638Z</time></trkpt><trkpt lat="44.259575" lon="8.312185"><ele>795.0</ele><time>2026-04-26T07:56:53.638Z</time></trkpt><trkpt lat="44.259605" lon="8.312005"><ele>795.0</ele><time>2026-04-26T07:56:54.638Z</time></trkpt><trkpt lat="44.259685" lon="8.3116733"><ele>795.5</ele><time>2026-04-26T07:56:56.638Z</time></trkpt><trkpt lat="44.259705" lon="8.311525"><ele>796.0</ele><time>2026-04-26T07:56:57.638Z</time></trkpt><trkpt lat="44.25973" lon="8.3113867"><ele>796.5</ele><time>2026-04-26T07:56:58.638Z</time></trkpt><trkpt lat="44.2597733" lon="8.3111433"><ele>797.0</ele><time>2026-04-26T07:57:00.638Z</time></trkpt><trkpt lat="44.259785" lon="8.3108767"><ele>797.5000000000001</ele><time>2026-04-26T07:57:02.638Z</time></trkpt><trkpt lat="44.25978" lon="8.3107667"><ele>798.0</ele><time>2026-04-26T07:57:03.638Z</time></trkpt><trkpt lat="44.259775" lon="8.31067"><ele>798.5</ele><time>2026-04-26T07:57:04.638Z</time></trkpt><trkpt lat="44.2597533" lon="8.3105367"><ele>799.0</ele><time>2026-04-26T07:57:06.638Z</time></trkpt><trkpt lat="44.25973" lon="8.3104483"><ele>799.5000000000001</ele><time>2026-04-26T07:57:08.638Z</time></trkpt><trkpt lat="44.2596717" lon="8.3103717"><ele>800.0</ele><time>2026-04-26T07:57:10.638Z</time></trkpt><trkpt lat="44.2596167" lon="8.3103117"><ele>801.4</ele><time>2026-04-26T07:57:11.638Z</time></trkpt><trkpt lat="44.259545" lon="8.3102617"><ele>802.8</ele><time>2026-04-26T07:57:12.638Z</time></trkpt><trkpt lat="44.2594633" lon="8.3102117"><ele>804.2</ele><time>2026-04-26T07:57:13.638Z</time></trkpt><trkpt lat="44.259375" lon="8.3101833"><ele>805.6</ele><time>2026-04-26T07:57:14.638Z</time></trkpt><trkpt lat="44.2592767" lon="8.31017"><ele>807.0</ele><time>2026-04-26T07:57:15.638Z</time></trkpt><trkpt lat="44.2591733" lon="8.3101767"><ele>807.0</ele><time>2026-04-26T07:57:16.638Z</time></trkpt><trkpt lat="44.2590533" lon="8.3102"><ele>807.0</ele><time>2026-04-26T07:57:17.638Z</time></trkpt><trkpt lat="44.25894" lon="8.3102267"><ele>807.0</ele><time>2026-04-26T07:57:18.638Z</time></trkpt><trkpt lat="44.2588083" lon="8.3102433"><ele>807.0</ele><time>2026-04-26T07:57:19.638Z</time></trkpt><trkpt lat="44.25869" lon="8.310245"><ele>809.0</ele><time>2026-04-26T07:57:20.638Z</time></trkpt><trkpt lat="44.2585633" lon="8.3102667"><ele>811.0</ele><time>2026-04-26T07:57:21.638Z</time></trkpt><trkpt lat="44.2584417" lon="8.31028"><ele>813.0</ele><time>2026-04-26T07:57:22.638Z</time></trkpt><trkpt lat="44.2583367" lon="8.3103133"><ele>815.0</ele><time>2026-04-26T07:57:23.638Z</time></trkpt><trkpt lat="44.2582367" lon="8.3103433"><ele>815.0000000000001</ele><time>2026-04-26T07:57:24.638Z</time></trkpt><trkpt lat="44.2581433" lon="8.3103667"><ele>815.0</ele><time>2026-04-26T07:57:25.638Z</time></trkpt><trkpt lat="44.258055" lon="8.3103733"><ele>815.0</ele><time>2026-04-26T07:57:26.638Z</time></trkpt><trkpt lat="44.257985" lon="8.31035"><ele>815.0</ele><time>2026-04-26T07:57:27.638Z</time></trkpt><trkpt lat="44.257915" lon="8.3102983"><ele>815.0000000000001</ele><time>2026-04-26T07:57:28.638Z</time></trkpt><trkpt lat="44.2578483" lon="8.3101983"><ele>815.0</ele><time>2026-04-26T07:57:29.638Z</time></trkpt><trkpt lat="44.2577833" lon="8.3100817"><ele>813.4</ele><time>2026-04-26T07:57:30.639Z</time></trkpt><trkpt lat="44.257715" lon="8.3099783"><ele>811.8</ele><time>2026-04-26T07:57:31.638Z</time></trkpt><trkpt lat="44.2576367" lon="8.309865"><ele>810.2</ele><time>2026-04-26T07:57:32.638Z</time></trkpt><trkpt lat="44.257545" lon="8.3097917"><ele>808.6</ele><time>2026-04-26T07:57:33.638Z</time></trkpt><trkpt lat="44.257445" lon="8.3097433"><ele>807.0</ele><time>2026-04-26T07:57:34.638Z</time></trkpt><trkpt lat="44.2573467" lon="8.309685"><ele>808.0</ele><time>2026-04-26T07:57:35.638Z</time></trkpt><trkpt lat="44.2572517" lon="8.3096133"><ele>809.0</ele><time>2026-04-26T07:57:36.638Z</time></trkpt><trkpt lat="44.2571567" lon="8.3095267"><ele>810.0</ele><time>2026-04-26T07:57:37.638Z</time></trkpt><trkpt lat="44.2570533" lon="8.3094233"><ele>811.0</ele><time>2026-04-26T07:57:38.638Z</time></trkpt><trkpt lat="44.2569583" lon="8.30933"><ele>811.0</ele><time>2026-04-26T07:57:39.638Z</time></trkpt><trkpt lat="44.2568583" lon="8.3092383"><ele>811.0</ele><time>2026-04-26T07:57:40.638Z</time></trkpt><trkpt lat="44.2567617" lon="8.3091683"><ele>811.0</ele><time>2026-04-26T07:57:41.638Z</time></trkpt><trkpt lat="44.2566683" lon="8.3091217"><ele>811.0</ele><time>2026-04-26T07:57:42.638Z</time></trkpt><trkpt lat="44.2565783" lon="8.3090883"><ele>811.0</ele><time>2026-04-26T07:57:43.638Z</time></trkpt><trkpt lat="44.2565117" lon="8.3090333"><ele>811.1999999999999</ele><time>2026-04-26T07:57:44.638Z</time></trkpt><trkpt lat="44.25645" lon="8.3089633"><ele>811.4</ele><time>2026-04-26T07:57:45.638Z</time></trkpt><trkpt lat="44.2564" lon="8.3088633"><ele>811.6</ele><time>2026-04-26T07:57:46.638Z</time></trkpt><trkpt lat="44.2563483" lon="8.3087483"><ele>811.8</ele><time>2026-04-26T07:57:47.638Z</time></trkpt><trkpt lat="44.2562967" lon="8.3086333"><ele>812.0</ele><time>2026-04-26T07:57:48.638Z</time></trkpt><trkpt lat="44.25623" lon="8.30853"><ele>812.0</ele><time>2026-04-26T07:57:49.638Z</time></trkpt><trkpt lat="44.2561383" lon="8.3084217"><ele>812.0</ele><time>2026-04-26T07:57:50.638Z</time></trkpt><trkpt lat="44.256025" lon="8.3083217"><ele>812.0</ele><time>2026-04-26T07:57:51.638Z</time></trkpt><trkpt lat="44.25592" lon="8.30823"><ele>812.0</ele><time>2026-04-26T07:57:52.638Z</time></trkpt><trkpt lat="44.255795" lon="8.3081583"><ele>812.0</ele><time>2026-04-26T07:57:53.638Z</time></trkpt><trkpt lat="44.2556733" lon="8.3080983"><ele>812.0</ele><time>2026-04-26T07:57:54.638Z</time></trkpt><trkpt lat="44.2555567" lon="8.30803"><ele>812.0</ele><time>2026-04-26T07:57:55.638Z</time></trkpt><trkpt lat="44.25546" lon="8.3079733"><ele>812.0</ele><time>2026-04-26T07:57:56.638Z</time></trkpt><trkpt lat="44.2553817" lon="8.307915"><ele>812.0</ele><time>2026-04-26T07:57:57.638Z</time></trkpt><trkpt lat="44.25531" lon="8.3078583"><ele>811.6666666666667</ele><time>2026-04-26T07:57:58.638Z</time></trkpt><trkpt lat="44.2552467" lon="8.3077717"><ele>811.3333333333334</ele><time>2026-04-26T07:57:59.638Z</time></trkpt><trkpt lat="44.25519" lon="8.307675"><ele>811.0</ele><time>2026-04-26T07:58:00.638Z</time></trkpt><trkpt lat="44.25515" lon="8.3075817"><ele>810.6666666666667</ele><time>2026-04-26T07:58:01.638Z</time></trkpt><trkpt lat="44.255115" lon="8.3074983"><ele>810.3333333333334</ele><time>2026-04-26T07:58:02.638Z</time></trkpt><trkpt lat="44.2550717" lon="8.3074217"><ele>810.0</ele><time>2026-04-26T07:58:03.639Z</time></trkpt><trkpt lat="44.255005" lon="8.3073533"><ele>810.0</ele><time>2026-04-26T07:58:04.638Z</time></trkpt><trkpt lat="44.2549267" lon="8.30729"><ele>810.0</ele><time>2026-04-26T07:58:05.638Z</time></trkpt><trkpt lat="44.2548333" lon="8.3072383"><ele>810.0</ele><time>2026-04-26T07:58:06.638Z</time></trkpt><trkpt lat="44.2547533" lon="8.3071867"><ele>810.0</ele><time>2026-04-26T07:58:07.638Z</time></trkpt><trkpt lat="44.2546733" lon="8.3071183"><ele>810.0</ele><time>2026-04-26T07:58:08.638Z</time></trkpt><trkpt lat="44.2546167" lon="8.30706"><ele>810.0</ele><time>2026-04-26T07:58:09.639Z</time></trkpt><trkpt lat="44.254555" lon="8.3069333"><ele>809.4</ele><time>2026-04-26T07:58:11.638Z</time></trkpt><trkpt lat="44.2545433" lon="8.3067583"><ele>808.8</ele><time>2026-04-26T07:58:13.638Z</time></trkpt><trkpt lat="44.2545633" lon="8.3066533"><ele>808.2</ele><time>2026-04-26T07:58:14.638Z</time></trkpt><trkpt lat="44.254575" lon="8.3065417"><ele>807.6</ele><time>2026-04-26T07:58:15.638Z</time></trkpt><trkpt lat="44.2545883" lon="8.3063967"><ele>807.0</ele><time>2026-04-26T07:58:16.639Z</time></trkpt><trkpt lat="44.2546" lon="8.3062517"><ele>807.0</ele><time>2026-04-26T07:58:17.638Z</time></trkpt><trkpt lat="44.254575" lon="8.3061083"><ele>807.0</ele><time>2026-04-26T07:58:18.638Z</time></trkpt><trkpt lat="44.2545483" lon="8.3059783"><ele>807.0</ele><time>2026-04-26T07:58:19.639Z</time></trkpt><trkpt lat="44.2544983" lon="8.3058167"><ele>807.0</ele><time>2026-04-26T07:58:20.638Z</time></trkpt><trkpt lat="44.25446" lon="8.3056633"><ele>807.0</ele><time>2026-04-26T07:58:21.638Z</time></trkpt><trkpt lat="44.25442" lon="8.305515"><ele>808.0</ele><time>2026-04-26T07:58:22.638Z</time></trkpt><trkpt lat="44.254375" lon="8.30538"><ele>809.0</ele><time>2026-04-26T07:58:23.638Z</time></trkpt><trkpt lat="44.2543333" lon="8.30524"><ele>810.0</ele><time>2026-04-26T07:58:24.638Z</time></trkpt><trkpt lat="44.2543017" lon="8.3050883"><ele>811.0</ele><time>2026-04-26T07:58:25.638Z</time></trkpt><trkpt lat="44.2542683" lon="8.3049283"><ele>812.0</ele><time>2026-04-26T07:58:26.638Z</time></trkpt><trkpt lat="44.2542467" lon="8.3047567"><ele>812.8</ele><time>2026-04-26T07:58:27.638Z</time></trkpt><trkpt lat="44.2542267" lon="8.304585"><ele>813.6</ele><time>2026-04-26T07:58:28.638Z</time></trkpt><trkpt lat="44.2542383" lon="8.3044317"><ele>814.4</ele><time>2026-04-26T07:58:29.638Z</time></trkpt><trkpt lat="44.2542567" lon="8.30428"><ele>815.1999999999999</ele><time>2026-04-26T07:58:30.638Z</time></trkpt><trkpt lat="44.2542767" lon="8.30414"><ele>816.0</ele><time>2026-04-26T07:58:31.638Z</time></trkpt><trkpt lat="44.2543117" lon="8.3040117"><ele>814.4</ele><time>2026-04-26T07:58:32.638Z</time></trkpt><trkpt lat="44.2543467" lon="8.3038767"><ele>812.8</ele><time>2026-04-26T07:58:33.638Z</time></trkpt><trkpt lat="44.2544033" lon="8.3037467"><ele>811.1999999999999</ele><time>2026-04-26T07:58:34.638Z</time></trkpt><trkpt lat="44.254455" lon="8.303615"><ele>809.5999999999999</ele><time>2026-04-26T07:58:35.638Z</time></trkpt><trkpt lat="44.2545117" lon="8.3035083"><ele>808.0</ele><time>2026-04-26T07:58:36.638Z</time></trkpt><trkpt lat="44.2545717" lon="8.30342"><ele>807.9999999999999</ele><time>2026-04-26T07:58:37.638Z</time></trkpt><trkpt lat="44.2546383" lon="8.3033167"><ele>808.0</ele><time>2026-04-26T07:58:38.638Z</time></trkpt><trkpt lat="44.2547" lon="8.303225"><ele>808.0</ele><time>2026-04-26T07:58:39.638Z</time></trkpt><trkpt lat="44.2547517" lon="8.3031317"><ele>808.0</ele><time>2026-04-26T07:58:40.639Z</time></trkpt><trkpt lat="44.2547683" lon="8.30303"><ele>807.9999999999999</ele><time>2026-04-26T07:58:41.638Z</time></trkpt><trkpt lat="44.254765" lon="8.3029133"><ele>808.0</ele><time>2026-04-26T07:58:42.638Z</time></trkpt><trkpt lat="44.2547483" lon="8.30282"><ele>808.6666666666666</ele><time>2026-04-26T07:58:43.638Z</time></trkpt><trkpt lat="44.254735" lon="8.3027233"><ele>809.3333333333333</ele><time>2026-04-26T07:58:44.638Z</time></trkpt><trkpt lat="44.2547417" lon="8.3026217"><ele>810.0</ele><time>2026-04-26T07:58:45.638Z</time></trkpt><trkpt lat="44.254765" lon="8.3025267"><ele>810.6666666666667</ele><time>2026-04-26T07:58:46.638Z</time></trkpt><trkpt lat="44.2548083" lon="8.3024233"><ele>811.3333333333334</ele><time>2026-04-26T07:58:47.638Z</time></trkpt><trkpt lat="44.254855" lon="8.3023217"><ele>812.0</ele><time>2026-04-26T07:58:48.638Z</time></trkpt><trkpt lat="44.2549117" lon="8.3022367"><ele>812.0</ele><time>2026-04-26T07:58:49.638Z</time></trkpt><trkpt lat="44.2549733" lon="8.302155"><ele>812.0</ele><time>2026-04-26T07:58:50.638Z</time></trkpt><trkpt lat="44.2550367" lon="8.30207"><ele>812.0</ele><time>2026-04-26T07:58:51.638Z</time></trkpt><trkpt lat="44.2551133" lon="8.3019833"><ele>812.0</ele><time>2026-04-26T07:58:52.638Z</time></trkpt><trkpt lat="44.2551833" lon="8.3019083"><ele>812.0</ele><time>2026-04-26T07:58:53.638Z</time></trkpt><trkpt lat="44.2552683" lon="8.301825"><ele>812.0</ele><time>2026-04-26T07:58:54.638Z</time></trkpt><trkpt lat="44.2553517" lon="8.301735"><ele>812.0</ele><time>2026-04-26T07:58:55.638Z</time></trkpt><trkpt lat="44.255425" lon="8.3016383"><ele>812.0</ele><time>2026-04-26T07:58:56.638Z</time></trkpt><trkpt lat="44.2554833" lon="8.30153"><ele>812.0</ele><time>2026-04-26T07:58:57.638Z</time></trkpt><trkpt lat="44.2555333" lon="8.301415"><ele>812.0</ele><time>2026-04-26T07:58:58.638Z</time></trkpt><trkpt lat="44.2555983" lon="8.3012667"><ele>812.4000000000001</ele><time>2026-04-26T07:58:59.638Z</time></trkpt><trkpt lat="44.2556417" lon="8.3011217"><ele>812.8000000000001</ele><time>2026-04-26T07:59:00.638Z</time></trkpt><trkpt lat="44.2556717" lon="8.3009717"><ele>813.2</ele><time>2026-04-26T07:59:01.639Z</time></trkpt><trkpt lat="44.2557017" lon="8.3008317"><ele>813.6</ele><time>2026-04-26T07:59:02.638Z</time></trkpt><trkpt lat="44.255735" lon="8.3006933"><ele>814.0</ele><time>2026-04-26T07:59:03.638Z</time></trkpt><trkpt lat="44.2557767" lon="8.300575"><ele>814.0</ele><time>2026-04-26T07:59:04.639Z</time></trkpt><trkpt lat="44.2558383" lon="8.300475"><ele>814.0</ele><time>2026-04-26T07:59:05.638Z</time></trkpt><trkpt lat="44.2559117" lon="8.3003583"><ele>814.0</ele><time>2026-04-26T07:59:06.638Z</time></trkpt><trkpt lat="44.25599" lon="8.3002483"><ele>814.0</ele><time>2026-04-26T07:59:07.638Z</time></trkpt><trkpt lat="44.2560683" lon="8.300135"><ele>814.0</ele><time>2026-04-26T07:59:08.638Z</time></trkpt><trkpt lat="44.2561333" lon="8.300015"><ele>814.0</ele><time>2026-04-26T07:59:09.638Z</time></trkpt><trkpt lat="44.2561917" lon="8.299895"><ele>814.0</ele><time>2026-04-26T07:59:10.638Z</time></trkpt><trkpt lat="44.2562433" lon="8.2997667"><ele>814.0</ele><time>2026-04-26T07:59:11.638Z</time></trkpt><trkpt lat="44.256295" lon="8.2996333"><ele>814.0</ele><time>2026-04-26T07:59:12.639Z</time></trkpt><trkpt lat="44.2563317" lon="8.29949"><ele>814.0</ele><time>2026-04-26T07:59:13.638Z</time></trkpt><trkpt lat="44.2563617" lon="8.2993533"><ele>813.1666666666666</ele><time>2026-04-26T07:59:14.638Z</time></trkpt><trkpt lat="44.2563867" lon="8.2992317"><ele>812.3333333333333</ele><time>2026-04-26T07:59:15.638Z</time></trkpt><trkpt lat="44.2564183" lon="8.299125"><ele>811.5</ele><time>2026-04-26T07:59:16.638Z</time></trkpt><trkpt lat="44.2564433" lon="8.2990133"><ele>810.6666666666667</ele><time>2026-04-26T07:59:17.638Z</time></trkpt><trkpt lat="44.2564533" lon="8.2988917"><ele>809.8333333333334</ele><time>2026-04-26T07:59:18.638Z</time></trkpt><trkpt lat="44.256445" lon="8.2987583"><ele>809.0</ele><time>2026-04-26T07:59:19.638Z</time></trkpt><trkpt lat="44.256425" lon="8.2986267"><ele>809.0</ele><time>2026-04-26T07:59:20.638Z</time></trkpt><trkpt lat="44.2563867" lon="8.298495"><ele>809.0</ele><time>2026-04-26T07:59:21.638Z</time></trkpt><trkpt lat="44.256345" lon="8.298365"><ele>809.0</ele><time>2026-04-26T07:59:22.638Z</time></trkpt><trkpt lat="44.2563067" lon="8.2982467"><ele>809.0</ele><time>2026-04-26T07:59:23.638Z</time></trkpt><trkpt lat="44.2562617" lon="8.2981183"><ele>809.0</ele><time>2026-04-26T07:59:24.638Z</time></trkpt><trkpt lat="44.25622" lon="8.2979883"><ele>810.0</ele><time>2026-04-26T07:59:25.638Z</time></trkpt><trkpt lat="44.2561867" lon="8.2978417"><ele>811.0</ele><time>2026-04-26T07:59:26.638Z</time></trkpt><trkpt lat="44.2561617" lon="8.2977"><ele>812.0</ele><time>2026-04-26T07:59:27.638Z</time></trkpt><trkpt lat="44.2561483" lon="8.2975617"><ele>813.0</ele><time>2026-04-26T07:59:28.638Z</time></trkpt><trkpt lat="44.256125" lon="8.2974383"><ele>814.0</ele><time>2026-04-26T07:59:29.638Z</time></trkpt><trkpt lat="44.2560867" lon="8.2973033"><ele>817.5</ele><time>2026-04-26T07:59:30.638Z</time></trkpt><trkpt lat="44.2560267" lon="8.2971783"><ele>821.0</ele><time>2026-04-26T07:59:31.638Z</time></trkpt><trkpt lat="44.2559517" lon="8.2970617"><ele>824.5</ele><time>2026-04-26T07:59:32.638Z</time></trkpt><trkpt lat="44.255875" lon="8.296925"><ele>828.0</ele><time>2026-04-26T07:59:33.638Z</time></trkpt><trkpt lat="44.2557967" lon="8.29679"><ele>828.0</ele><time>2026-04-26T07:59:34.638Z</time></trkpt><trkpt lat="44.2557283" lon="8.2966417"><ele>828.0</ele><time>2026-04-26T07:59:35.638Z</time></trkpt><trkpt lat="44.25566" lon="8.2965083"><ele>828.0</ele><time>2026-04-26T07:59:36.638Z</time></trkpt><trkpt lat="44.2555933" lon="8.2963667"><ele>828.0</ele><time>2026-04-26T07:59:37.638Z</time></trkpt><trkpt lat="44.25553" lon="8.2962383"><ele>822.0</ele><time>2026-04-26T07:59:38.638Z</time></trkpt><trkpt lat="44.255475" lon="8.2961167"><ele>816.0</ele><time>2026-04-26T07:59:39.638Z</time></trkpt><trkpt lat="44.2554333" lon="8.2960033"><ele>810.0</ele><time>2026-04-26T07:59:40.639Z</time></trkpt><trkpt lat="44.2554" lon="8.2958817"><ele>804.0</ele><time>2026-04-26T07:59:41.638Z</time></trkpt><trkpt lat="44.2553867" lon="8.2957467"><ele>798.0</ele><time>2026-04-26T07:59:42.638Z</time></trkpt><trkpt lat="44.25538" lon="8.295605"><ele>799.25</ele><time>2026-04-26T07:59:43.638Z</time></trkpt><trkpt lat="44.2553867" lon="8.2954433"><ele>800.5</ele><time>2026-04-26T07:59:44.638Z</time></trkpt><trkpt lat="44.2554117" lon="8.2952733"><ele>801.75</ele><time>2026-04-26T07:59:45.638Z</time></trkpt><trkpt lat="44.25542" lon="8.295095"><ele>803.0</ele><time>2026-04-26T07:59:46.638Z</time></trkpt><trkpt lat="44.25541" lon="8.2949333"><ele>803.0</ele><time>2026-04-26T07:59:47.638Z</time></trkpt><trkpt lat="44.2554033" lon="8.2947917"><ele>803.0</ele><time>2026-04-26T07:59:48.638Z</time></trkpt><trkpt lat="44.2554067" lon="8.2946567"><ele>803.0</ele><time>2026-04-26T07:59:49.639Z</time></trkpt><trkpt lat="44.2554283" lon="8.2945233"><ele>803.0</ele><time>2026-04-26T07:59:50.638Z</time></trkpt><trkpt lat="44.2554633" lon="8.2943783"><ele>803.0</ele><time>2026-04-26T07:59:51.638Z</time></trkpt><trkpt lat="44.2554933" lon="8.2942433"><ele>803.8333333333334</ele><time>2026-04-26T07:59:52.638Z</time></trkpt><trkpt lat="44.2555233" lon="8.294125"><ele>804.6666666666667</ele><time>2026-04-26T07:59:53.638Z</time></trkpt><trkpt lat="44.2555583" lon="8.29402"><ele>805.5</ele><time>2026-04-26T07:59:54.638Z</time></trkpt><trkpt lat="44.25559" lon="8.29393"><ele>806.3333333333333</ele><time>2026-04-26T07:59:55.638Z</time></trkpt><trkpt lat="44.255605" lon="8.2938433"><ele>807.1666666666666</ele><time>2026-04-26T07:59:56.639Z</time></trkpt><trkpt lat="44.2555367" lon="8.2937117"><ele>808.0</ele><time>2026-04-26T07:59:58.638Z</time></trkpt><trkpt lat="44.2554667" lon="8.29367"><ele>809.1666666666666</ele><time>2026-04-26T07:59:59.639Z</time></trkpt><trkpt lat="44.2553733" lon="8.2936417"><ele>810.3333333333333</ele><time>2026-04-26T08:00:00.638Z</time></trkpt><trkpt lat="44.2552717" lon="8.2936333"><ele>811.5</ele><time>2026-04-26T08:00:01.638Z</time></trkpt><trkpt lat="44.2551783" lon="8.2936367"><ele>812.6666666666667</ele><time>2026-04-26T08:00:02.638Z</time></trkpt><trkpt lat="44.2550967" lon="8.2936317"><ele>813.8333333333334</ele><time>2026-04-26T08:00:03.638Z</time></trkpt><trkpt lat="44.2550283" lon="8.2936017"><ele>815.0</ele><time>2026-04-26T08:00:04.638Z</time></trkpt><trkpt lat="44.254945" lon="8.2934733"><ele>815.0</ele><time>2026-04-26T08:00:06.638Z</time></trkpt><trkpt lat="44.2549267" lon="8.293375"><ele>815.0</ele><time>2026-04-26T08:00:07.638Z</time></trkpt><trkpt lat="44.25492" lon="8.2932517"><ele>815.0</ele><time>2026-04-26T08:00:08.638Z</time></trkpt><trkpt lat="44.2549133" lon="8.2931083"><ele>815.0</ele><time>2026-04-26T08:00:09.638Z</time></trkpt><trkpt lat="44.2548983" lon="8.2929583"><ele>815.0</ele><time>2026-04-26T08:00:10.638Z</time></trkpt><trkpt lat="44.25487" lon="8.2928017"><ele>816.4</ele><time>2026-04-26T08:00:11.639Z</time></trkpt><trkpt lat="44.2548383" lon="8.2926483"><ele>817.8</ele><time>2026-04-26T08:00:12.638Z</time></trkpt><trkpt lat="44.2548133" lon="8.2925033"><ele>819.2</ele><time>2026-04-26T08:00:13.638Z</time></trkpt><trkpt lat="44.2547917" lon="8.2923567"><ele>820.6</ele><time>2026-04-26T08:00:14.638Z</time></trkpt><trkpt lat="44.2547833" lon="8.2922033"><ele>822.0</ele><time>2026-04-26T08:00:15.638Z</time></trkpt><trkpt lat="44.2547767" lon="8.2920583"><ele>822.5</ele><time>2026-04-26T08:00:16.638Z</time></trkpt><trkpt lat="44.254785" lon="8.29191"><ele>823.0</ele><time>2026-04-26T08:00:17.638Z</time></trkpt><trkpt lat="44.2547817" lon="8.29175"><ele>823.5</ele><time>2026-04-26T08:00:18.638Z</time></trkpt><trkpt lat="44.2547883" lon="8.2915833"><ele>824.0</ele><time>2026-04-26T08:00:19.638Z</time></trkpt><trkpt lat="44.2548" lon="8.2914167"><ele>824.0</ele><time>2026-04-26T08:00:20.638Z</time></trkpt><trkpt lat="44.254805" lon="8.291255"><ele>824.0</ele><time>2026-04-26T08:00:21.638Z</time></trkpt><trkpt lat="44.2548" lon="8.2910917"><ele>824.0</ele><time>2026-04-26T08:00:22.638Z</time></trkpt><trkpt lat="44.2547967" lon="8.290935"><ele>824.0</ele><time>2026-04-26T08:00:23.638Z</time></trkpt><trkpt lat="44.254805" lon="8.29079"><ele>824.0</ele><time>2026-04-26T08:00:24.638Z</time></trkpt><trkpt lat="44.254815" lon="8.2906517"><ele>825.0</ele><time>2026-04-26T08:00:25.638Z</time></trkpt><trkpt lat="44.2548317" lon="8.2905233"><ele>826.0</ele><time>2026-04-26T08:00:26.638Z</time></trkpt><trkpt lat="44.2548367" lon="8.2904017"><ele>827.0</ele><time>2026-04-26T08:00:27.638Z</time></trkpt><trkpt lat="44.2548033" lon="8.2902617"><ele>828.0</ele><time>2026-04-26T08:00:28.638Z</time></trkpt><trkpt lat="44.25474" lon="8.2901383"><ele>829.0</ele><time>2026-04-26T08:00:29.638Z</time></trkpt><trkpt lat="44.2546917" lon="8.2900217"><ele>824.8000000000001</ele><time>2026-04-26T08:00:30.638Z</time></trkpt><trkpt lat="44.2546567" lon="8.28989"><ele>820.6</ele><time>2026-04-26T08:00:31.639Z</time></trkpt><trkpt lat="44.254635" lon="8.28974"><ele>816.4</ele><time>2026-04-26T08:00:32.638Z</time></trkpt><trkpt lat="44.2546167" lon="8.2895983"><ele>812.2</ele><time>2026-04-26T08:00:33.638Z</time></trkpt><trkpt lat="44.254585" lon="8.2894567"><ele>808.0</ele><time>2026-04-26T08:00:34.638Z</time></trkpt><trkpt lat="44.2545283" lon="8.28932"><ele>808.0</ele><time>2026-04-26T08:00:35.638Z</time></trkpt><trkpt lat="44.2544617" lon="8.2892"><ele>808.0</ele><time>2026-04-26T08:00:36.638Z</time></trkpt><trkpt lat="44.25441" lon="8.2890617"><ele>808.0</ele><time>2026-04-26T08:00:37.638Z</time></trkpt><trkpt lat="44.25438" lon="8.2889217"><ele>808.0</ele><time>2026-04-26T08:00:38.638Z</time></trkpt><trkpt lat="44.2543567" lon="8.28879"><ele>808.0</ele><time>2026-04-26T08:00:39.638Z</time></trkpt><trkpt lat="44.2543417" lon="8.2886633"><ele>810.4999999999999</ele><time>2026-04-26T08:00:40.638Z</time></trkpt><trkpt lat="44.254315" lon="8.2885383"><ele>813.0</ele><time>2026-04-26T08:00:41.638Z</time></trkpt><trkpt lat="44.2542717" lon="8.2884617"><ele>815.5</ele><time>2026-04-26T08:00:42.638Z</time></trkpt><trkpt lat="44.2542183" lon="8.2884"><ele>818.0</ele><time>2026-04-26T08:00:43.639Z</time></trkpt><trkpt lat="44.2541467" lon="8.2883517"><ele>820.4999999999999</ele><time>2026-04-26T08:00:44.638Z</time></trkpt><trkpt lat="44.254075" lon="8.2883317"><ele>823.0</ele><time>2026-04-26T08:00:45.638Z</time></trkpt><trkpt lat="44.253995" lon="8.2883483"><ele>820.8</ele><time>2026-04-26T08:00:46.638Z</time></trkpt><trkpt lat="44.2539033" lon="8.28837"><ele>818.5999999999999</ele><time>2026-04-26T08:00:47.638Z</time></trkpt><trkpt lat="44.2538083" lon="8.2883867"><ele>816.4000000000001</ele><time>2026-04-26T08:00:48.638Z</time></trkpt><trkpt lat="44.2537133" lon="8.288395"><ele>814.2</ele><time>2026-04-26T08:00:49.638Z</time></trkpt><trkpt lat="44.2536083" lon="8.2883667"><ele>812.0</ele><time>2026-04-26T08:00:50.638Z</time></trkpt><trkpt lat="44.2534983" lon="8.2883217"><ele>812.0</ele><time>2026-04-26T08:00:51.638Z</time></trkpt><trkpt lat="44.2533867" lon="8.2882717"><ele>812.0</ele><time>2026-04-26T08:00:52.638Z</time></trkpt><trkpt lat="44.2532717" lon="8.2882167"><ele>812.0</ele><time>2026-04-26T08:00:53.638Z</time></trkpt><trkpt lat="44.25316" lon="8.288165"><ele>812.0</ele><time>2026-04-26T08:00:54.638Z</time></trkpt><trkpt lat="44.2530533" lon="8.2880983"><ele>812.5</ele><time>2026-04-26T08:00:55.638Z</time></trkpt><trkpt lat="44.252945" lon="8.2880283"><ele>813.0</ele><time>2026-04-26T08:00:56.638Z</time></trkpt><trkpt lat="44.2528367" lon="8.287945"><ele>813.5</ele><time>2026-04-26T08:00:57.638Z</time></trkpt><trkpt lat="44.25274" lon="8.28786"><ele>814.0</ele><time>2026-04-26T08:00:58.638Z</time></trkpt><trkpt lat="44.2526533" lon="8.2877633"><ele>814.0</ele><time>2026-04-26T08:00:59.638Z</time></trkpt><trkpt lat="44.2525733" lon="8.2876517"><ele>814.0</ele><time>2026-04-26T08:01:00.638Z</time></trkpt><trkpt lat="44.2525117" lon="8.2875317"><ele>814.0</ele><time>2026-04-26T08:01:01.638Z</time></trkpt><trkpt lat="44.2524467" lon="8.2874033"><ele>814.0</ele><time>2026-04-26T08:01:02.638Z</time></trkpt><trkpt lat="44.2523667" lon="8.28728"><ele>814.0</ele><time>2026-04-26T08:01:03.638Z</time></trkpt><trkpt lat="44.2522667" lon="8.2871633"><ele>814.0</ele><time>2026-04-26T08:01:04.638Z</time></trkpt><trkpt lat="44.252145" lon="8.28706"><ele>814.0</ele><time>2026-04-26T08:01:05.638Z</time></trkpt><trkpt lat="44.2520167" lon="8.286955"><ele>814.0</ele><time>2026-04-26T08:01:06.638Z</time></trkpt><trkpt lat="44.25189" lon="8.28685"><ele>814.0</ele><time>2026-04-26T08:01:07.638Z</time></trkpt><trkpt lat="44.2517733" lon="8.2867467"><ele>814.0</ele><time>2026-04-26T08:01:08.638Z</time></trkpt><trkpt lat="44.2516683" lon="8.2866517"><ele>814.0</ele><time>2026-04-26T08:01:09.639Z</time></trkpt><trkpt lat="44.2515783" lon="8.2865617"><ele>814.0</ele><time>2026-04-26T08:01:10.638Z</time></trkpt><trkpt lat="44.25149" lon="8.2864983"><ele>815.5</ele><time>2026-04-26T08:01:11.638Z</time></trkpt><trkpt lat="44.2514017" lon="8.2864433"><ele>817.0</ele><time>2026-04-26T08:01:12.638Z</time></trkpt><trkpt lat="44.2513067" lon="8.2864167"><ele>818.5</ele><time>2026-04-26T08:01:13.638Z</time></trkpt><trkpt lat="44.2511" lon="8.2864317"><ele>820.0</ele><time>2026-04-26T08:01:15.638Z</time></trkpt><trkpt lat="44.25092" lon="8.2864067"><ele>820.0</ele><time>2026-04-26T08:01:17.639Z</time></trkpt><trkpt lat="44.250745" lon="8.286325"><ele>820.0</ele><time>2026-04-26T08:01:19.638Z</time></trkpt><trkpt lat="44.2506683" lon="8.2862567"><ele>820.0</ele><time>2026-04-26T08:01:20.638Z</time></trkpt><trkpt lat="44.2506033" lon="8.2861567"><ele>820.0</ele><time>2026-04-26T08:01:21.638Z</time></trkpt><trkpt lat="44.250545" lon="8.2860517"><ele>817.0</ele><time>2026-04-26T08:01:22.638Z</time></trkpt><trkpt lat="44.2504233" lon="8.28589"><ele>814.0</ele><time>2026-04-26T08:01:24.638Z</time></trkpt><trkpt lat="44.250235" lon="8.285855"><ele>811.0</ele><time>2026-04-26T08:01:26.638Z</time></trkpt><trkpt lat="44.249995" lon="8.2859167"><ele>811.0</ele><time>2026-04-26T08:01:28.638Z</time></trkpt><trkpt lat="44.2498933" lon="8.2859467"><ele>811.0</ele><time>2026-04-26T08:01:29.638Z</time></trkpt><trkpt lat="44.2498083" lon="8.2859483"><ele>811.0</ele><time>2026-04-26T08:01:30.638Z</time></trkpt><trkpt lat="44.2496367" lon="8.2858667"><ele>811.0</ele><time>2026-04-26T08:01:32.638Z</time></trkpt><trkpt lat="44.2495567" lon="8.2857933"><ele>812.5999999999999</ele><time>2026-04-26T08:01:33.638Z</time></trkpt><trkpt lat="44.2494833" lon="8.28571"><ele>814.2</ele><time>2026-04-26T08:01:34.638Z</time></trkpt><trkpt lat="44.249375" lon="8.2855133"><ele>815.8</ele><time>2026-04-26T08:01:36.638Z</time></trkpt><trkpt lat="44.2493483" lon="8.2854067"><ele>817.4000000000001</ele><time>2026-04-26T08:01:37.638Z</time></trkpt><trkpt lat="44.2493183" lon="8.2853017"><ele>819.0</ele><time>2026-04-26T08:01:38.638Z</time></trkpt><trkpt lat="44.249235" lon="8.2851533"><ele>819.0</ele><time>2026-04-26T08:01:40.638Z</time></trkpt><trkpt lat="44.2491033" lon="8.2850933"><ele>819.0</ele><time>2026-04-26T08:01:42.638Z</time></trkpt><trkpt lat="44.2489783" lon="8.2851433"><ele>819.0</ele><time>2026-04-26T08:01:44.638Z</time></trkpt><trkpt lat="44.2489117" lon="8.285285"><ele>819.0</ele><time>2026-04-26T08:01:46.638Z</time></trkpt><trkpt lat="44.248885" lon="8.2854017"><ele>816.0</ele><time>2026-04-26T08:01:47.638Z</time></trkpt><trkpt lat="44.2488433" lon="8.2855367"><ele>813.0</ele><time>2026-04-26T08:01:48.638Z</time></trkpt><trkpt lat="44.2487183" lon="8.2858"><ele>810.0</ele><time>2026-04-26T08:01:50.638Z</time></trkpt><trkpt lat="44.248585" lon="8.285975"><ele>810.0</ele><time>2026-04-26T08:01:52.639Z</time></trkpt><trkpt lat="44.24851" lon="8.28602"><ele>810.0</ele><time>2026-04-26T08:01:53.638Z</time></trkpt><trkpt lat="44.248425" lon="8.2860633"><ele>810.0</ele><time>2026-04-26T08:01:54.638Z</time></trkpt><trkpt lat="44.2483217" lon="8.2861017"><ele>810.0</ele><time>2026-04-26T08:01:55.638Z</time></trkpt><trkpt lat="44.2481217" lon="8.2862367"><ele>810.3333333333333</ele><time>2026-04-26T08:01:57.638Z</time></trkpt><trkpt lat="44.2480367" lon="8.28634"><ele>810.6666666666666</ele><time>2026-04-26T08:01:58.639Z</time></trkpt><trkpt lat="44.2479583" lon="8.286455"><ele>811.0</ele><time>2026-04-26T08:01:59.638Z</time></trkpt><trkpt lat="44.2478117" lon="8.2867133"><ele>810.9999999999999</ele><time>2026-04-26T08:02:01.638Z</time></trkpt><trkpt lat="44.2477433" lon="8.2868117"><ele>811.0</ele><time>2026-04-26T08:02:02.638Z</time></trkpt><trkpt lat="44.2476767" lon="8.2869017"><ele>811.0</ele><time>2026-04-26T08:02:03.638Z</time></trkpt><trkpt lat="44.2476083" lon="8.286975"><ele>811.0</ele><time>2026-04-26T08:02:04.639Z</time></trkpt><trkpt lat="44.2475383" lon="8.28703"><ele>810.9999999999999</ele><time>2026-04-26T08:02:05.638Z</time></trkpt><trkpt lat="44.2474567" lon="8.287075"><ele>811.0</ele><time>2026-04-26T08:02:06.638Z</time></trkpt><trkpt lat="44.2472667" lon="8.2871117"><ele>814.75</ele><time>2026-04-26T08:02:08.638Z</time></trkpt><trkpt lat="44.24705" lon="8.2871183"><ele>818.5</ele><time>2026-04-26T08:02:10.638Z</time></trkpt><trkpt lat="44.24694" lon="8.2871483"><ele>822.25</ele><time>2026-04-26T08:02:11.638Z</time></trkpt><trkpt lat="44.24684" lon="8.287185"><ele>826.0</ele><time>2026-04-26T08:02:12.638Z</time></trkpt><trkpt lat="44.2467567" lon="8.2872183"><ele>826.0</ele><time>2026-04-26T08:02:13.638Z</time></trkpt><trkpt lat="44.2466783" lon="8.2872333"><ele>826.0</ele><time>2026-04-26T08:02:14.638Z</time></trkpt><trkpt lat="44.2466083" lon="8.2872167"><ele>826.0</ele><time>2026-04-26T08:02:15.639Z</time></trkpt><trkpt lat="44.24653" lon="8.28717"><ele>826.0</ele><time>2026-04-26T08:02:16.638Z</time></trkpt><trkpt lat="44.246445" lon="8.2871267"><ele>826.0</ele><time>2026-04-26T08:02:17.638Z</time></trkpt><trkpt lat="44.2462733" lon="8.2871"><ele>826.75</ele><time>2026-04-26T08:02:19.638Z</time></trkpt><trkpt lat="44.2460933" lon="8.2872117"><ele>827.5</ele><time>2026-04-26T08:02:21.638Z</time></trkpt><trkpt lat="44.2460033" lon="8.2873"><ele>828.25</ele><time>2026-04-26T08:02:22.638Z</time></trkpt><trkpt lat="44.2459067" lon="8.2873883"><ele>829.0</ele><time>2026-04-26T08:02:23.638Z</time></trkpt><trkpt lat="44.2458017" lon="8.2874667"><ele>825.6666666666666</ele><time>2026-04-26T08:02:24.638Z</time></trkpt><trkpt lat="44.24569" lon="8.2875467"><ele>822.3333333333333</ele><time>2026-04-26T08:02:25.638Z</time></trkpt><trkpt lat="44.2455667" lon="8.2876283"><ele>819.0</ele><time>2026-04-26T08:02:26.638Z</time></trkpt><trkpt lat="44.2453483" lon="8.2877817"><ele>819.0</ele><time>2026-04-26T08:02:28.638Z</time></trkpt><trkpt lat="44.24524" lon="8.2878733"><ele>819.0</ele><time>2026-04-26T08:02:29.638Z</time></trkpt><trkpt lat="44.2451283" lon="8.28793"><ele>819.0</ele><time>2026-04-26T08:02:30.638Z</time></trkpt><trkpt lat="44.244875" lon="8.288025"><ele>814.6666666666667</ele><time>2026-04-26T08:02:32.638Z</time></trkpt><trkpt lat="44.2446383" lon="8.2881267"><ele>810.3333333333334</ele><time>2026-04-26T08:02:34.638Z</time></trkpt><trkpt lat="44.2445283" lon="8.2882"><ele>806.0</ele><time>2026-04-26T08:02:35.638Z</time></trkpt><trkpt lat="44.2444117" lon="8.2882733"><ele>806.0</ele><time>2026-04-26T08:02:36.638Z</time></trkpt><trkpt lat="44.2442967" lon="8.2883467"><ele>806.0</ele><time>2026-04-26T08:02:37.638Z</time></trkpt><trkpt lat="44.24418" lon="8.288425"><ele>806.0</ele><time>2026-04-26T08:02:38.638Z</time></trkpt><trkpt lat="44.24406" lon="8.288515"><ele>806.0</ele><time>2026-04-26T08:02:39.639Z</time></trkpt><trkpt lat="44.243805" lon="8.2887783"><ele>804.0</ele><time>2026-04-26T08:02:41.639Z</time></trkpt><trkpt lat="44.2435967" lon="8.2890217"><ele>802.0</ele><time>2026-04-26T08:02:43.638Z</time></trkpt><trkpt lat="44.2433583" lon="8.2892967"><ele>802.0</ele><time>2026-04-26T08:02:45.638Z</time></trkpt><trkpt lat="44.2432183" lon="8.2894583"><ele>802.0</ele><time>2026-04-26T08:02:46.638Z</time></trkpt><trkpt lat="44.2430867" lon="8.2896367"><ele>802.0</ele><time>2026-04-26T08:02:47.638Z</time></trkpt><trkpt lat="44.2429533" lon="8.2897983"><ele>801.3333333333333</ele><time>2026-04-26T08:02:48.639Z</time></trkpt><trkpt lat="44.24283" lon="8.289975"><ele>800.6666666666667</ele><time>2026-04-26T08:02:49.638Z</time></trkpt><trkpt lat="44.2427117" lon="8.2901083"><ele>800.0</ele><time>2026-04-26T08:02:50.638Z</time></trkpt><trkpt lat="44.2426" lon="8.2902283"><ele>800.0</ele><time>2026-04-26T08:02:51.638Z</time></trkpt><trkpt lat="44.2425083" lon="8.290355"><ele>800.0</ele><time>2026-04-26T08:02:52.638Z</time></trkpt><trkpt lat="44.2423717" lon="8.2905217"><ele>800.0</ele><time>2026-04-26T08:02:54.638Z</time></trkpt><trkpt lat="44.2423167" lon="8.29059"><ele>800.0</ele><time>2026-04-26T08:02:55.638Z</time></trkpt><trkpt lat="44.2422533" lon="8.2906317"><ele>791.3333333333334</ele><time>2026-04-26T08:02:56.638Z</time></trkpt><trkpt lat="44.242165" lon="8.290655"><ele>782.6666666666667</ele><time>2026-04-26T08:02:57.638Z</time></trkpt><trkpt lat="44.241905" lon="8.29069"><ele>774.0</ele><time>2026-04-26T08:02:59.638Z</time></trkpt><trkpt lat="44.2417533" lon="8.290725"><ele>774.0</ele><time>2026-04-26T08:03:00.638Z</time></trkpt><trkpt lat="44.241605" lon="8.29076"><ele>774.0</ele><time>2026-04-26T08:03:01.638Z</time></trkpt><trkpt lat="44.2413217" lon="8.2908767"><ele>774.0</ele><time>2026-04-26T08:03:03.639Z</time></trkpt><trkpt lat="44.2412083" lon="8.2909567"><ele>775.0</ele><time>2026-04-26T08:03:04.638Z</time></trkpt><trkpt lat="44.2411133" lon="8.2910467"><ele>776.0</ele><time>2026-04-26T08:03:05.638Z</time></trkpt><trkpt lat="44.2409733" lon="8.2911733"><ele>777.0</ele><time>2026-04-26T08:03:07.638Z</time></trkpt><trkpt lat="44.2409033" lon="8.29121"><ele>778.0</ele><time>2026-04-26T08:03:08.638Z</time></trkpt><trkpt lat="44.24082" lon="8.2912183"><ele>779.0</ele><time>2026-04-26T08:03:09.638Z</time></trkpt><trkpt lat="44.24073" lon="8.2911933"><ele>779.0000000000001</ele><time>2026-04-26T08:03:10.638Z</time></trkpt><trkpt lat="44.240645" lon="8.29114"><ele>779.0</ele><time>2026-04-26T08:03:11.638Z</time></trkpt><trkpt lat="44.2405717" lon="8.291075"><ele>779.0</ele><time>2026-04-26T08:03:12.638Z</time></trkpt><trkpt lat="44.24051" lon="8.2909967"><ele>779.0</ele><time>2026-04-26T08:03:13.639Z</time></trkpt><trkpt lat="44.2404517" lon="8.29091"><ele>779.0000000000001</ele><time>2026-04-26T08:03:14.638Z</time></trkpt><trkpt lat="44.240405" lon="8.29081"><ele>779.0</ele><time>2026-04-26T08:03:15.638Z</time></trkpt><trkpt lat="44.24036" lon="8.290685"><ele>771.5</ele><time>2026-04-26T08:03:16.638Z</time></trkpt><trkpt lat="44.2402733" lon="8.29039"><ele>764.0</ele><time>2026-04-26T08:03:18.638Z</time></trkpt><trkpt lat="44.2402083" lon="8.2900483"><ele>764.0</ele><time>2026-04-26T08:03:20.638Z</time></trkpt><trkpt lat="44.2401767" lon="8.2899017"><ele>764.0</ele><time>2026-04-26T08:03:21.638Z</time></trkpt><trkpt lat="44.2401333" lon="8.28977"><ele>764.0</ele><time>2026-04-26T08:03:22.638Z</time></trkpt><trkpt lat="44.2400817" lon="8.2896533"><ele>764.0</ele><time>2026-04-26T08:03:23.638Z</time></trkpt><trkpt lat="44.2400367" lon="8.2895483"><ele>764.0</ele><time>2026-04-26T08:03:24.638Z</time></trkpt><trkpt lat="44.2399767" lon="8.289335"><ele>764.0</ele><time>2026-04-26T08:03:26.638Z</time></trkpt><trkpt lat="44.239965" lon="8.2892217"><ele>764.0</ele><time>2026-04-26T08:03:27.638Z</time></trkpt><trkpt lat="44.2399683" lon="8.2890933"><ele>764.0</ele><time>2026-04-26T08:03:28.638Z</time></trkpt><trkpt lat="44.2399783" lon="8.28896"><ele>764.0</ele><time>2026-04-26T08:03:29.638Z</time></trkpt><trkpt lat="44.24" lon="8.2888183"><ele>764.0</ele><time>2026-04-26T08:03:30.638Z</time></trkpt><trkpt lat="44.2400233" lon="8.2886767"><ele>764.0</ele><time>2026-04-26T08:03:31.638Z</time></trkpt><trkpt lat="44.2400483" lon="8.2885333"><ele>764.0</ele><time>2026-04-26T08:03:32.639Z</time></trkpt><trkpt lat="44.2401083" lon="8.28826"><ele>764.0</ele><time>2026-04-26T08:03:34.638Z</time></trkpt><trkpt lat="44.2401333" lon="8.288135"><ele>764.0</ele><time>2026-04-26T08:03:35.638Z</time></trkpt><trkpt lat="44.24014" lon="8.2880017"><ele>763.75</ele><time>2026-04-26T08:03:36.638Z</time></trkpt><trkpt lat="44.2401333" lon="8.2878617"><ele>763.5</ele><time>2026-04-26T08:03:37.638Z</time></trkpt><trkpt lat="44.24007" lon="8.2875683"><ele>763.25</ele><time>2026-04-26T08:03:39.638Z</time></trkpt><trkpt lat="44.2400333" lon="8.2873967"><ele>763.0</ele><time>2026-04-26T08:03:40.639Z</time></trkpt><trkpt lat="44.2400067" lon="8.2872267"><ele>763.5</ele><time>2026-04-26T08:03:41.638Z</time></trkpt><trkpt lat="44.2399817" lon="8.2870433"><ele>764.0</ele><time>2026-04-26T08:03:42.638Z</time></trkpt><trkpt lat="44.239965" lon="8.2868617"><ele>764.5</ele><time>2026-04-26T08:03:43.638Z</time></trkpt><trkpt lat="44.2399483" lon="8.286695"><ele>765.0</ele><time>2026-04-26T08:03:44.638Z</time></trkpt><trkpt lat="44.2399283" lon="8.2865367"><ele>765.0</ele><time>2026-04-26T08:03:45.639Z</time></trkpt><trkpt lat="44.2399017" lon="8.2863833"><ele>765.0</ele><time>2026-04-26T08:03:46.638Z</time></trkpt><trkpt lat="44.23988" lon="8.2862333"><ele>765.0</ele><time>2026-04-26T08:03:47.638Z</time></trkpt><trkpt lat="44.23985" lon="8.2860983"><ele>765.0</ele><time>2026-04-26T08:03:48.638Z</time></trkpt><trkpt lat="44.2397717" lon="8.285855"><ele>759.5</ele><time>2026-04-26T08:03:50.638Z</time></trkpt><trkpt lat="44.2397317" lon="8.2857417"><ele>754.0</ele><time>2026-04-26T08:03:51.638Z</time></trkpt><trkpt lat="44.2397117" lon="8.285635"><ele>748.5</ele><time>2026-04-26T08:03:52.638Z</time></trkpt><trkpt lat="44.2397017" lon="8.2855283"><ele>743.0</ele><time>2026-04-26T08:03:53.638Z</time></trkpt><trkpt lat="44.2397167" lon="8.2854217"><ele>737.5</ele><time>2026-04-26T08:03:54.639Z</time></trkpt><trkpt lat="44.2397417" lon="8.2853117"><ele>732.0</ele><time>2026-04-26T08:03:55.638Z</time></trkpt><trkpt lat="44.2397817" lon="8.2852067"><ele>735.3333333333334</ele><time>2026-04-26T08:03:56.638Z</time></trkpt><trkpt lat="44.2398783" lon="8.2849617"><ele>738.6666666666667</ele><time>2026-04-26T08:03:58.638Z</time></trkpt><trkpt lat="44.2399617" lon="8.2847333"><ele>742.0</ele><time>2026-04-26T08:04:00.638Z</time></trkpt><trkpt lat="44.24" lon="8.2846367"><ele>742.0</ele><time>2026-04-26T08:04:01.638Z</time></trkpt><trkpt lat="44.240045" lon="8.2845633"><ele>742.0</ele><time>2026-04-26T08:04:02.638Z</time></trkpt><trkpt lat="44.240125" lon="8.284455"><ele>742.0</ele><time>2026-04-26T08:04:04.638Z</time></trkpt><trkpt lat="44.2401667" lon="8.2843683"><ele>742.0</ele><time>2026-04-26T08:04:07.638Z</time></trkpt><trkpt lat="44.24025" lon="8.284155"><ele>742.0</ele><time>2026-04-26T08:04:34.638Z</time></trkpt><trkpt lat="44.2403983" lon="8.283935"><ele>733.5</ele><time>2026-04-26T08:04:36.638Z</time></trkpt><trkpt lat="44.240575" lon="8.2836883"><ele>725.0</ele><time>2026-04-26T08:04:38.638Z</time></trkpt><trkpt lat="44.2407833" lon="8.2835117"><ele>737.0</ele><time>2026-04-26T08:04:40.638Z</time></trkpt><trkpt lat="44.2409283" lon="8.2832433"><ele>749.0</ele><time>2026-04-26T08:04:42.638Z</time></trkpt><trkpt lat="44.2410917" lon="8.2829267"><ele>749.0</ele><time>2026-04-26T08:04:44.638Z</time></trkpt><trkpt lat="44.2412567" lon="8.282595"><ele>749.0</ele><time>2026-04-26T08:04:46.638Z</time></trkpt><trkpt lat="44.24134" lon="8.28244"><ele>749.0</ele><time>2026-04-26T08:04:47.638Z</time></trkpt><trkpt lat="44.2415317" lon="8.282145"><ele>756.6666666666666</ele><time>2026-04-26T08:04:49.638Z</time></trkpt><trkpt lat="44.2417617" lon="8.2819183"><ele>764.3333333333333</ele><time>2026-04-26T08:04:51.638Z</time></trkpt><trkpt lat="44.24188" lon="8.2818183"><ele>772.0</ele><time>2026-04-26T08:04:52.638Z</time></trkpt><trkpt lat="44.2421483" lon="8.281645"><ele>772.0</ele><time>2026-04-26T08:04:54.638Z</time></trkpt><trkpt lat="44.2422633" lon="8.2815583"><ele>772.0</ele><time>2026-04-26T08:04:55.638Z</time></trkpt><trkpt lat="44.2423617" lon="8.2814583"><ele>772.0</ele><time>2026-04-26T08:04:56.638Z</time></trkpt><trkpt lat="44.2424367" lon="8.2813683"><ele>772.0</ele><time>2026-04-26T08:04:57.638Z</time></trkpt><trkpt lat="44.2425133" lon="8.2812"><ele>781.0</ele><time>2026-04-26T08:04:59.638Z</time></trkpt><trkpt lat="44.2425" lon="8.28106"><ele>790.0</ele><time>2026-04-26T08:05:01.638Z</time></trkpt><trkpt lat="44.2423683" lon="8.2809817"><ele>799.0</ele><time>2026-04-26T08:05:03.638Z</time></trkpt><trkpt lat="44.2421283" lon="8.28098"><ele>799.0</ele><time>2026-04-26T08:05:05.638Z</time></trkpt><trkpt lat="44.2420083" lon="8.280965"><ele>799.0</ele><time>2026-04-26T08:05:06.638Z</time></trkpt><trkpt lat="44.2418867" lon="8.280945"><ele>799.0</ele><time>2026-04-26T08:05:07.638Z</time></trkpt><trkpt lat="44.2417583" lon="8.2809083"><ele>799.0</ele><time>2026-04-26T08:05:08.639Z</time></trkpt><trkpt lat="44.2416267" lon="8.2808517"><ele>800.6666666666666</ele><time>2026-04-26T08:05:09.639Z</time></trkpt><trkpt lat="44.2413583" lon="8.2806733"><ele>802.3333333333333</ele><time>2026-04-26T08:05:11.639Z</time></trkpt><trkpt lat="44.2412183" lon="8.2806"><ele>804.0</ele><time>2026-04-26T08:05:12.64Z</time></trkpt><trkpt lat="44.2410783" lon="8.2805483"><ele>804.0</ele><time>2026-04-26T08:05:13.64Z</time></trkpt><trkpt lat="44.2409583" lon="8.2805033"><ele>804.0</ele><time>2026-04-26T08:05:14.639Z</time></trkpt><trkpt lat="44.2408117" lon="8.28035"><ele>804.0</ele><time>2026-04-26T08:05:16.639Z</time></trkpt><trkpt lat="44.2407833" lon="8.2801183"><ele>804.0</ele><time>2026-04-26T08:05:18.639Z</time></trkpt><trkpt lat="44.2408033" lon="8.279975"><ele>804.0</ele><time>2026-04-26T08:05:19.639Z</time></trkpt><trkpt lat="44.2408383" lon="8.2798167"><ele>804.0</ele><time>2026-04-26T08:05:20.639Z</time></trkpt><trkpt lat="44.2408783" lon="8.279665"><ele>804.0</ele><time>2026-04-26T08:05:21.639Z</time></trkpt><trkpt lat="44.2409183" lon="8.27952"><ele>806.0</ele><time>2026-04-26T08:05:22.639Z</time></trkpt><trkpt lat="44.2409683" lon="8.2792083"><ele>808.0</ele><time>2026-04-26T08:05:24.639Z</time></trkpt><trkpt lat="44.2409483" lon="8.2790767"><ele>810.0</ele><time>2026-04-26T08:05:25.639Z</time></trkpt><trkpt lat="44.2409" lon="8.27894"><ele>812.0</ele><time>2026-04-26T08:05:26.639Z</time></trkpt><trkpt lat="44.24076" lon="8.27867"><ele>811.5000000000001</ele><time>2026-04-26T08:05:28.639Z</time></trkpt><trkpt lat="44.2406917" lon="8.2785333"><ele>811.0</ele><time>2026-04-26T08:05:29.639Z</time></trkpt><trkpt lat="44.2406367" lon="8.2784233"><ele>810.5</ele><time>2026-04-26T08:05:30.639Z</time></trkpt><trkpt lat="44.2406067" lon="8.2783417"><ele>810.0</ele><time>2026-04-26T08:05:31.639Z</time></trkpt><trkpt lat="44.2405967" lon="8.2782167"><ele>809.5000000000001</ele><time>2026-04-26T08:12:56.639Z</time></trkpt><trkpt lat="44.2406217" lon="8.2783167"><ele>809.0</ele><time>2026-04-26T08:12:58.64Z</time></trkpt><trkpt lat="44.240665" lon="8.2784533"><ele>809.5000000000001</ele><time>2026-04-26T08:13:00.639Z</time></trkpt><trkpt lat="44.2407217" lon="8.2785883"><ele>810.0</ele><time>2026-04-26T08:13:02.639Z</time></trkpt><trkpt lat="44.2407867" lon="8.2787333"><ele>810.5</ele><time>2026-04-26T08:13:04.639Z</time></trkpt><trkpt lat="44.2408333" lon="8.2788"><ele>811.0</ele><time>2026-04-26T08:13:05.639Z</time></trkpt><trkpt lat="44.2408683" lon="8.2788733"><ele>811.5000000000001</ele><time>2026-04-26T08:13:06.639Z</time></trkpt><trkpt lat="44.2409067" lon="8.2789517"><ele>812.0</ele><time>2026-04-26T08:13:07.639Z</time></trkpt><trkpt lat="44.2409283" lon="8.279035"><ele>812.0</ele><time>2026-04-26T08:13:08.639Z</time></trkpt><trkpt lat="44.2409417" lon="8.279125"><ele>812.0</ele><time>2026-04-26T08:13:09.639Z</time></trkpt><trkpt lat="44.240935" lon="8.279305"><ele>812.0</ele><time>2026-04-26T08:13:11.639Z</time></trkpt><trkpt lat="44.2409033" lon="8.2794083"><ele>812.0</ele><time>2026-04-26T08:13:12.639Z</time></trkpt><trkpt lat="44.2408733" lon="8.2795283"><ele>812.0</ele><time>2026-04-26T08:13:13.639Z</time></trkpt><trkpt lat="44.2408467" lon="8.2796433"><ele>812.0000000000001</ele><time>2026-04-26T08:13:14.639Z</time></trkpt><trkpt lat="44.2408233" lon="8.27975"><ele>812.0</ele><time>2026-04-26T08:13:15.639Z</time></trkpt><trkpt lat="44.240805" lon="8.2798733"><ele>812.0</ele><time>2026-04-26T08:13:16.639Z</time></trkpt><trkpt lat="44.240785" lon="8.2800133"><ele>812.0</ele><time>2026-04-26T08:13:17.639Z</time></trkpt><trkpt lat="44.24077" lon="8.280135"><ele>812.0000000000001</ele><time>2026-04-26T08:13:18.639Z</time></trkpt><trkpt lat="44.24076" lon="8.2802517"><ele>812.0</ele><time>2026-04-26T08:13:19.639Z</time></trkpt><trkpt lat="44.24079" lon="8.28036"><ele>810.6666666666667</ele><time>2026-04-26T08:13:20.639Z</time></trkpt><trkpt lat="44.24084" lon="8.2804433"><ele>809.3333333333334</ele><time>2026-04-26T08:13:21.639Z</time></trkpt><trkpt lat="44.2409133" lon="8.280495"><ele>808.0</ele><time>2026-04-26T08:13:22.639Z</time></trkpt><trkpt lat="44.2409967" lon="8.28053"><ele>806.6666666666667</ele><time>2026-04-26T08:13:23.639Z</time></trkpt><trkpt lat="44.2410733" lon="8.2805733"><ele>805.3333333333334</ele><time>2026-04-26T08:13:24.639Z</time></trkpt><trkpt lat="44.241155" lon="8.2806183"><ele>804.0</ele><time>2026-04-26T08:13:25.639Z</time></trkpt><trkpt lat="44.2412433" lon="8.2806633"><ele>803.0</ele><time>2026-04-26T08:13:26.639Z</time></trkpt><trkpt lat="44.2413383" lon="8.2807033"><ele>802.0</ele><time>2026-04-26T08:13:27.639Z</time></trkpt><trkpt lat="44.2414267" lon="8.2807533"><ele>801.0</ele><time>2026-04-26T08:13:28.639Z</time></trkpt><trkpt lat="44.241515" lon="8.2808033"><ele>800.0</ele><time>2026-04-26T08:13:29.639Z</time></trkpt><trkpt lat="44.241605" lon="8.2808533"><ele>799.0</ele><time>2026-04-26T08:13:30.639Z</time></trkpt><trkpt lat="44.2416933" lon="8.2809067"><ele>799.0</ele><time>2026-04-26T08:13:31.639Z</time></trkpt><trkpt lat="44.2417917" lon="8.2809483"><ele>799.0</ele><time>2026-04-26T08:13:32.639Z</time></trkpt><trkpt lat="44.2418867" lon="8.2809783"><ele>799.0</ele><time>2026-04-26T08:13:33.639Z</time></trkpt><trkpt lat="44.2419883" lon="8.2810033"><ele>799.0</ele><time>2026-04-26T08:13:34.639Z</time></trkpt><trkpt lat="44.242095" lon="8.2810333"><ele>799.0</ele><time>2026-04-26T08:13:35.639Z</time></trkpt><trkpt lat="44.2421967" lon="8.2810467"><ele>798.9999999999999</ele><time>2026-04-26T08:13:36.64Z</time></trkpt><trkpt lat="44.2422833" lon="8.2810467"><ele>799.0</ele><time>2026-04-26T08:13:37.639Z</time></trkpt><trkpt lat="44.24236" lon="8.2810467"><ele>799.0</ele><time>2026-04-26T08:13:38.639Z</time></trkpt><trkpt lat="44.2424233" lon="8.2810667"><ele>799.0</ele><time>2026-04-26T08:13:39.639Z</time></trkpt><trkpt lat="44.2424917" lon="8.281145"><ele>798.9999999999999</ele><time>2026-04-26T08:13:41.639Z</time></trkpt><trkpt lat="44.2424567" lon="8.2812317"><ele>799.0</ele><time>2026-04-26T08:13:42.639Z</time></trkpt><trkpt lat="44.2424233" lon="8.2813167"><ele>799.6666666666666</ele><time>2026-04-26T08:13:43.639Z</time></trkpt><trkpt lat="44.2423683" lon="8.2813967"><ele>800.3333333333333</ele><time>2026-04-26T08:13:44.639Z</time></trkpt><trkpt lat="44.242305" lon="8.28148"><ele>801.0</ele><time>2026-04-26T08:13:45.639Z</time></trkpt><trkpt lat="44.2422383" lon="8.2815583"><ele>801.6666666666667</ele><time>2026-04-26T08:13:46.639Z</time></trkpt><trkpt lat="44.2421683" lon="8.2816083"><ele>802.3333333333334</ele><time>2026-04-26T08:13:47.639Z</time></trkpt><trkpt lat="44.242085" lon="8.2816517"><ele>803.0</ele><time>2026-04-26T08:13:48.639Z</time></trkpt><trkpt lat="44.2420033" lon="8.2817017"><ele>796.8</ele><time>2026-04-26T08:13:49.639Z</time></trkpt><trkpt lat="44.24192" lon="8.2817533"><ele>790.5999999999999</ele><time>2026-04-26T08:13:50.639Z</time></trkpt><trkpt lat="44.2418383" lon="8.2818217"><ele>784.4000000000001</ele><time>2026-04-26T08:13:51.639Z</time></trkpt><trkpt lat="44.2417583" lon="8.28189"><ele>778.2</ele><time>2026-04-26T08:13:52.639Z</time></trkpt><trkpt lat="44.2416783" lon="8.2819717"><ele>772.0</ele><time>2026-04-26T08:13:53.64Z</time></trkpt><trkpt lat="44.2416033" lon="8.2820483"><ele>771.9999999999999</ele><time>2026-04-26T08:13:54.639Z</time></trkpt><trkpt lat="44.2415317" lon="8.28212"><ele>772.0</ele><time>2026-04-26T08:13:55.639Z</time></trkpt><trkpt lat="44.241475" lon="8.2821817"><ele>772.0</ele><time>2026-04-26T08:13:56.639Z</time></trkpt><trkpt lat="44.2414217" lon="8.2822667"><ele>772.0</ele><time>2026-04-26T08:13:58.639Z</time></trkpt><trkpt lat="44.2414033" lon="8.2821633"><ele>771.9999999999999</ele><time>2026-04-26T08:14:09.639Z</time></trkpt><trkpt lat="44.2414883" lon="8.2820717"><ele>772.0</ele><time>2026-04-26T08:14:18.639Z</time></trkpt><trkpt lat="44.2415483" lon="8.2820133"><ele>771.9999999999999</ele><time>2026-04-26T08:14:19.64Z</time></trkpt><trkpt lat="44.2416267" lon="8.281935"><ele>772.0</ele><time>2026-04-26T08:14:20.639Z</time></trkpt><trkpt lat="44.2417083" lon="8.2818517"><ele>772.0</ele><time>2026-04-26T08:14:21.639Z</time></trkpt><trkpt lat="44.24178" lon="8.2817717"><ele>772.0</ele><time>2026-04-26T08:14:22.639Z</time></trkpt><trkpt lat="44.24184" lon="8.2817017"><ele>771.9999999999999</ele><time>2026-04-26T08:14:23.639Z</time></trkpt><trkpt lat="44.241895" lon="8.2816517"><ele>772.0</ele><time>2026-04-26T08:14:24.639Z</time></trkpt><trkpt lat="44.241995" lon="8.2815733"><ele>772.0</ele><time>2026-04-26T08:14:26.639Z</time></trkpt><trkpt lat="44.2420783" lon="8.281435"><ele>772.0</ele><time>2026-04-26T08:14:29.639Z</time></trkpt><trkpt lat="44.2420267" lon="8.281355"><ele>772.0</ele><time>2026-04-26T08:14:31.639Z</time></trkpt><trkpt lat="44.241915" lon="8.2813"><ele>772.0</ele><time>2026-04-26T08:14:33.639Z</time></trkpt><trkpt lat="44.2418483" lon="8.281275"><ele>772.0</ele><time>2026-04-26T08:14:34.639Z</time></trkpt><trkpt lat="44.2417867" lon="8.2812483"><ele>774.1428571428572</ele><time>2026-04-26T08:14:35.639Z</time></trkpt><trkpt lat="44.241725" lon="8.28122"><ele>776.2857142857143</ele><time>2026-04-26T08:14:36.639Z</time></trkpt><trkpt lat="44.241655" lon="8.2812067"><ele>778.4285714285714</ele><time>2026-04-26T08:14:37.639Z</time></trkpt><trkpt lat="44.241585" lon="8.2811883"><ele>780.5714285714287</ele><time>2026-04-26T08:14:38.639Z</time></trkpt><trkpt lat="44.2415133" lon="8.2811583"><ele>782.7142857142857</ele><time>2026-04-26T08:14:39.639Z</time></trkpt><trkpt lat="44.2414417" lon="8.28113"><ele>784.8571428571429</ele><time>2026-04-26T08:14:40.639Z</time></trkpt><trkpt lat="44.2413638" lon="8.2810956"><ele>787.0</ele><time>2026-04-26T08:14:41.639Z</time></trkpt><trkpt lat="44.241286" lon="8.2810575"><ele>787.0</ele><time>2026-04-26T08:14:42.639Z</time></trkpt><trkpt lat="44.2412166" lon="8.2810169"><ele>787.0</ele><time>2026-04-26T08:14:43.639Z</time></trkpt><trkpt lat="44.2411457" lon="8.280974"><ele>787.0</ele><time>2026-04-26T08:14:44.639Z</time></trkpt><trkpt lat="44.2410809" lon="8.2809447"><ele>787.0</ele><time>2026-04-26T08:14:45.639Z</time></trkpt><trkpt lat="44.2410099" lon="8.2809233"><ele>787.0</ele><time>2026-04-26T08:14:46.639Z</time></trkpt><trkpt lat="44.2409333" lon="8.2809162"><ele>787.0</ele><time>2026-04-26T08:14:47.639Z</time></trkpt><trkpt lat="44.2408552" lon="8.2809057"><ele>787.0</ele><time>2026-04-26T08:14:48.639Z</time></trkpt><trkpt lat="44.2407722" lon="8.2808938"><ele>787.0</ele><time>2026-04-26T08:14:49.639Z</time></trkpt><trkpt lat="44.2406938" lon="8.2808851"><ele>787.0</ele><time>2026-04-26T08:14:50.639Z</time></trkpt><trkpt lat="44.2406249" lon="8.2808756"><ele>787.0</ele><time>2026-04-26T08:14:51.639Z</time></trkpt><trkpt lat="44.2405165" lon="8.2808431"><ele>787.0</ele><time>2026-04-26T08:14:53.64Z</time></trkpt><trkpt lat="44.2404082" lon="8.2806773"><ele>787.0</ele><time>2026-04-26T08:14:56.639Z</time></trkpt><trkpt lat="44.2403618" lon="8.2806148"><ele>784.6666666666666</ele><time>2026-04-26T08:14:57.639Z</time></trkpt><trkpt lat="44.240305" lon="8.2805552"><ele>782.3333333333333</ele><time>2026-04-26T08:14:58.639Z</time></trkpt><trkpt lat="44.2402414" lon="8.2804924"><ele>780.0</ele><time>2026-04-26T08:14:59.639Z</time></trkpt><trkpt lat="44.2401925" lon="8.2804333"><ele>777.6666666666667</ele><time>2026-04-26T08:15:00.639Z</time></trkpt><trkpt lat="44.2401457" lon="8.2803177"><ele>775.3333333333334</ele><time>2026-04-26T08:15:02.639Z</time></trkpt><trkpt lat="44.2401505" lon="8.2802167"><ele>773.0</ele><time>2026-04-26T08:15:04.639Z</time></trkpt><trkpt lat="44.2401567" lon="8.2800172"><ele>773.0000000000001</ele><time>2026-04-26T08:15:07.639Z</time></trkpt><trkpt lat="44.2401409" lon="8.279928"><ele>773.0</ele><time>2026-04-26T08:15:08.639Z</time></trkpt><trkpt lat="44.2401201" lon="8.2798304"><ele>773.0</ele><time>2026-04-26T08:15:09.639Z</time></trkpt><trkpt lat="44.2400934" lon="8.2797445"><ele>773.0</ele><time>2026-04-26T08:15:10.64Z</time></trkpt><trkpt lat="44.2400264" lon="8.2795825"><ele>773.0000000000001</ele><time>2026-04-26T08:15:12.639Z</time></trkpt><trkpt lat="44.2399667" lon="8.2795083"><ele>773.0</ele><time>2026-04-26T08:15:13.639Z</time></trkpt><trkpt lat="44.2398583" lon="8.2794517"><ele>772.0000000000001</ele><time>2026-04-26T08:15:15.639Z</time></trkpt><trkpt lat="44.239795" lon="8.2794317"><ele>771.0</ele><time>2026-04-26T08:15:16.639Z</time></trkpt><trkpt lat="44.23973" lon="8.2794133"><ele>770.0</ele><time>2026-04-26T08:15:17.639Z</time></trkpt><trkpt lat="44.2396683" lon="8.279395"><ele>769.0</ele><time>2026-04-26T08:15:18.639Z</time></trkpt><trkpt lat="44.2395567" lon="8.279355"><ele>768.0</ele><time>2026-04-26T08:15:20.639Z</time></trkpt><trkpt lat="44.2394583" lon="8.2792967"><ele>767.0</ele><time>2026-04-26T08:15:22.639Z</time></trkpt><trkpt lat="44.2393517" lon="8.279215"><ele>767.0</ele><time>2026-04-26T08:15:24.639Z</time></trkpt><trkpt lat="44.2392917" lon="8.2791833"><ele>767.0</ele><time>2026-04-26T08:15:25.639Z</time></trkpt><trkpt lat="44.2392267" lon="8.279165"><ele>767.0</ele><time>2026-04-26T08:15:26.639Z</time></trkpt><trkpt lat="44.2391583" lon="8.2791533"><ele>767.0</ele><time>2026-04-26T08:15:27.639Z</time></trkpt><trkpt lat="44.23909" lon="8.2791317"><ele>767.0</ele><time>2026-04-26T08:15:28.639Z</time></trkpt><trkpt lat="44.2390267" lon="8.2790967"><ele>767.0</ele><time>2026-04-26T08:15:29.639Z</time></trkpt><trkpt lat="44.23896" lon="8.27905"><ele>767.0</ele><time>2026-04-26T08:15:30.639Z</time></trkpt><trkpt lat="44.2388933" lon="8.279"><ele>767.0</ele><time>2026-04-26T08:15:31.639Z</time></trkpt><trkpt lat="44.2388283" lon="8.278945"><ele>767.0</ele><time>2026-04-26T08:15:32.64Z</time></trkpt><trkpt lat="44.2387733" lon="8.2788883"><ele>767.0</ele><time>2026-04-26T08:15:33.639Z</time></trkpt><trkpt lat="44.238715" lon="8.2788333"><ele>767.0</ele><time>2026-04-26T08:15:34.639Z</time></trkpt><trkpt lat="44.2386517" lon="8.278785"><ele>767.0</ele><time>2026-04-26T08:15:35.639Z</time></trkpt><trkpt lat="44.2385867" lon="8.2787533"><ele>767.0</ele><time>2026-04-26T08:15:36.639Z</time></trkpt><trkpt lat="44.2385167" lon="8.2787367"><ele>767.0</ele><time>2026-04-26T08:15:37.639Z</time></trkpt><trkpt lat="44.2383883" lon="8.2787533"><ele>767.0</ele><time>2026-04-26T08:15:39.639Z</time></trkpt><trkpt lat="44.2383233" lon="8.2787233"><ele>767.0</ele><time>2026-04-26T08:15:40.639Z</time></trkpt><trkpt lat="44.2382633" lon="8.2786967"><ele>767.0</ele><time>2026-04-26T08:15:41.639Z</time></trkpt><trkpt lat="44.2381867" lon="8.2786"><ele>767.0</ele><time>2026-04-26T08:15:43.64Z</time></trkpt><trkpt lat="44.2381167" lon="8.27849"><ele>767.0</ele><time>2026-04-26T08:15:45.639Z</time></trkpt><trkpt lat="44.2380233" lon="8.2784017"><ele>762.6666666666666</ele><time>2026-04-26T08:15:47.64Z</time></trkpt><trkpt lat="44.2379133" lon="8.278345"><ele>758.3333333333333</ele><time>2026-04-26T08:15:49.639Z</time></trkpt><trkpt lat="44.2378517" lon="8.2783133"><ele>754.0</ele><time>2026-04-26T08:15:50.639Z</time></trkpt><trkpt lat="44.2377783" lon="8.2782783"><ele>749.6666666666666</ele><time>2026-04-26T08:15:51.639Z</time></trkpt><trkpt lat="44.2376983" lon="8.27824"><ele>745.3333333333334</ele><time>2026-04-26T08:15:52.64Z</time></trkpt><trkpt lat="44.2376167" lon="8.2782033"><ele>741.0</ele><time>2026-04-26T08:15:53.639Z</time></trkpt><trkpt lat="44.2375283" lon="8.2781617"><ele>741.0</ele><time>2026-04-26T08:15:54.639Z</time></trkpt><trkpt lat="44.2374383" lon="8.278125"><ele>741.0</ele><time>2026-04-26T08:15:55.64Z</time></trkpt><trkpt lat="44.23736" lon="8.2780983"><ele>741.0</ele><time>2026-04-26T08:15:56.64Z</time></trkpt><trkpt lat="44.237275" lon="8.278065"><ele>741.0</ele><time>2026-04-26T08:15:57.639Z</time></trkpt><trkpt lat="44.23719" lon="8.2780433"><ele>741.0</ele><time>2026-04-26T08:15:58.639Z</time></trkpt><trkpt lat="44.2371067" lon="8.2780183"><ele>741.0</ele><time>2026-04-26T08:15:59.639Z</time></trkpt><trkpt lat="44.23702" lon="8.2779983"><ele>744.5</ele><time>2026-04-26T08:16:00.639Z</time></trkpt><trkpt lat="44.2369367" lon="8.2779833"><ele>748.0</ele><time>2026-04-26T08:16:01.639Z</time></trkpt><trkpt lat="44.2368567" lon="8.27797"><ele>751.5</ele><time>2026-04-26T08:16:02.639Z</time></trkpt><trkpt lat="44.2367783" lon="8.277965"><ele>755.0</ele><time>2026-04-26T08:16:03.639Z</time></trkpt><trkpt lat="44.2366983" lon="8.277965"><ele>758.5</ele><time>2026-04-26T08:16:04.639Z</time></trkpt><trkpt lat="44.23662" lon="8.277965"><ele>762.0</ele><time>2026-04-26T08:16:05.639Z</time></trkpt><trkpt lat="44.2365517" lon="8.277955"><ele>757.2</ele><time>2026-04-26T08:16:06.639Z</time></trkpt><trkpt lat="44.2364333" lon="8.2779367"><ele>752.4000000000001</ele><time>2026-04-26T08:16:08.639Z</time></trkpt><trkpt lat="44.2363517" lon="8.2779133"><ele>747.5999999999999</ele><time>2026-04-26T08:16:10.639Z</time></trkpt><trkpt lat="44.23624" lon="8.2778283"><ele>742.8</ele><time>2026-04-26T08:18:10.64Z</time></trkpt><trkpt lat="44.23616" lon="8.2777933"><ele>738.0</ele><time>2026-04-26T08:18:13.64Z</time></trkpt><trkpt lat="44.2360983" lon="8.2777417"><ele>738.0</ele><time>2026-04-26T08:18:15.641Z</time></trkpt><trkpt lat="44.2360333" lon="8.277665"><ele>738.0</ele><time>2026-04-26T08:18:17.64Z</time></trkpt><trkpt lat="44.2359767" lon="8.2775717"><ele>738.0</ele><time>2026-04-26T08:18:19.64Z</time></trkpt><trkpt lat="44.2359" lon="8.2775"><ele>738.0</ele><time>2026-04-26T08:18:21.64Z</time></trkpt><trkpt lat="44.2358333" lon="8.27741"><ele>738.0</ele><time>2026-04-26T08:18:23.64Z</time></trkpt><trkpt lat="44.2358017" lon="8.2772867"><ele>740.0</ele><time>2026-04-26T08:18:26.64Z</time></trkpt><trkpt lat="44.2358117" lon="8.2771833"><ele>742.0</ele><time>2026-04-26T08:18:28.64Z</time></trkpt><trkpt lat="44.2358233" lon="8.2770883"><ele>744.0</ele><time>2026-04-26T08:18:30.641Z</time></trkpt><trkpt lat="44.2358417" lon="8.2769767"><ele>746.0</ele><time>2026-04-26T08:18:32.641Z</time></trkpt><trkpt lat="44.2358733" lon="8.27687"><ele>748.0</ele><time>2026-04-26T08:18:34.64Z</time></trkpt><trkpt lat="44.2358967" lon="8.27677"><ele>750.0</ele><time>2026-04-26T08:18:36.64Z</time></trkpt><trkpt lat="44.2359333" lon="8.2766317"><ele>750.0</ele><time>2026-04-26T08:18:38.64Z</time></trkpt><trkpt lat="44.2359567" lon="8.2765383"><ele>750.0</ele><time>2026-04-26T08:18:39.64Z</time></trkpt><trkpt lat="44.235975" lon="8.2764483"><ele>750.0</ele><time>2026-04-26T08:18:40.64Z</time></trkpt><trkpt lat="44.23601" lon="8.2762867"><ele>750.0</ele><time>2026-04-26T08:18:42.64Z</time></trkpt><trkpt lat="44.2360467" lon="8.2761583"><ele>750.0</ele><time>2026-04-26T08:18:44.64Z</time></trkpt><trkpt lat="44.236065" lon="8.2760517"><ele>750.0</ele><time>2026-04-26T08:18:46.64Z</time></trkpt><trkpt lat="44.2360883" lon="8.2759517"><ele>750.1666666666666</ele><time>2026-04-26T08:18:48.64Z</time></trkpt><trkpt lat="44.236135" lon="8.2758417"><ele>750.3333333333334</ele><time>2026-04-26T08:18:50.64Z</time></trkpt><trkpt lat="44.23617" lon="8.275765"><ele>750.5</ele><time>2026-04-26T08:18:51.64Z</time></trkpt><trkpt lat="44.2362117" lon="8.2756617"><ele>750.6666666666667</ele><time>2026-04-26T08:18:52.64Z</time></trkpt><trkpt lat="44.2362533" lon="8.2755733"><ele>750.8333333333334</ele><time>2026-04-26T08:18:53.64Z</time></trkpt><trkpt lat="44.2362967" lon="8.2754717"><ele>751.0</ele><time>2026-04-26T08:18:54.64Z</time></trkpt><trkpt lat="44.23633" lon="8.275365"><ele>750.6666666666667</ele><time>2026-04-26T08:18:55.64Z</time></trkpt><trkpt lat="44.2363583" lon="8.2752517"><ele>750.3333333333334</ele><time>2026-04-26T08:18:56.64Z</time></trkpt><trkpt lat="44.2363867" lon="8.275135"><ele>750.0</ele><time>2026-04-26T08:18:57.641Z</time></trkpt><trkpt lat="44.2364117" lon="8.2750133"><ele>749.6666666666666</ele><time>2026-04-26T08:18:58.64Z</time></trkpt><trkpt lat="44.2364367" lon="8.274915"><ele>749.3333333333333</ele><time>2026-04-26T08:18:59.64Z</time></trkpt><trkpt lat="44.2364617" lon="8.2747883"><ele>749.0</ele><time>2026-04-26T08:19:01.64Z</time></trkpt><trkpt lat="44.2364633" lon="8.2746483"><ele>754.4000000000001</ele><time>2026-04-26T08:19:03.64Z</time></trkpt><trkpt lat="44.2365033" lon="8.2745167"><ele>759.8</ele><time>2026-04-26T08:19:05.64Z</time></trkpt><trkpt lat="44.23656" lon="8.2744033"><ele>765.2</ele><time>2026-04-26T08:19:07.64Z</time></trkpt><trkpt lat="44.236665" lon="8.2743417"><ele>770.5999999999999</ele><time>2026-04-26T08:19:09.64Z</time></trkpt><trkpt lat="44.2367533" lon="8.274295"><ele>776.0</ele><time>2026-04-26T08:19:11.64Z</time></trkpt><trkpt lat="44.2368467" lon="8.2742767"><ele>776.0000000000001</ele><time>2026-04-26T08:19:13.64Z</time></trkpt><trkpt lat="44.236925" lon="8.2742783"><ele>776.0</ele><time>2026-04-26T08:19:15.641Z</time></trkpt><trkpt lat="44.2369983" lon="8.2742667"><ele>776.0</ele><time>2026-04-26T08:19:17.641Z</time></trkpt><trkpt lat="44.2370917" lon="8.2742"><ele>776.0</ele><time>2026-04-26T08:19:19.64Z</time></trkpt><trkpt lat="44.2371867" lon="8.2741467"><ele>776.0000000000001</ele><time>2026-04-26T08:19:21.64Z</time></trkpt><trkpt lat="44.2372683" lon="8.27413"><ele>776.0</ele><time>2026-04-26T08:19:23.64Z</time></trkpt><trkpt lat="44.2373617" lon="8.2741233"><ele>777.0</ele><time>2026-04-26T08:19:25.64Z</time></trkpt><trkpt lat="44.2374467" lon="8.2740833"><ele>778.0</ele><time>2026-04-26T08:19:27.64Z</time></trkpt><trkpt lat="44.2375367" lon="8.2740333"><ele>779.0</ele><time>2026-04-26T08:19:29.64Z</time></trkpt><trkpt lat="44.2376333" lon="8.27398"><ele>780.0</ele><time>2026-04-26T08:19:31.64Z</time></trkpt><trkpt lat="44.2377467" lon="8.2739033"><ele>781.0</ele><time>2026-04-26T08:19:33.64Z</time></trkpt><trkpt lat="44.2378167" lon="8.2738583"><ele>780.9999999999999</ele><time>2026-04-26T08:19:34.64Z</time></trkpt><trkpt lat="44.2378917" lon="8.2738067"><ele>781.0</ele><time>2026-04-26T08:19:35.64Z</time></trkpt><trkpt lat="44.2379733" lon="8.2737417"><ele>781.0</ele><time>2026-04-26T08:19:36.64Z</time></trkpt><trkpt lat="44.2380383" lon="8.2736783"><ele>781.0</ele><time>2026-04-26T08:19:37.64Z</time></trkpt><trkpt lat="44.2380933" lon="8.2736217"><ele>780.9999999999999</ele><time>2026-04-26T08:19:38.64Z</time></trkpt><trkpt lat="44.2381733" lon="8.2735133"><ele>781.0</ele><time>2026-04-26T08:19:40.64Z</time></trkpt><trkpt lat="44.238225" lon="8.2734267"><ele>782.9999999999999</ele><time>2026-04-26T08:19:43.64Z</time></trkpt><trkpt lat="44.2382917" lon="8.273355"><ele>785.0</ele><time>2026-04-26T08:19:45.64Z</time></trkpt><trkpt lat="44.238395" lon="8.2732467"><ele>787.0</ele><time>2026-04-26T08:19:47.64Z</time></trkpt><trkpt lat="44.2384483" lon="8.2731817"><ele>789.0</ele><time>2026-04-26T08:19:48.64Z</time></trkpt><trkpt lat="44.2384933" lon="8.27312"><ele>790.9999999999999</ele><time>2026-04-26T08:19:49.64Z</time></trkpt><trkpt lat="44.23857" lon="8.2730267"><ele>793.0</ele><time>2026-04-26T08:19:51.64Z</time></trkpt><trkpt lat="44.2386483" lon="8.2729983"><ele>793.0</ele><time>2026-04-26T08:19:53.64Z</time></trkpt><trkpt lat="44.2387483" lon="8.2729683"><ele>793.0</ele><time>2026-04-26T08:19:55.64Z</time></trkpt><trkpt lat="44.2388617" lon="8.2728833"><ele>793.0</ele><time>2026-04-26T08:19:57.64Z</time></trkpt><trkpt lat="44.2389267" lon="8.2728183"><ele>793.0</ele><time>2026-04-26T08:19:58.64Z</time></trkpt><trkpt lat="44.2389883" lon="8.2727483"><ele>793.0</ele><time>2026-04-26T08:19:59.64Z</time></trkpt><trkpt lat="44.2390417" lon="8.272685"><ele>799.4999999999999</ele><time>2026-04-26T08:20:00.64Z</time></trkpt><trkpt lat="44.239125" lon="8.272595"><ele>806.0</ele><time>2026-04-26T08:20:02.64Z</time></trkpt><trkpt lat="44.2391783" lon="8.272545"><ele>812.5</ele><time>2026-04-26T08:20:04.64Z</time></trkpt><trkpt lat="44.239245" lon="8.27253"><ele>819.0</ele><time>2026-04-26T08:20:07.64Z</time></trkpt><trkpt lat="44.2392417" lon="8.2726567"><ele>825.4999999999999</ele><time>2026-04-26T08:20:10.64Z</time></trkpt><trkpt lat="44.2392133" lon="8.2728"><ele>832.0</ele><time>2026-04-26T08:20:12.64Z</time></trkpt><trkpt lat="44.2391967" lon="8.2729467"><ele>832.0</ele><time>2026-04-26T08:20:14.64Z</time></trkpt><trkpt lat="44.2391767" lon="8.27304"><ele>832.0</ele><time>2026-04-26T08:20:15.64Z</time></trkpt><trkpt lat="44.2391467" lon="8.2731367"><ele>832.0</ele><time>2026-04-26T08:20:16.64Z</time></trkpt><trkpt lat="44.2391183" lon="8.273235"><ele>832.0</ele><time>2026-04-26T08:20:17.64Z</time></trkpt><trkpt lat="44.2390917" lon="8.2733283"><ele>832.0</ele><time>2026-04-26T08:20:18.64Z</time></trkpt><trkpt lat="44.239065" lon="8.27342"><ele>832.0</ele><time>2026-04-26T08:20:19.64Z</time></trkpt><trkpt lat="44.2390441" lon="8.2735112"><ele>832.0</ele><time>2026-04-26T08:20:20.641Z</time></trkpt><trkpt lat="44.239029" lon="8.2736202"><ele>833.4999999999999</ele><time>2026-04-26T08:20:21.64Z</time></trkpt><trkpt lat="44.2390164" lon="8.2737314"><ele>835.0</ele><time>2026-04-26T08:20:22.641Z</time></trkpt><trkpt lat="44.239006" lon="8.2738375"><ele>836.5</ele><time>2026-04-26T08:20:23.64Z</time></trkpt><trkpt lat="44.2389956" lon="8.2739451"><ele>838.0</ele><time>2026-04-26T08:20:24.64Z</time></trkpt><trkpt lat="44.2389796" lon="8.2740575"><ele>839.4999999999999</ele><time>2026-04-26T08:20:25.64Z</time></trkpt><trkpt lat="44.2389587" lon="8.2741644"><ele>841.0</ele><time>2026-04-26T08:20:26.64Z</time></trkpt><trkpt lat="44.238936" lon="8.2742686"><ele>839.9999999999999</ele><time>2026-04-26T08:20:27.64Z</time></trkpt><trkpt lat="44.2389141" lon="8.2743638"><ele>839.0</ele><time>2026-04-26T08:20:28.64Z</time></trkpt><trkpt lat="44.2388985" lon="8.2744558"><ele>838.0</ele><time>2026-04-26T08:20:29.64Z</time></trkpt><trkpt lat="44.2388613" lon="8.2746139"><ele>837.0</ele><time>2026-04-26T08:20:31.641Z</time></trkpt><trkpt lat="44.2388403" lon="8.2747363"><ele>835.9999999999999</ele><time>2026-04-26T08:20:33.64Z</time></trkpt><trkpt lat="44.238816" lon="8.2748314"><ele>835.0</ele><time>2026-04-26T08:20:47.64Z</time></trkpt><trkpt lat="44.2387869" lon="8.2749151"><ele>834.9999999999999</ele><time>2026-04-26T08:20:48.64Z</time></trkpt><trkpt lat="44.2387534" lon="8.2750017"><ele>835.0</ele><time>2026-04-26T08:20:49.64Z</time></trkpt><trkpt lat="44.2387179" lon="8.2750799"><ele>835.0</ele><time>2026-04-26T08:20:50.641Z</time></trkpt><trkpt lat="44.238648" lon="8.2751961"><ele>835.0</ele><time>2026-04-26T08:20:52.64Z</time></trkpt><trkpt lat="44.2385858" lon="8.2752975"><ele>834.9999999999999</ele><time>2026-04-26T08:20:54.64Z</time></trkpt><trkpt lat="44.2385369" lon="8.2753659"><ele>835.0</ele><time>2026-04-26T08:20:56.641Z</time></trkpt><trkpt lat="44.2384722" lon="8.2754236"><ele>834.9999999999999</ele><time>2026-04-26T08:20:59.64Z</time></trkpt><trkpt lat="44.2385185" lon="8.2754845"><ele>835.0</ele><time>2026-04-26T08:21:12.64Z</time></trkpt><trkpt lat="44.2386021" lon="8.2754143"><ele>835.0</ele><time>2026-04-26T08:21:14.64Z</time></trkpt><trkpt lat="44.2386558" lon="8.2753497"><ele>835.0</ele><time>2026-04-26T08:21:15.64Z</time></trkpt><trkpt lat="44.2387191" lon="8.2752588"><ele>834.9999999999999</ele><time>2026-04-26T08:21:16.64Z</time></trkpt><trkpt lat="44.238795" lon="8.2751543"><ele>835.0</ele><time>2026-04-26T08:21:17.64Z</time></trkpt><trkpt lat="44.2388805" lon="8.2750461"><ele>839.25</ele><time>2026-04-26T08:21:18.641Z</time></trkpt><trkpt lat="44.2389723" lon="8.2749238"><ele>843.5</ele><time>2026-04-26T08:21:19.641Z</time></trkpt><trkpt lat="44.2390634" lon="8.2747847"><ele>847.75</ele><time>2026-04-26T08:21:20.64Z</time></trkpt><trkpt lat="44.2391475" lon="8.2746374"><ele>852.0</ele><time>2026-04-26T08:21:21.641Z</time></trkpt><trkpt lat="44.2392325" lon="8.2744873"><ele>852.0</ele><time>2026-04-26T08:21:22.64Z</time></trkpt><trkpt lat="44.2393236" lon="8.2743458"><ele>852.0</ele><time>2026-04-26T08:21:23.64Z</time></trkpt><trkpt lat="44.2394135" lon="8.2742137"><ele>852.0</ele><time>2026-04-26T08:21:24.64Z</time></trkpt><trkpt lat="44.239595" lon="8.27393"><ele>849.25</ele><time>2026-04-26T08:21:26.64Z</time></trkpt><trkpt lat="44.2396783" lon="8.2737783"><ele>846.5</ele><time>2026-04-26T08:21:27.64Z</time></trkpt><trkpt lat="44.2397533" lon="8.2736283"><ele>843.75</ele><time>2026-04-26T08:21:28.64Z</time></trkpt><trkpt lat="44.2398283" lon="8.2734833"><ele>841.0</ele><time>2026-04-26T08:21:29.64Z</time></trkpt><trkpt lat="44.23991" lon="8.2733367"><ele>845.25</ele><time>2026-04-26T08:21:30.64Z</time></trkpt><trkpt lat="44.2400033" lon="8.273205"><ele>849.5</ele><time>2026-04-26T08:21:31.64Z</time></trkpt><trkpt lat="44.2401017" lon="8.2730883"><ele>853.75</ele><time>2026-04-26T08:21:32.64Z</time></trkpt><trkpt lat="44.2402017" lon="8.2730067"><ele>858.0</ele><time>2026-04-26T08:21:33.64Z</time></trkpt><trkpt lat="44.24031" lon="8.272905"><ele>858.0</ele><time>2026-04-26T08:21:34.64Z</time></trkpt><trkpt lat="44.2404133" lon="8.2727817"><ele>858.0</ele><time>2026-04-26T08:21:35.64Z</time></trkpt><trkpt lat="44.240525" lon="8.272675"><ele>858.0</ele><time>2026-04-26T08:21:36.64Z</time></trkpt><trkpt lat="44.2406317" lon="8.2725467"><ele>858.0</ele><time>2026-04-26T08:21:37.64Z</time></trkpt><trkpt lat="44.2407417" lon="8.2724267"><ele>860.0</ele><time>2026-04-26T08:21:38.64Z</time></trkpt><trkpt lat="44.2408467" lon="8.2722883"><ele>862.0</ele><time>2026-04-26T08:21:39.641Z</time></trkpt><trkpt lat="44.2409433" lon="8.2721417"><ele>864.0</ele><time>2026-04-26T08:21:40.64Z</time></trkpt><trkpt lat="44.241035" lon="8.2720083"><ele>866.0</ele><time>2026-04-26T08:21:41.64Z</time></trkpt><trkpt lat="44.2411217" lon="8.271885"><ele>866.0</ele><time>2026-04-26T08:21:42.64Z</time></trkpt><trkpt lat="44.2412167" lon="8.2717617"><ele>866.0</ele><time>2026-04-26T08:21:43.64Z</time></trkpt><trkpt lat="44.2413067" lon="8.2716283"><ele>866.0</ele><time>2026-04-26T08:21:44.641Z</time></trkpt><trkpt lat="44.2414017" lon="8.2714933"><ele>866.0</ele><time>2026-04-26T08:21:45.641Z</time></trkpt><trkpt lat="44.2415067" lon="8.27138"><ele>867.75</ele><time>2026-04-26T08:21:46.64Z</time></trkpt><trkpt lat="44.2416133" lon="8.2712767"><ele>869.5</ele><time>2026-04-26T08:21:47.64Z</time></trkpt><trkpt lat="44.2417117" lon="8.2711767"><ele>871.25</ele><time>2026-04-26T08:21:48.64Z</time></trkpt><trkpt lat="44.2418117" lon="8.2710717"><ele>873.0</ele><time>2026-04-26T08:21:49.64Z</time></trkpt><trkpt lat="44.2419217" lon="8.2709933"><ele>873.0</ele><time>2026-04-26T08:21:50.64Z</time></trkpt><trkpt lat="44.2420517" lon="8.2709383"><ele>873.0</ele><time>2026-04-26T08:21:51.64Z</time></trkpt><trkpt lat="44.24218" lon="8.2708833"><ele>873.0</ele><time>2026-04-26T08:21:52.64Z</time></trkpt><trkpt lat="44.2423067" lon="8.2708367"><ele>873.0</ele><time>2026-04-26T08:21:53.64Z</time></trkpt><trkpt lat="44.2425667" lon="8.270725"><ele>871.3333333333333</ele><time>2026-04-26T08:21:55.64Z</time></trkpt><trkpt lat="44.2428033" lon="8.270515"><ele>869.6666666666666</ele><time>2026-04-26T08:21:57.64Z</time></trkpt><trkpt lat="44.2429167" lon="8.2703817"><ele>868.0</ele><time>2026-04-26T08:21:58.64Z</time></trkpt><trkpt lat="44.2430233" lon="8.2702467"><ele>868.0</ele><time>2026-04-26T08:21:59.641Z</time></trkpt><trkpt lat="44.243125" lon="8.2701183"><ele>868.0</ele><time>2026-04-26T08:22:00.64Z</time></trkpt><trkpt lat="44.24323" lon="8.269995"><ele>868.0</ele><time>2026-04-26T08:22:01.64Z</time></trkpt><trkpt lat="44.2433467" lon="8.2698683"><ele>868.0</ele><time>2026-04-26T08:22:02.64Z</time></trkpt><trkpt lat="44.24347" lon="8.2697617"><ele>870.3333333333333</ele><time>2026-04-26T08:22:03.64Z</time></trkpt><trkpt lat="44.2435783" lon="8.2696533"><ele>872.6666666666667</ele><time>2026-04-26T08:22:04.64Z</time></trkpt><trkpt lat="44.2437667" lon="8.2694083"><ele>875.0</ele><time>2026-04-26T08:22:06.641Z</time></trkpt><trkpt lat="44.243855" lon="8.2692817"><ele>875.0</ele><time>2026-04-26T08:22:07.64Z</time></trkpt><trkpt lat="44.2439317" lon="8.2691317"><ele>875.0</ele><time>2026-04-26T08:22:08.64Z</time></trkpt><trkpt lat="44.2440883" lon="8.2688333"><ele>875.0</ele><time>2026-04-26T08:22:10.64Z</time></trkpt><trkpt lat="44.2441617" lon="8.268675"><ele>881.6666666666667</ele><time>2026-04-26T08:22:11.64Z</time></trkpt><trkpt lat="44.2442917" lon="8.268355"><ele>888.3333333333333</ele><time>2026-04-26T08:22:13.64Z</time></trkpt><trkpt lat="44.24436" lon="8.268175"><ele>895.0</ele><time>2026-04-26T08:22:14.641Z</time></trkpt><trkpt lat="44.2444317" lon="8.2679983"><ele>895.0</ele><time>2026-04-26T08:22:15.64Z</time></trkpt><trkpt lat="44.2445033" lon="8.267875"><ele>895.0</ele><time>2026-04-26T08:22:16.64Z</time></trkpt><trkpt lat="44.2445783" lon="8.26777"><ele>895.0</ele><time>2026-04-26T08:22:17.64Z</time></trkpt><trkpt lat="44.2447767" lon="8.267655"><ele>895.0</ele><time>2026-04-26T08:22:19.64Z</time></trkpt><trkpt lat="44.24498" lon="8.2675683"><ele>898.6</ele><time>2026-04-26T08:22:21.64Z</time></trkpt><trkpt lat="44.2450683" lon="8.2674967"><ele>902.2</ele><time>2026-04-26T08:22:22.64Z</time></trkpt><trkpt lat="44.24515" lon="8.2673883"><ele>905.8</ele><time>2026-04-26T08:22:23.64Z</time></trkpt><trkpt lat="44.2452117" lon="8.2672583"><ele>909.4</ele><time>2026-04-26T08:22:24.64Z</time></trkpt><trkpt lat="44.2452683" lon="8.2671317"><ele>913.0</ele><time>2026-04-26T08:22:25.64Z</time></trkpt><trkpt lat="44.2453233" lon="8.26699"><ele>913.0</ele><time>2026-04-26T08:22:26.64Z</time></trkpt><trkpt lat="44.2453767" lon="8.2668567"><ele>913.0</ele><time>2026-04-26T08:22:27.64Z</time></trkpt><trkpt lat="44.2454367" lon="8.2667383"><ele>913.0</ele><time>2026-04-26T08:22:28.64Z</time></trkpt><trkpt lat="44.245535" lon="8.2665133"><ele>913.0</ele><time>2026-04-26T08:22:30.64Z</time></trkpt><trkpt lat="44.2455883" lon="8.2662617"><ele>909.6666666666666</ele><time>2026-04-26T08:22:32.64Z</time></trkpt><trkpt lat="44.245575" lon="8.26593"><ele>906.3333333333333</ele><time>2026-04-26T08:22:34.64Z</time></trkpt><trkpt lat="44.24559" lon="8.265775"><ele>903.0</ele><time>2026-04-26T08:22:35.64Z</time></trkpt><trkpt lat="44.2456183" lon="8.26562"><ele>913.6666666666667</ele><time>2026-04-26T08:22:36.64Z</time></trkpt><trkpt lat="44.2456667" lon="8.2654633"><ele>924.3333333333334</ele><time>2026-04-26T08:22:37.64Z</time></trkpt><trkpt lat="44.24581" lon="8.2651333"><ele>935.0</ele><time>2026-04-26T08:22:39.64Z</time></trkpt><trkpt lat="44.24588" lon="8.26496"><ele>935.0</ele><time>2026-04-26T08:22:40.64Z</time></trkpt><trkpt lat="44.2459517" lon="8.264795"><ele>935.0</ele><time>2026-04-26T08:22:41.64Z</time></trkpt><trkpt lat="44.2460383" lon="8.2646317"><ele>935.0</ele><time>2026-04-26T08:22:42.64Z</time></trkpt><trkpt lat="44.2461883" lon="8.264255"><ele>937.6666666666667</ele><time>2026-04-26T08:22:44.64Z</time></trkpt><trkpt lat="44.2462567" lon="8.2640717"><ele>940.3333333333333</ele><time>2026-04-26T08:22:45.64Z</time></trkpt><trkpt lat="44.24638" lon="8.2637133"><ele>943.0</ele><time>2026-04-26T08:22:47.64Z</time></trkpt><trkpt lat="44.2465217" lon="8.2633817"><ele>943.0</ele><time>2026-04-26T08:22:49.64Z</time></trkpt><trkpt lat="44.2466033" lon="8.2632217"><ele>943.0</ele><time>2026-04-26T08:22:50.64Z</time></trkpt><trkpt lat="44.2467783" lon="8.2628917"><ele>943.0</ele><time>2026-04-26T08:22:52.64Z</time></trkpt><trkpt lat="44.2468667" lon="8.2627167"><ele>936.5</ele><time>2026-04-26T08:22:53.64Z</time></trkpt><trkpt lat="44.2470567" lon="8.262405"><ele>930.0</ele><time>2026-04-26T08:22:55.64Z</time></trkpt><trkpt lat="44.24722" lon="8.262105"><ele>928.75</ele><time>2026-04-26T08:22:57.64Z</time></trkpt><trkpt lat="44.2472783" lon="8.2619533"><ele>927.5</ele><time>2026-04-26T08:22:58.64Z</time></trkpt><trkpt lat="44.247335" lon="8.2617783"><ele>926.25</ele><time>2026-04-26T08:22:59.64Z</time></trkpt><trkpt lat="44.2473867" lon="8.2615817"><ele>925.0</ele><time>2026-04-26T08:23:00.64Z</time></trkpt><trkpt lat="44.24744" lon="8.2614033"><ele>929.75</ele><time>2026-04-26T08:23:01.64Z</time></trkpt><trkpt lat="44.2474883" lon="8.2612633"><ele>934.5</ele><time>2026-04-26T08:23:02.64Z</time></trkpt><trkpt lat="44.2475217" lon="8.2611167"><ele>939.25</ele><time>2026-04-26T08:23:03.64Z</time></trkpt><trkpt lat="44.2475233" lon="8.2609633"><ele>944.0</ele><time>2026-04-26T08:23:04.64Z</time></trkpt><trkpt lat="44.24751" lon="8.2607917"><ele>945.0</ele><time>2026-04-26T08:23:05.641Z</time></trkpt><trkpt lat="44.2474817" lon="8.2606117"><ele>946.0</ele><time>2026-04-26T08:23:06.64Z</time></trkpt><trkpt lat="44.24745" lon="8.2604367"><ele>947.0</ele><time>2026-04-26T08:23:07.64Z</time></trkpt><trkpt lat="44.247415" lon="8.2602383"><ele>948.0</ele><time>2026-04-26T08:23:08.64Z</time></trkpt><trkpt lat="44.2473867" lon="8.2600367"><ele>948.0</ele><time>2026-04-26T08:23:09.64Z</time></trkpt><trkpt lat="44.2473683" lon="8.2598217"><ele>948.0</ele><time>2026-04-26T08:23:10.64Z</time></trkpt><trkpt lat="44.24735" lon="8.2596067"><ele>948.0</ele><time>2026-04-26T08:23:11.64Z</time></trkpt><trkpt lat="44.247325" lon="8.2593933"><ele>943.0</ele><time>2026-04-26T08:23:12.64Z</time></trkpt><trkpt lat="44.2472917" lon="8.2591767"><ele>938.0</ele><time>2026-04-26T08:23:13.64Z</time></trkpt><trkpt lat="44.2472533" lon="8.2589517"><ele>933.0</ele><time>2026-04-26T08:23:14.64Z</time></trkpt><trkpt lat="44.24721" lon="8.25873"><ele>933.0</ele><time>2026-04-26T08:23:15.64Z</time></trkpt><trkpt lat="44.2471617" lon="8.2585133"><ele>933.0</ele><time>2026-04-26T08:23:16.641Z</time></trkpt><trkpt lat="44.2471083" lon="8.2582883"><ele>933.0</ele><time>2026-04-26T08:23:17.64Z</time></trkpt><trkpt lat="44.24706" lon="8.25809"><ele>935.0</ele><time>2026-04-26T08:23:18.64Z</time></trkpt><trkpt lat="44.2470233" lon="8.2578917"><ele>937.0</ele><time>2026-04-26T08:23:19.64Z</time></trkpt><trkpt lat="44.2470033" lon="8.2576767"><ele>939.0</ele><time>2026-04-26T08:23:20.64Z</time></trkpt><trkpt lat="44.2469733" lon="8.2574567"><ele>939.75</ele><time>2026-04-26T08:23:21.64Z</time></trkpt><trkpt lat="44.246985" lon="8.2572583"><ele>940.5</ele><time>2026-04-26T08:23:22.64Z</time></trkpt><trkpt lat="44.2469933" lon="8.2570733"><ele>941.25</ele><time>2026-04-26T08:23:23.641Z</time></trkpt><trkpt lat="44.247" lon="8.256875"><ele>942.0</ele><time>2026-04-26T08:23:24.64Z</time></trkpt><trkpt lat="44.2469983" lon="8.25667"><ele>942.0</ele><time>2026-04-26T08:23:25.64Z</time></trkpt><trkpt lat="44.2469983" lon="8.2564717"><ele>942.0</ele><time>2026-04-26T08:23:26.64Z</time></trkpt><trkpt lat="44.247005" lon="8.25628"><ele>942.0</ele><time>2026-04-26T08:23:27.64Z</time></trkpt><trkpt lat="44.24703" lon="8.256085"><ele>942.0</ele><time>2026-04-26T08:23:28.64Z</time></trkpt><trkpt lat="44.2470683" lon="8.2558867"><ele>942.0</ele><time>2026-04-26T08:23:29.64Z</time></trkpt><trkpt lat="44.2471117" lon="8.2557"><ele>942.0</ele><time>2026-04-26T08:23:30.64Z</time></trkpt><trkpt lat="44.2471533" lon="8.255515"><ele>942.0</ele><time>2026-04-26T08:23:31.64Z</time></trkpt><trkpt lat="44.2471917" lon="8.2553433"><ele>942.0</ele><time>2026-04-26T08:23:32.64Z</time></trkpt><trkpt lat="44.2472183" lon="8.2551867"><ele>942.5</ele><time>2026-04-26T08:23:33.64Z</time></trkpt><trkpt lat="44.2472" lon="8.2550333"><ele>943.0</ele><time>2026-04-26T08:23:34.64Z</time></trkpt><trkpt lat="44.2471533" lon="8.2548983"><ele>943.5</ele><time>2026-04-26T08:23:35.64Z</time></trkpt><trkpt lat="44.2470733" lon="8.254765"><ele>944.0</ele><time>2026-04-26T08:23:36.64Z</time></trkpt><trkpt lat="44.24699" lon="8.2546333"><ele>945.0</ele><time>2026-04-26T08:23:37.64Z</time></trkpt><trkpt lat="44.2469117" lon="8.25451"><ele>946.0</ele><time>2026-04-26T08:23:38.64Z</time></trkpt><trkpt lat="44.2468733" lon="8.254365"><ele>947.0</ele><time>2026-04-26T08:23:39.64Z</time></trkpt><trkpt lat="44.2468683" lon="8.2542"><ele>948.0</ele><time>2026-04-26T08:23:40.64Z</time></trkpt><trkpt lat="44.2468767" lon="8.25403"><ele>947.5</ele><time>2026-04-26T08:23:41.64Z</time></trkpt><trkpt lat="44.2469" lon="8.253845"><ele>947.0</ele><time>2026-04-26T08:23:42.64Z</time></trkpt><trkpt lat="44.246925" lon="8.2536617"><ele>946.5</ele><time>2026-04-26T08:23:43.64Z</time></trkpt><trkpt lat="44.2469383" lon="8.2534733"><ele>946.0</ele><time>2026-04-26T08:23:44.64Z</time></trkpt><trkpt lat="44.2469567" lon="8.2532933"><ele>947.5</ele><time>2026-04-26T08:23:45.64Z</time></trkpt><trkpt lat="44.2469867" lon="8.2531217"><ele>949.0</ele><time>2026-04-26T08:23:46.64Z</time></trkpt><trkpt lat="44.246995" lon="8.2529367"><ele>950.5</ele><time>2026-04-26T08:23:47.64Z</time></trkpt><trkpt lat="44.2469733" lon="8.252755"><ele>952.0</ele><time>2026-04-26T08:23:48.64Z</time></trkpt><trkpt lat="44.2469117" lon="8.25259"><ele>952.0</ele><time>2026-04-26T08:23:49.64Z</time></trkpt><trkpt lat="44.24683" lon="8.2524467"><ele>952.0</ele><time>2026-04-26T08:23:50.64Z</time></trkpt><trkpt lat="44.2467267" lon="8.2523033"><ele>952.0</ele><time>2026-04-26T08:23:51.64Z</time></trkpt><trkpt lat="44.246615" lon="8.2521567"><ele>952.0</ele><time>2026-04-26T08:23:52.64Z</time></trkpt><trkpt lat="44.246515" lon="8.2520133"><ele>952.0</ele><time>2026-04-26T08:23:53.64Z</time></trkpt><trkpt lat="44.24641" lon="8.2518733"><ele>952.0</ele><time>2026-04-26T08:23:54.64Z</time></trkpt><trkpt lat="44.24632" lon="8.2517333"><ele>952.0</ele><time>2026-04-26T08:23:55.64Z</time></trkpt><trkpt lat="44.2462517" lon="8.2515917"><ele>952.0</ele><time>2026-04-26T08:23:56.64Z</time></trkpt><trkpt lat="44.2462033" lon="8.2514367"><ele>952.0</ele><time>2026-04-26T08:23:57.641Z</time></trkpt><trkpt lat="44.2461667" lon="8.2512817"><ele>952.0</ele><time>2026-04-26T08:23:58.641Z</time></trkpt><trkpt lat="44.2461317" lon="8.2511033"><ele>952.0</ele><time>2026-04-26T08:23:59.64Z</time></trkpt><trkpt lat="44.2460883" lon="8.2509133"><ele>952.0</ele><time>2026-04-26T08:24:00.64Z</time></trkpt><trkpt lat="44.2460333" lon="8.2507233"><ele>953.5</ele><time>2026-04-26T08:24:01.64Z</time></trkpt><trkpt lat="44.245965" lon="8.2505517"><ele>955.0</ele><time>2026-04-26T08:24:02.64Z</time></trkpt><trkpt lat="44.2458833" lon="8.250385"><ele>956.5</ele><time>2026-04-26T08:24:03.64Z</time></trkpt><trkpt lat="44.2458" lon="8.25022"><ele>958.0</ele><time>2026-04-26T08:24:04.64Z</time></trkpt><trkpt lat="44.2457183" lon="8.2500567"><ele>958.0</ele><time>2026-04-26T08:24:05.64Z</time></trkpt><trkpt lat="44.245635" lon="8.2498933"><ele>958.0</ele><time>2026-04-26T08:24:06.64Z</time></trkpt><trkpt lat="44.2455483" lon="8.24973"><ele>958.0</ele><time>2026-04-26T08:24:07.641Z</time></trkpt><trkpt lat="44.2454617" lon="8.24956"><ele>958.0</ele><time>2026-04-26T08:24:08.64Z</time></trkpt><trkpt lat="44.2453767" lon="8.2494017"><ele>956.5</ele><time>2026-04-26T08:24:09.64Z</time></trkpt><trkpt lat="44.2452933" lon="8.2492567"><ele>955.0</ele><time>2026-04-26T08:24:10.64Z</time></trkpt><trkpt lat="44.2452167" lon="8.24912"><ele>953.5</ele><time>2026-04-26T08:24:11.64Z</time></trkpt><trkpt lat="44.245145" lon="8.2490033"><ele>952.0</ele><time>2026-04-26T08:24:12.64Z</time></trkpt><trkpt lat="44.245085" lon="8.24891"><ele>951.9999999999999</ele><time>2026-04-26T08:24:13.64Z</time></trkpt><trkpt lat="44.2450467" lon="8.248835"><ele>952.0</ele><time>2026-04-26T08:24:14.64Z</time></trkpt><trkpt lat="44.244965" lon="8.24875"><ele>952.0</ele><time>2026-04-26T08:24:16.64Z</time></trkpt><trkpt lat="44.244905" lon="8.24871"><ele>952.0</ele><time>2026-04-26T08:24:17.641Z</time></trkpt><trkpt lat="44.2448383" lon="8.248655"><ele>951.9999999999999</ele><time>2026-04-26T08:24:18.64Z</time></trkpt><trkpt lat="44.2447583" lon="8.2485983"><ele>952.0</ele><time>2026-04-26T08:24:19.64Z</time></trkpt><trkpt lat="44.2446717" lon="8.2485383"><ele>951.8</ele><time>2026-04-26T08:24:20.641Z</time></trkpt><trkpt lat="44.24459" lon="8.2484617"><ele>951.6</ele><time>2026-04-26T08:24:21.64Z</time></trkpt><trkpt lat="44.24452" lon="8.2483517"><ele>951.3999999999999</ele><time>2026-04-26T08:24:22.64Z</time></trkpt><trkpt lat="44.2444533" lon="8.2482217"><ele>951.1999999999999</ele><time>2026-04-26T08:24:23.64Z</time></trkpt><trkpt lat="44.244395" lon="8.248075"><ele>951.0</ele><time>2026-04-26T08:24:24.64Z</time></trkpt><trkpt lat="44.2443467" lon="8.2479183"><ele>951.0</ele><time>2026-04-26T08:24:25.64Z</time></trkpt><trkpt lat="44.24431" lon="8.24775"><ele>951.0</ele><time>2026-04-26T08:24:26.64Z</time></trkpt><trkpt lat="44.2442783" lon="8.2475967"><ele>951.0</ele><time>2026-04-26T08:24:27.64Z</time></trkpt><trkpt lat="44.2442617" lon="8.2474217"><ele>951.0</ele><time>2026-04-26T08:24:28.64Z</time></trkpt><trkpt lat="44.2442367" lon="8.2472433"><ele>950.75</ele><time>2026-04-26T08:24:29.64Z</time></trkpt><trkpt lat="44.2442167" lon="8.2470567"><ele>950.5</ele><time>2026-04-26T08:24:30.64Z</time></trkpt><trkpt lat="44.2441933" lon="8.246875"><ele>950.25</ele><time>2026-04-26T08:24:31.64Z</time></trkpt><trkpt lat="44.2441717" lon="8.2466967"><ele>950.0</ele><time>2026-04-26T08:24:32.641Z</time></trkpt><trkpt lat="44.24416" lon="8.246515"><ele>950.25</ele><time>2026-04-26T08:24:33.64Z</time></trkpt><trkpt lat="44.2441567" lon="8.2463367"><ele>950.5</ele><time>2026-04-26T08:24:34.64Z</time></trkpt><trkpt lat="44.2441517" lon="8.2461667"><ele>950.75</ele><time>2026-04-26T08:24:35.64Z</time></trkpt><trkpt lat="44.2441417" lon="8.24599"><ele>951.0</ele><time>2026-04-26T08:24:36.64Z</time></trkpt><trkpt lat="44.2441233" lon="8.24581"><ele>949.75</ele><time>2026-04-26T08:24:37.641Z</time></trkpt><trkpt lat="44.2440983" lon="8.2456267"><ele>948.5</ele><time>2026-04-26T08:24:38.641Z</time></trkpt><trkpt lat="44.244055" lon="8.2454367"><ele>947.25</ele><time>2026-04-26T08:24:39.64Z</time></trkpt><trkpt lat="44.2440183" lon="8.2452417"><ele>946.0</ele><time>2026-04-26T08:24:40.64Z</time></trkpt><trkpt lat="44.24399" lon="8.2450483"><ele>946.0</ele><time>2026-04-26T08:24:41.64Z</time></trkpt><trkpt lat="44.2439667" lon="8.2448533"><ele>946.0</ele><time>2026-04-26T08:24:42.64Z</time></trkpt><trkpt lat="44.2439517" lon="8.2446483"><ele>946.0</ele><time>2026-04-26T08:24:43.64Z</time></trkpt><trkpt lat="44.2439567" lon="8.2444367"><ele>946.0</ele><time>2026-04-26T08:24:44.64Z</time></trkpt><trkpt lat="44.2439667" lon="8.2442183"><ele>946.0</ele><time>2026-04-26T08:24:45.64Z</time></trkpt><trkpt lat="44.243975" lon="8.244005"><ele>946.0</ele><time>2026-04-26T08:24:46.64Z</time></trkpt><trkpt lat="44.24398" lon="8.2437983"><ele>946.0</ele><time>2026-04-26T08:24:47.64Z</time></trkpt><trkpt lat="44.243985" lon="8.24359"><ele>946.0</ele><time>2026-04-26T08:24:48.64Z</time></trkpt><trkpt lat="44.2439983" lon="8.2433783"><ele>946.0</ele><time>2026-04-26T08:24:49.64Z</time></trkpt><trkpt lat="44.2440167" lon="8.243165"><ele>946.0</ele><time>2026-04-26T08:24:50.64Z</time></trkpt><trkpt lat="44.2440633" lon="8.2429483"><ele>943.0</ele><time>2026-04-26T08:24:51.64Z</time></trkpt><trkpt lat="44.2441117" lon="8.24274"><ele>940.0</ele><time>2026-04-26T08:24:52.64Z</time></trkpt><trkpt lat="44.2441617" lon="8.2425183"><ele>937.0</ele><time>2026-04-26T08:24:53.64Z</time></trkpt><trkpt lat="44.24422" lon="8.2423"><ele>935.0</ele><time>2026-04-26T08:24:54.64Z</time></trkpt><trkpt lat="44.2442867" lon="8.2420867"><ele>933.0</ele><time>2026-04-26T08:24:55.64Z</time></trkpt><trkpt lat="44.244355" lon="8.2418567"><ele>931.0</ele><time>2026-04-26T08:24:56.64Z</time></trkpt><trkpt lat="44.2444117" lon="8.241625"><ele>930.6666666666666</ele><time>2026-04-26T08:24:57.64Z</time></trkpt><trkpt lat="44.2444533" lon="8.2413917"><ele>930.3333333333333</ele><time>2026-04-26T08:24:58.641Z</time></trkpt><trkpt lat="44.2444817" lon="8.2411433"><ele>930.0</ele><time>2026-04-26T08:24:59.64Z</time></trkpt><trkpt lat="44.2445117" lon="8.2408933"><ele>930.0</ele><time>2026-04-26T08:25:00.64Z</time></trkpt><trkpt lat="44.24453" lon="8.2406433"><ele>930.0</ele><time>2026-04-26T08:25:01.64Z</time></trkpt><trkpt lat="44.244545" lon="8.2403833"><ele>930.0</ele><time>2026-04-26T08:25:02.64Z</time></trkpt><trkpt lat="44.244555" lon="8.2401433"><ele>931.6666666666667</ele><time>2026-04-26T08:25:03.64Z</time></trkpt><trkpt lat="44.2445617" lon="8.2399117"><ele>933.3333333333334</ele><time>2026-04-26T08:25:04.64Z</time></trkpt><trkpt lat="44.2445683" lon="8.23968"><ele>935.0</ele><time>2026-04-26T08:25:05.64Z</time></trkpt><trkpt lat="44.2445733" lon="8.2394483"><ele>936.6666666666667</ele><time>2026-04-26T08:25:06.64Z</time></trkpt><trkpt lat="44.24458" lon="8.2392117"><ele>938.3333333333333</ele><time>2026-04-26T08:25:07.64Z</time></trkpt><trkpt lat="44.2445767" lon="8.2389917"><ele>940.0</ele><time>2026-04-26T08:25:08.64Z</time></trkpt><trkpt lat="44.244575" lon="8.2387583"><ele>941.3333333333333</ele><time>2026-04-26T08:25:09.64Z</time></trkpt><trkpt lat="44.2445683" lon="8.2385167"><ele>942.6666666666667</ele><time>2026-04-26T08:25:10.64Z</time></trkpt><trkpt lat="44.244555" lon="8.2382867"><ele>944.0</ele><time>2026-04-26T08:25:11.64Z</time></trkpt><trkpt lat="44.24455" lon="8.2380517"><ele>946.0</ele><time>2026-04-26T08:25:12.64Z</time></trkpt><trkpt lat="44.24455" lon="8.237815"><ele>948.0</ele><time>2026-04-26T08:25:13.64Z</time></trkpt><trkpt lat="44.244545" lon="8.2375917"><ele>950.0</ele><time>2026-04-26T08:25:14.64Z</time></trkpt><trkpt lat="44.2445367" lon="8.2373617"><ele>951.6666666666667</ele><time>2026-04-26T08:25:15.64Z</time></trkpt><trkpt lat="44.2445217" lon="8.237135"><ele>953.3333333333333</ele><time>2026-04-26T08:25:16.64Z</time></trkpt><trkpt lat="44.2445" lon="8.2369117"><ele>955.0</ele><time>2026-04-26T08:25:17.64Z</time></trkpt><trkpt lat="44.2444717" lon="8.2366783"><ele>958.0</ele><time>2026-04-26T08:25:18.641Z</time></trkpt><trkpt lat="44.244445" lon="8.23645"><ele>961.0</ele><time>2026-04-26T08:25:19.64Z</time></trkpt><trkpt lat="44.2444283" lon="8.2362417"><ele>964.0</ele><time>2026-04-26T08:25:20.64Z</time></trkpt><trkpt lat="44.2444433" lon="8.2360317"><ele>964.0</ele><time>2026-04-26T08:25:21.64Z</time></trkpt><trkpt lat="44.2444617" lon="8.2358283"><ele>964.0</ele><time>2026-04-26T08:25:22.641Z</time></trkpt><trkpt lat="44.2444583" lon="8.2356267"><ele>964.0</ele><time>2026-04-26T08:25:23.64Z</time></trkpt><trkpt lat="44.2444317" lon="8.2354317"><ele>964.0</ele><time>2026-04-26T08:25:24.64Z</time></trkpt><trkpt lat="44.2443883" lon="8.2352483"><ele>967.6666666666666</ele><time>2026-04-26T08:25:25.64Z</time></trkpt><trkpt lat="44.2443283" lon="8.2350617"><ele>971.3333333333333</ele><time>2026-04-26T08:25:26.64Z</time></trkpt><trkpt lat="44.2442583" lon="8.2348683"><ele>975.0</ele><time>2026-04-26T08:25:27.64Z</time></trkpt><trkpt lat="44.2441867" lon="8.2346667"><ele>978.0</ele><time>2026-04-26T08:25:28.64Z</time></trkpt><trkpt lat="44.2441183" lon="8.2344567"><ele>981.0</ele><time>2026-04-26T08:25:29.64Z</time></trkpt><trkpt lat="44.2440517" lon="8.23425"><ele>984.0</ele><time>2026-04-26T08:25:30.64Z</time></trkpt><trkpt lat="44.24398" lon="8.2340417"><ele>981.3333333333333</ele><time>2026-04-26T08:25:31.64Z</time></trkpt><trkpt lat="44.2439017" lon="8.233835"><ele>978.6666666666666</ele><time>2026-04-26T08:25:32.64Z</time></trkpt><trkpt lat="44.2438283" lon="8.2336383"><ele>976.0</ele><time>2026-04-26T08:25:33.64Z</time></trkpt><trkpt lat="44.2437433" lon="8.233435"><ele>976.0</ele><time>2026-04-26T08:25:34.64Z</time></trkpt><trkpt lat="44.2436517" lon="8.2332317"><ele>976.0</ele><time>2026-04-26T08:25:35.641Z</time></trkpt><trkpt lat="44.2435583" lon="8.2330417"><ele>976.0</ele><time>2026-04-26T08:25:36.64Z</time></trkpt><trkpt lat="44.2434617" lon="8.23288"><ele>977.5</ele><time>2026-04-26T08:25:37.64Z</time></trkpt><trkpt lat="44.2433617" lon="8.2327233"><ele>979.0</ele><time>2026-04-26T08:25:38.64Z</time></trkpt><trkpt lat="44.2432533" lon="8.2325917"><ele>980.5</ele><time>2026-04-26T08:25:39.64Z</time></trkpt><trkpt lat="44.243135" lon="8.2324833"><ele>982.0</ele><time>2026-04-26T08:25:40.64Z</time></trkpt><trkpt lat="44.2430017" lon="8.2323983"><ele>982.0</ele><time>2026-04-26T08:25:41.64Z</time></trkpt><trkpt lat="44.242865" lon="8.2323233"><ele>982.0</ele><time>2026-04-26T08:25:42.64Z</time></trkpt><trkpt lat="44.2427333" lon="8.2322583"><ele>982.0</ele><time>2026-04-26T08:25:43.64Z</time></trkpt><trkpt lat="44.2426" lon="8.2321933"><ele>982.0</ele><time>2026-04-26T08:25:44.64Z</time></trkpt><trkpt lat="44.24247" lon="8.2321133"><ele>983.25</ele><time>2026-04-26T08:25:45.64Z</time></trkpt><trkpt lat="44.2423417" lon="8.2320267"><ele>984.5</ele><time>2026-04-26T08:25:46.64Z</time></trkpt><trkpt lat="44.2422267" lon="8.2319233"><ele>985.75</ele><time>2026-04-26T08:25:47.64Z</time></trkpt><trkpt lat="44.2421133" lon="8.23182"><ele>987.0</ele><time>2026-04-26T08:25:48.64Z</time></trkpt><trkpt lat="44.2420033" lon="8.2317183"><ele>987.0</ele><time>2026-04-26T08:25:49.64Z</time></trkpt><trkpt lat="44.2418933" lon="8.2316183"><ele>987.0</ele><time>2026-04-26T08:25:50.64Z</time></trkpt><trkpt lat="44.241795" lon="8.2315183"><ele>987.0</ele><time>2026-04-26T08:25:51.64Z</time></trkpt><trkpt lat="44.2416967" lon="8.231415"><ele>987.0</ele><time>2026-04-26T08:25:52.64Z</time></trkpt><trkpt lat="44.24164" lon="8.2312733"><ele>990.25</ele><time>2026-04-26T08:25:53.64Z</time></trkpt><trkpt lat="44.2415917" lon="8.2311283"><ele>993.5</ele><time>2026-04-26T08:25:54.64Z</time></trkpt><trkpt lat="44.2415583" lon="8.23096"><ele>996.75</ele><time>2026-04-26T08:25:55.64Z</time></trkpt><trkpt lat="44.2415333" lon="8.23077"><ele>1000.0</ele><time>2026-04-26T08:25:56.64Z</time></trkpt><trkpt lat="44.2415017" lon="8.230605"><ele>1001.0</ele><time>2026-04-26T08:25:57.64Z</time></trkpt><trkpt lat="44.2414917" lon="8.2304383"><ele>1002.0</ele><time>2026-04-26T08:25:58.64Z</time></trkpt><trkpt lat="44.2414967" lon="8.2302533"><ele>1003.0</ele><time>2026-04-26T08:25:59.64Z</time></trkpt><trkpt lat="44.2415133" lon="8.2300517"><ele>1004.0</ele><time>2026-04-26T08:26:00.64Z</time></trkpt><trkpt lat="44.2415333" lon="8.2298733"><ele>1004.5</ele><time>2026-04-26T08:26:01.64Z</time></trkpt><trkpt lat="44.2415517" lon="8.2297017"><ele>1005.0</ele><time>2026-04-26T08:26:02.64Z</time></trkpt><trkpt lat="44.2415617" lon="8.2295083"><ele>1005.5</ele><time>2026-04-26T08:26:03.64Z</time></trkpt><trkpt lat="44.2415717" lon="8.2293133"><ele>1006.0</ele><time>2026-04-26T08:26:04.64Z</time></trkpt><trkpt lat="44.2415717" lon="8.2291267"><ele>1006.75</ele><time>2026-04-26T08:26:05.64Z</time></trkpt><trkpt lat="44.2415517" lon="8.2289533"><ele>1007.5</ele><time>2026-04-26T08:26:06.64Z</time></trkpt><trkpt lat="44.24153" lon="8.2287833"><ele>1008.25</ele><time>2026-04-26T08:26:07.64Z</time></trkpt><trkpt lat="44.241505" lon="8.2286083"><ele>1009.0</ele><time>2026-04-26T08:26:08.64Z</time></trkpt><trkpt lat="44.24149" lon="8.2284217"><ele>1009.0</ele><time>2026-04-26T08:26:09.64Z</time></trkpt><trkpt lat="44.2414817" lon="8.2282283"><ele>1009.0</ele><time>2026-04-26T08:26:10.64Z</time></trkpt><trkpt lat="44.2414633" lon="8.2280317"><ele>1009.0</ele><time>2026-04-26T08:26:11.64Z</time></trkpt><trkpt lat="44.24143" lon="8.2278433"><ele>1009.0</ele><time>2026-04-26T08:26:12.64Z</time></trkpt><trkpt lat="44.2413917" lon="8.2276667"><ele>1002.5</ele><time>2026-04-26T08:26:13.64Z</time></trkpt><trkpt lat="44.2413567" lon="8.2274817"><ele>996.0</ele><time>2026-04-26T08:26:14.64Z</time></trkpt><trkpt lat="44.2413367" lon="8.2272917"><ele>989.5</ele><time>2026-04-26T08:26:15.64Z</time></trkpt><trkpt lat="44.241345" lon="8.2271033"><ele>983.0</ele><time>2026-04-26T08:26:16.64Z</time></trkpt><trkpt lat="44.2413633" lon="8.2269117"><ele>983.0</ele><time>2026-04-26T08:26:17.64Z</time></trkpt><trkpt lat="44.2413833" lon="8.2267317"><ele>983.0</ele><time>2026-04-26T08:26:18.64Z</time></trkpt><trkpt lat="44.24139" lon="8.22654"><ele>983.0</ele><time>2026-04-26T08:26:19.64Z</time></trkpt><trkpt lat="44.2413783" lon="8.226355"><ele>983.0</ele><time>2026-04-26T08:26:20.64Z</time></trkpt><trkpt lat="44.241355" lon="8.2261817"><ele>984.25</ele><time>2026-04-26T08:26:21.64Z</time></trkpt><trkpt lat="44.2413233" lon="8.2260233"><ele>985.5</ele><time>2026-04-26T08:26:22.64Z</time></trkpt><trkpt lat="44.2413133" lon="8.22587"><ele>986.75</ele><time>2026-04-26T08:26:23.64Z</time></trkpt><trkpt lat="44.2413133" lon="8.2257117"><ele>988.0</ele><time>2026-04-26T08:26:24.64Z</time></trkpt><trkpt lat="44.2413367" lon="8.22555"><ele>986.75</ele><time>2026-04-26T08:26:25.64Z</time></trkpt><trkpt lat="44.241365" lon="8.2254083"><ele>985.5</ele><time>2026-04-26T08:26:26.64Z</time></trkpt><trkpt lat="44.2414117" lon="8.2252417"><ele>984.25</ele><time>2026-04-26T08:26:27.64Z</time></trkpt><trkpt lat="44.2414483" lon="8.2250683"><ele>983.0</ele><time>2026-04-26T08:26:28.641Z</time></trkpt><trkpt lat="44.2414817" lon="8.224895"><ele>981.0</ele><time>2026-04-26T08:26:29.64Z</time></trkpt><trkpt lat="44.2415067" lon="8.2247233"><ele>979.0</ele><time>2026-04-26T08:26:30.64Z</time></trkpt><trkpt lat="44.2415267" lon="8.2245617"><ele>977.0</ele><time>2026-04-26T08:26:31.64Z</time></trkpt><trkpt lat="44.2415217" lon="8.2243917"><ele>975.0</ele><time>2026-04-26T08:26:32.64Z</time></trkpt><trkpt lat="44.241485" lon="8.22421"><ele>979.0</ele><time>2026-04-26T08:26:33.64Z</time></trkpt><trkpt lat="44.2414367" lon="8.224045"><ele>983.0</ele><time>2026-04-26T08:26:34.64Z</time></trkpt><trkpt lat="44.2413867" lon="8.2238683"><ele>987.0</ele><time>2026-04-26T08:26:35.64Z</time></trkpt><trkpt lat="44.241315" lon="8.223715"><ele>991.0</ele><time>2026-04-26T08:26:36.64Z</time></trkpt><trkpt lat="44.2412317" lon="8.2235783"><ele>991.0</ele><time>2026-04-26T08:26:37.64Z</time></trkpt><trkpt lat="44.2411383" lon="8.2234733"><ele>991.0</ele><time>2026-04-26T08:26:38.64Z</time></trkpt><trkpt lat="44.2410233" lon="8.2233833"><ele>991.0</ele><time>2026-04-26T08:26:39.64Z</time></trkpt><trkpt lat="44.2408983" lon="8.2233133"><ele>991.0</ele><time>2026-04-26T08:26:40.64Z</time></trkpt><trkpt lat="44.2407717" lon="8.2232533"><ele>991.0</ele><time>2026-04-26T08:26:41.64Z</time></trkpt><trkpt lat="44.2406483" lon="8.2232033"><ele>991.0</ele><time>2026-04-26T08:26:42.64Z</time></trkpt><trkpt lat="44.2405367" lon="8.2231467"><ele>991.0</ele><time>2026-04-26T08:26:43.64Z</time></trkpt><trkpt lat="44.240435" lon="8.22308"><ele>991.0</ele><time>2026-04-26T08:26:44.64Z</time></trkpt><trkpt lat="44.24035" lon="8.2229917"><ele>990.8</ele><time>2026-04-26T08:26:45.64Z</time></trkpt><trkpt lat="44.240285" lon="8.2228733"><ele>990.5999999999999</ele><time>2026-04-26T08:26:46.64Z</time></trkpt><trkpt lat="44.2402333" lon="8.2227317"><ele>990.4</ele><time>2026-04-26T08:26:47.64Z</time></trkpt><trkpt lat="44.2401983" lon="8.2225833"><ele>990.2</ele><time>2026-04-26T08:26:48.64Z</time></trkpt><trkpt lat="44.2401683" lon="8.2224267"><ele>990.0</ele><time>2026-04-26T08:26:49.64Z</time></trkpt><trkpt lat="44.2401267" lon="8.2222533"><ele>989.0</ele><time>2026-04-26T08:26:50.64Z</time></trkpt><trkpt lat="44.2400833" lon="8.2220667"><ele>988.0</ele><time>2026-04-26T08:26:51.64Z</time></trkpt><trkpt lat="44.240035" lon="8.22188"><ele>987.0</ele><time>2026-04-26T08:26:52.64Z</time></trkpt><trkpt lat="44.2399883" lon="8.2216933"><ele>986.0</ele><time>2026-04-26T08:26:53.64Z</time></trkpt><trkpt lat="44.2399417" lon="8.2215233"><ele>985.25</ele><time>2026-04-26T08:26:54.64Z</time></trkpt><trkpt lat="44.2398767" lon="8.221345"><ele>984.5</ele><time>2026-04-26T08:26:55.64Z</time></trkpt><trkpt lat="44.23981" lon="8.2211933"><ele>983.75</ele><time>2026-04-26T08:26:56.64Z</time></trkpt><trkpt lat="44.2397317" lon="8.221065"><ele>983.0</ele><time>2026-04-26T08:26:57.64Z</time></trkpt><trkpt lat="44.2396283" lon="8.2209517"><ele>983.0</ele><time>2026-04-26T08:26:58.64Z</time></trkpt><trkpt lat="44.2395083" lon="8.2208633"><ele>983.0</ele><time>2026-04-26T08:26:59.64Z</time></trkpt><trkpt lat="44.2393733" lon="8.2207983"><ele>983.0</ele><time>2026-04-26T08:27:00.64Z</time></trkpt><trkpt lat="44.23924" lon="8.2207517"><ele>983.0</ele><time>2026-04-26T08:27:01.64Z</time></trkpt><trkpt lat="44.2391017" lon="8.2207233"><ele>982.0</ele><time>2026-04-26T08:27:02.64Z</time></trkpt><trkpt lat="44.2389667" lon="8.220685"><ele>981.0</ele><time>2026-04-26T08:27:03.64Z</time></trkpt><trkpt lat="44.2388333" lon="8.22064"><ele>980.0</ele><time>2026-04-26T08:27:04.64Z</time></trkpt><trkpt lat="44.2387017" lon="8.2206067"><ele>979.0</ele><time>2026-04-26T08:27:05.64Z</time></trkpt><trkpt lat="44.2385733" lon="8.22057"><ele>978.6</ele><time>2026-04-26T08:27:06.64Z</time></trkpt><trkpt lat="44.2384683" lon="8.2205417"><ele>978.2</ele><time>2026-04-26T08:27:07.641Z</time></trkpt><trkpt lat="44.238385" lon="8.2205117"><ele>977.8000000000001</ele><time>2026-04-26T08:27:08.641Z</time></trkpt><trkpt lat="44.2383117" lon="8.2204783"><ele>977.4000000000001</ele><time>2026-04-26T08:27:09.641Z</time></trkpt><trkpt lat="44.238185" lon="8.2204283"><ele>977.0</ele><time>2026-04-26T08:27:11.641Z</time></trkpt><trkpt lat="44.23808" lon="8.22041"><ele>977.0000000000001</ele><time>2026-04-26T08:27:13.642Z</time></trkpt><trkpt lat="44.2380133" lon="8.22043"><ele>977.0</ele><time>2026-04-26T08:27:15.642Z</time></trkpt><trkpt lat="44.2379517" lon="8.2203883"><ele>977.0</ele><time>2026-04-26T08:27:17.641Z</time></trkpt><trkpt lat="44.23789" lon="8.2203"><ele>977.0</ele><time>2026-04-26T08:27:19.641Z</time></trkpt><trkpt lat="44.237785" lon="8.22022"><ele>977.0000000000001</ele><time>2026-04-26T08:27:21.642Z</time></trkpt><trkpt lat="44.23772" lon="8.2201817"><ele>977.0</ele><time>2026-04-26T08:27:22.641Z</time></trkpt><trkpt lat="44.2376467" lon="8.2201283"><ele>977.0</ele><time>2026-04-26T08:27:23.641Z</time></trkpt><trkpt lat="44.2375583" lon="8.2200683"><ele>977.0</ele><time>2026-04-26T08:27:24.641Z</time></trkpt><trkpt lat="44.2374583" lon="8.22"><ele>977.0</ele><time>2026-04-26T08:27:25.641Z</time></trkpt><trkpt lat="44.2373483" lon="8.2199283"><ele>977.0</ele><time>2026-04-26T08:27:26.641Z</time></trkpt><trkpt lat="44.2372333" lon="8.2198467"><ele>977.5</ele><time>2026-04-26T08:27:27.641Z</time></trkpt><trkpt lat="44.23712" lon="8.219765"><ele>978.0</ele><time>2026-04-26T08:27:28.641Z</time></trkpt><trkpt lat="44.237" lon="8.2196867"><ele>978.5</ele><time>2026-04-26T08:27:29.641Z</time></trkpt><trkpt lat="44.2368767" lon="8.2196067"><ele>979.0</ele><time>2026-04-26T08:27:30.641Z</time></trkpt><trkpt lat="44.2367533" lon="8.2195333"><ele>979.0</ele><time>2026-04-26T08:27:31.641Z</time></trkpt><trkpt lat="44.2366317" lon="8.21945"><ele>979.0</ele><time>2026-04-26T08:27:32.642Z</time></trkpt><trkpt lat="44.23651" lon="8.2193667"><ele>979.0</ele><time>2026-04-26T08:27:33.641Z</time></trkpt><trkpt lat="44.23639" lon="8.2192817"><ele>979.0</ele><time>2026-04-26T08:27:34.641Z</time></trkpt><trkpt lat="44.23627" lon="8.2192067"><ele>978.0</ele><time>2026-04-26T08:27:35.642Z</time></trkpt><trkpt lat="44.2361567" lon="8.2191217"><ele>977.0</ele><time>2026-04-26T08:27:36.642Z</time></trkpt><trkpt lat="44.2360433" lon="8.21903"><ele>976.0</ele><time>2026-04-26T08:27:37.641Z</time></trkpt><trkpt lat="44.2359367" lon="8.2189283"><ele>975.0</ele><time>2026-04-26T08:27:38.642Z</time></trkpt><trkpt lat="44.2358317" lon="8.21882"><ele>975.0</ele><time>2026-04-26T08:27:39.641Z</time></trkpt><trkpt lat="44.2357367" lon="8.2187017"><ele>975.0</ele><time>2026-04-26T08:27:40.641Z</time></trkpt><trkpt lat="44.23564" lon="8.2185817"><ele>975.0</ele><time>2026-04-26T08:27:41.641Z</time></trkpt><trkpt lat="44.23554" lon="8.218455"><ele>975.0</ele><time>2026-04-26T08:27:42.642Z</time></trkpt><trkpt lat="44.2354383" lon="8.2183333"><ele>976.0</ele><time>2026-04-26T08:27:43.641Z</time></trkpt><trkpt lat="44.23533" lon="8.218225"><ele>977.0</ele><time>2026-04-26T08:27:44.641Z</time></trkpt><trkpt lat="44.235215" lon="8.2181283"><ele>978.0</ele><time>2026-04-26T08:27:45.641Z</time></trkpt><trkpt lat="44.23509" lon="8.21804"><ele>979.0</ele><time>2026-04-26T08:27:46.641Z</time></trkpt><trkpt lat="44.23496" lon="8.217955"><ele>979.0</ele><time>2026-04-26T08:27:47.641Z</time></trkpt><trkpt lat="44.2348233" lon="8.2178817"><ele>979.0</ele><time>2026-04-26T08:27:48.641Z</time></trkpt><trkpt lat="44.23469" lon="8.2177983"><ele>979.0</ele><time>2026-04-26T08:27:49.641Z</time></trkpt><trkpt lat="44.234555" lon="8.2177233"><ele>979.0</ele><time>2026-04-26T08:27:50.642Z</time></trkpt><trkpt lat="44.2344233" lon="8.217645"><ele>975.0</ele><time>2026-04-26T08:27:51.641Z</time></trkpt><trkpt lat="44.234295" lon="8.2175617"><ele>971.0</ele><time>2026-04-26T08:27:52.641Z</time></trkpt><trkpt lat="44.2341617" lon="8.2174783"><ele>967.0</ele><time>2026-04-26T08:27:53.641Z</time></trkpt><trkpt lat="44.23403" lon="8.2174017"><ele>963.0</ele><time>2026-04-26T08:27:54.641Z</time></trkpt><trkpt lat="44.2339017" lon="8.2173217"><ele>961.25</ele><time>2026-04-26T08:27:55.641Z</time></trkpt><trkpt lat="44.23378" lon="8.2172433"><ele>959.5</ele><time>2026-04-26T08:27:56.641Z</time></trkpt><trkpt lat="44.233665" lon="8.2171433"><ele>957.75</ele><time>2026-04-26T08:27:57.641Z</time></trkpt><trkpt lat="44.2335533" lon="8.21704"><ele>956.0</ele><time>2026-04-26T08:27:58.641Z</time></trkpt><trkpt lat="44.2334533" lon="8.2169133"><ele>956.0</ele><time>2026-04-26T08:27:59.641Z</time></trkpt><trkpt lat="44.2333567" lon="8.2167783"><ele>956.0</ele><time>2026-04-26T08:28:00.641Z</time></trkpt><trkpt lat="44.2332667" lon="8.21663"><ele>956.0</ele><time>2026-04-26T08:28:01.641Z</time></trkpt><trkpt lat="44.233175" lon="8.2165083"><ele>956.0</ele><time>2026-04-26T08:28:02.641Z</time></trkpt><trkpt lat="44.233085" lon="8.2163867"><ele>954.25</ele><time>2026-04-26T08:28:03.641Z</time></trkpt><trkpt lat="44.2329967" lon="8.2162567"><ele>952.5</ele><time>2026-04-26T08:28:04.641Z</time></trkpt><trkpt lat="44.2329083" lon="8.216125"><ele>950.75</ele><time>2026-04-26T08:28:05.641Z</time></trkpt><trkpt lat="44.2328167" lon="8.2160067"><ele>949.0</ele><time>2026-04-26T08:28:06.641Z</time></trkpt><trkpt lat="44.2327217" lon="8.2158733"><ele>949.0</ele><time>2026-04-26T08:28:07.641Z</time></trkpt><trkpt lat="44.2326367" lon="8.2157483"><ele>949.0</ele><time>2026-04-26T08:28:08.641Z</time></trkpt><trkpt lat="44.2325467" lon="8.2156183"><ele>949.0</ele><time>2026-04-26T08:28:09.641Z</time></trkpt><trkpt lat="44.23245" lon="8.2155033"><ele>949.0</ele><time>2026-04-26T08:28:10.641Z</time></trkpt><trkpt lat="44.2323467" lon="8.21539"><ele>947.0</ele><time>2026-04-26T08:28:11.641Z</time></trkpt><trkpt lat="44.2322483" lon="8.2152617"><ele>945.0</ele><time>2026-04-26T08:28:12.641Z</time></trkpt><trkpt lat="44.2321517" lon="8.2151333"><ele>943.0</ele><time>2026-04-26T08:28:13.641Z</time></trkpt><trkpt lat="44.2320583" lon="8.215005"><ele>941.0</ele><time>2026-04-26T08:28:14.641Z</time></trkpt><trkpt lat="44.2319633" lon="8.21488"><ele>942.5999999999999</ele><time>2026-04-26T08:28:15.641Z</time></trkpt><trkpt lat="44.2318767" lon="8.2147633"><ele>944.1999999999999</ele><time>2026-04-26T08:28:16.641Z</time></trkpt><trkpt lat="44.2318033" lon="8.2146583"><ele>945.8000000000001</ele><time>2026-04-26T08:28:17.641Z</time></trkpt><trkpt lat="44.2317417" lon="8.2145717"><ele>947.4000000000001</ele><time>2026-04-26T08:28:18.641Z</time></trkpt><trkpt lat="44.231685" lon="8.214505"><ele>949.0</ele><time>2026-04-26T08:28:19.641Z</time></trkpt><trkpt lat="44.2316067" lon="8.21441"><ele>948.9999999999999</ele><time>2026-04-26T08:28:21.641Z</time></trkpt><trkpt lat="44.2315433" lon="8.2143567"><ele>949.0</ele><time>2026-04-26T08:28:24.641Z</time></trkpt><trkpt lat="44.23148" lon="8.2143083"><ele>949.0</ele><time>2026-04-26T08:28:26.641Z</time></trkpt><trkpt lat="44.2314467" lon="8.2143983"><ele>949.0</ele><time>2026-04-26T08:28:30.641Z</time></trkpt><trkpt lat="44.2313883" lon="8.2143567"><ele>948.9999999999999</ele><time>2026-04-26T08:50:13.642Z</time></trkpt><trkpt lat="44.23149" lon="8.214355"><ele>949.0</ele><time>2026-04-26T08:50:17.642Z</time></trkpt><trkpt lat="44.2315883" lon="8.2144283"><ele>948.9999999999999</ele><time>2026-04-26T08:50:19.643Z</time></trkpt><trkpt lat="44.23164" lon="8.2144833"><ele>949.0</ele><time>2026-04-26T08:50:20.642Z</time></trkpt><trkpt lat="44.231685" lon="8.2145617"><ele>949.0</ele><time>2026-04-26T08:50:21.642Z</time></trkpt><trkpt lat="44.2317333" lon="8.2146267"><ele>949.0</ele><time>2026-04-26T08:50:22.642Z</time></trkpt><trkpt lat="44.2317817" lon="8.2146917"><ele>948.9999999999999</ele><time>2026-04-26T08:50:23.643Z</time></trkpt><trkpt lat="44.2318483" lon="8.2147767"><ele>949.0</ele><time>2026-04-26T08:50:24.642Z</time></trkpt><trkpt lat="44.2319383" lon="8.2149117"><ele>946.3333333333333</ele><time>2026-04-26T08:50:25.642Z</time></trkpt><trkpt lat="44.2320617" lon="8.2150767"><ele>943.6666666666667</ele><time>2026-04-26T08:50:26.642Z</time></trkpt><trkpt lat="44.2322233" lon="8.2152717"><ele>941.0</ele><time>2026-04-26T08:50:27.642Z</time></trkpt><trkpt lat="44.2323933" lon="8.2154733"><ele>943.6666666666667</ele><time>2026-04-26T08:50:28.642Z</time></trkpt><trkpt lat="44.2325383" lon="8.2156683"><ele>946.3333333333333</ele><time>2026-04-26T08:50:29.642Z</time></trkpt><trkpt lat="44.23266" lon="8.2158383"><ele>949.0</ele><time>2026-04-26T08:50:30.642Z</time></trkpt><trkpt lat="44.23276" lon="8.2159883"><ele>949.0</ele><time>2026-04-26T08:50:31.642Z</time></trkpt><trkpt lat="44.232845" lon="8.2161133"><ele>949.0000000000001</ele><time>2026-04-26T08:50:32.642Z</time></trkpt><trkpt lat="44.2329267" lon="8.216215"><ele>949.0000000000001</ele><time>2026-04-26T08:50:33.642Z</time></trkpt><trkpt lat="44.2329933" lon="8.2163217"><ele>949.0</ele><time>2026-04-26T08:50:34.642Z</time></trkpt><trkpt lat="44.2330533" lon="8.2164033"><ele>949.0</ele><time>2026-04-26T08:50:35.642Z</time></trkpt><trkpt lat="44.23313" lon="8.2165133"><ele>950.4000000000001</ele><time>2026-04-26T08:50:37.643Z</time></trkpt><trkpt lat="44.233215" lon="8.216635"><ele>951.8000000000001</ele><time>2026-04-26T08:50:46.643Z</time></trkpt><trkpt lat="44.233275" lon="8.2167133"><ele>953.1999999999999</ele><time>2026-04-26T08:50:47.642Z</time></trkpt><trkpt lat="44.233345" lon="8.2168167"><ele>954.5999999999999</ele><time>2026-04-26T08:50:48.642Z</time></trkpt><trkpt lat="44.233435" lon="8.2169417"><ele>956.0</ele><time>2026-04-26T08:50:49.643Z</time></trkpt><trkpt lat="44.2335533" lon="8.217085"><ele>956.0</ele><time>2026-04-26T08:50:50.642Z</time></trkpt><trkpt lat="44.233695" lon="8.2172317"><ele>956.0</ele><time>2026-04-26T08:50:51.642Z</time></trkpt><trkpt lat="44.233855" lon="8.217345"><ele>956.0</ele><time>2026-04-26T08:50:52.642Z</time></trkpt><trkpt lat="44.2340167" lon="8.2174317"><ele>958.3333333333334</ele><time>2026-04-26T08:50:53.642Z</time></trkpt><trkpt lat="44.234165" lon="8.2175183"><ele>960.6666666666667</ele><time>2026-04-26T08:50:54.642Z</time></trkpt><trkpt lat="44.2343083" lon="8.2176067"><ele>963.0</ele><time>2026-04-26T08:50:55.642Z</time></trkpt><trkpt lat="44.2344433" lon="8.21769"><ele>963.0</ele><time>2026-04-26T08:50:56.642Z</time></trkpt><trkpt lat="44.2345733" lon="8.2177667"><ele>963.0</ele><time>2026-04-26T08:50:57.642Z</time></trkpt><trkpt lat="44.2346917" lon="8.217835"><ele>963.0</ele><time>2026-04-26T08:50:58.642Z</time></trkpt><trkpt lat="44.2348133" lon="8.2178983"><ele>963.0</ele><time>2026-04-26T08:50:59.642Z</time></trkpt><trkpt lat="44.2349283" lon="8.2179683"><ele>961.75</ele><time>2026-04-26T08:51:00.642Z</time></trkpt><trkpt lat="44.2350417" lon="8.218045"><ele>960.5</ele><time>2026-04-26T08:51:01.642Z</time></trkpt><trkpt lat="44.235155" lon="8.2181217"><ele>959.25</ele><time>2026-04-26T08:51:02.642Z</time></trkpt><trkpt lat="44.2352667" lon="8.21821"><ele>958.0</ele><time>2026-04-26T08:51:03.642Z</time></trkpt><trkpt lat="44.2353683" lon="8.2183117"><ele>958.0</ele><time>2026-04-26T08:51:04.642Z</time></trkpt><trkpt lat="44.23546" lon="8.2184217"><ele>958.0</ele><time>2026-04-26T08:51:05.642Z</time></trkpt><trkpt lat="44.23555" lon="8.2185417"><ele>958.0</ele><time>2026-04-26T08:51:06.642Z</time></trkpt><trkpt lat="44.2356367" lon="8.2186583"><ele>958.0</ele><time>2026-04-26T08:51:07.642Z</time></trkpt><trkpt lat="44.23573" lon="8.2187783"><ele>959.25</ele><time>2026-04-26T08:51:08.642Z</time></trkpt><trkpt lat="44.23583" lon="8.2188917"><ele>960.5</ele><time>2026-04-26T08:51:09.642Z</time></trkpt><trkpt lat="44.23593" lon="8.218995"><ele>961.75</ele><time>2026-04-26T08:51:10.642Z</time></trkpt><trkpt lat="44.2360383" lon="8.2190883"><ele>963.0</ele><time>2026-04-26T08:51:11.642Z</time></trkpt><trkpt lat="44.2361517" lon="8.2191783"><ele>963.0</ele><time>2026-04-26T08:51:12.643Z</time></trkpt><trkpt lat="44.236265" lon="8.219245"><ele>963.0</ele><time>2026-04-26T08:51:13.642Z</time></trkpt><trkpt lat="44.23637" lon="8.2193133"><ele>963.0</ele><time>2026-04-26T08:51:14.642Z</time></trkpt><trkpt lat="44.2364817" lon="8.2193917"><ele>963.0</ele><time>2026-04-26T08:51:15.642Z</time></trkpt><trkpt lat="44.236585" lon="8.21947"><ele>967.0</ele><time>2026-04-26T08:51:16.642Z</time></trkpt><trkpt lat="44.2366933" lon="8.2195467"><ele>971.0</ele><time>2026-04-26T08:51:17.643Z</time></trkpt><trkpt lat="44.2367967" lon="8.2196183"><ele>975.0</ele><time>2026-04-26T08:51:18.642Z</time></trkpt><trkpt lat="44.2369" lon="8.219685"><ele>979.0</ele><time>2026-04-26T08:51:19.642Z</time></trkpt><trkpt lat="44.237005" lon="8.2197533"><ele>978.6</ele><time>2026-04-26T08:51:20.642Z</time></trkpt><trkpt lat="44.2371017" lon="8.219825"><ele>978.2</ele><time>2026-04-26T08:51:21.642Z</time></trkpt><trkpt lat="44.2372" lon="8.219895"><ele>977.8000000000001</ele><time>2026-04-26T08:51:22.642Z</time></trkpt><trkpt lat="44.2373" lon="8.2199533"><ele>977.4000000000001</ele><time>2026-04-26T08:51:23.642Z</time></trkpt><trkpt lat="44.2374033" lon="8.2200183"><ele>977.0</ele><time>2026-04-26T08:51:24.642Z</time></trkpt><trkpt lat="44.237505" lon="8.2200817"><ele>977.0</ele><time>2026-04-26T08:51:25.642Z</time></trkpt><trkpt lat="44.23761" lon="8.22015"><ele>977.0</ele><time>2026-04-26T08:51:26.642Z</time></trkpt><trkpt lat="44.2377183" lon="8.2202183"><ele>977.0</ele><time>2026-04-26T08:51:27.642Z</time></trkpt><trkpt lat="44.2378217" lon="8.2202933"><ele>977.0</ele><time>2026-04-26T08:51:28.642Z</time></trkpt><trkpt lat="44.2379167" lon="8.2203583"><ele>977.0</ele><time>2026-04-26T08:51:29.642Z</time></trkpt><trkpt lat="44.2379967" lon="8.2204167"><ele>977.0</ele><time>2026-04-26T08:51:30.642Z</time></trkpt><trkpt lat="44.2380867" lon="8.2204583"><ele>977.0</ele><time>2026-04-26T08:51:31.642Z</time></trkpt><trkpt lat="44.2381783" lon="8.22049"><ele>977.0</ele><time>2026-04-26T08:51:32.642Z</time></trkpt><trkpt lat="44.238275" lon="8.2205233"><ele>977.0</ele><time>2026-04-26T08:51:33.642Z</time></trkpt><trkpt lat="44.23838" lon="8.2205617"><ele>977.5</ele><time>2026-04-26T08:51:34.642Z</time></trkpt><trkpt lat="44.2384917" lon="8.2205983"><ele>978.0</ele><time>2026-04-26T08:51:35.642Z</time></trkpt><trkpt lat="44.2386117" lon="8.2206333"><ele>978.5</ele><time>2026-04-26T08:51:36.642Z</time></trkpt><trkpt lat="44.2387333" lon="8.2206633"><ele>979.0</ele><time>2026-04-26T08:51:37.642Z</time></trkpt><trkpt lat="44.23886" lon="8.2206917"><ele>980.0</ele><time>2026-04-26T08:51:38.642Z</time></trkpt><trkpt lat="44.2389883" lon="8.2207217"><ele>981.0</ele><time>2026-04-26T08:51:39.642Z</time></trkpt><trkpt lat="44.2391133" lon="8.2207567"><ele>982.0</ele><time>2026-04-26T08:51:40.643Z</time></trkpt><trkpt lat="44.2392567" lon="8.2207833"><ele>983.0</ele><time>2026-04-26T08:51:41.642Z</time></trkpt><trkpt lat="44.2393833" lon="8.22084"><ele>983.0</ele><time>2026-04-26T08:51:42.642Z</time></trkpt><trkpt lat="44.2395117" lon="8.2208967"><ele>983.0</ele><time>2026-04-26T08:51:43.642Z</time></trkpt><trkpt lat="44.23962" lon="8.220995"><ele>983.0</ele><time>2026-04-26T08:51:44.642Z</time></trkpt><trkpt lat="44.2397283" lon="8.221105"><ele>983.0</ele><time>2026-04-26T08:51:45.642Z</time></trkpt><trkpt lat="44.2398117" lon="8.22124"><ele>983.75</ele><time>2026-04-26T08:51:46.642Z</time></trkpt><trkpt lat="44.23988" lon="8.221385"><ele>984.5</ele><time>2026-04-26T08:51:47.642Z</time></trkpt><trkpt lat="44.2399383" lon="8.2215483"><ele>985.25</ele><time>2026-04-26T08:51:48.643Z</time></trkpt><trkpt lat="44.2399767" lon="8.2217233"><ele>986.0</ele><time>2026-04-26T08:51:49.642Z</time></trkpt><trkpt lat="44.2400183" lon="8.221905"><ele>986.0</ele><time>2026-04-26T08:51:50.642Z</time></trkpt><trkpt lat="44.2400667" lon="8.2220917"><ele>986.0</ele><time>2026-04-26T08:51:51.642Z</time></trkpt><trkpt lat="44.2401133" lon="8.2222767"><ele>986.0</ele><time>2026-04-26T08:51:52.642Z</time></trkpt><trkpt lat="44.2401533" lon="8.2224567"><ele>986.0</ele><time>2026-04-26T08:51:53.642Z</time></trkpt><trkpt lat="44.24019" lon="8.2226283"><ele>986.8</ele><time>2026-04-26T08:51:54.642Z</time></trkpt><trkpt lat="44.2402217" lon="8.2227767"><ele>987.5999999999999</ele><time>2026-04-26T08:51:55.642Z</time></trkpt><trkpt lat="44.24027" lon="8.22291"><ele>988.4</ele><time>2026-04-26T08:51:56.642Z</time></trkpt><trkpt lat="44.2403383" lon="8.2230283"><ele>989.2</ele><time>2026-04-26T08:51:57.642Z</time></trkpt><trkpt lat="44.2404267" lon="8.22312"><ele>990.0</ele><time>2026-04-26T08:51:58.642Z</time></trkpt><trkpt lat="44.2405333" lon="8.2231867"><ele>990.25</ele><time>2026-04-26T08:51:59.642Z</time></trkpt><trkpt lat="44.2406567" lon="8.22324"><ele>990.5</ele><time>2026-04-26T08:52:00.643Z</time></trkpt><trkpt lat="44.2407867" lon="8.2232967"><ele>990.75</ele><time>2026-04-26T08:52:01.642Z</time></trkpt><trkpt lat="44.24092" lon="8.2233617"><ele>991.0</ele><time>2026-04-26T08:52:02.642Z</time></trkpt><trkpt lat="44.2410467" lon="8.2234317"><ele>991.0</ele><time>2026-04-26T08:52:03.643Z</time></trkpt><trkpt lat="44.241145" lon="8.2235233"><ele>991.0</ele><time>2026-04-26T08:52:04.642Z</time></trkpt><trkpt lat="44.2412283" lon="8.2236317"><ele>991.0</ele><time>2026-04-26T08:52:05.642Z</time></trkpt><trkpt lat="44.2413017" lon="8.2237583"><ele>991.0</ele><time>2026-04-26T08:52:06.643Z</time></trkpt><trkpt lat="44.2413533" lon="8.2239067"><ele>994.5</ele><time>2026-04-26T08:52:07.642Z</time></trkpt><trkpt lat="44.2414083" lon="8.224065"><ele>998.0</ele><time>2026-04-26T08:52:08.642Z</time></trkpt><trkpt lat="44.2414567" lon="8.22423"><ele>1001.5</ele><time>2026-04-26T08:52:09.642Z</time></trkpt><trkpt lat="44.241485" lon="8.2243917"><ele>1005.0</ele><time>2026-04-26T08:52:10.642Z</time></trkpt><trkpt lat="44.2414917" lon="8.2245483"><ele>1003.25</ele><time>2026-04-26T08:52:11.642Z</time></trkpt><trkpt lat="44.241485" lon="8.2247083"><ele>1001.5</ele><time>2026-04-26T08:52:12.642Z</time></trkpt><trkpt lat="44.2414433" lon="8.2248767"><ele>999.75</ele><time>2026-04-26T08:52:13.642Z</time></trkpt><trkpt lat="44.2414017" lon="8.2250417"><ele>998.0</ele><time>2026-04-26T08:52:14.643Z</time></trkpt><trkpt lat="44.2413683" lon="8.22521"><ele>998.0</ele><time>2026-04-26T08:52:15.642Z</time></trkpt><trkpt lat="44.2413317" lon="8.2253617"><ele>998.0</ele><time>2026-04-26T08:52:16.642Z</time></trkpt><trkpt lat="44.2412967" lon="8.2255333"><ele>998.0</ele><time>2026-04-26T08:52:17.642Z</time></trkpt><trkpt lat="44.2412667" lon="8.2257033"><ele>998.0</ele><time>2026-04-26T08:52:18.642Z</time></trkpt><trkpt lat="44.24125" lon="8.2258667"><ele>995.5</ele><time>2026-04-26T08:52:19.643Z</time></trkpt><trkpt lat="44.2412633" lon="8.2260333"><ele>993.0</ele><time>2026-04-26T08:52:20.642Z</time></trkpt><trkpt lat="44.2412967" lon="8.22619"><ele>990.5</ele><time>2026-04-26T08:52:21.642Z</time></trkpt><trkpt lat="44.241325" lon="8.2263617"><ele>988.0</ele><time>2026-04-26T08:52:22.642Z</time></trkpt><trkpt lat="44.24134" lon="8.2265367"><ele>986.75</ele><time>2026-04-26T08:52:23.642Z</time></trkpt><trkpt lat="44.2413383" lon="8.2267183"><ele>985.5</ele><time>2026-04-26T08:52:24.642Z</time></trkpt><trkpt lat="44.24132" lon="8.2269067"><ele>984.25</ele><time>2026-04-26T08:52:25.642Z</time></trkpt><trkpt lat="44.2412967" lon="8.2270917"><ele>983.0</ele><time>2026-04-26T08:52:26.642Z</time></trkpt><trkpt lat="44.24129" lon="8.2272717"><ele>981.0</ele><time>2026-04-26T08:52:27.642Z</time></trkpt><trkpt lat="44.24131" lon="8.2274517"><ele>979.0</ele><time>2026-04-26T08:52:28.643Z</time></trkpt><trkpt lat="44.241345" lon="8.2276283"><ele>977.0</ele><time>2026-04-26T08:52:29.642Z</time></trkpt><trkpt lat="44.2413783" lon="8.22782"><ele>975.0</ele><time>2026-04-26T08:52:30.642Z</time></trkpt><trkpt lat="44.2414083" lon="8.2280083"><ele>972.5</ele><time>2026-04-26T08:52:31.642Z</time></trkpt><trkpt lat="44.2414333" lon="8.228195"><ele>970.0</ele><time>2026-04-26T08:52:32.642Z</time></trkpt><trkpt lat="44.2414433" lon="8.228385"><ele>967.5</ele><time>2026-04-26T08:52:33.642Z</time></trkpt><trkpt lat="44.2414517" lon="8.2285667"><ele>965.0</ele><time>2026-04-26T08:52:34.642Z</time></trkpt><trkpt lat="44.2414667" lon="8.2287467"><ele>975.25</ele><time>2026-04-26T08:52:35.642Z</time></trkpt><trkpt lat="44.2414917" lon="8.228925"><ele>985.5</ele><time>2026-04-26T08:52:36.643Z</time></trkpt><trkpt lat="44.241505" lon="8.2291083"><ele>995.75</ele><time>2026-04-26T08:52:37.642Z</time></trkpt><trkpt lat="44.2415117" lon="8.229285"><ele>1006.0</ele><time>2026-04-26T08:52:38.642Z</time></trkpt><trkpt lat="44.241505" lon="8.2294817"><ele>1006.0</ele><time>2026-04-26T08:52:39.642Z</time></trkpt><trkpt lat="44.2415" lon="8.229675"><ele>1006.0</ele><time>2026-04-26T08:52:40.642Z</time></trkpt><trkpt lat="44.24149" lon="8.229875"><ele>1006.0</ele><time>2026-04-26T08:52:41.642Z</time></trkpt><trkpt lat="44.2414767" lon="8.2300683"><ele>1006.0</ele><time>2026-04-26T08:52:42.642Z</time></trkpt><trkpt lat="44.2414633" lon="8.2302583"><ele>1005.5</ele><time>2026-04-26T08:52:43.642Z</time></trkpt><trkpt lat="44.2414617" lon="8.2304433"><ele>1005.0</ele><time>2026-04-26T08:52:44.642Z</time></trkpt><trkpt lat="44.241475" lon="8.2306267"><ele>1004.5</ele><time>2026-04-26T08:52:45.642Z</time></trkpt><trkpt lat="44.241515" lon="8.230815"><ele>1004.0</ele><time>2026-04-26T08:52:46.642Z</time></trkpt><trkpt lat="44.24156" lon="8.2309983"><ele>1003.0</ele><time>2026-04-26T08:52:47.642Z</time></trkpt><trkpt lat="44.241615" lon="8.231165"><ele>1002.0</ele><time>2026-04-26T08:52:48.643Z</time></trkpt><trkpt lat="44.2416733" lon="8.23132"><ele>1001.0</ele><time>2026-04-26T08:52:49.642Z</time></trkpt><trkpt lat="44.2417583" lon="8.2314567"><ele>1000.0</ele><time>2026-04-26T08:52:50.642Z</time></trkpt><trkpt lat="44.2418417" lon="8.2315867"><ele>996.75</ele><time>2026-04-26T08:52:51.642Z</time></trkpt><trkpt lat="44.2419417" lon="8.231705"><ele>993.5</ele><time>2026-04-26T08:52:52.642Z</time></trkpt><trkpt lat="44.24205" lon="8.2318167"><ele>990.25</ele><time>2026-04-26T08:52:53.642Z</time></trkpt><trkpt lat="44.242165" lon="8.2319217"><ele>987.0</ele><time>2026-04-26T08:52:54.643Z</time></trkpt><trkpt lat="44.2422767" lon="8.2320183"><ele>985.75</ele><time>2026-04-26T08:52:55.642Z</time></trkpt><trkpt lat="44.2423917" lon="8.2321117"><ele>984.5</ele><time>2026-04-26T08:52:56.642Z</time></trkpt><trkpt lat="44.2425167" lon="8.2321867"><ele>983.25</ele><time>2026-04-26T08:52:57.642Z</time></trkpt><trkpt lat="44.24264" lon="8.2322533"><ele>982.0</ele><time>2026-04-26T08:52:58.642Z</time></trkpt><trkpt lat="44.24276" lon="8.2323117"><ele>982.0</ele><time>2026-04-26T08:52:59.642Z</time></trkpt><trkpt lat="44.2428733" lon="8.23237"><ele>982.0</ele><time>2026-04-26T08:53:00.642Z</time></trkpt><trkpt lat="44.2429767" lon="8.232425"><ele>982.0</ele><time>2026-04-26T08:53:01.642Z</time></trkpt><trkpt lat="44.24308" lon="8.2324833"><ele>982.0</ele><time>2026-04-26T08:53:02.642Z</time></trkpt><trkpt lat="44.243175" lon="8.2325633"><ele>983.25</ele><time>2026-04-26T08:53:03.642Z</time></trkpt><trkpt lat="44.243265" lon="8.2326517"><ele>984.5</ele><time>2026-04-26T08:53:04.642Z</time></trkpt><trkpt lat="44.243355" lon="8.2327533"><ele>985.75</ele><time>2026-04-26T08:53:05.642Z</time></trkpt><trkpt lat="44.2434383" lon="8.232875"><ele>987.0</ele><time>2026-04-26T08:53:06.642Z</time></trkpt><trkpt lat="44.243515" lon="8.2330117"><ele>984.25</ele><time>2026-04-26T08:53:07.642Z</time></trkpt><trkpt lat="44.24359" lon="8.233165"><ele>981.5</ele><time>2026-04-26T08:53:08.642Z</time></trkpt><trkpt lat="44.243665" lon="8.233325"><ele>978.75</ele><time>2026-04-26T08:53:09.642Z</time></trkpt><trkpt lat="44.2437417" lon="8.2335017"><ele>976.0</ele><time>2026-04-26T08:53:10.642Z</time></trkpt><trkpt lat="44.2438117" lon="8.2336867"><ele>976.0</ele><time>2026-04-26T08:53:11.642Z</time></trkpt><trkpt lat="44.2438833" lon="8.2338683"><ele>976.0</ele><time>2026-04-26T08:53:12.642Z</time></trkpt><trkpt lat="44.24395" lon="8.2340533"><ele>976.0</ele><time>2026-04-26T08:53:13.642Z</time></trkpt><trkpt lat="44.244005" lon="8.2342333"><ele>976.0</ele><time>2026-04-26T08:53:14.642Z</time></trkpt><trkpt lat="44.2440633" lon="8.234405"><ele>975.75</ele><time>2026-04-26T08:53:15.643Z</time></trkpt><trkpt lat="44.244115" lon="8.234565"><ele>975.5</ele><time>2026-04-26T08:53:16.643Z</time></trkpt><trkpt lat="44.244165" lon="8.2347183"><ele>975.25</ele><time>2026-04-26T08:53:17.642Z</time></trkpt><trkpt lat="44.2442183" lon="8.2348783"><ele>975.0</ele><time>2026-04-26T08:53:18.642Z</time></trkpt><trkpt lat="44.2442783" lon="8.235035"><ele>975.0</ele><time>2026-04-26T08:53:19.642Z</time></trkpt><trkpt lat="44.2443417" lon="8.2351933"><ele>975.0</ele><time>2026-04-26T08:53:20.642Z</time></trkpt><trkpt lat="44.24439" lon="8.2353667"><ele>975.0</ele><time>2026-04-26T08:53:21.642Z</time></trkpt><trkpt lat="44.244425" lon="8.2355433"><ele>975.0</ele><time>2026-04-26T08:53:22.642Z</time></trkpt><trkpt lat="44.244445" lon="8.235735"><ele>972.25</ele><time>2026-04-26T08:53:23.642Z</time></trkpt><trkpt lat="44.2444467" lon="8.2359283"><ele>969.5</ele><time>2026-04-26T08:53:24.642Z</time></trkpt><trkpt lat="44.2444183" lon="8.2361033"><ele>966.75</ele><time>2026-04-26T08:53:25.642Z</time></trkpt><trkpt lat="44.2444" lon="8.23628"><ele>964.0</ele><time>2026-04-26T08:53:26.642Z</time></trkpt><trkpt lat="44.244405" lon="8.236465"><ele>961.75</ele><time>2026-04-26T08:53:27.642Z</time></trkpt><trkpt lat="44.2444233" lon="8.2366633"><ele>959.5</ele><time>2026-04-26T08:53:28.642Z</time></trkpt><trkpt lat="44.2444433" lon="8.2368667"><ele>957.25</ele><time>2026-04-26T08:53:29.642Z</time></trkpt><trkpt lat="44.2444583" lon="8.2370767"><ele>955.0</ele><time>2026-04-26T08:53:30.642Z</time></trkpt><trkpt lat="44.24448" lon="8.237285"><ele>953.75</ele><time>2026-04-26T08:53:31.642Z</time></trkpt><trkpt lat="44.2444867" lon="8.2374883"><ele>952.5</ele><time>2026-04-26T08:53:32.642Z</time></trkpt><trkpt lat="44.244495" lon="8.237675"><ele>951.25</ele><time>2026-04-26T08:53:33.642Z</time></trkpt><trkpt lat="44.2444983" lon="8.2378567"><ele>950.0</ele><time>2026-04-26T08:53:34.642Z</time></trkpt><trkpt lat="44.2444983" lon="8.2380417"><ele>948.5</ele><time>2026-04-26T08:53:35.642Z</time></trkpt><trkpt lat="44.2445133" lon="8.2382217"><ele>947.0</ele><time>2026-04-26T08:53:36.642Z</time></trkpt><trkpt lat="44.244515" lon="8.2384083"><ele>945.5</ele><time>2026-04-26T08:53:37.642Z</time></trkpt><trkpt lat="44.244515" lon="8.23859"><ele>944.0</ele><time>2026-04-26T08:53:38.642Z</time></trkpt><trkpt lat="44.2445167" lon="8.2387733"><ele>944.0</ele><time>2026-04-26T08:53:39.642Z</time></trkpt><trkpt lat="44.2445233" lon="8.238955"><ele>944.0</ele><time>2026-04-26T08:53:40.642Z</time></trkpt><trkpt lat="44.244525" lon="8.239135"><ele>944.0</ele><time>2026-04-26T08:53:41.642Z</time></trkpt><trkpt lat="44.2445217" lon="8.239305"><ele>944.0</ele><time>2026-04-26T08:53:42.642Z</time></trkpt><trkpt lat="44.2445183" lon="8.2394583"><ele>943.2</ele><time>2026-04-26T08:53:43.642Z</time></trkpt><trkpt lat="44.2445167" lon="8.2396017"><ele>942.4000000000001</ele><time>2026-04-26T08:53:44.642Z</time></trkpt><trkpt lat="44.2445133" lon="8.239755"><ele>941.6</ele><time>2026-04-26T08:53:45.642Z</time></trkpt><trkpt lat="44.2445117" lon="8.23991"><ele>940.8</ele><time>2026-04-26T08:53:46.642Z</time></trkpt><trkpt lat="44.2445067" lon="8.24007"><ele>940.0</ele><time>2026-04-26T08:53:47.642Z</time></trkpt><trkpt lat="44.2445033" lon="8.2402417"><ele>939.0</ele><time>2026-04-26T08:53:48.642Z</time></trkpt><trkpt lat="44.2444967" lon="8.2404083"><ele>938.0</ele><time>2026-04-26T08:53:49.643Z</time></trkpt><trkpt lat="44.2444967" lon="8.24056"><ele>937.0</ele><time>2026-04-26T08:53:50.642Z</time></trkpt><trkpt lat="44.2444917" lon="8.24069"><ele>936.0</ele><time>2026-04-26T08:53:51.642Z</time></trkpt><trkpt lat="44.244475" lon="8.24078"><ele>935.0</ele><time>2026-04-26T08:53:52.642Z</time></trkpt><trkpt lat="44.2444183" lon="8.2409133"><ele>934.3333333333334</ele><time>2026-04-26T08:53:54.642Z</time></trkpt><trkpt lat="44.2443617" lon="8.241055"><ele>933.6666666666667</ele><time>2026-04-26T08:53:56.642Z</time></trkpt><trkpt lat="44.2443383" lon="8.2411533"><ele>933.0</ele><time>2026-04-26T08:53:57.642Z</time></trkpt><trkpt lat="44.2443083" lon="8.24126"><ele>932.3333333333333</ele><time>2026-04-26T08:53:58.642Z</time></trkpt><trkpt lat="44.2442767" lon="8.241365"><ele>931.6666666666666</ele><time>2026-04-26T08:53:59.642Z</time></trkpt><trkpt lat="44.2442317" lon="8.2414683"><ele>931.0</ele><time>2026-04-26T08:54:00.642Z</time></trkpt><trkpt lat="44.2441883" lon="8.24157"><ele>930.9999999999999</ele><time>2026-04-26T08:54:01.642Z</time></trkpt><trkpt lat="44.2441317" lon="8.2416667"><ele>931.0</ele><time>2026-04-26T08:54:02.642Z</time></trkpt><trkpt lat="44.2440767" lon="8.2417433"><ele>931.0</ele><time>2026-04-26T08:54:03.642Z</time></trkpt><trkpt lat="44.2440217" lon="8.24181"><ele>931.0</ele><time>2026-04-26T08:54:04.642Z</time></trkpt><trkpt lat="44.2439767" lon="8.2418833"><ele>930.9999999999999</ele><time>2026-04-26T08:54:05.642Z</time></trkpt><trkpt lat="44.2439267" lon="8.2419583"><ele>931.0</ele><time>2026-04-26T08:54:06.642Z</time></trkpt><trkpt lat="44.24387" lon="8.2420333"><ele>928.1666666666666</ele><time>2026-04-26T08:54:07.642Z</time></trkpt><trkpt lat="44.2438133" lon="8.242105"><ele>925.3333333333333</ele><time>2026-04-26T08:54:08.642Z</time></trkpt><trkpt lat="44.2437633" lon="8.2421633"><ele>922.5</ele><time>2026-04-26T08:54:09.642Z</time></trkpt><trkpt lat="44.2437083" lon="8.24222"><ele>919.6666666666667</ele><time>2026-04-26T08:54:10.642Z</time></trkpt><trkpt lat="44.24365" lon="8.2422767"><ele>916.8333333333334</ele><time>2026-04-26T08:54:11.642Z</time></trkpt><trkpt lat="44.2435567" lon="8.2423817"><ele>914.0</ele><time>2026-04-26T08:54:13.642Z</time></trkpt><trkpt lat="44.2435" lon="8.2424817"><ele>914.0000000000001</ele><time>2026-04-26T08:54:15.642Z</time></trkpt><trkpt lat="44.24343" lon="8.2426067"><ele>914.0</ele><time>2026-04-26T08:54:17.642Z</time></trkpt><trkpt lat="44.2433917" lon="8.2426783"><ele>914.0</ele><time>2026-04-26T08:54:18.642Z</time></trkpt><trkpt lat="44.2433567" lon="8.242765"><ele>914.0</ele><time>2026-04-26T08:54:19.642Z</time></trkpt><trkpt lat="44.2433183" lon="8.2428583"><ele>914.0000000000001</ele><time>2026-04-26T08:54:20.642Z</time></trkpt><trkpt lat="44.2432917" lon="8.2429383"><ele>914.0</ele><time>2026-04-26T08:54:21.642Z</time></trkpt><trkpt lat="44.2432583" lon="8.2430183"><ele>914.0000000000001</ele><time>2026-04-26T08:54:22.642Z</time></trkpt><trkpt lat="44.243225" lon="8.2430983"><ele>914.0</ele><time>2026-04-26T08:54:23.642Z</time></trkpt><trkpt lat="44.2431617" lon="8.2432333"><ele>914.0</ele><time>2026-04-26T08:54:25.642Z</time></trkpt><trkpt lat="44.2431383" lon="8.2433217"><ele>914.0</ele><time>2026-04-26T08:54:26.642Z</time></trkpt><trkpt lat="44.2431233" lon="8.24342"><ele>914.0000000000001</ele><time>2026-04-26T08:54:27.642Z</time></trkpt><trkpt lat="44.243115" lon="8.2435183"><ele>914.0</ele><time>2026-04-26T08:54:28.642Z</time></trkpt><trkpt lat="44.2431033" lon="8.2436183"><ele>910.0000000000001</ele><time>2026-04-26T08:54:29.642Z</time></trkpt><trkpt lat="44.2430783" lon="8.2437133"><ele>906.0</ele><time>2026-04-26T08:54:30.642Z</time></trkpt><trkpt lat="44.24304" lon="8.243815"><ele>902.0</ele><time>2026-04-26T08:54:31.642Z</time></trkpt><trkpt lat="44.2430083" lon="8.243915"><ele>898.0</ele><time>2026-04-26T08:54:32.642Z</time></trkpt><trkpt lat="44.2429767" lon="8.2440067"><ele>894.0000000000001</ele><time>2026-04-26T08:54:33.642Z</time></trkpt><trkpt lat="44.2429383" lon="8.2441017"><ele>890.0</ele><time>2026-04-26T08:54:34.642Z</time></trkpt><trkpt lat="44.2429067" lon="8.2442067"><ele>890.0</ele><time>2026-04-26T08:54:35.642Z</time></trkpt><trkpt lat="44.2428817" lon="8.2442983"><ele>890.0</ele><time>2026-04-26T08:54:36.642Z</time></trkpt><trkpt lat="44.2428467" lon="8.244395"><ele>890.0</ele><time>2026-04-26T08:54:37.642Z</time></trkpt><trkpt lat="44.2428117" lon="8.244485"><ele>890.0</ele><time>2026-04-26T08:54:38.642Z</time></trkpt><trkpt lat="44.24278" lon="8.2445733"><ele>890.0</ele><time>2026-04-26T08:54:39.643Z</time></trkpt><trkpt lat="44.2427517" lon="8.24467"><ele>890.0</ele><time>2026-04-26T08:54:40.642Z</time></trkpt><trkpt lat="44.2427283" lon="8.2447583"><ele>890.0</ele><time>2026-04-26T08:54:41.642Z</time></trkpt><trkpt lat="44.2427367" lon="8.2449233"><ele>890.6</ele><time>2026-04-26T08:54:43.642Z</time></trkpt><trkpt lat="44.2427467" lon="8.24509"><ele>891.2</ele><time>2026-04-26T08:54:45.642Z</time></trkpt><trkpt lat="44.2427433" lon="8.2451867"><ele>891.8</ele><time>2026-04-26T08:54:46.642Z</time></trkpt><trkpt lat="44.2427367" lon="8.245275"><ele>892.4</ele><time>2026-04-26T08:54:47.642Z</time></trkpt><trkpt lat="44.2427167" lon="8.2454233"><ele>893.0</ele><time>2026-04-26T08:54:49.642Z</time></trkpt><trkpt lat="44.2426883" lon="8.2455717"><ele>893.2</ele><time>2026-04-26T08:54:51.642Z</time></trkpt><trkpt lat="44.2426517" lon="8.245735"><ele>893.4</ele><time>2026-04-26T08:54:53.642Z</time></trkpt><trkpt lat="44.24262" lon="8.24585"><ele>893.6000000000001</ele><time>2026-04-26T08:54:54.642Z</time></trkpt><trkpt lat="44.2425883" lon="8.2459683"><ele>893.8000000000001</ele><time>2026-04-26T08:54:55.642Z</time></trkpt><trkpt lat="44.2425667" lon="8.2460783"><ele>894.0</ele><time>2026-04-26T08:54:56.642Z</time></trkpt><trkpt lat="44.2425417" lon="8.2461933"><ele>894.0</ele><time>2026-04-26T08:54:57.642Z</time></trkpt><trkpt lat="44.24252" lon="8.2462917"><ele>894.0</ele><time>2026-04-26T08:54:58.642Z</time></trkpt><trkpt lat="44.2424983" lon="8.2463783"><ele>894.0</ele><time>2026-04-26T08:54:59.642Z</time></trkpt><trkpt lat="44.24247" lon="8.246465"><ele>894.0</ele><time>2026-04-26T08:55:00.642Z</time></trkpt><trkpt lat="44.2424467" lon="8.2465467"><ele>894.0</ele><time>2026-04-26T08:55:01.642Z</time></trkpt><trkpt lat="44.2424233" lon="8.2467117"><ele>894.0</ele><time>2026-04-26T08:55:03.642Z</time></trkpt><trkpt lat="44.2424233" lon="8.2468783"><ele>894.0</ele><time>2026-04-26T08:55:05.642Z</time></trkpt><trkpt lat="44.242425" lon="8.2470433"><ele>894.0</ele><time>2026-04-26T08:55:07.642Z</time></trkpt><trkpt lat="44.24241" lon="8.2471383"><ele>894.0</ele><time>2026-04-26T08:55:08.642Z</time></trkpt><trkpt lat="44.2423833" lon="8.2472483"><ele>894.0</ele><time>2026-04-26T08:55:09.642Z</time></trkpt><trkpt lat="44.242355" lon="8.2473617"><ele>894.0</ele><time>2026-04-26T08:55:10.642Z</time></trkpt><trkpt lat="44.2423333" lon="8.2474717"><ele>894.0</ele><time>2026-04-26T08:55:11.642Z</time></trkpt><trkpt lat="44.2423167" lon="8.2475833"><ele>894.3333333333334</ele><time>2026-04-26T08:55:12.642Z</time></trkpt><trkpt lat="44.2422983" lon="8.2476867"><ele>894.6666666666667</ele><time>2026-04-26T08:55:13.642Z</time></trkpt><trkpt lat="44.2422667" lon="8.247785"><ele>895.0</ele><time>2026-04-26T08:55:14.643Z</time></trkpt><trkpt lat="44.2422367" lon="8.2478733"><ele>895.3333333333334</ele><time>2026-04-26T08:55:15.642Z</time></trkpt><trkpt lat="44.2421967" lon="8.24801"><ele>895.6666666666667</ele><time>2026-04-26T08:55:17.642Z</time></trkpt><trkpt lat="44.242175" lon="8.2481533"><ele>896.0</ele><time>2026-04-26T08:55:19.642Z</time></trkpt><trkpt lat="44.2421583" lon="8.2482417"><ele>892.4285714285714</ele><time>2026-04-26T08:55:20.642Z</time></trkpt><trkpt lat="44.2421417" lon="8.2483383"><ele>888.8571428571429</ele><time>2026-04-26T08:55:21.642Z</time></trkpt><trkpt lat="44.2421217" lon="8.2484367"><ele>885.2857142857142</ele><time>2026-04-26T08:55:22.642Z</time></trkpt><trkpt lat="44.242105" lon="8.2485367"><ele>881.7142857142858</ele><time>2026-04-26T08:55:23.642Z</time></trkpt><trkpt lat="44.242095" lon="8.2486367"><ele>878.1428571428571</ele><time>2026-04-26T08:55:24.642Z</time></trkpt><trkpt lat="44.242085" lon="8.24873"><ele>874.5714285714286</ele><time>2026-04-26T08:55:25.642Z</time></trkpt><trkpt lat="44.242085" lon="8.2488233"><ele>871.0</ele><time>2026-04-26T08:55:26.642Z</time></trkpt><trkpt lat="44.242105" lon="8.2489133"><ele>870.1428571428571</ele><time>2026-04-26T08:55:27.642Z</time></trkpt><trkpt lat="44.242135" lon="8.2489983"><ele>869.2857142857142</ele><time>2026-04-26T08:55:28.642Z</time></trkpt><trkpt lat="44.2421683" lon="8.249075"><ele>868.4285714285714</ele><time>2026-04-26T08:55:29.642Z</time></trkpt><trkpt lat="44.2422" lon="8.2491583"><ele>867.5714285714286</ele><time>2026-04-26T08:55:30.642Z</time></trkpt><trkpt lat="44.24224" lon="8.249245"><ele>866.7142857142858</ele><time>2026-04-26T08:55:31.642Z</time></trkpt><trkpt lat="44.242285" lon="8.2493367"><ele>865.8571428571429</ele><time>2026-04-26T08:55:32.642Z</time></trkpt><trkpt lat="44.2423267" lon="8.2494133"><ele>865.0</ele><time>2026-04-26T08:55:33.643Z</time></trkpt><trkpt lat="44.2423633" lon="8.2494917"><ele>865.7142857142858</ele><time>2026-04-26T08:55:34.642Z</time></trkpt><trkpt lat="44.2423917" lon="8.2495783"><ele>866.4285714285714</ele><time>2026-04-26T08:55:35.642Z</time></trkpt><trkpt lat="44.2424117" lon="8.24967"><ele>867.1428571428571</ele><time>2026-04-26T08:55:36.642Z</time></trkpt><trkpt lat="44.24244" lon="8.2497583"><ele>867.8571428571429</ele><time>2026-04-26T08:55:37.642Z</time></trkpt><trkpt lat="44.2424783" lon="8.24984"><ele>868.5714285714286</ele><time>2026-04-26T08:55:38.642Z</time></trkpt><trkpt lat="44.2425183" lon="8.249915"><ele>869.2857142857143</ele><time>2026-04-26T08:55:39.642Z</time></trkpt><trkpt lat="44.242575" lon="8.2499867"><ele>870.0</ele><time>2026-04-26T08:55:40.642Z</time></trkpt><trkpt lat="44.2426267" lon="8.25006"><ele>870.0</ele><time>2026-04-26T08:55:41.642Z</time></trkpt><trkpt lat="44.2426633" lon="8.2501317"><ele>870.0</ele><time>2026-04-26T08:55:42.642Z</time></trkpt><trkpt lat="44.242705" lon="8.2502033"><ele>870.0</ele><time>2026-04-26T08:55:43.642Z</time></trkpt><trkpt lat="44.2427467" lon="8.2502733"><ele>870.0</ele><time>2026-04-26T08:55:44.643Z</time></trkpt><trkpt lat="44.2427917" lon="8.2503717"><ele>870.0</ele><time>2026-04-26T08:55:45.642Z</time></trkpt><trkpt lat="44.242845" lon="8.2504767"><ele>870.0</ele><time>2026-04-26T08:55:46.642Z</time></trkpt><trkpt lat="44.2429" lon="8.250575"><ele>869.1666666666666</ele><time>2026-04-26T08:55:47.642Z</time></trkpt><trkpt lat="44.2429533" lon="8.2506733"><ele>868.3333333333333</ele><time>2026-04-26T08:55:48.642Z</time></trkpt><trkpt lat="44.2430033" lon="8.2507683"><ele>867.5</ele><time>2026-04-26T08:55:49.643Z</time></trkpt><trkpt lat="44.24305" lon="8.2508633"><ele>866.6666666666666</ele><time>2026-04-26T08:55:50.642Z</time></trkpt><trkpt lat="44.2430933" lon="8.2509567"><ele>865.8333333333333</ele><time>2026-04-26T08:55:51.643Z</time></trkpt><trkpt lat="44.2431183" lon="8.25105"><ele>865.0</ele><time>2026-04-26T08:55:52.642Z</time></trkpt><trkpt lat="44.2431433" lon="8.251145"><ele>864.9999999999999</ele><time>2026-04-26T08:55:53.642Z</time></trkpt><trkpt lat="44.2431733" lon="8.2512617"><ele>865.0</ele><time>2026-04-26T08:55:54.643Z</time></trkpt><trkpt lat="44.2432" lon="8.2513617"><ele>865.0</ele><time>2026-04-26T08:55:55.642Z</time></trkpt><trkpt lat="44.2432267" lon="8.2514517"><ele>865.0</ele><time>2026-04-26T08:55:56.642Z</time></trkpt><trkpt lat="44.2432567" lon="8.2515433"><ele>864.9999999999999</ele><time>2026-04-26T08:55:57.642Z</time></trkpt><trkpt lat="44.2433" lon="8.2516367"><ele>865.0</ele><time>2026-04-26T08:55:58.643Z</time></trkpt><trkpt lat="44.2433483" lon="8.251725"><ele>862.9999999999999</ele><time>2026-04-26T08:55:59.642Z</time></trkpt><trkpt lat="44.2433933" lon="8.2518133"><ele>861.0</ele><time>2026-04-26T08:56:00.643Z</time></trkpt><trkpt lat="44.2434433" lon="8.2519083"><ele>859.0</ele><time>2026-04-26T08:56:01.642Z</time></trkpt><trkpt lat="44.243495" lon="8.2519983"><ele>857.0</ele><time>2026-04-26T08:56:02.643Z</time></trkpt><trkpt lat="44.2435533" lon="8.252095"><ele>854.9999999999999</ele><time>2026-04-26T08:56:03.642Z</time></trkpt><trkpt lat="44.2436083" lon="8.25218"><ele>853.0</ele><time>2026-04-26T08:56:04.642Z</time></trkpt><trkpt lat="44.24366" lon="8.252275"><ele>850.6666666666666</ele><time>2026-04-26T08:56:05.642Z</time></trkpt><trkpt lat="44.24371" lon="8.2523617"><ele>848.3333333333333</ele><time>2026-04-26T08:56:06.642Z</time></trkpt><trkpt lat="44.24375" lon="8.2524533"><ele>846.0</ele><time>2026-04-26T08:56:07.643Z</time></trkpt><trkpt lat="44.243795" lon="8.2525367"><ele>843.6666666666667</ele><time>2026-04-26T08:56:08.642Z</time></trkpt><trkpt lat="44.2438433" lon="8.2526183"><ele>841.3333333333334</ele><time>2026-04-26T08:56:09.642Z</time></trkpt><trkpt lat="44.2438933" lon="8.2527033"><ele>839.0</ele><time>2026-04-26T08:56:10.642Z</time></trkpt><trkpt lat="44.2439467" lon="8.252785"><ele>841.1666666666667</ele><time>2026-04-26T08:56:11.642Z</time></trkpt><trkpt lat="44.2439867" lon="8.2528717"><ele>843.3333333333334</ele><time>2026-04-26T08:56:12.642Z</time></trkpt><trkpt lat="44.2440233" lon="8.2529667"><ele>845.5</ele><time>2026-04-26T08:56:13.642Z</time></trkpt><trkpt lat="44.244055" lon="8.253075"><ele>847.6666666666667</ele><time>2026-04-26T08:56:14.642Z</time></trkpt><trkpt lat="44.2440917" lon="8.253185"><ele>849.8333333333334</ele><time>2026-04-26T08:56:15.642Z</time></trkpt><trkpt lat="44.2441217" lon="8.2532933"><ele>852.0</ele><time>2026-04-26T08:56:16.642Z</time></trkpt><trkpt lat="44.244145" lon="8.2533933"><ele>852.0</ele><time>2026-04-26T08:56:17.642Z</time></trkpt><trkpt lat="44.2441633" lon="8.2534933"><ele>852.0</ele><time>2026-04-26T08:56:18.642Z</time></trkpt><trkpt lat="44.24417" lon="8.253595"><ele>852.0</ele><time>2026-04-26T08:56:19.642Z</time></trkpt><trkpt lat="44.2441683" lon="8.253685"><ele>852.0</ele><time>2026-04-26T08:56:20.642Z</time></trkpt><trkpt lat="44.2441333" lon="8.253865"><ele>852.0</ele><time>2026-04-26T08:56:22.643Z</time></trkpt><trkpt lat="44.2441133" lon="8.253965"><ele>852.0</ele><time>2026-04-26T08:56:23.642Z</time></trkpt><trkpt lat="44.2440967" lon="8.254065"><ele>850.0</ele><time>2026-04-26T08:56:24.642Z</time></trkpt><trkpt lat="44.2440733" lon="8.2542083"><ele>848.0</ele><time>2026-04-26T08:56:26.642Z</time></trkpt><trkpt lat="44.24409" lon="8.25434"><ele>846.0</ele><time>2026-04-26T08:56:28.643Z</time></trkpt><trkpt lat="44.2441183" lon="8.2544733"><ele>844.0</ele><time>2026-04-26T08:56:30.642Z</time></trkpt><trkpt lat="44.244155" lon="8.2546167"><ele>842.0</ele><time>2026-04-26T08:56:32.642Z</time></trkpt><trkpt lat="44.244185" lon="8.2547917"><ele>841.1666666666667</ele><time>2026-04-26T08:56:34.642Z</time></trkpt><trkpt lat="44.2441967" lon="8.25489"><ele>840.3333333333334</ele><time>2026-04-26T08:56:35.642Z</time></trkpt><trkpt lat="44.244225" lon="8.2549833"><ele>839.5</ele><time>2026-04-26T08:56:36.642Z</time></trkpt><trkpt lat="44.2442433" lon="8.2550783"><ele>838.6666666666667</ele><time>2026-04-26T08:56:37.642Z</time></trkpt><trkpt lat="44.244265" lon="8.255165"><ele>837.8333333333334</ele><time>2026-04-26T08:56:38.642Z</time></trkpt><trkpt lat="44.2442917" lon="8.2552467"><ele>837.0</ele><time>2026-04-26T08:56:39.642Z</time></trkpt><trkpt lat="44.2443233" lon="8.2553967"><ele>837.0</ele><time>2026-04-26T08:56:41.642Z</time></trkpt><trkpt lat="44.2443367" lon="8.2555133"><ele>837.0</ele><time>2026-04-26T08:56:43.642Z</time></trkpt><trkpt lat="44.244325" lon="8.2556233"><ele>837.0</ele><time>2026-04-26T08:56:45.643Z</time></trkpt><trkpt lat="44.2442817" lon="8.2557417"><ele>837.0</ele><time>2026-04-26T08:56:47.642Z</time></trkpt><trkpt lat="44.244215" lon="8.25579"><ele>837.0</ele><time>2026-04-26T08:56:49.642Z</time></trkpt><trkpt lat="44.2441467" lon="8.25584"><ele>837.0</ele><time>2026-04-26T08:56:51.642Z</time></trkpt><trkpt lat="44.2440683" lon="8.2559133"><ele>836.6</ele><time>2026-04-26T08:56:53.642Z</time></trkpt><trkpt lat="44.2439933" lon="8.25596"><ele>836.2</ele><time>2026-04-26T08:56:55.643Z</time></trkpt><trkpt lat="44.2439317" lon="8.2560433"><ele>835.8</ele><time>2026-04-26T08:56:57.642Z</time></trkpt><trkpt lat="44.24388" lon="8.2561317"><ele>835.4</ele><time>2026-04-26T08:56:59.643Z</time></trkpt><trkpt lat="44.24383" lon="8.256245"><ele>835.0</ele><time>2026-04-26T08:57:01.643Z</time></trkpt><trkpt lat="44.2437833" lon="8.2563783"><ele>830.3333333333333</ele><time>2026-04-26T08:57:03.643Z</time></trkpt><trkpt lat="44.2437417" lon="8.2565217"><ele>825.6666666666666</ele><time>2026-04-26T08:57:05.642Z</time></trkpt><trkpt lat="44.2437067" lon="8.256645"><ele>821.0</ele><time>2026-04-26T08:57:07.642Z</time></trkpt><trkpt lat="44.2436967" lon="8.256735"><ele>816.3333333333333</ele><time>2026-04-26T08:57:09.643Z</time></trkpt><trkpt lat="44.2437167" lon="8.25682"><ele>811.6666666666666</ele><time>2026-04-26T08:57:12.642Z</time></trkpt><trkpt lat="44.2437767" lon="8.2569217"><ele>807.0</ele><time>2026-04-26T08:58:48.642Z</time></trkpt><trkpt lat="44.2438067" lon="8.2570283"><ele>807.0</ele><time>2026-04-26T08:58:50.642Z</time></trkpt><trkpt lat="44.2438417" lon="8.2571383"><ele>807.0</ele><time>2026-04-26T08:58:52.642Z</time></trkpt><trkpt lat="44.243885" lon="8.25725"><ele>807.0</ele><time>2026-04-26T08:58:54.642Z</time></trkpt><trkpt lat="44.2439267" lon="8.2573517"><ele>807.0</ele><time>2026-04-26T08:58:56.642Z</time></trkpt><trkpt lat="44.2439617" lon="8.2574283"><ele>807.0</ele><time>2026-04-26T08:58:58.642Z</time></trkpt><trkpt lat="44.244005" lon="8.2575667"><ele>807.0</ele><time>2026-04-26T08:59:13.643Z</time></trkpt><trkpt lat="44.2439683" lon="8.257655"><ele>805.0</ele><time>2026-04-26T08:59:15.644Z</time></trkpt><trkpt lat="44.2438867" lon="8.25775"><ele>803.0</ele><time>2026-04-26T08:59:17.643Z</time></trkpt><trkpt lat="44.2438133" lon="8.2578617"><ele>801.0</ele><time>2026-04-26T08:59:19.643Z</time></trkpt><trkpt lat="44.24378" lon="8.2579633"><ele>799.0</ele><time>2026-04-26T08:59:21.643Z</time></trkpt><trkpt lat="44.2437317" lon="8.2580933"><ele>797.0</ele><time>2026-04-26T08:59:23.643Z</time></trkpt><trkpt lat="44.2436733" lon="8.258215"><ele>796.2</ele><time>2026-04-26T08:59:25.643Z</time></trkpt><trkpt lat="44.2435983" lon="8.2583367"><ele>795.4000000000001</ele><time>2026-04-26T08:59:27.643Z</time></trkpt><trkpt lat="44.2435267" lon="8.258445"><ele>794.5999999999999</ele><time>2026-04-26T08:59:29.643Z</time></trkpt><trkpt lat="44.24347" lon="8.25851"><ele>793.8</ele><time>2026-04-26T08:59:31.643Z</time></trkpt><trkpt lat="44.2433933" lon="8.2585033"><ele>793.0</ele><time>2026-04-26T08:59:33.644Z</time></trkpt><trkpt lat="44.24331" lon="8.2584917"><ele>793.0</ele><time>2026-04-26T08:59:35.643Z</time></trkpt><trkpt lat="44.243225" lon="8.2585067"><ele>793.0</ele><time>2026-04-26T08:59:37.643Z</time></trkpt><trkpt lat="44.2431483" lon="8.258575"><ele>793.0</ele><time>2026-04-26T08:59:39.643Z</time></trkpt><trkpt lat="44.2430617" lon="8.258655"><ele>793.0</ele><time>2026-04-26T08:59:41.643Z</time></trkpt><trkpt lat="44.24297" lon="8.2587567"><ele>793.0</ele><time>2026-04-26T08:59:43.643Z</time></trkpt><trkpt lat="44.2428917" lon="8.2588433"><ele>791.5999999999999</ele><time>2026-04-26T08:59:45.643Z</time></trkpt><trkpt lat="44.2428183" lon="8.258925"><ele>790.1999999999999</ele><time>2026-04-26T08:59:47.643Z</time></trkpt><trkpt lat="44.24275" lon="8.2590033"><ele>788.8</ele><time>2026-04-26T08:59:49.643Z</time></trkpt><trkpt lat="44.2426533" lon="8.2590467"><ele>787.4</ele><time>2026-04-26T08:59:51.643Z</time></trkpt><trkpt lat="44.2425367" lon="8.25904"><ele>786.0</ele><time>2026-04-26T08:59:53.643Z</time></trkpt><trkpt lat="44.2424633" lon="8.25905"><ele>786.0</ele><time>2026-04-26T08:59:54.643Z</time></trkpt><trkpt lat="44.2423983" lon="8.259065"><ele>786.0</ele><time>2026-04-26T08:59:55.643Z</time></trkpt><trkpt lat="44.24229" lon="8.2591067"><ele>786.0</ele><time>2026-04-26T08:59:57.643Z</time></trkpt><trkpt lat="44.242225" lon="8.2591433"><ele>786.0</ele><time>2026-04-26T08:59:58.643Z</time></trkpt><trkpt lat="44.2421467" lon="8.2591833"><ele>786.0</ele><time>2026-04-26T08:59:59.643Z</time></trkpt><trkpt lat="44.242075" lon="8.259225"><ele>786.0</ele><time>2026-04-26T09:00:00.643Z</time></trkpt><trkpt lat="44.2420117" lon="8.2592633"><ele>781.5999999999999</ele><time>2026-04-26T09:00:01.643Z</time></trkpt><trkpt lat="44.2419267" lon="8.2593333"><ele>777.2</ele><time>2026-04-26T09:00:03.644Z</time></trkpt><trkpt lat="44.24187" lon="8.2594417"><ele>772.8</ele><time>2026-04-26T09:00:05.643Z</time></trkpt><trkpt lat="44.241835" lon="8.2595417"><ele>768.4000000000001</ele><time>2026-04-26T09:00:07.643Z</time></trkpt><trkpt lat="44.2418683" lon="8.2596417"><ele>764.0</ele><time>2026-04-26T09:00:09.643Z</time></trkpt><trkpt lat="44.2419517" lon="8.2597583"><ele>763.8000000000001</ele><time>2026-04-26T09:00:11.643Z</time></trkpt><trkpt lat="44.2419967" lon="8.259825"><ele>763.6</ele><time>2026-04-26T09:00:12.643Z</time></trkpt><trkpt lat="44.24209" lon="8.2599133"><ele>763.4</ele><time>2026-04-26T09:00:14.643Z</time></trkpt><trkpt lat="44.2421683" lon="8.2600167"><ele>763.2</ele><time>2026-04-26T09:00:16.643Z</time></trkpt><trkpt lat="44.2422583" lon="8.2601167"><ele>763.0</ele><time>2026-04-26T09:00:18.643Z</time></trkpt><trkpt lat="44.2423133" lon="8.26016"><ele>766.5999999999999</ele><time>2026-04-26T09:00:19.644Z</time></trkpt><trkpt lat="44.2424333" lon="8.2602183"><ele>770.1999999999999</ele><time>2026-04-26T09:00:21.643Z</time></trkpt><trkpt lat="44.2424917" lon="8.2602583"><ele>773.8</ele><time>2026-04-26T09:00:22.643Z</time></trkpt><trkpt lat="44.2425733" lon="8.26036"><ele>777.4</ele><time>2026-04-26T09:00:24.643Z</time></trkpt><trkpt lat="44.2426383" lon="8.26044"><ele>781.0</ele><time>2026-04-26T09:00:26.643Z</time></trkpt><trkpt lat="44.2426817" lon="8.2605383"><ele>777.1999999999999</ele><time>2026-04-26T09:00:28.643Z</time></trkpt><trkpt lat="44.2427083" lon="8.260695"><ele>773.4</ele><time>2026-04-26T09:00:30.643Z</time></trkpt><trkpt lat="44.24273" lon="8.2608317"><ele>769.6</ele><time>2026-04-26T09:00:32.643Z</time></trkpt><trkpt lat="44.24274" lon="8.2609783"><ele>765.8</ele><time>2026-04-26T09:00:34.643Z</time></trkpt><trkpt lat="44.2427733" lon="8.2611133"><ele>762.0</ele><time>2026-04-26T09:00:36.643Z</time></trkpt><trkpt lat="44.24278" lon="8.2612517"><ele>762.0</ele><time>2026-04-26T09:00:38.643Z</time></trkpt><trkpt lat="44.2427583" lon="8.26134"><ele>762.0</ele><time>2026-04-26T09:00:39.643Z</time></trkpt><trkpt lat="44.2427283" lon="8.2614267"><ele>762.0</ele><time>2026-04-26T09:00:40.643Z</time></trkpt><trkpt lat="44.2426717" lon="8.261565"><ele>762.0</ele><time>2026-04-26T09:00:42.643Z</time></trkpt><trkpt lat="44.2426283" lon="8.2616717"><ele>762.0</ele><time>2026-04-26T09:00:44.643Z</time></trkpt><trkpt lat="44.2426017" lon="8.2617667"><ele>762.0</ele><time>2026-04-26T09:00:46.643Z</time></trkpt><trkpt lat="44.2425667" lon="8.2618983"><ele>760.4000000000001</ele><time>2026-04-26T09:01:01.643Z</time></trkpt><trkpt lat="44.24258" lon="8.2620717"><ele>758.8000000000001</ele><time>2026-04-26T09:01:03.644Z</time></trkpt><trkpt lat="44.2426033" lon="8.2621583"><ele>757.2</ele><time>2026-04-26T09:01:04.643Z</time></trkpt><trkpt lat="44.2426683" lon="8.26229"><ele>755.6</ele><time>2026-04-26T09:01:06.643Z</time></trkpt><trkpt lat="44.2427367" lon="8.2623983"><ele>754.0</ele><time>2026-04-26T09:01:08.643Z</time></trkpt><trkpt lat="44.24278" lon="8.26248"><ele>753.3333333333334</ele><time>2026-04-26T09:01:10.643Z</time></trkpt><trkpt lat="44.24277" lon="8.2625733"><ele>752.6666666666667</ele><time>2026-04-26T09:01:12.643Z</time></trkpt><trkpt lat="44.242725" lon="8.2627317"><ele>752.0</ele><time>2026-04-26T09:01:14.643Z</time></trkpt><trkpt lat="44.2426983" lon="8.26282"><ele>751.3333333333334</ele><time>2026-04-26T09:01:15.643Z</time></trkpt><trkpt lat="44.2426767" lon="8.2629083"><ele>750.6666666666666</ele><time>2026-04-26T09:01:16.643Z</time></trkpt><trkpt lat="44.242655" lon="8.2630667"><ele>750.0</ele><time>2026-04-26T09:01:18.643Z</time></trkpt><trkpt lat="44.2426533" lon="8.263165"><ele>749.5</ele><time>2026-04-26T09:01:19.643Z</time></trkpt><trkpt lat="44.24266" lon="8.2632533"><ele>749.0</ele><time>2026-04-26T09:01:20.643Z</time></trkpt><trkpt lat="44.2427" lon="8.2634017"><ele>748.5</ele><time>2026-04-26T09:01:22.643Z</time></trkpt><trkpt lat="44.242705" lon="8.2635133"><ele>748.0</ele><time>2026-04-26T09:01:24.643Z</time></trkpt><trkpt lat="44.24268" lon="8.2636"><ele>747.5</ele><time>2026-04-26T09:01:26.643Z</time></trkpt><trkpt lat="44.2425833" lon="8.2636117"><ele>747.0</ele><time>2026-04-26T09:01:28.643Z</time></trkpt><trkpt lat="44.242465" lon="8.2635633"><ele>747.0</ele><time>2026-04-26T09:01:30.643Z</time></trkpt><trkpt lat="44.2423933" lon="8.2635567"><ele>747.0</ele><time>2026-04-26T09:01:31.643Z</time></trkpt><trkpt lat="44.242325" lon="8.263545"><ele>747.0</ele><time>2026-04-26T09:01:32.643Z</time></trkpt><trkpt lat="44.24225" lon="8.2635417"><ele>747.0</ele><time>2026-04-26T09:01:33.643Z</time></trkpt><trkpt lat="44.24213" lon="8.26353"><ele>747.0</ele><time>2026-04-26T09:01:35.643Z</time></trkpt><trkpt lat="44.2420233" lon="8.263525"><ele>747.0</ele><time>2026-04-26T09:01:37.643Z</time></trkpt><trkpt lat="44.2419167" lon="8.2635433"><ele>740.6</ele><time>2026-04-26T09:01:39.643Z</time></trkpt><trkpt lat="44.24183" lon="8.26359"><ele>734.2</ele><time>2026-04-26T09:01:41.643Z</time></trkpt><trkpt lat="44.2417417" lon="8.2636433"><ele>727.8</ele><time>2026-04-26T09:01:43.643Z</time></trkpt><trkpt lat="44.2416383" lon="8.2636833"><ele>721.4</ele><time>2026-04-26T09:01:45.643Z</time></trkpt><trkpt lat="44.2415817" lon="8.2637533"><ele>715.0</ele><time>2026-04-26T09:01:47.643Z</time></trkpt><trkpt lat="44.24152" lon="8.2638283"><ele>715.0</ele><time>2026-04-26T09:01:49.643Z</time></trkpt><trkpt lat="44.24147" lon="8.2639283"><ele>715.0</ele><time>2026-04-26T09:01:51.643Z</time></trkpt><trkpt lat="44.2414083" lon="8.26405"><ele>715.0</ele><time>2026-04-26T09:01:53.643Z</time></trkpt><trkpt lat="44.2413217" lon="8.2641683"><ele>715.0</ele><time>2026-04-26T09:01:55.643Z</time></trkpt><trkpt lat="44.2412767" lon="8.264235"><ele>715.0</ele><time>2026-04-26T09:01:56.643Z</time></trkpt><trkpt lat="44.2412367" lon="8.2643167"><ele>711.5</ele><time>2026-04-26T09:01:57.644Z</time></trkpt><trkpt lat="44.2411733" lon="8.264465"><ele>708.0</ele><time>2026-04-26T09:01:59.643Z</time></trkpt><trkpt lat="44.24111" lon="8.2646083"><ele>704.5</ele><time>2026-04-26T09:02:01.643Z</time></trkpt><trkpt lat="44.2410633" lon="8.2647417"><ele>701.0</ele><time>2026-04-26T09:02:03.643Z</time></trkpt><trkpt lat="44.24103" lon="8.26488"><ele>701.0</ele><time>2026-04-26T09:02:05.643Z</time></trkpt><trkpt lat="44.2410167" lon="8.2650117"><ele>701.0</ele><time>2026-04-26T09:02:07.643Z</time></trkpt><trkpt lat="44.2410317" lon="8.26516"><ele>701.0</ele><time>2026-04-26T09:02:09.643Z</time></trkpt><trkpt lat="44.2410383" lon="8.265305"><ele>701.0</ele><time>2026-04-26T09:02:11.643Z</time></trkpt><trkpt lat="44.2410183" lon="8.265455"><ele>701.0</ele><time>2026-04-26T09:02:13.643Z</time></trkpt><trkpt lat="44.24099" lon="8.2656283"><ele>702.0</ele><time>2026-04-26T09:02:15.643Z</time></trkpt><trkpt lat="44.2409767" lon="8.2657183"><ele>703.0</ele><time>2026-04-26T09:02:16.643Z</time></trkpt><trkpt lat="44.2409517" lon="8.2658833"><ele>704.0</ele><time>2026-04-26T09:02:18.643Z</time></trkpt><trkpt lat="44.24092" lon="8.2659767"><ele>705.0</ele><time>2026-04-26T09:02:20.643Z</time></trkpt><trkpt lat="44.2408583" lon="8.2660167"><ele>706.0</ele><time>2026-04-26T09:02:22.643Z</time></trkpt><trkpt lat="44.2407717" lon="8.2659567"><ele>707.0</ele><time>2026-04-26T09:02:24.643Z</time></trkpt><trkpt lat="44.2406675" lon="8.2658821"><ele>705.8</ele><time>2026-04-26T09:02:26.643Z</time></trkpt><trkpt lat="44.2405576" lon="8.2658711"><ele>704.6</ele><time>2026-04-26T09:02:28.643Z</time></trkpt><trkpt lat="44.2404631" lon="8.2659195"><ele>703.4</ele><time>2026-04-26T09:02:30.643Z</time></trkpt><trkpt lat="44.240361" lon="8.2659807"><ele>702.1999999999999</ele><time>2026-04-26T09:02:32.643Z</time></trkpt><trkpt lat="44.2402424" lon="8.2660139"><ele>701.0</ele><time>2026-04-26T09:02:34.643Z</time></trkpt><trkpt lat="44.2401757" lon="8.2660066"><ele>701.0</ele><time>2026-04-26T09:02:35.643Z</time></trkpt><trkpt lat="44.2401118" lon="8.2659938"><ele>701.0</ele><time>2026-04-26T09:02:36.643Z</time></trkpt><trkpt lat="44.2399856" lon="8.2659848"><ele>701.0</ele><time>2026-04-26T09:02:38.643Z</time></trkpt><trkpt lat="44.2399104" lon="8.2659838"><ele>701.0</ele><time>2026-04-26T09:02:39.643Z</time></trkpt><trkpt lat="44.2398181" lon="8.2659861"><ele>701.0</ele><time>2026-04-26T09:02:40.643Z</time></trkpt><trkpt lat="44.2397206" lon="8.2659829"><ele>702.0</ele><time>2026-04-26T09:02:41.644Z</time></trkpt><trkpt lat="44.2396331" lon="8.2659746"><ele>703.0</ele><time>2026-04-26T09:02:42.643Z</time></trkpt><trkpt lat="44.2395458" lon="8.2659607"><ele>704.0</ele><time>2026-04-26T09:02:43.643Z</time></trkpt><trkpt lat="44.2394626" lon="8.2659459"><ele>705.0</ele><time>2026-04-26T09:02:44.643Z</time></trkpt><trkpt lat="44.2393812" lon="8.2659224"><ele>706.0</ele><time>2026-04-26T09:02:45.643Z</time></trkpt><trkpt lat="44.2392983" lon="8.2658928"><ele>707.0</ele><time>2026-04-26T09:02:46.643Z</time></trkpt><trkpt lat="44.2392221" lon="8.2658621"><ele>707.0</ele><time>2026-04-26T09:02:47.643Z</time></trkpt><trkpt lat="44.2391563" lon="8.2658358"><ele>707.0</ele><time>2026-04-26T09:02:48.643Z</time></trkpt><trkpt lat="44.2390377" lon="8.2657933"><ele>707.0</ele><time>2026-04-26T09:02:50.643Z</time></trkpt><trkpt lat="44.2389598" lon="8.2657874"><ele>707.0</ele><time>2026-04-26T09:02:51.643Z</time></trkpt><trkpt lat="44.2388731" lon="8.2657865"><ele>707.0</ele><time>2026-04-26T09:02:52.643Z</time></trkpt><trkpt lat="44.2387782" lon="8.265783"><ele>707.5</ele><time>2026-04-26T09:02:53.643Z</time></trkpt><trkpt lat="44.2386908" lon="8.2657832"><ele>708.0</ele><time>2026-04-26T09:02:54.643Z</time></trkpt><trkpt lat="44.2386088" lon="8.2657721"><ele>708.5</ele><time>2026-04-26T09:02:55.643Z</time></trkpt><trkpt lat="44.2385342" lon="8.2657511"><ele>709.0</ele><time>2026-04-26T09:02:56.643Z</time></trkpt><trkpt lat="44.2384697" lon="8.2657342"><ele>709.5</ele><time>2026-04-26T09:02:57.643Z</time></trkpt><trkpt lat="44.2383515" lon="8.2657469"><ele>710.0</ele><time>2026-04-26T09:02:59.643Z</time></trkpt><trkpt lat="44.2382869" lon="8.2657711"><ele>710.0</ele><time>2026-04-26T09:03:00.643Z</time></trkpt><trkpt lat="44.2382213" lon="8.2658059"><ele>710.0</ele><time>2026-04-26T09:03:01.643Z</time></trkpt><trkpt lat="44.2381463" lon="8.26585"><ele>710.0</ele><time>2026-04-26T09:03:02.643Z</time></trkpt><trkpt lat="44.2380721" lon="8.2658865"><ele>710.0</ele><time>2026-04-26T09:03:03.643Z</time></trkpt><trkpt lat="44.2380018" lon="8.2659159"><ele>710.0</ele><time>2026-04-26T09:03:04.643Z</time></trkpt><trkpt lat="44.2379338" lon="8.2659348"><ele>710.0</ele><time>2026-04-26T09:03:05.643Z</time></trkpt><trkpt lat="44.2378665" lon="8.2659389"><ele>710.0</ele><time>2026-04-26T09:03:06.643Z</time></trkpt><trkpt lat="44.2377888" lon="8.2659366"><ele>707.6</ele><time>2026-04-26T09:03:07.643Z</time></trkpt><trkpt lat="44.2376999" lon="8.2659452"><ele>705.2</ele><time>2026-04-26T09:03:08.643Z</time></trkpt><trkpt lat="44.2376112" lon="8.2659681"><ele>702.8</ele><time>2026-04-26T09:03:09.643Z</time></trkpt><trkpt lat="44.2375246" lon="8.2660063"><ele>700.4</ele><time>2026-04-26T09:03:10.643Z</time></trkpt><trkpt lat="44.23744" lon="8.2660618"><ele>698.0</ele><time>2026-04-26T09:03:11.643Z</time></trkpt><trkpt lat="44.2373538" lon="8.2661342"><ele>697.1666666666666</ele><time>2026-04-26T09:03:12.643Z</time></trkpt><trkpt lat="44.2372796" lon="8.2662165"><ele>696.3333333333333</ele><time>2026-04-26T09:03:13.643Z</time></trkpt><trkpt lat="44.2372132" lon="8.2662976"><ele>695.5</ele><time>2026-04-26T09:03:14.643Z</time></trkpt><trkpt lat="44.2371418" lon="8.2663608"><ele>694.6666666666666</ele><time>2026-04-26T09:03:15.643Z</time></trkpt><trkpt lat="44.2370658" lon="8.2664175"><ele>693.8333333333334</ele><time>2026-04-26T09:03:16.644Z</time></trkpt><trkpt lat="44.236996" lon="8.2664715"><ele>693.0</ele><time>2026-04-26T09:03:17.643Z</time></trkpt><trkpt lat="44.2369263" lon="8.2665236"><ele>693.0</ele><time>2026-04-26T09:03:18.643Z</time></trkpt><trkpt lat="44.2368607" lon="8.2665685"><ele>693.0</ele><time>2026-04-26T09:03:19.643Z</time></trkpt><trkpt lat="44.2368086" lon="8.2666204"><ele>693.0</ele><time>2026-04-26T09:03:20.643Z</time></trkpt><trkpt lat="44.2367587" lon="8.2666824"><ele>693.0</ele><time>2026-04-26T09:03:21.644Z</time></trkpt><trkpt lat="44.2367103" lon="8.2667558"><ele>693.0</ele><time>2026-04-26T09:03:22.643Z</time></trkpt><trkpt lat="44.2366571" lon="8.2668418"><ele>693.0</ele><time>2026-04-26T09:03:23.643Z</time></trkpt><trkpt lat="44.2366037" lon="8.2669341"><ele>693.0</ele><time>2026-04-26T09:03:24.643Z</time></trkpt><trkpt lat="44.2365323" lon="8.267038"><ele>689.75</ele><time>2026-04-26T09:03:25.643Z</time></trkpt><trkpt lat="44.2364356" lon="8.2671488"><ele>686.5</ele><time>2026-04-26T09:03:26.643Z</time></trkpt><trkpt lat="44.2363279" lon="8.2672564"><ele>683.25</ele><time>2026-04-26T09:03:27.643Z</time></trkpt><trkpt lat="44.2362229" lon="8.2673571"><ele>680.0</ele><time>2026-04-26T09:03:28.643Z</time></trkpt><trkpt lat="44.2361231" lon="8.2674465"><ele>680.0</ele><time>2026-04-26T09:03:29.643Z</time></trkpt><trkpt lat="44.2360383" lon="8.267535"><ele>680.0</ele><time>2026-04-26T09:03:30.643Z</time></trkpt><trkpt lat="44.2359674" lon="8.267619"><ele>680.0</ele><time>2026-04-26T09:03:31.643Z</time></trkpt><trkpt lat="44.2359093" lon="8.267703"><ele>680.0</ele><time>2026-04-26T09:03:32.643Z</time></trkpt><trkpt lat="44.2358574" lon="8.2677835"><ele>680.0</ele><time>2026-04-26T09:03:33.644Z</time></trkpt><trkpt lat="44.2357946" lon="8.2678511"><ele>680.0</ele><time>2026-04-26T09:03:34.643Z</time></trkpt><trkpt lat="44.2357311" lon="8.2679036"><ele>680.0</ele><time>2026-04-26T09:03:35.643Z</time></trkpt><trkpt lat="44.2356741" lon="8.267952"><ele>680.0</ele><time>2026-04-26T09:03:36.643Z</time></trkpt><trkpt lat="44.2355878" lon="8.2680534"><ele>680.0</ele><time>2026-04-26T09:03:38.644Z</time></trkpt><trkpt lat="44.2355446" lon="8.2681765"><ele>680.0</ele><time>2026-04-26T09:03:40.643Z</time></trkpt><trkpt lat="44.2355316" lon="8.268298"><ele>680.0</ele><time>2026-04-26T09:03:42.643Z</time></trkpt><trkpt lat="44.2355232" lon="8.2684056"><ele>680.0</ele><time>2026-04-26T09:03:44.643Z</time></trkpt><trkpt lat="44.2354858" lon="8.2684989"><ele>676.8333333333333</ele><time>2026-04-26T09:03:46.643Z</time></trkpt><trkpt lat="44.2354195" lon="8.268611"><ele>673.6666666666666</ele><time>2026-04-26T09:03:48.643Z</time></trkpt><trkpt lat="44.2353822" lon="8.2686871"><ele>670.5</ele><time>2026-04-26T09:03:49.643Z</time></trkpt><trkpt lat="44.2353391" lon="8.2687641"><ele>667.3333333333334</ele><time>2026-04-26T09:03:50.643Z</time></trkpt><trkpt lat="44.2352909" lon="8.2688405"><ele>664.1666666666667</ele><time>2026-04-26T09:03:51.643Z</time></trkpt><trkpt lat="44.2352427" lon="8.2689227"><ele>661.0</ele><time>2026-04-26T09:03:52.643Z</time></trkpt><trkpt lat="44.2351849" lon="8.2690128"><ele>661.0</ele><time>2026-04-26T09:03:53.643Z</time></trkpt><trkpt lat="44.2351338" lon="8.2690988"><ele>661.0</ele><time>2026-04-26T09:03:54.644Z</time></trkpt><trkpt lat="44.2350902" lon="8.2691799"><ele>661.0</ele><time>2026-04-26T09:03:55.643Z</time></trkpt><trkpt lat="44.2350561" lon="8.2692597"><ele>661.0</ele><time>2026-04-26T09:03:56.643Z</time></trkpt><trkpt lat="44.2350247" lon="8.269342"><ele>661.0</ele><time>2026-04-26T09:03:57.643Z</time></trkpt><trkpt lat="44.234969" lon="8.26949"><ele>661.0</ele><time>2026-04-26T09:03:59.643Z</time></trkpt><trkpt lat="44.2349239" lon="8.2695571"><ele>661.0</ele><time>2026-04-26T09:04:00.643Z</time></trkpt><trkpt lat="44.2348514" lon="8.2696893"><ele>661.0</ele><time>2026-04-26T09:04:02.643Z</time></trkpt><trkpt lat="44.2348044" lon="8.2698305"><ele>661.0</ele><time>2026-04-26T09:04:04.643Z</time></trkpt><trkpt lat="44.2347889" lon="8.269945"><ele>661.0</ele><time>2026-04-26T09:04:06.643Z</time></trkpt><trkpt lat="44.2347142" lon="8.2699963"><ele>661.0</ele><time>2026-04-26T09:04:10.643Z</time></trkpt><trkpt lat="44.2346258" lon="8.2699661"><ele>658.8</ele><time>2026-04-26T09:04:12.643Z</time></trkpt><trkpt lat="44.2345598" lon="8.2699529"><ele>656.5999999999999</ele><time>2026-04-26T09:04:13.643Z</time></trkpt><trkpt lat="44.2344812" lon="8.2699388"><ele>654.4</ele><time>2026-04-26T09:04:14.643Z</time></trkpt><trkpt lat="44.2343868" lon="8.2699099"><ele>652.2</ele><time>2026-04-26T09:04:15.643Z</time></trkpt><trkpt lat="44.2342778" lon="8.2698735"><ele>650.0</ele><time>2026-04-26T09:04:16.643Z</time></trkpt><trkpt lat="44.234177" lon="8.2698345"><ele>650.0</ele><time>2026-04-26T09:04:17.643Z</time></trkpt><trkpt lat="44.2340987" lon="8.269799"><ele>650.0</ele><time>2026-04-26T09:04:18.643Z</time></trkpt><trkpt lat="44.2340331" lon="8.2697755"><ele>650.0</ele><time>2026-04-26T09:04:19.643Z</time></trkpt><trkpt lat="44.233929" lon="8.2697835"><ele>650.0</ele><time>2026-04-26T09:04:21.643Z</time></trkpt><trkpt lat="44.2338435" lon="8.2697883"><ele>650.0</ele><time>2026-04-26T09:04:23.643Z</time></trkpt><trkpt lat="44.2337764" lon="8.2697796"><ele>650.0</ele><time>2026-04-26T09:04:25.643Z</time></trkpt><trkpt lat="44.2336833" lon="8.2698283"><ele>648.5</ele><time>2026-04-26T09:10:04.643Z</time></trkpt><trkpt lat="44.2335967" lon="8.26987"><ele>647.0</ele><time>2026-04-26T09:10:07.643Z</time></trkpt><trkpt lat="44.2335167" lon="8.269925"><ele>645.5</ele><time>2026-04-26T09:10:09.643Z</time></trkpt><trkpt lat="44.2334533" lon="8.2700433"><ele>644.0</ele><time>2026-04-26T09:10:11.643Z</time></trkpt><trkpt lat="44.2334217" lon="8.2701267"><ele>642.5</ele><time>2026-04-26T09:10:12.643Z</time></trkpt><trkpt lat="44.2333967" lon="8.2702417"><ele>641.0</ele><time>2026-04-26T09:10:13.643Z</time></trkpt><trkpt lat="44.23337" lon="8.2703417"><ele>641.0</ele><time>2026-04-26T09:10:14.643Z</time></trkpt><trkpt lat="44.23333" lon="8.2704467"><ele>641.0</ele><time>2026-04-26T09:10:15.643Z</time></trkpt><trkpt lat="44.2332933" lon="8.270555"><ele>641.0</ele><time>2026-04-26T09:10:16.644Z</time></trkpt><trkpt lat="44.2332567" lon="8.2706533"><ele>641.0</ele><time>2026-04-26T09:10:17.643Z</time></trkpt><trkpt lat="44.23322" lon="8.2707417"><ele>641.0</ele><time>2026-04-26T09:10:18.643Z</time></trkpt><trkpt lat="44.2331967" lon="8.2708367"><ele>641.0</ele><time>2026-04-26T09:10:19.643Z</time></trkpt><trkpt lat="44.2331717" lon="8.2709517"><ele>643.5</ele><time>2026-04-26T09:10:20.643Z</time></trkpt><trkpt lat="44.2331517" lon="8.2710383"><ele>646.0</ele><time>2026-04-26T09:10:21.643Z</time></trkpt><trkpt lat="44.233145" lon="8.2712033"><ele>648.5</ele><time>2026-04-26T09:10:23.644Z</time></trkpt><trkpt lat="44.2331583" lon="8.271295"><ele>651.0</ele><time>2026-04-26T09:10:24.643Z</time></trkpt><trkpt lat="44.23318" lon="8.27139"><ele>653.5</ele><time>2026-04-26T09:10:25.643Z</time></trkpt><trkpt lat="44.2331917" lon="8.2714917"><ele>656.0</ele><time>2026-04-26T09:10:26.643Z</time></trkpt><trkpt lat="44.2332" lon="8.2715967"><ele>657.2857142857142</ele><time>2026-04-26T09:10:27.644Z</time></trkpt><trkpt lat="44.23321" lon="8.271715"><ele>658.5714285714286</ele><time>2026-04-26T09:10:28.643Z</time></trkpt><trkpt lat="44.2332183" lon="8.2718283"><ele>659.8571428571429</ele><time>2026-04-26T09:10:29.643Z</time></trkpt><trkpt lat="44.2332167" lon="8.2719217"><ele>661.1428571428571</ele><time>2026-04-26T09:10:30.643Z</time></trkpt><trkpt lat="44.2332317" lon="8.2720183"><ele>662.4285714285714</ele><time>2026-04-26T09:10:31.643Z</time></trkpt><trkpt lat="44.2332517" lon="8.2721017"><ele>663.7142857142857</ele><time>2026-04-26T09:10:32.643Z</time></trkpt><trkpt lat="44.233285" lon="8.272185"><ele>665.0</ele><time>2026-04-26T09:10:33.643Z</time></trkpt><trkpt lat="44.2333317" lon="8.272265"><ele>665.5</ele><time>2026-04-26T09:10:34.644Z</time></trkpt><trkpt lat="44.2333867" lon="8.2723517"><ele>666.0</ele><time>2026-04-26T09:10:35.643Z</time></trkpt><trkpt lat="44.2334367" lon="8.2724417"><ele>666.5</ele><time>2026-04-26T09:10:36.643Z</time></trkpt><trkpt lat="44.2334633" lon="8.2725333"><ele>667.0</ele><time>2026-04-26T09:10:37.643Z</time></trkpt><trkpt lat="44.2334933" lon="8.2726333"><ele>667.5</ele><time>2026-04-26T09:10:38.643Z</time></trkpt><trkpt lat="44.23351" lon="8.2727383"><ele>668.0</ele><time>2026-04-26T09:10:39.643Z</time></trkpt><trkpt lat="44.2335217" lon="8.2728317"><ele>668.0</ele><time>2026-04-26T09:10:40.643Z</time></trkpt><trkpt lat="44.23357" lon="8.2730183"><ele>668.0</ele><time>2026-04-26T09:10:42.643Z</time></trkpt><trkpt lat="44.2336333" lon="8.2731417"><ele>668.0</ele><time>2026-04-26T09:10:44.643Z</time></trkpt><trkpt lat="44.23374" lon="8.2732233"><ele>668.0</ele><time>2026-04-26T09:10:46.643Z</time></trkpt><trkpt lat="44.233805" lon="8.27326"><ele>668.0</ele><time>2026-04-26T09:10:47.643Z</time></trkpt><trkpt lat="44.2338667" lon="8.273305"><ele>666.8333333333333</ele><time>2026-04-26T09:10:48.643Z</time></trkpt><trkpt lat="44.23392" lon="8.2733867"><ele>665.6666666666666</ele><time>2026-04-26T09:10:49.643Z</time></trkpt><trkpt lat="44.2339783" lon="8.2734617"><ele>664.5</ele><time>2026-04-26T09:10:50.643Z</time></trkpt><trkpt lat="44.2340367" lon="8.2735233"><ele>663.3333333333334</ele><time>2026-04-26T09:10:51.643Z</time></trkpt><trkpt lat="44.2340917" lon="8.2735767"><ele>662.1666666666667</ele><time>2026-04-26T09:10:52.644Z</time></trkpt><trkpt lat="44.23419" lon="8.2736583"><ele>661.0</ele><time>2026-04-26T09:10:54.643Z</time></trkpt><trkpt lat="44.2342367" lon="8.2737767"><ele>665.0</ele><time>2026-04-26T09:10:56.643Z</time></trkpt><trkpt lat="44.2342467" lon="8.273865"><ele>669.0</ele><time>2026-04-26T09:10:57.643Z</time></trkpt><trkpt lat="44.2342617" lon="8.2739817"><ele>673.0</ele><time>2026-04-26T09:10:58.643Z</time></trkpt><trkpt lat="44.2342883" lon="8.2741033"><ele>677.0</ele><time>2026-04-26T09:10:59.643Z</time></trkpt><trkpt lat="44.2343117" lon="8.2742483"><ele>681.0</ele><time>2026-04-26T09:11:00.643Z</time></trkpt><trkpt lat="44.2343417" lon="8.2744083"><ele>681.0</ele><time>2026-04-26T09:11:01.643Z</time></trkpt><trkpt lat="44.23437" lon="8.2745667"><ele>681.0</ele><time>2026-04-26T09:11:02.643Z</time></trkpt><trkpt lat="44.234405" lon="8.27472"><ele>681.0</ele><time>2026-04-26T09:11:03.643Z</time></trkpt><trkpt lat="44.2344333" lon="8.2748617"><ele>681.0</ele><time>2026-04-26T09:11:04.643Z</time></trkpt><trkpt lat="44.23446" lon="8.274995"><ele>681.0</ele><time>2026-04-26T09:11:05.643Z</time></trkpt><trkpt lat="44.23448" lon="8.275125"><ele>680.5714285714287</ele><time>2026-04-26T09:11:06.643Z</time></trkpt><trkpt lat="44.2344917" lon="8.27522"><ele>680.1428571428571</ele><time>2026-04-26T09:11:07.643Z</time></trkpt><trkpt lat="44.2345033" lon="8.275315"><ele>679.7142857142858</ele><time>2026-04-26T09:11:08.643Z</time></trkpt><trkpt lat="44.2345283" lon="8.2754067"><ele>679.2857142857143</ele><time>2026-04-26T09:11:09.643Z</time></trkpt><trkpt lat="44.2345633" lon="8.2755017"><ele>678.8571428571429</ele><time>2026-04-26T09:11:10.643Z</time></trkpt><trkpt lat="44.2346" lon="8.275605"><ele>678.4285714285714</ele><time>2026-04-26T09:11:11.644Z</time></trkpt><trkpt lat="44.23463" lon="8.2756917"><ele>678.0</ele><time>2026-04-26T09:11:12.643Z</time></trkpt><trkpt lat="44.23466" lon="8.275845"><ele>677.8333333333334</ele><time>2026-04-26T09:11:14.644Z</time></trkpt><trkpt lat="44.2346717" lon="8.2759883"><ele>677.6666666666666</ele><time>2026-04-26T09:11:16.643Z</time></trkpt><trkpt lat="44.2346817" lon="8.2760767"><ele>677.5</ele><time>2026-04-26T09:11:17.643Z</time></trkpt><trkpt lat="44.2346967" lon="8.2762467"><ele>677.3333333333333</ele><time>2026-04-26T09:11:19.643Z</time></trkpt><trkpt lat="44.2347083" lon="8.2763333"><ele>677.1666666666666</ele><time>2026-04-26T09:11:20.644Z</time></trkpt><trkpt lat="44.23472" lon="8.2764233"><ele>677.0</ele><time>2026-04-26T09:11:21.643Z</time></trkpt><trkpt lat="44.23475" lon="8.2765833"><ele>677.0</ele><time>2026-04-26T09:11:23.643Z</time></trkpt><trkpt lat="44.2347967" lon="8.2767067"><ele>677.0</ele><time>2026-04-26T09:11:25.643Z</time></trkpt><trkpt lat="44.2348433" lon="8.27681"><ele>677.0</ele><time>2026-04-26T09:11:27.643Z</time></trkpt><trkpt lat="44.2348933" lon="8.276882"><ele>677.0</ele><time>2026-04-26T09:11:29.643Z</time></trkpt><trkpt lat="44.2349374" lon="8.2769709"><ele>677.0</ele><time>2026-04-26T09:11:31.643Z</time></trkpt><trkpt lat="44.2349837" lon="8.2771001"><ele>677.0</ele><time>2026-04-26T09:11:33.643Z</time></trkpt><trkpt lat="44.2350304" lon="8.2772384"><ele>685.0</ele><time>2026-04-26T09:11:35.643Z</time></trkpt><trkpt lat="44.2350917" lon="8.2773727"><ele>693.0</ele><time>2026-04-26T09:11:37.644Z</time></trkpt><trkpt lat="44.2351718" lon="8.2774904"><ele>701.0</ele><time>2026-04-26T09:11:39.643Z</time></trkpt><trkpt lat="44.2352681" lon="8.2775738"><ele>709.0</ele><time>2026-04-26T09:11:41.643Z</time></trkpt><trkpt lat="44.2353799" lon="8.2776289"><ele>709.0</ele><time>2026-04-26T09:11:43.643Z</time></trkpt><trkpt lat="44.2354559" lon="8.2776566"><ele>709.0</ele><time>2026-04-26T09:11:44.643Z</time></trkpt><trkpt lat="44.2355434" lon="8.2776814"><ele>709.0</ele><time>2026-04-26T09:11:45.643Z</time></trkpt><trkpt lat="44.2356423" lon="8.2777072"><ele>709.0</ele><time>2026-04-26T09:11:46.644Z</time></trkpt><trkpt lat="44.2357548" lon="8.2777369"><ele>709.0</ele><time>2026-04-26T09:11:47.644Z</time></trkpt><trkpt lat="44.235875" lon="8.2777773"><ele>713.8333333333334</ele><time>2026-04-26T09:11:48.644Z</time></trkpt><trkpt lat="44.235983" lon="8.2778173"><ele>718.6666666666667</ele><time>2026-04-26T09:11:49.644Z</time></trkpt><trkpt lat="44.2360742" lon="8.2778481"><ele>723.5</ele><time>2026-04-26T09:11:50.644Z</time></trkpt><trkpt lat="44.2361543" lon="8.2778677"><ele>728.3333333333334</ele><time>2026-04-26T09:11:51.644Z</time></trkpt><trkpt lat="44.2362197" lon="8.2778799"><ele>733.1666666666666</ele><time>2026-04-26T09:11:52.644Z</time></trkpt><trkpt lat="44.2363095" lon="8.2778864"><ele>738.0</ele><time>2026-04-26T09:11:54.645Z</time></trkpt><trkpt lat="44.2363729" lon="8.2779059"><ele>738.0</ele><time>2026-04-26T09:12:10.644Z</time></trkpt><trkpt lat="44.2364637" lon="8.2779255"><ele>738.0</ele><time>2026-04-26T09:12:12.644Z</time></trkpt><trkpt lat="44.2365948" lon="8.2779589"><ele>738.0</ele><time>2026-04-26T09:12:14.644Z</time></trkpt><trkpt lat="44.2366725" lon="8.2779774"><ele>738.0</ele><time>2026-04-26T09:12:15.644Z</time></trkpt><trkpt lat="44.2367524" lon="8.2779994"><ele>738.0</ele><time>2026-04-26T09:12:16.644Z</time></trkpt><trkpt lat="44.2368376" lon="8.2780205"><ele>738.5999999999999</ele><time>2026-04-26T09:12:17.644Z</time></trkpt><trkpt lat="44.2369227" lon="8.2780421"><ele>739.1999999999999</ele><time>2026-04-26T09:12:18.645Z</time></trkpt><trkpt lat="44.2370125" lon="8.2780678"><ele>739.8</ele><time>2026-04-26T09:12:19.644Z</time></trkpt><trkpt lat="44.2371024" lon="8.2781079"><ele>740.4</ele><time>2026-04-26T09:12:20.644Z</time></trkpt><trkpt lat="44.2372012" lon="8.2781555"><ele>741.0</ele><time>2026-04-26T09:12:21.644Z</time></trkpt><trkpt lat="44.2373653" lon="8.2782204"><ele>741.0</ele><time>2026-04-26T09:12:22.644Z</time></trkpt><trkpt lat="44.2375134" lon="8.2782587"><ele>741.0</ele><time>2026-04-26T09:12:23.644Z</time></trkpt><trkpt lat="44.2376288" lon="8.2782907"><ele>741.0</ele><time>2026-04-26T09:12:24.644Z</time></trkpt><trkpt lat="44.2377408" lon="8.2783047"><ele>741.0</ele><time>2026-04-26T09:12:25.644Z</time></trkpt><trkpt lat="44.2378457" lon="8.2783186"><ele>741.0</ele><time>2026-04-26T09:12:26.644Z</time></trkpt><trkpt lat="44.2379336" lon="8.2783354"><ele>741.0</ele><time>2026-04-26T09:12:27.644Z</time></trkpt><trkpt lat="44.2380032" lon="8.2783613"><ele>741.0</ele><time>2026-04-26T09:12:28.644Z</time></trkpt><trkpt lat="44.2381098" lon="8.2784563"><ele>741.0</ele><time>2026-04-26T09:12:30.644Z</time></trkpt><trkpt lat="44.2381607" lon="8.278524"><ele>741.0</ele><time>2026-04-26T09:12:31.644Z</time></trkpt><trkpt lat="44.2382446" lon="8.278615"><ele>745.3333333333334</ele><time>2026-04-26T09:12:33.644Z</time></trkpt><trkpt lat="44.2383273" lon="8.2786538"><ele>749.6666666666666</ele><time>2026-04-26T09:12:35.644Z</time></trkpt><trkpt lat="44.2384367" lon="8.2786783"><ele>754.0</ele><time>2026-04-26T09:12:37.644Z</time></trkpt><trkpt lat="44.2385033" lon="8.2786967"><ele>758.3333333333333</ele><time>2026-04-26T09:12:38.644Z</time></trkpt><trkpt lat="44.2385717" lon="8.2787117"><ele>762.6666666666666</ele><time>2026-04-26T09:12:39.644Z</time></trkpt><trkpt lat="44.2386383" lon="8.27874"><ele>767.0</ele><time>2026-04-26T09:12:40.644Z</time></trkpt><trkpt lat="44.2387433" lon="8.27882"><ele>767.0</ele><time>2026-04-26T09:12:42.644Z</time></trkpt><trkpt lat="44.2388" lon="8.2788817"><ele>767.0</ele><time>2026-04-26T09:12:43.644Z</time></trkpt><trkpt lat="44.2388633" lon="8.2789283"><ele>767.0</ele><time>2026-04-26T09:12:44.644Z</time></trkpt><trkpt lat="44.2389333" lon="8.2789833"><ele>767.0</ele><time>2026-04-26T09:12:45.644Z</time></trkpt><trkpt lat="44.239" lon="8.2790383"><ele>767.0</ele><time>2026-04-26T09:12:46.644Z</time></trkpt><trkpt lat="44.23906" lon="8.2790817"><ele>767.0</ele><time>2026-04-26T09:12:47.644Z</time></trkpt><trkpt lat="44.2391233" lon="8.2791133"><ele>767.0</ele><time>2026-04-26T09:12:48.644Z</time></trkpt><trkpt lat="44.2392067" lon="8.2791467"><ele>767.0</ele><time>2026-04-26T09:12:49.644Z</time></trkpt><trkpt lat="44.2392883" lon="8.2791883"><ele>767.0</ele><time>2026-04-26T09:12:50.644Z</time></trkpt><trkpt lat="44.2393683" lon="8.27924"><ele>767.0</ele><time>2026-04-26T09:12:51.645Z</time></trkpt><trkpt lat="44.2394367" lon="8.27928"><ele>767.0</ele><time>2026-04-26T09:12:52.644Z</time></trkpt><trkpt lat="44.2395017" lon="8.27931"><ele>767.0</ele><time>2026-04-26T09:12:53.644Z</time></trkpt><trkpt lat="44.2396133" lon="8.2793867"><ele>767.0</ele><time>2026-04-26T09:12:55.644Z</time></trkpt><trkpt lat="44.2397217" lon="8.2794383"><ele>768.2</ele><time>2026-04-26T09:12:57.644Z</time></trkpt><trkpt lat="44.2398367" lon="8.2794633"><ele>769.4000000000001</ele><time>2026-04-26T09:12:59.644Z</time></trkpt><trkpt lat="44.2399283" lon="8.2795033"><ele>770.5999999999999</ele><time>2026-04-26T09:13:01.644Z</time></trkpt><trkpt lat="44.2399983" lon="8.2796083"><ele>771.8</ele><time>2026-04-26T09:13:03.644Z</time></trkpt><trkpt lat="44.24003" lon="8.2797483"><ele>773.0</ele><time>2026-04-26T09:13:05.644Z</time></trkpt><trkpt lat="44.24005" lon="8.2798317"><ele>773.0</ele><time>2026-04-26T09:13:06.644Z</time></trkpt><trkpt lat="44.2400833" lon="8.28"><ele>773.0</ele><time>2026-04-26T09:13:08.644Z</time></trkpt><trkpt lat="44.2400783" lon="8.28015"><ele>773.0</ele><time>2026-04-26T09:13:10.644Z</time></trkpt><trkpt lat="44.240105" lon="8.2802967"><ele>773.0</ele><time>2026-04-26T09:13:12.644Z</time></trkpt><trkpt lat="44.24014" lon="8.280375"><ele>773.0</ele><time>2026-04-26T09:13:13.644Z</time></trkpt><trkpt lat="44.2401933" lon="8.2804483"><ele>773.0000000000001</ele><time>2026-04-26T09:13:14.644Z</time></trkpt><trkpt lat="44.2402483" lon="8.2805183"><ele>773.0</ele><time>2026-04-26T09:13:15.644Z</time></trkpt><trkpt lat="44.24031" lon="8.2805917"><ele>773.0</ele><time>2026-04-26T09:13:16.644Z</time></trkpt><trkpt lat="44.2403617" lon="8.2806667"><ele>773.0</ele><time>2026-04-26T09:13:17.644Z</time></trkpt><trkpt lat="44.2404083" lon="8.28074"><ele>773.0000000000001</ele><time>2026-04-26T09:13:18.644Z</time></trkpt><trkpt lat="44.2404867" lon="8.280835"><ele>773.0</ele><time>2026-04-26T09:13:20.644Z</time></trkpt><trkpt lat="44.2405717" lon="8.2808883"><ele>775.8</ele><time>2026-04-26T09:13:22.644Z</time></trkpt><trkpt lat="44.24064" lon="8.280905"><ele>778.5999999999999</ele><time>2026-04-26T09:13:23.644Z</time></trkpt><trkpt lat="44.2407133" lon="8.2809217"><ele>781.4000000000001</ele><time>2026-04-26T09:13:24.644Z</time></trkpt><trkpt lat="44.24084" lon="8.2809667"><ele>784.2</ele><time>2026-04-26T09:13:26.644Z</time></trkpt><trkpt lat="44.2409683" lon="8.281005"><ele>787.0</ele><time>2026-04-26T09:13:28.644Z</time></trkpt><trkpt lat="44.2410467" lon="8.2810183"><ele>786.9999999999999</ele><time>2026-04-26T09:13:29.644Z</time></trkpt><trkpt lat="44.2411267" lon="8.281045"><ele>787.0</ele><time>2026-04-26T09:13:30.644Z</time></trkpt><trkpt lat="44.2412117" lon="8.2810783"><ele>787.0</ele><time>2026-04-26T09:13:31.644Z</time></trkpt><trkpt lat="44.2412917" lon="8.281105"><ele>787.0</ele><time>2026-04-26T09:13:32.644Z</time></trkpt><trkpt lat="44.2413683" lon="8.2811317"><ele>786.9999999999999</ele><time>2026-04-26T09:13:33.644Z</time></trkpt><trkpt lat="44.241435" lon="8.2811533"><ele>787.0</ele><time>2026-04-26T09:13:34.644Z</time></trkpt><trkpt lat="44.2415" lon="8.2811733"><ele>789.4000000000001</ele><time>2026-04-26T09:13:35.644Z</time></trkpt><trkpt lat="44.2416117" lon="8.28122"><ele>791.8000000000001</ele><time>2026-04-26T09:13:37.644Z</time></trkpt><trkpt lat="44.24174" lon="8.281275"><ele>794.2</ele><time>2026-04-26T09:13:39.644Z</time></trkpt><trkpt lat="44.2418083" lon="8.2813033"><ele>796.6</ele><time>2026-04-26T09:13:40.644Z</time></trkpt><trkpt lat="44.2418717" lon="8.2813333"><ele>799.0</ele><time>2026-04-26T09:13:41.644Z</time></trkpt><trkpt lat="44.2419717" lon="8.2813783"><ele>793.6</ele><time>2026-04-26T09:13:43.645Z</time></trkpt><trkpt lat="44.24194" lon="8.2814967"><ele>788.2</ele><time>2026-04-26T09:13:46.644Z</time></trkpt><trkpt lat="44.2418817" lon="8.2815483"><ele>782.8000000000001</ele><time>2026-04-26T09:13:48.644Z</time></trkpt><trkpt lat="44.241815" lon="8.281635"><ele>777.4000000000001</ele><time>2026-04-26T09:13:51.645Z</time></trkpt><trkpt lat="44.2417517" lon="8.2817333"><ele>772.0</ele><time>2026-04-26T09:13:53.644Z</time></trkpt><trkpt lat="44.24164" lon="8.2818533"><ele>771.9999999999999</ele><time>2026-04-26T09:13:55.644Z</time></trkpt><trkpt lat="44.2415833" lon="8.281925"><ele>772.0</ele><time>2026-04-26T09:13:56.644Z</time></trkpt><trkpt lat="44.2415317" lon="8.281985"><ele>772.0</ele><time>2026-04-26T09:13:57.644Z</time></trkpt><trkpt lat="44.241485" lon="8.2820583"><ele>772.0</ele><time>2026-04-26T09:13:58.645Z</time></trkpt><trkpt lat="44.241435" lon="8.2821767"><ele>771.9999999999999</ele><time>2026-04-26T09:14:00.644Z</time></trkpt><trkpt lat="44.24139" lon="8.28225"><ele>772.0</ele><time>2026-04-26T09:14:02.644Z</time></trkpt><trkpt lat="44.2413417" lon="8.2823567"><ele>767.4000000000001</ele><time>2026-04-26T09:14:05.645Z</time></trkpt><trkpt lat="44.2412733" lon="8.2825067"><ele>762.8000000000001</ele><time>2026-04-26T09:14:07.644Z</time></trkpt><trkpt lat="44.24122" lon="8.2826133"><ele>758.2</ele><time>2026-04-26T09:14:08.644Z</time></trkpt><trkpt lat="44.2411667" lon="8.2827267"><ele>753.6</ele><time>2026-04-26T09:14:09.644Z</time></trkpt><trkpt lat="44.24111" lon="8.282845"><ele>749.0</ele><time>2026-04-26T09:14:10.644Z</time></trkpt><trkpt lat="44.2410433" lon="8.2829667"><ele>751.5</ele><time>2026-04-26T09:14:11.644Z</time></trkpt><trkpt lat="44.2409583" lon="8.283105"><ele>754.0</ele><time>2026-04-26T09:14:12.644Z</time></trkpt><trkpt lat="44.2408817" lon="8.2832517"><ele>756.5</ele><time>2026-04-26T09:14:13.645Z</time></trkpt><trkpt lat="44.2408183" lon="8.2833933"><ele>759.0</ele><time>2026-04-26T09:14:14.645Z</time></trkpt><trkpt lat="44.24074" lon="8.2834933"><ele>759.0</ele><time>2026-04-26T09:14:15.644Z</time></trkpt><trkpt lat="44.2406467" lon="8.2835633"><ele>759.0</ele><time>2026-04-26T09:14:16.644Z</time></trkpt><trkpt lat="44.2405667" lon="8.283625"><ele>759.0</ele><time>2026-04-26T09:14:17.645Z</time></trkpt><trkpt lat="44.2404933" lon="8.28372"><ele>759.0</ele><time>2026-04-26T09:14:18.644Z</time></trkpt><trkpt lat="44.24043" lon="8.2838233"><ele>759.0</ele><time>2026-04-26T09:14:19.644Z</time></trkpt><trkpt lat="44.2403733" lon="8.2839267"><ele>755.6</ele><time>2026-04-26T09:14:20.644Z</time></trkpt><trkpt lat="44.2403183" lon="8.28403"><ele>752.2</ele><time>2026-04-26T09:14:21.644Z</time></trkpt><trkpt lat="44.2402583" lon="8.28414"><ele>748.8000000000001</ele><time>2026-04-26T09:14:22.644Z</time></trkpt><trkpt lat="44.2402017" lon="8.2842483"><ele>745.4000000000001</ele><time>2026-04-26T09:14:23.644Z</time></trkpt><trkpt lat="44.2401367" lon="8.2843667"><ele>742.0</ele><time>2026-04-26T09:14:24.644Z</time></trkpt><trkpt lat="44.2400717" lon="8.2844833"><ele>742.0</ele><time>2026-04-26T09:14:25.644Z</time></trkpt><trkpt lat="44.24001" lon="8.2845917"><ele>742.0</ele><time>2026-04-26T09:14:26.644Z</time></trkpt><trkpt lat="44.2399583" lon="8.2846833"><ele>742.0</ele><time>2026-04-26T09:14:27.644Z</time></trkpt><trkpt lat="44.239915" lon="8.2847817"><ele>742.0</ele><time>2026-04-26T09:14:28.644Z</time></trkpt><trkpt lat="44.2398817" lon="8.2848733"><ele>742.0</ele><time>2026-04-26T09:14:29.644Z</time></trkpt><trkpt lat="44.2398467" lon="8.284975"><ele>742.0</ele><time>2026-04-26T09:14:30.644Z</time></trkpt><trkpt lat="44.2398067" lon="8.2850767"><ele>740.3333333333334</ele><time>2026-04-26T09:14:31.644Z</time></trkpt><trkpt lat="44.2397617" lon="8.2851867"><ele>738.6666666666667</ele><time>2026-04-26T09:14:32.644Z</time></trkpt><trkpt lat="44.2397183" lon="8.2853067"><ele>737.0</ele><time>2026-04-26T09:14:33.644Z</time></trkpt><trkpt lat="44.2396833" lon="8.2854117"><ele>735.3333333333334</ele><time>2026-04-26T09:14:34.644Z</time></trkpt><trkpt lat="44.2396717" lon="8.2855283"><ele>733.6666666666666</ele><time>2026-04-26T09:14:35.644Z</time></trkpt><trkpt lat="44.2396817" lon="8.2856467"><ele>732.0</ele><time>2026-04-26T09:14:36.644Z</time></trkpt><trkpt lat="44.239705" lon="8.2857617"><ele>732.0</ele><time>2026-04-26T09:14:37.644Z</time></trkpt><trkpt lat="44.2397433" lon="8.285875"><ele>732.0</ele><time>2026-04-26T09:14:38.644Z</time></trkpt><trkpt lat="44.239785" lon="8.2859867"><ele>732.0</ele><time>2026-04-26T09:14:39.645Z</time></trkpt><trkpt lat="44.2398117" lon="8.286105"><ele>732.0</ele><time>2026-04-26T09:14:40.644Z</time></trkpt><trkpt lat="44.2398417" lon="8.28622"><ele>732.0</ele><time>2026-04-26T09:14:41.644Z</time></trkpt><trkpt lat="44.2398683" lon="8.286335"><ele>732.0</ele><time>2026-04-26T09:14:42.644Z</time></trkpt><trkpt lat="44.2398933" lon="8.28645"><ele>738.6</ele><time>2026-04-26T09:14:43.644Z</time></trkpt><trkpt lat="44.2399117" lon="8.28657"><ele>745.2</ele><time>2026-04-26T09:14:44.644Z</time></trkpt><trkpt lat="44.23993" lon="8.2866933"><ele>751.8</ele><time>2026-04-26T09:14:45.644Z</time></trkpt><trkpt lat="44.2399367" lon="8.2868267"><ele>758.4</ele><time>2026-04-26T09:14:46.644Z</time></trkpt><trkpt lat="44.239945" lon="8.2869567"><ele>765.0</ele><time>2026-04-26T09:14:47.644Z</time></trkpt><trkpt lat="44.2399567" lon="8.2870917"><ele>765.0</ele><time>2026-04-26T09:14:48.644Z</time></trkpt><trkpt lat="44.2399667" lon="8.2872283"><ele>765.0</ele><time>2026-04-26T09:14:49.644Z</time></trkpt><trkpt lat="44.2399867" lon="8.2873633"><ele>765.0</ele><time>2026-04-26T09:14:50.644Z</time></trkpt><trkpt lat="44.2400167" lon="8.2875017"><ele>765.0</ele><time>2026-04-26T09:14:51.644Z</time></trkpt><trkpt lat="44.24005" lon="8.2876417"><ele>765.0</ele><time>2026-04-26T09:14:52.644Z</time></trkpt><trkpt lat="44.2400733" lon="8.2877783"><ele>764.8</ele><time>2026-04-26T09:14:53.644Z</time></trkpt><trkpt lat="44.2400917" lon="8.2879167"><ele>764.6</ele><time>2026-04-26T09:14:54.644Z</time></trkpt><trkpt lat="44.2401017" lon="8.2880417"><ele>764.4000000000001</ele><time>2026-04-26T09:14:55.644Z</time></trkpt><trkpt lat="44.2400917" lon="8.28817"><ele>764.2</ele><time>2026-04-26T09:14:56.644Z</time></trkpt><trkpt lat="44.2400667" lon="8.28831"><ele>764.0</ele><time>2026-04-26T09:14:57.645Z</time></trkpt><trkpt lat="44.2400367" lon="8.288455"><ele>764.0</ele><time>2026-04-26T09:14:58.644Z</time></trkpt><trkpt lat="44.2400067" lon="8.2886033"><ele>764.0</ele><time>2026-04-26T09:14:59.644Z</time></trkpt><trkpt lat="44.2399783" lon="8.2887567"><ele>764.0</ele><time>2026-04-26T09:15:00.644Z</time></trkpt><trkpt lat="44.2399517" lon="8.2889017"><ele>764.0</ele><time>2026-04-26T09:15:01.644Z</time></trkpt><trkpt lat="44.2399383" lon="8.2890417"><ele>764.0</ele><time>2026-04-26T09:15:02.644Z</time></trkpt><trkpt lat="44.2399333" lon="8.289165"><ele>764.0</ele><time>2026-04-26T09:15:03.644Z</time></trkpt><trkpt lat="44.239945" lon="8.2892883"><ele>764.0</ele><time>2026-04-26T09:15:04.644Z</time></trkpt><trkpt lat="44.23997" lon="8.2894133"><ele>764.0</ele><time>2026-04-26T09:15:05.644Z</time></trkpt><trkpt lat="44.2400083" lon="8.28954"><ele>764.0</ele><time>2026-04-26T09:15:06.644Z</time></trkpt><trkpt lat="44.2400583" lon="8.2896617"><ele>764.0</ele><time>2026-04-26T09:15:07.644Z</time></trkpt><trkpt lat="44.24011" lon="8.2897817"><ele>764.0</ele><time>2026-04-26T09:15:08.644Z</time></trkpt><trkpt lat="44.2401533" lon="8.289905"><ele>764.0</ele><time>2026-04-26T09:15:09.644Z</time></trkpt><trkpt lat="44.2401817" lon="8.290025"><ele>764.0</ele><time>2026-04-26T09:15:10.645Z</time></trkpt><trkpt lat="44.2402083" lon="8.2901517"><ele>764.0</ele><time>2026-04-26T09:15:11.644Z</time></trkpt><trkpt lat="44.2402333" lon="8.2902733"><ele>764.0</ele><time>2026-04-26T09:15:12.644Z</time></trkpt><trkpt lat="44.2402567" lon="8.2903967"><ele>764.0</ele><time>2026-04-26T09:15:13.644Z</time></trkpt><trkpt lat="44.2402883" lon="8.2905283"><ele>764.0</ele><time>2026-04-26T09:15:14.644Z</time></trkpt><trkpt lat="44.24032" lon="8.2906533"><ele>764.0</ele><time>2026-04-26T09:15:15.644Z</time></trkpt><trkpt lat="44.2403533" lon="8.2907733"><ele>764.0</ele><time>2026-04-26T09:15:16.644Z</time></trkpt><trkpt lat="44.2403967" lon="8.2908833"><ele>764.0</ele><time>2026-04-26T09:15:17.645Z</time></trkpt><trkpt lat="44.2404483" lon="8.290975"><ele>763.6666666666666</ele><time>2026-04-26T09:15:18.644Z</time></trkpt><trkpt lat="44.2405167" lon="8.2910533"><ele>763.3333333333333</ele><time>2026-04-26T09:15:19.644Z</time></trkpt><trkpt lat="44.2405917" lon="8.29112"><ele>763.0</ele><time>2026-04-26T09:15:20.644Z</time></trkpt><trkpt lat="44.240675" lon="8.2911733"><ele>762.6666666666666</ele><time>2026-04-26T09:15:21.644Z</time></trkpt><trkpt lat="44.2407567" lon="8.2912067"><ele>762.3333333333334</ele><time>2026-04-26T09:15:22.644Z</time></trkpt><trkpt lat="44.240835" lon="8.2912217"><ele>762.0</ele><time>2026-04-26T09:15:23.644Z</time></trkpt><trkpt lat="44.2409133" lon="8.291205"><ele>765.4000000000001</ele><time>2026-04-26T09:15:24.644Z</time></trkpt><trkpt lat="44.24099" lon="8.2911633"><ele>768.8000000000001</ele><time>2026-04-26T09:15:25.644Z</time></trkpt><trkpt lat="44.2410767" lon="8.2910933"><ele>772.2</ele><time>2026-04-26T09:15:26.644Z</time></trkpt><trkpt lat="44.241175" lon="8.2909983"><ele>775.6</ele><time>2026-04-26T09:15:27.644Z</time></trkpt><trkpt lat="44.2412983" lon="8.2909067"><ele>779.0</ele><time>2026-04-26T09:15:28.644Z</time></trkpt><trkpt lat="44.2414417" lon="8.2908233"><ele>777.3333333333334</ele><time>2026-04-26T09:15:29.644Z</time></trkpt><trkpt lat="44.2415983" lon="8.290755"><ele>775.6666666666667</ele><time>2026-04-26T09:15:30.644Z</time></trkpt><trkpt lat="44.241765" lon="8.2906983"><ele>774.0</ele><time>2026-04-26T09:15:31.644Z</time></trkpt><trkpt lat="44.241925" lon="8.290675"><ele>774.0</ele><time>2026-04-26T09:15:32.644Z</time></trkpt><trkpt lat="44.2420617" lon="8.2906633"><ele>774.0</ele><time>2026-04-26T09:15:33.644Z</time></trkpt><trkpt lat="44.2421883" lon="8.2906433"><ele>774.0</ele><time>2026-04-26T09:15:34.644Z</time></trkpt><trkpt lat="44.2422917" lon="8.2906133"><ele>774.0</ele><time>2026-04-26T09:15:35.644Z</time></trkpt><trkpt lat="44.24239" lon="8.2905567"><ele>780.5</ele><time>2026-04-26T09:15:36.644Z</time></trkpt><trkpt lat="44.24248" lon="8.2904717"><ele>787.0</ele><time>2026-04-26T09:15:37.644Z</time></trkpt><trkpt lat="44.2425717" lon="8.2903617"><ele>793.5</ele><time>2026-04-26T09:15:38.644Z</time></trkpt><trkpt lat="44.24267" lon="8.290235"><ele>800.0</ele><time>2026-04-26T09:15:39.644Z</time></trkpt><trkpt lat="44.2427617" lon="8.290115"><ele>800.0</ele><time>2026-04-26T09:15:40.644Z</time></trkpt><trkpt lat="44.2428467" lon="8.29001"><ele>800.0</ele><time>2026-04-26T09:15:41.644Z</time></trkpt><trkpt lat="44.2429283" lon="8.2899"><ele>800.0</ele><time>2026-04-26T09:15:42.644Z</time></trkpt><trkpt lat="44.2430017" lon="8.28981"><ele>800.0</ele><time>2026-04-26T09:15:43.644Z</time></trkpt><trkpt lat="44.2430733" lon="8.2897217"><ele>800.0</ele><time>2026-04-26T09:15:44.644Z</time></trkpt><trkpt lat="44.2431417" lon="8.2896317"><ele>800.3333333333334</ele><time>2026-04-26T09:15:45.644Z</time></trkpt><trkpt lat="44.24321" lon="8.2895517"><ele>800.6666666666667</ele><time>2026-04-26T09:15:46.644Z</time></trkpt><trkpt lat="44.2432683" lon="8.2894733"><ele>801.0</ele><time>2026-04-26T09:15:47.644Z</time></trkpt><trkpt lat="44.2433317" lon="8.2893983"><ele>801.3333333333333</ele><time>2026-04-26T09:15:48.644Z</time></trkpt><trkpt lat="44.2433933" lon="8.2893283"><ele>801.6666666666666</ele><time>2026-04-26T09:15:49.644Z</time></trkpt><trkpt lat="44.2434567" lon="8.2892633"><ele>802.0</ele><time>2026-04-26T09:15:50.644Z</time></trkpt><trkpt lat="44.243515" lon="8.2891933"><ele>801.9999999999999</ele><time>2026-04-26T09:15:51.644Z</time></trkpt><trkpt lat="44.24357" lon="8.289115"><ele>802.0</ele><time>2026-04-26T09:15:52.644Z</time></trkpt><trkpt lat="44.2436267" lon="8.2890417"><ele>802.0</ele><time>2026-04-26T09:15:53.644Z</time></trkpt><trkpt lat="44.2436767" lon="8.288965"><ele>802.0</ele><time>2026-04-26T09:15:54.644Z</time></trkpt><trkpt lat="44.2437267" lon="8.2888917"><ele>801.9999999999999</ele><time>2026-04-26T09:15:55.644Z</time></trkpt><trkpt lat="44.2437867" lon="8.2888217"><ele>802.0</ele><time>2026-04-26T09:15:56.644Z</time></trkpt><trkpt lat="44.2439" lon="8.2887067"><ele>802.8</ele><time>2026-04-26T09:15:58.644Z</time></trkpt><trkpt lat="44.2439733" lon="8.288645"><ele>803.6</ele><time>2026-04-26T09:15:59.644Z</time></trkpt><trkpt lat="44.2440533" lon="8.28858"><ele>804.4</ele><time>2026-04-26T09:16:00.644Z</time></trkpt><trkpt lat="44.2441433" lon="8.2885083"><ele>805.1999999999999</ele><time>2026-04-26T09:16:01.644Z</time></trkpt><trkpt lat="44.2442367" lon="8.2884383"><ele>806.0</ele><time>2026-04-26T09:16:02.644Z</time></trkpt><trkpt lat="44.2443217" lon="8.28837"><ele>806.0</ele><time>2026-04-26T09:16:03.644Z</time></trkpt><trkpt lat="44.24442" lon="8.2882967"><ele>806.0</ele><time>2026-04-26T09:16:04.644Z</time></trkpt><trkpt lat="44.2445317" lon="8.2882217"><ele>806.0</ele><time>2026-04-26T09:16:05.644Z</time></trkpt><trkpt lat="44.2446583" lon="8.28814"><ele>806.0</ele><time>2026-04-26T09:16:06.644Z</time></trkpt><trkpt lat="44.2447767" lon="8.28808"><ele>809.25</ele><time>2026-04-26T09:16:07.644Z</time></trkpt><trkpt lat="44.2449033" lon="8.2880233"><ele>812.5</ele><time>2026-04-26T09:16:08.644Z</time></trkpt><trkpt lat="44.245025" lon="8.287975"><ele>815.75</ele><time>2026-04-26T09:16:09.644Z</time></trkpt><trkpt lat="44.245165" lon="8.2879117"><ele>819.0</ele><time>2026-04-26T09:16:10.644Z</time></trkpt><trkpt lat="44.2453" lon="8.28783"><ele>819.0</ele><time>2026-04-26T09:16:11.644Z</time></trkpt><trkpt lat="44.24543" lon="8.2877367"><ele>819.0</ele><time>2026-04-26T09:16:12.644Z</time></trkpt><trkpt lat="44.2455633" lon="8.2876483"><ele>819.0</ele><time>2026-04-26T09:16:13.644Z</time></trkpt><trkpt lat="44.24568" lon="8.2875733"><ele>819.0</ele><time>2026-04-26T09:16:14.644Z</time></trkpt><trkpt lat="44.2457983" lon="8.2874867"><ele>821.5</ele><time>2026-04-26T09:16:15.644Z</time></trkpt><trkpt lat="44.2459033" lon="8.2873883"><ele>824.0</ele><time>2026-04-26T09:16:16.644Z</time></trkpt><trkpt lat="44.246005" lon="8.28729"><ele>826.5</ele><time>2026-04-26T09:16:17.644Z</time></trkpt><trkpt lat="44.2460933" lon="8.2872033"><ele>829.0</ele><time>2026-04-26T09:16:18.644Z</time></trkpt><trkpt lat="44.2461833" lon="8.2871467"><ele>829.0</ele><time>2026-04-26T09:16:19.644Z</time></trkpt><trkpt lat="44.2462883" lon="8.2871183"><ele>829.0</ele><time>2026-04-26T09:16:20.644Z</time></trkpt><trkpt lat="44.2463917" lon="8.2871333"><ele>829.0</ele><time>2026-04-26T09:16:21.645Z</time></trkpt><trkpt lat="44.246485" lon="8.2871817"><ele>829.0</ele><time>2026-04-26T09:16:22.644Z</time></trkpt><trkpt lat="44.2465667" lon="8.2872417"><ele>829.0</ele><time>2026-04-26T09:16:23.644Z</time></trkpt><trkpt lat="44.2466567" lon="8.2872733"><ele>828.25</ele><time>2026-04-26T09:16:24.645Z</time></trkpt><trkpt lat="44.24675" lon="8.2872667"><ele>827.5</ele><time>2026-04-26T09:16:25.644Z</time></trkpt><trkpt lat="44.2468567" lon="8.2872233"><ele>826.75</ele><time>2026-04-26T09:16:26.644Z</time></trkpt><trkpt lat="44.2469833" lon="8.2871633"><ele>826.0</ele><time>2026-04-26T09:16:27.644Z</time></trkpt><trkpt lat="44.2471283" lon="8.2871217"><ele>826.0</ele><time>2026-04-26T09:16:28.645Z</time></trkpt><trkpt lat="44.2472667" lon="8.287105"><ele>826.0</ele><time>2026-04-26T09:16:29.644Z</time></trkpt><trkpt lat="44.2473833" lon="8.2871117"><ele>826.0</ele><time>2026-04-26T09:16:30.644Z</time></trkpt><trkpt lat="44.24748" lon="8.28711"><ele>826.0</ele><time>2026-04-26T09:16:31.645Z</time></trkpt><trkpt lat="44.2475517" lon="8.2870783"><ele>826.0</ele><time>2026-04-26T09:16:32.644Z</time></trkpt><trkpt lat="44.247625" lon="8.2870133"><ele>822.25</ele><time>2026-04-26T09:16:33.644Z</time></trkpt><trkpt lat="44.2477" lon="8.2869233"><ele>818.5</ele><time>2026-04-26T09:16:34.644Z</time></trkpt><trkpt lat="44.2477833" lon="8.28681"><ele>814.75</ele><time>2026-04-26T09:16:35.644Z</time></trkpt><trkpt lat="44.2478767" lon="8.2866567"><ele>811.0</ele><time>2026-04-26T09:16:36.644Z</time></trkpt><trkpt lat="44.247965" lon="8.2865033"><ele>810.8</ele><time>2026-04-26T09:16:37.644Z</time></trkpt><trkpt lat="44.2480283" lon="8.2863783"><ele>810.5999999999999</ele><time>2026-04-26T09:16:38.644Z</time></trkpt><trkpt lat="44.248095" lon="8.2862783"><ele>810.4</ele><time>2026-04-26T09:16:39.644Z</time></trkpt><trkpt lat="44.248165" lon="8.286205"><ele>810.2</ele><time>2026-04-26T09:16:40.644Z</time></trkpt><trkpt lat="44.2482417" lon="8.2861567"><ele>810.0</ele><time>2026-04-26T09:16:41.644Z</time></trkpt><trkpt lat="44.248325" lon="8.2861217"><ele>810.0</ele><time>2026-04-26T09:16:42.645Z</time></trkpt><trkpt lat="44.2484133" lon="8.2860983"><ele>810.0</ele><time>2026-04-26T09:16:43.644Z</time></trkpt><trkpt lat="44.2485033" lon="8.2860667"><ele>810.0</ele><time>2026-04-26T09:16:44.645Z</time></trkpt><trkpt lat="44.24859" lon="8.2860083"><ele>810.0</ele><time>2026-04-26T09:16:45.644Z</time></trkpt><trkpt lat="44.24866" lon="8.2859167"><ele>810.0</ele><time>2026-04-26T09:16:46.644Z</time></trkpt><trkpt lat="44.2487317" lon="8.2857917"><ele>810.0</ele><time>2026-04-26T09:16:47.644Z</time></trkpt><trkpt lat="44.2487917" lon="8.285655"><ele>810.0</ele><time>2026-04-26T09:16:48.645Z</time></trkpt><trkpt lat="44.24883" lon="8.28552"><ele>810.0</ele><time>2026-04-26T09:16:49.645Z</time></trkpt><trkpt lat="44.2488633" lon="8.2853983"><ele>810.0</ele><time>2026-04-26T09:16:50.644Z</time></trkpt><trkpt lat="44.248885" lon="8.2852983"><ele>810.0</ele><time>2026-04-26T09:16:51.644Z</time></trkpt><trkpt lat="44.2489183" lon="8.2852217"><ele>811.5</ele><time>2026-04-26T09:16:52.644Z</time></trkpt><trkpt lat="44.2490233" lon="8.2851383"><ele>813.0</ele><time>2026-04-26T09:16:54.645Z</time></trkpt><trkpt lat="44.2490933" lon="8.2851517"><ele>814.5</ele><time>2026-04-26T09:16:55.644Z</time></trkpt><trkpt lat="44.2491767" lon="8.2851767"><ele>816.0</ele><time>2026-04-26T09:16:56.644Z</time></trkpt><trkpt lat="44.2492567" lon="8.2852217"><ele>817.5</ele><time>2026-04-26T09:16:57.644Z</time></trkpt><trkpt lat="44.2493167" lon="8.2852967"><ele>819.0</ele><time>2026-04-26T09:16:58.644Z</time></trkpt><trkpt lat="44.249355" lon="8.2854083"><ele>819.0</ele><time>2026-04-26T09:16:59.644Z</time></trkpt><trkpt lat="44.2493867" lon="8.2855383"><ele>819.0</ele><time>2026-04-26T09:17:00.645Z</time></trkpt><trkpt lat="44.2494283" lon="8.2856717"><ele>819.0</ele><time>2026-04-26T09:17:01.644Z</time></trkpt><trkpt lat="44.2495" lon="8.2857783"><ele>819.0</ele><time>2026-04-26T09:17:02.644Z</time></trkpt><trkpt lat="44.2495917" lon="8.28587"><ele>819.0</ele><time>2026-04-26T09:17:03.644Z</time></trkpt><trkpt lat="44.2496833" lon="8.2859333"><ele>817.4000000000001</ele><time>2026-04-26T09:17:04.644Z</time></trkpt><trkpt lat="44.2497717" lon="8.28597"><ele>815.8</ele><time>2026-04-26T09:17:05.644Z</time></trkpt><trkpt lat="44.2498517" lon="8.285995"><ele>814.2</ele><time>2026-04-26T09:17:06.644Z</time></trkpt><trkpt lat="44.2499517" lon="8.285985"><ele>812.5999999999999</ele><time>2026-04-26T09:17:07.644Z</time></trkpt><trkpt lat="44.2500733" lon="8.2859467"><ele>811.0</ele><time>2026-04-26T09:17:08.644Z</time></trkpt><trkpt lat="44.2501867" lon="8.2859183"><ele>811.0</ele><time>2026-04-26T09:17:09.644Z</time></trkpt><trkpt lat="44.25028" lon="8.28591"><ele>811.0</ele><time>2026-04-26T09:17:10.644Z</time></trkpt><trkpt lat="44.2503667" lon="8.2859167"><ele>811.0</ele><time>2026-04-26T09:17:11.644Z</time></trkpt><trkpt lat="44.2504467" lon="8.285955"><ele>811.0</ele><time>2026-04-26T09:17:12.644Z</time></trkpt><trkpt lat="44.2505167" lon="8.28604"><ele>811.0</ele><time>2026-04-26T09:17:13.644Z</time></trkpt><trkpt lat="44.2505783" lon="8.2861617"><ele>812.8</ele><time>2026-04-26T09:17:14.644Z</time></trkpt><trkpt lat="44.25064" lon="8.2862833"><ele>814.5999999999999</ele><time>2026-04-26T09:17:15.644Z</time></trkpt><trkpt lat="44.2506983" lon="8.2863867"><ele>816.4</ele><time>2026-04-26T09:17:16.644Z</time></trkpt><trkpt lat="44.2507733" lon="8.2864567"><ele>818.2</ele><time>2026-04-26T09:17:17.644Z</time></trkpt><trkpt lat="44.2508533" lon="8.286495"><ele>820.0</ele><time>2026-04-26T09:17:18.644Z</time></trkpt><trkpt lat="44.2509417" lon="8.286505"><ele>816.0</ele><time>2026-04-26T09:17:19.644Z</time></trkpt><trkpt lat="44.2510717" lon="8.2864883"><ele>812.0</ele><time>2026-04-26T09:17:20.644Z</time></trkpt><trkpt lat="44.251185" lon="8.2864683"><ele>808.0</ele><time>2026-04-26T09:17:21.644Z</time></trkpt><trkpt lat="44.25128" lon="8.2864567"><ele>804.0</ele><time>2026-04-26T09:17:22.644Z</time></trkpt><trkpt lat="44.2513783" lon="8.2864717"><ele>800.0</ele><time>2026-04-26T09:17:23.644Z</time></trkpt><trkpt lat="44.2514533" lon="8.2865"><ele>802.8</ele><time>2026-04-26T09:17:24.644Z</time></trkpt><trkpt lat="44.2515383" lon="8.28654"><ele>805.6</ele><time>2026-04-26T09:17:25.644Z</time></trkpt><trkpt lat="44.251595" lon="8.2866033"><ele>808.4000000000001</ele><time>2026-04-26T09:17:26.644Z</time></trkpt><trkpt lat="44.2516767" lon="8.2866867"><ele>811.2</ele><time>2026-04-26T09:17:27.644Z</time></trkpt><trkpt lat="44.2517617" lon="8.2867733"><ele>814.0</ele><time>2026-04-26T09:17:28.644Z</time></trkpt><trkpt lat="44.2518617" lon="8.2868717"><ele>814.0</ele><time>2026-04-26T09:17:29.644Z</time></trkpt><trkpt lat="44.2519833" lon="8.2869783"><ele>814.0</ele><time>2026-04-26T09:17:30.644Z</time></trkpt><trkpt lat="44.25211" lon="8.2870867"><ele>814.0</ele><time>2026-04-26T09:17:31.644Z</time></trkpt><trkpt lat="44.252235" lon="8.2871933"><ele>814.0</ele><time>2026-04-26T09:17:32.644Z</time></trkpt><trkpt lat="44.2523483" lon="8.28731"><ele>814.0</ele><time>2026-04-26T09:17:33.644Z</time></trkpt><trkpt lat="44.2524433" lon="8.2874433"><ele>814.0</ele><time>2026-04-26T09:17:34.644Z</time></trkpt><trkpt lat="44.25253" lon="8.2876017"><ele>814.0</ele><time>2026-04-26T09:17:35.644Z</time></trkpt><trkpt lat="44.25262" lon="8.2877417"><ele>814.0</ele><time>2026-04-26T09:17:36.644Z</time></trkpt><trkpt lat="44.252725" lon="8.2878667"><ele>814.0</ele><time>2026-04-26T09:17:37.644Z</time></trkpt><trkpt lat="44.2528517" lon="8.287985"><ele>814.0</ele><time>2026-04-26T09:17:38.644Z</time></trkpt><trkpt lat="44.2529783" lon="8.2880933"><ele>814.0</ele><time>2026-04-26T09:17:39.644Z</time></trkpt><trkpt lat="44.2530967" lon="8.2881817"><ele>814.0</ele><time>2026-04-26T09:17:40.644Z</time></trkpt><trkpt lat="44.2532217" lon="8.28825"><ele>813.5</ele><time>2026-04-26T09:17:41.644Z</time></trkpt><trkpt lat="44.2533567" lon="8.2882983"><ele>813.0</ele><time>2026-04-26T09:17:42.644Z</time></trkpt><trkpt lat="44.2534917" lon="8.2883383"><ele>812.5</ele><time>2026-04-26T09:17:43.644Z</time></trkpt><trkpt lat="44.25361" lon="8.288395"><ele>812.0</ele><time>2026-04-26T09:17:44.644Z</time></trkpt><trkpt lat="44.2537117" lon="8.2884183"><ele>812.0000000000001</ele><time>2026-04-26T09:17:45.644Z</time></trkpt><trkpt lat="44.253815" lon="8.2884267"><ele>812.0</ele><time>2026-04-26T09:17:46.644Z</time></trkpt><trkpt lat="44.2539133" lon="8.2884167"><ele>812.0</ele><time>2026-04-26T09:17:47.644Z</time></trkpt><trkpt lat="44.2540017" lon="8.2883883"><ele>812.0</ele><time>2026-04-26T09:17:48.644Z</time></trkpt><trkpt lat="44.25408" lon="8.2883783"><ele>812.0000000000001</ele><time>2026-04-26T09:17:49.644Z</time></trkpt><trkpt lat="44.254155" lon="8.2883917"><ele>812.0</ele><time>2026-04-26T09:17:50.644Z</time></trkpt><trkpt lat="44.2542183" lon="8.2884383"><ele>811.4285714285714</ele><time>2026-04-26T09:17:51.644Z</time></trkpt><trkpt lat="44.25427" lon="8.2885067"><ele>810.8571428571429</ele><time>2026-04-26T09:17:52.644Z</time></trkpt><trkpt lat="44.2543067" lon="8.288585"><ele>810.2857142857142</ele><time>2026-04-26T09:17:53.644Z</time></trkpt><trkpt lat="44.2543217" lon="8.28868"><ele>809.7142857142858</ele><time>2026-04-26T09:17:54.644Z</time></trkpt><trkpt lat="44.254335" lon="8.2887867"><ele>809.1428571428571</ele><time>2026-04-26T09:17:55.644Z</time></trkpt><trkpt lat="44.254345" lon="8.288895"><ele>808.5714285714286</ele><time>2026-04-26T09:17:56.644Z</time></trkpt><trkpt lat="44.254355" lon="8.288995"><ele>808.0</ele><time>2026-04-26T09:17:57.644Z</time></trkpt><trkpt lat="44.25437" lon="8.2890867"><ele>807.9999999999999</ele><time>2026-04-26T09:17:58.644Z</time></trkpt><trkpt lat="44.2543917" lon="8.289175"><ele>808.0</ele><time>2026-04-26T09:17:59.645Z</time></trkpt><trkpt lat="44.254425" lon="8.2892717"><ele>808.0</ele><time>2026-04-26T09:18:00.644Z</time></trkpt><trkpt lat="44.2544783" lon="8.2893667"><ele>808.0</ele><time>2026-04-26T09:18:01.645Z</time></trkpt><trkpt lat="44.2545383" lon="8.2894683"><ele>807.9999999999999</ele><time>2026-04-26T09:18:02.644Z</time></trkpt><trkpt lat="44.2545833" lon="8.2896"><ele>808.0</ele><time>2026-04-26T09:18:03.644Z</time></trkpt><trkpt lat="44.2546133" lon="8.2897433"><ele>806.2</ele><time>2026-04-26T09:18:04.644Z</time></trkpt><trkpt lat="44.2546467" lon="8.2898817"><ele>804.4</ele><time>2026-04-26T09:18:05.644Z</time></trkpt><trkpt lat="44.254685" lon="8.2900283"><ele>802.6</ele><time>2026-04-26T09:18:06.644Z</time></trkpt><trkpt lat="44.2547333" lon="8.2901633"><ele>800.8000000000001</ele><time>2026-04-26T09:18:07.644Z</time></trkpt><trkpt lat="44.25478" lon="8.290275"><ele>799.0</ele><time>2026-04-26T09:18:08.644Z</time></trkpt><trkpt lat="44.2548167" lon="8.29039"><ele>805.25</ele><time>2026-04-26T09:18:09.644Z</time></trkpt><trkpt lat="44.25483" lon="8.290505"><ele>811.5</ele><time>2026-04-26T09:18:10.644Z</time></trkpt><trkpt lat="44.2548183" lon="8.29065"><ele>817.75</ele><time>2026-04-26T09:18:11.644Z</time></trkpt><trkpt lat="44.2548033" lon="8.2908267"><ele>824.0</ele><time>2026-04-26T09:18:12.644Z</time></trkpt><trkpt lat="44.2547917" lon="8.2910567"><ele>814.3333333333334</ele><time>2026-04-26T09:18:13.645Z</time></trkpt><trkpt lat="44.2547767" lon="8.2912983"><ele>804.6666666666667</ele><time>2026-04-26T09:18:14.644Z</time></trkpt><trkpt lat="44.25476" lon="8.2915283"><ele>795.0</ele><time>2026-04-26T09:18:15.644Z</time></trkpt><trkpt lat="44.2547533" lon="8.2917267"><ele>795.0</ele><time>2026-04-26T09:18:16.645Z</time></trkpt><trkpt lat="44.25474" lon="8.2919167"><ele>795.0</ele><time>2026-04-26T09:18:17.644Z</time></trkpt><trkpt lat="44.25474" lon="8.2920917"><ele>795.0</ele><time>2026-04-26T09:18:18.644Z</time></trkpt><trkpt lat="44.2547517" lon="8.2922717"><ele>795.0</ele><time>2026-04-26T09:18:19.644Z</time></trkpt><trkpt lat="44.2547783" lon="8.292455"><ele>800.0</ele><time>2026-04-26T09:18:20.644Z</time></trkpt><trkpt lat="44.2548233" lon="8.29264"><ele>805.0</ele><time>2026-04-26T09:18:21.644Z</time></trkpt><trkpt lat="44.2548617" lon="8.2928233"><ele>810.0</ele><time>2026-04-26T09:18:22.645Z</time></trkpt><trkpt lat="44.254895" lon="8.2929967"><ele>815.0</ele><time>2026-04-26T09:18:23.644Z</time></trkpt><trkpt lat="44.2549183" lon="8.29315"><ele>815.0000000000001</ele><time>2026-04-26T09:18:24.644Z</time></trkpt><trkpt lat="44.2549267" lon="8.2932783"><ele>815.0</ele><time>2026-04-26T09:18:25.644Z</time></trkpt><trkpt lat="44.25492" lon="8.2933983"><ele>815.0</ele><time>2026-04-26T09:18:26.644Z</time></trkpt><trkpt lat="44.2549383" lon="8.293495"><ele>815.0</ele><time>2026-04-26T09:18:27.644Z</time></trkpt><trkpt lat="44.2549767" lon="8.2935667"><ele>815.0000000000001</ele><time>2026-04-26T09:18:28.644Z</time></trkpt><trkpt lat="44.2551" lon="8.29364"><ele>815.0</ele><time>2026-04-26T09:18:30.644Z</time></trkpt><trkpt lat="44.2551933" lon="8.2936467"><ele>815.0000000000001</ele><time>2026-04-26T09:18:31.644Z</time></trkpt><trkpt lat="44.25529" lon="8.2936483"><ele>815.0</ele><time>2026-04-26T09:18:32.644Z</time></trkpt><trkpt lat="44.2553883" lon="8.293645"><ele>815.0</ele><time>2026-04-26T09:18:33.644Z</time></trkpt><trkpt lat="44.2554633" lon="8.293675"><ele>815.0</ele><time>2026-04-26T09:18:34.644Z</time></trkpt><trkpt lat="44.25553" lon="8.2937283"><ele>815.0000000000001</ele><time>2026-04-26T09:18:35.644Z</time></trkpt><trkpt lat="44.2555633" lon="8.293805"><ele>815.0</ele><time>2026-04-26T09:18:36.644Z</time></trkpt><trkpt lat="44.2555517" lon="8.2939683"><ele>813.6</ele><time>2026-04-26T09:18:38.644Z</time></trkpt><trkpt lat="44.2555117" lon="8.29406"><ele>812.2</ele><time>2026-04-26T09:18:39.644Z</time></trkpt><trkpt lat="44.2554633" lon="8.29417"><ele>810.8</ele><time>2026-04-26T09:18:40.644Z</time></trkpt><trkpt lat="44.2554133" lon="8.2943317"><ele>809.4</ele><time>2026-04-26T09:18:41.644Z</time></trkpt><trkpt lat="44.2553667" lon="8.2945067"><ele>808.0</ele><time>2026-04-26T09:18:42.644Z</time></trkpt><trkpt lat="44.25533" lon="8.29466"><ele>806.75</ele><time>2026-04-26T09:18:43.644Z</time></trkpt><trkpt lat="44.2553233" lon="8.294825"><ele>805.5</ele><time>2026-04-26T09:18:44.644Z</time></trkpt><trkpt lat="44.2553367" lon="8.2949967"><ele>804.25</ele><time>2026-04-26T09:18:45.645Z</time></trkpt><trkpt lat="44.2553467" lon="8.295185"><ele>803.0</ele><time>2026-04-26T09:18:46.644Z</time></trkpt><trkpt lat="44.2553567" lon="8.295355"><ele>803.0</ele><time>2026-04-26T09:18:47.644Z</time></trkpt><trkpt lat="44.2553483" lon="8.2954967"><ele>803.0</ele><time>2026-04-26T09:18:48.645Z</time></trkpt><trkpt lat="44.2553367" lon="8.29564"><ele>803.0</ele><time>2026-04-26T09:18:49.644Z</time></trkpt><trkpt lat="44.25535" lon="8.2957733"><ele>803.0</ele><time>2026-04-26T09:18:50.645Z</time></trkpt><trkpt lat="44.25538" lon="8.29591"><ele>803.0</ele><time>2026-04-26T09:18:51.644Z</time></trkpt><trkpt lat="44.25543" lon="8.2960483"><ele>801.75</ele><time>2026-04-26T09:18:52.644Z</time></trkpt><trkpt lat="44.2554967" lon="8.2962067"><ele>800.5</ele><time>2026-04-26T09:18:53.644Z</time></trkpt><trkpt lat="44.2555783" lon="8.2963783"><ele>799.25</ele><time>2026-04-26T09:18:54.644Z</time></trkpt><trkpt lat="44.25567" lon="8.2965533"><ele>798.0</ele><time>2026-04-26T09:18:55.644Z</time></trkpt><trkpt lat="44.255765" lon="8.2967283"><ele>802.0</ele><time>2026-04-26T09:18:56.644Z</time></trkpt><trkpt lat="44.255855" lon="8.296885"><ele>806.0</ele><time>2026-04-26T09:18:57.644Z</time></trkpt><trkpt lat="44.2559367" lon="8.297015"><ele>810.0</ele><time>2026-04-26T09:18:58.644Z</time></trkpt><trkpt lat="44.2560017" lon="8.29714"><ele>814.0</ele><time>2026-04-26T09:18:59.644Z</time></trkpt><trkpt lat="44.2560633" lon="8.2972567"><ele>814.0</ele><time>2026-04-26T09:19:00.644Z</time></trkpt><trkpt lat="44.256105" lon="8.2973767"><ele>814.0</ele><time>2026-04-26T09:19:01.644Z</time></trkpt><trkpt lat="44.2561217" lon="8.297515"><ele>814.0</ele><time>2026-04-26T09:19:02.644Z</time></trkpt><trkpt lat="44.256135" lon="8.29767"><ele>814.0</ele><time>2026-04-26T09:19:03.644Z</time></trkpt><trkpt lat="44.256165" lon="8.2978467"><ele>814.0</ele><time>2026-04-26T09:19:04.644Z</time></trkpt><trkpt lat="44.2562" lon="8.2980317"><ele>813.0</ele><time>2026-04-26T09:19:05.645Z</time></trkpt><trkpt lat="44.2562467" lon="8.29821"><ele>812.0</ele><time>2026-04-26T09:19:06.644Z</time></trkpt><trkpt lat="44.2562917" lon="8.298365"><ele>811.0</ele><time>2026-04-26T09:19:07.644Z</time></trkpt><trkpt lat="44.256345" lon="8.2984883"><ele>810.0</ele><time>2026-04-26T09:19:08.644Z</time></trkpt><trkpt lat="44.2563817" lon="8.2986"><ele>809.0</ele><time>2026-04-26T09:19:09.644Z</time></trkpt><trkpt lat="44.25641" lon="8.2987033"><ele>809.0000000000001</ele><time>2026-04-26T09:19:10.644Z</time></trkpt><trkpt lat="44.2564133" lon="8.2987933"><ele>809.0</ele><time>2026-04-26T09:19:11.644Z</time></trkpt><trkpt lat="44.2564083" lon="8.29894"><ele>809.0</ele><time>2026-04-26T09:19:13.644Z</time></trkpt><trkpt lat="44.2564033" lon="8.29904"><ele>809.0</ele><time>2026-04-26T09:19:15.644Z</time></trkpt><trkpt lat="44.256375" lon="8.29914"><ele>809.0000000000001</ele><time>2026-04-26T09:19:17.644Z</time></trkpt><trkpt lat="44.256335" lon="8.2992667"><ele>809.0</ele><time>2026-04-26T09:19:19.644Z</time></trkpt><trkpt lat="44.2563083" lon="8.2994117"><ele>808.5714285714286</ele><time>2026-04-26T09:19:21.644Z</time></trkpt><trkpt lat="44.2562783" lon="8.2995067"><ele>808.1428571428571</ele><time>2026-04-26T09:19:23.645Z</time></trkpt><trkpt lat="44.25623" lon="8.2995933"><ele>807.7142857142858</ele><time>2026-04-26T09:19:27.644Z</time></trkpt><trkpt lat="44.2561883" lon="8.299665"><ele>807.2857142857142</ele><time>2026-04-26T09:19:29.644Z</time></trkpt><trkpt lat="44.256155" lon="8.2997433"><ele>806.8571428571428</ele><time>2026-04-26T09:19:30.644Z</time></trkpt><trkpt lat="44.2561283" lon="8.2998317"><ele>806.4285714285714</ele><time>2026-04-26T09:19:31.644Z</time></trkpt><trkpt lat="44.2560983" lon="8.2999167"><ele>806.0</ele><time>2026-04-26T09:19:32.644Z</time></trkpt><trkpt lat="44.256045" lon="8.3000333"><ele>808.0</ele><time>2026-04-26T09:19:33.644Z</time></trkpt><trkpt lat="44.2559617" lon="8.300165"><ele>810.0</ele><time>2026-04-26T09:19:34.644Z</time></trkpt><trkpt lat="44.25588" lon="8.3002783"><ele>812.0</ele><time>2026-04-26T09:19:35.644Z</time></trkpt><trkpt lat="44.2557967" lon="8.3003967"><ele>814.0</ele><time>2026-04-26T09:19:36.644Z</time></trkpt><trkpt lat="44.2557167" lon="8.30053"><ele>816.75</ele><time>2026-04-26T09:19:37.644Z</time></trkpt><trkpt lat="44.2556483" lon="8.3006817"><ele>819.5</ele><time>2026-04-26T09:19:38.644Z</time></trkpt><trkpt lat="44.2555717" lon="8.300845"><ele>822.25</ele><time>2026-04-26T09:19:39.644Z</time></trkpt><trkpt lat="44.2555167" lon="8.301015"><ele>825.0</ele><time>2026-04-26T09:19:40.644Z</time></trkpt><trkpt lat="44.2554533" lon="8.3011783"><ele>821.75</ele><time>2026-04-26T09:19:41.644Z</time></trkpt><trkpt lat="44.2553817" lon="8.301335"><ele>818.5</ele><time>2026-04-26T09:19:42.644Z</time></trkpt><trkpt lat="44.255315" lon="8.3014933"><ele>815.25</ele><time>2026-04-26T09:19:43.644Z</time></trkpt><trkpt lat="44.2552217" lon="8.3016483"><ele>812.0</ele><time>2026-04-26T09:19:44.644Z</time></trkpt><trkpt lat="44.255125" lon="8.3017817"><ele>812.0</ele><time>2026-04-26T09:19:45.644Z</time></trkpt><trkpt lat="44.2550233" lon="8.301915"><ele>812.0</ele><time>2026-04-26T09:19:46.644Z</time></trkpt><trkpt lat="44.254925" lon="8.3020517"><ele>812.0</ele><time>2026-04-26T09:19:47.644Z</time></trkpt><trkpt lat="44.2548333" lon="8.3021817"><ele>812.0</ele><time>2026-04-26T09:19:48.644Z</time></trkpt><trkpt lat="44.25475" lon="8.3023233"><ele>808.6</ele><time>2026-04-26T09:19:49.644Z</time></trkpt><trkpt lat="44.2546883" lon="8.30244"><ele>805.2</ele><time>2026-04-26T09:19:50.644Z</time></trkpt><trkpt lat="44.2546483" lon="8.302555"><ele>801.8</ele><time>2026-04-26T09:19:51.644Z</time></trkpt><trkpt lat="44.254625" lon="8.3026733"><ele>798.4</ele><time>2026-04-26T09:19:52.644Z</time></trkpt><trkpt lat="44.254635" lon="8.302785"><ele>795.0</ele><time>2026-04-26T09:19:53.644Z</time></trkpt><trkpt lat="44.2546417" lon="8.3029117"><ele>795.0</ele><time>2026-04-26T09:19:54.645Z</time></trkpt><trkpt lat="44.2546367" lon="8.3030383"><ele>795.0</ele><time>2026-04-26T09:19:55.644Z</time></trkpt><trkpt lat="44.2546117" lon="8.3031617"><ele>795.0</ele><time>2026-04-26T09:19:56.644Z</time></trkpt><trkpt lat="44.2545633" lon="8.303265"><ele>795.0</ele><time>2026-04-26T09:19:57.644Z</time></trkpt><trkpt lat="44.2545123" lon="8.3033677"><ele>795.0</ele><time>2026-04-26T09:19:58.644Z</time></trkpt><trkpt lat="44.2544448" lon="8.3034738"><ele>798.25</ele><time>2026-04-26T09:19:59.644Z</time></trkpt><trkpt lat="44.2543684" lon="8.303594"><ele>801.5</ele><time>2026-04-26T09:20:00.644Z</time></trkpt><trkpt lat="44.2543022" lon="8.3037474"><ele>804.75</ele><time>2026-04-26T09:20:01.644Z</time></trkpt><trkpt lat="44.2542508" lon="8.3039163"><ele>808.0</ele><time>2026-04-26T09:20:02.644Z</time></trkpt><trkpt lat="44.2542112" lon="8.3040843"><ele>809.0</ele><time>2026-04-26T09:20:03.644Z</time></trkpt><trkpt lat="44.2541947" lon="8.3042496"><ele>810.0</ele><time>2026-04-26T09:20:04.644Z</time></trkpt><trkpt lat="44.254187" lon="8.3044216"><ele>811.0</ele><time>2026-04-26T09:20:05.644Z</time></trkpt><trkpt lat="44.2541888" lon="8.3046048"><ele>812.0</ele><time>2026-04-26T09:20:06.644Z</time></trkpt><trkpt lat="44.2542005" lon="8.3047912"><ele>812.0</ele><time>2026-04-26T09:20:07.644Z</time></trkpt><trkpt lat="44.2542123" lon="8.3049609"><ele>812.0</ele><time>2026-04-26T09:20:08.644Z</time></trkpt><trkpt lat="44.2542359" lon="8.3051261"><ele>812.0</ele><time>2026-04-26T09:20:09.644Z</time></trkpt><trkpt lat="44.2542677" lon="8.3052878"><ele>812.0</ele><time>2026-04-26T09:20:10.644Z</time></trkpt><trkpt lat="44.2543142" lon="8.3054557"><ele>810.75</ele><time>2026-04-26T09:20:11.644Z</time></trkpt><trkpt lat="44.2543807" lon="8.3056308"><ele>809.5</ele><time>2026-04-26T09:20:12.644Z</time></trkpt><trkpt lat="44.2544479" lon="8.3057966"><ele>808.25</ele><time>2026-04-26T09:20:13.644Z</time></trkpt><trkpt lat="44.2545037" lon="8.3059331"><ele>807.0</ele><time>2026-04-26T09:20:14.644Z</time></trkpt><trkpt lat="44.2545456" lon="8.30606"><ele>807.0</ele><time>2026-04-26T09:20:15.644Z</time></trkpt><trkpt lat="44.2545819" lon="8.3061824"><ele>807.0</ele><time>2026-04-26T09:20:16.644Z</time></trkpt><trkpt lat="44.2546065" lon="8.3063141"><ele>807.0</ele><time>2026-04-26T09:20:17.644Z</time></trkpt><trkpt lat="44.2546198" lon="8.3064447"><ele>807.0</ele><time>2026-04-26T09:20:18.645Z</time></trkpt><trkpt lat="44.2546238" lon="8.3065678"><ele>807.0</ele><time>2026-04-26T09:20:19.644Z</time></trkpt><trkpt lat="44.2546095" lon="8.3066708"><ele>806.3333333333334</ele><time>2026-04-26T09:20:20.644Z</time></trkpt><trkpt lat="44.254588" lon="8.3067791"><ele>805.6666666666667</ele><time>2026-04-26T09:20:21.644Z</time></trkpt><trkpt lat="44.2545745" lon="8.3068893"><ele>805.0</ele><time>2026-04-26T09:20:22.644Z</time></trkpt><trkpt lat="44.2545803" lon="8.3070037"><ele>804.3333333333334</ele><time>2026-04-26T09:20:23.645Z</time></trkpt><trkpt lat="44.2546063" lon="8.3071138"><ele>803.6666666666667</ele><time>2026-04-26T09:20:24.644Z</time></trkpt><trkpt lat="44.2546438" lon="8.3072108"><ele>803.0</ele><time>2026-04-26T09:20:25.644Z</time></trkpt><trkpt lat="44.2546926" lon="8.3072899"><ele>804.4</ele><time>2026-04-26T09:20:26.644Z</time></trkpt><trkpt lat="44.254758" lon="8.3073495"><ele>805.8</ele><time>2026-04-26T09:20:27.644Z</time></trkpt><trkpt lat="44.2548356" lon="8.3074015"><ele>807.2</ele><time>2026-04-26T09:20:28.644Z</time></trkpt><trkpt lat="44.2549231" lon="8.3074606"><ele>808.6</ele><time>2026-04-26T09:20:29.644Z</time></trkpt><trkpt lat="44.2550209" lon="8.3075473"><ele>810.0</ele><time>2026-04-26T09:20:30.644Z</time></trkpt><trkpt lat="44.255115" lon="8.3076579"><ele>810.0</ele><time>2026-04-26T09:20:31.644Z</time></trkpt><trkpt lat="44.2551974" lon="8.3077687"><ele>810.0</ele><time>2026-04-26T09:20:32.644Z</time></trkpt><trkpt lat="44.2552793" lon="8.3078639"><ele>810.0</ele><time>2026-04-26T09:20:33.644Z</time></trkpt><trkpt lat="44.2553711" lon="8.3079547"><ele>810.0</ele><time>2026-04-26T09:20:34.644Z</time></trkpt><trkpt lat="44.2554911" lon="8.3080491"><ele>810.6666666666667</ele><time>2026-04-26T09:20:35.645Z</time></trkpt><trkpt lat="44.2556391" lon="8.3081434"><ele>811.3333333333334</ele><time>2026-04-26T09:20:36.644Z</time></trkpt><trkpt lat="44.2557862" lon="8.3082331"><ele>812.0</ele><time>2026-04-26T09:20:37.645Z</time></trkpt><trkpt lat="44.2559268" lon="8.3083209"><ele>812.0</ele><time>2026-04-26T09:20:38.644Z</time></trkpt><trkpt lat="44.2560477" lon="8.3084102"><ele>812.0</ele><time>2026-04-26T09:20:39.645Z</time></trkpt><trkpt lat="44.2561648" lon="8.3085066"><ele>812.0</ele><time>2026-04-26T09:20:40.645Z</time></trkpt><trkpt lat="44.2562638" lon="8.3086105"><ele>812.0</ele><time>2026-04-26T09:20:41.644Z</time></trkpt><trkpt lat="44.2563458" lon="8.3087196"><ele>812.0</ele><time>2026-04-26T09:20:42.644Z</time></trkpt><trkpt lat="44.2563985" lon="8.3088437"><ele>812.0</ele><time>2026-04-26T09:20:43.644Z</time></trkpt><trkpt lat="44.2564443" lon="8.3089648"><ele>812.0</ele><time>2026-04-26T09:20:44.644Z</time></trkpt><trkpt lat="44.2564998" lon="8.3090544"><ele>812.0</ele><time>2026-04-26T09:20:45.644Z</time></trkpt><trkpt lat="44.2565663" lon="8.3091244"><ele>812.0</ele><time>2026-04-26T09:20:46.645Z</time></trkpt><trkpt lat="44.2566451" lon="8.3091826"><ele>811.75</ele><time>2026-04-26T09:20:47.644Z</time></trkpt><trkpt lat="44.2567437" lon="8.3092411"><ele>811.5</ele><time>2026-04-26T09:20:48.644Z</time></trkpt><trkpt lat="44.256868" lon="8.3093062"><ele>811.25</ele><time>2026-04-26T09:20:49.644Z</time></trkpt><trkpt lat="44.2569912" lon="8.3093958"><ele>811.0</ele><time>2026-04-26T09:20:50.644Z</time></trkpt><trkpt lat="44.2570946" lon="8.3095046"><ele>811.0</ele><time>2026-04-26T09:20:51.645Z</time></trkpt><trkpt lat="44.2572022" lon="8.3096086"><ele>811.0</ele><time>2026-04-26T09:20:52.644Z</time></trkpt><trkpt lat="44.2573171" lon="8.309705"><ele>811.0</ele><time>2026-04-26T09:20:53.644Z</time></trkpt><trkpt lat="44.257427" lon="8.3097923"><ele>811.0</ele><time>2026-04-26T09:20:54.644Z</time></trkpt><trkpt lat="44.2575225" lon="8.3098544"><ele>810.1999999999999</ele><time>2026-04-26T09:20:55.644Z</time></trkpt><trkpt lat="44.2576084" lon="8.3099258"><ele>809.4</ele><time>2026-04-26T09:20:56.644Z</time></trkpt><trkpt lat="44.2576938" lon="8.3100133"><ele>808.6</ele><time>2026-04-26T09:20:57.644Z</time></trkpt><trkpt lat="44.2577819" lon="8.3101159"><ele>807.8</ele><time>2026-04-26T09:20:58.644Z</time></trkpt><trkpt lat="44.2578561" lon="8.3102143"><ele>807.0</ele><time>2026-04-26T09:20:59.644Z</time></trkpt><trkpt lat="44.2579279" lon="8.3102965"><ele>807.0</ele><time>2026-04-26T09:21:00.644Z</time></trkpt><trkpt lat="44.2579966" lon="8.3103626"><ele>807.0</ele><time>2026-04-26T09:21:01.644Z</time></trkpt><trkpt lat="44.2580681" lon="8.3104041"><ele>807.0</ele><time>2026-04-26T09:21:02.644Z</time></trkpt><trkpt lat="44.258146" lon="8.3104183"><ele>807.0</ele><time>2026-04-26T09:21:03.644Z</time></trkpt><trkpt lat="44.2582333" lon="8.310395"><ele>807.0</ele><time>2026-04-26T09:21:04.644Z</time></trkpt><trkpt lat="44.2583317" lon="8.3103733"><ele>807.0</ele><time>2026-04-26T09:21:05.644Z</time></trkpt><trkpt lat="44.2584567" lon="8.31035"><ele>807.0</ele><time>2026-04-26T09:21:06.645Z</time></trkpt><trkpt lat="44.2586033" lon="8.31033"><ele>807.0</ele><time>2026-04-26T09:21:07.644Z</time></trkpt><trkpt lat="44.2587633" lon="8.3103133"><ele>807.0</ele><time>2026-04-26T09:21:08.644Z</time></trkpt><trkpt lat="44.258895" lon="8.3103017"><ele>807.0</ele><time>2026-04-26T09:21:09.645Z</time></trkpt><trkpt lat="44.2590317" lon="8.31028"><ele>807.0</ele><time>2026-04-26T09:21:10.644Z</time></trkpt><trkpt lat="44.2591533" lon="8.3102567"><ele>807.0</ele><time>2026-04-26T09:21:11.644Z</time></trkpt><trkpt lat="44.25926" lon="8.3102483"><ele>807.0</ele><time>2026-04-26T09:21:12.645Z</time></trkpt><trkpt lat="44.25936" lon="8.3102517"><ele>807.0</ele><time>2026-04-26T09:21:13.644Z</time></trkpt><trkpt lat="44.25945" lon="8.3102733"><ele>807.0</ele><time>2026-04-26T09:21:14.644Z</time></trkpt><trkpt lat="44.2595317" lon="8.3103033"><ele>807.0</ele><time>2026-04-26T09:21:15.645Z</time></trkpt><trkpt lat="44.2595967" lon="8.3103333"><ele>807.0</ele><time>2026-04-26T09:21:16.644Z</time></trkpt><trkpt lat="44.259665" lon="8.3104083"><ele>807.0</ele><time>2026-04-26T09:21:18.644Z</time></trkpt><trkpt lat="44.2597117" lon="8.3104983"><ele>807.0</ele><time>2026-04-26T09:21:20.644Z</time></trkpt><trkpt lat="44.2597467" lon="8.31059"><ele>807.0</ele><time>2026-04-26T09:21:23.644Z</time></trkpt><trkpt lat="44.25975" lon="8.3107367"><ele>807.0</ele><time>2026-04-26T09:21:30.644Z</time></trkpt><trkpt lat="44.2597567" lon="8.3108433"><ele>805.6</ele><time>2026-04-26T09:21:31.644Z</time></trkpt><trkpt lat="44.2597583" lon="8.310975"><ele>804.2</ele><time>2026-04-26T09:21:32.644Z</time></trkpt><trkpt lat="44.259755" lon="8.311115"><ele>802.8</ele><time>2026-04-26T09:21:33.645Z</time></trkpt><trkpt lat="44.25974" lon="8.3112633"><ele>801.4</ele><time>2026-04-26T09:21:34.644Z</time></trkpt><trkpt lat="44.2597183" lon="8.3114267"><ele>800.0</ele><time>2026-04-26T09:21:35.644Z</time></trkpt><trkpt lat="44.2596867" lon="8.311635"><ele>799.0</ele><time>2026-04-26T09:21:36.644Z</time></trkpt><trkpt lat="44.2596483" lon="8.3118733"><ele>798.0</ele><time>2026-04-26T09:21:37.645Z</time></trkpt><trkpt lat="44.25962" lon="8.3121017"><ele>797.0</ele><time>2026-04-26T09:21:38.645Z</time></trkpt><trkpt lat="44.2595817" lon="8.3123033"><ele>796.6</ele><time>2026-04-26T09:21:39.644Z</time></trkpt><trkpt lat="44.25955" lon="8.3124833"><ele>796.2</ele><time>2026-04-26T09:21:40.644Z</time></trkpt><trkpt lat="44.25953" lon="8.3126267"><ele>795.8</ele><time>2026-04-26T09:21:41.644Z</time></trkpt><trkpt lat="44.2595183" lon="8.3127283"><ele>795.4</ele><time>2026-04-26T09:21:42.645Z</time></trkpt><trkpt lat="44.2595083" lon="8.312835"><ele>795.0</ele><time>2026-04-26T09:21:44.645Z</time></trkpt><trkpt lat="44.2595033" lon="8.312965"><ele>795.25</ele><time>2026-04-26T09:21:48.644Z</time></trkpt><trkpt lat="44.2594867" lon="8.31313"><ele>795.5</ele><time>2026-04-26T09:21:50.644Z</time></trkpt><trkpt lat="44.25947" lon="8.31325"><ele>795.75</ele><time>2026-04-26T09:21:51.644Z</time></trkpt><trkpt lat="44.259445" lon="8.3134033"><ele>796.0</ele><time>2026-04-26T09:21:52.644Z</time></trkpt><trkpt lat="44.2594167" lon="8.3136"><ele>796.0</ele><time>2026-04-26T09:21:53.644Z</time></trkpt><trkpt lat="44.2593833" lon="8.3137867"><ele>796.0</ele><time>2026-04-26T09:21:54.644Z</time></trkpt><trkpt lat="44.2593667" lon="8.3139583"><ele>796.0</ele><time>2026-04-26T09:21:55.644Z</time></trkpt><trkpt lat="44.2593517" lon="8.3141083"><ele>796.0</ele><time>2026-04-26T09:21:56.644Z</time></trkpt><trkpt lat="44.2593433" lon="8.31423"><ele>795.8333333333333</ele><time>2026-04-26T09:21:57.644Z</time></trkpt><trkpt lat="44.2593317" lon="8.3143533"><ele>795.6666666666666</ele><time>2026-04-26T09:21:58.644Z</time></trkpt><trkpt lat="44.2593283" lon="8.3144767"><ele>795.5</ele><time>2026-04-26T09:21:59.644Z</time></trkpt><trkpt lat="44.2593433" lon="8.3145933"><ele>795.3333333333333</ele><time>2026-04-26T09:22:00.644Z</time></trkpt><trkpt lat="44.25937" lon="8.314695"><ele>795.1666666666666</ele><time>2026-04-26T09:22:01.644Z</time></trkpt><trkpt lat="44.25942" lon="8.314795"><ele>795.0</ele><time>2026-04-26T09:22:02.644Z</time></trkpt><trkpt lat="44.2594767" lon="8.3149017"><ele>793.8</ele><time>2026-04-26T09:22:03.644Z</time></trkpt><trkpt lat="44.2595433" lon="8.314995"><ele>792.6</ele><time>2026-04-26T09:22:04.644Z</time></trkpt><trkpt lat="44.2595967" lon="8.315095"><ele>791.4000000000001</ele><time>2026-04-26T09:22:05.644Z</time></trkpt><trkpt lat="44.2596433" lon="8.3152117"><ele>790.2</ele><time>2026-04-26T09:22:06.644Z</time></trkpt><trkpt lat="44.25968" lon="8.3153283"><ele>789.0</ele><time>2026-04-26T09:22:07.644Z</time></trkpt><trkpt lat="44.2597017" lon="8.3154417"><ele>789.0</ele><time>2026-04-26T09:22:08.644Z</time></trkpt><trkpt lat="44.2597133" lon="8.3155433"><ele>789.0</ele><time>2026-04-26T09:22:09.644Z</time></trkpt><trkpt lat="44.2597067" lon="8.3156317"><ele>789.0</ele><time>2026-04-26T09:22:10.644Z</time></trkpt><trkpt lat="44.2596883" lon="8.3157267"><ele>789.0</ele><time>2026-04-26T09:22:11.644Z</time></trkpt><trkpt lat="44.2596717" lon="8.3158117"><ele>789.0</ele><time>2026-04-26T09:22:12.644Z</time></trkpt><trkpt lat="44.25964" lon="8.3159833"><ele>789.0</ele><time>2026-04-26T09:22:14.644Z</time></trkpt><trkpt lat="44.2596317" lon="8.316075"><ele>787.1666666666666</ele><time>2026-04-26T09:22:15.644Z</time></trkpt><trkpt lat="44.259625" lon="8.316175"><ele>785.3333333333333</ele><time>2026-04-26T09:22:16.644Z</time></trkpt><trkpt lat="44.2596183" lon="8.316275"><ele>783.5</ele><time>2026-04-26T09:22:17.644Z</time></trkpt><trkpt lat="44.2596183" lon="8.31639"><ele>781.6666666666666</ele><time>2026-04-26T09:22:18.644Z</time></trkpt><trkpt lat="44.2596" lon="8.3165117"><ele>779.8333333333333</ele><time>2026-04-26T09:22:19.644Z</time></trkpt><trkpt lat="44.259575" lon="8.3166317"><ele>778.0</ele><time>2026-04-26T09:22:20.644Z</time></trkpt><trkpt lat="44.2595467" lon="8.3167617"><ele>777.8</ele><time>2026-04-26T09:22:21.644Z</time></trkpt><trkpt lat="44.2595117" lon="8.316875"><ele>777.5999999999999</ele><time>2026-04-26T09:22:22.644Z</time></trkpt><trkpt lat="44.2594383" lon="8.317035"><ele>777.4000000000001</ele><time>2026-04-26T09:22:24.644Z</time></trkpt><trkpt lat="44.2594367" lon="8.3171433"><ele>777.2</ele><time>2026-04-26T09:22:25.644Z</time></trkpt><trkpt lat="44.2594417" lon="8.3172667"><ele>777.0</ele><time>2026-04-26T09:22:26.644Z</time></trkpt><trkpt lat="44.2594383" lon="8.3173817"><ele>777.5</ele><time>2026-04-26T09:22:27.644Z</time></trkpt><trkpt lat="44.2594167" lon="8.3174933"><ele>778.0</ele><time>2026-04-26T09:22:28.644Z</time></trkpt><trkpt lat="44.25938" lon="8.31759"><ele>778.5</ele><time>2026-04-26T09:22:29.644Z</time></trkpt><trkpt lat="44.25933" lon="8.3176733"><ele>779.0</ele><time>2026-04-26T09:22:30.644Z</time></trkpt><trkpt lat="44.2592733" lon="8.3177467"><ele>779.5</ele><time>2026-04-26T09:22:31.645Z</time></trkpt><trkpt lat="44.2592167" lon="8.31782"><ele>780.0</ele><time>2026-04-26T09:22:32.644Z</time></trkpt><trkpt lat="44.2591733" lon="8.3178967"><ele>780.0</ele><time>2026-04-26T09:22:33.644Z</time></trkpt><trkpt lat="44.25913" lon="8.3179817"><ele>780.0</ele><time>2026-04-26T09:22:34.644Z</time></trkpt><trkpt lat="44.2591" lon="8.3180683"><ele>780.0</ele><time>2026-04-26T09:22:35.645Z</time></trkpt><trkpt lat="44.2590733" lon="8.3181683"><ele>780.0</ele><time>2026-04-26T09:22:36.644Z</time></trkpt><trkpt lat="44.259045" lon="8.3182733"><ele>780.0</ele><time>2026-04-26T09:22:37.644Z</time></trkpt><trkpt lat="44.2590183" lon="8.3183733"><ele>780.0</ele><time>2026-04-26T09:22:38.644Z</time></trkpt><trkpt lat="44.2589817" lon="8.3184717"><ele>774.8333333333334</ele><time>2026-04-26T09:22:39.644Z</time></trkpt><trkpt lat="44.25894" lon="8.318555"><ele>769.6666666666666</ele><time>2026-04-26T09:22:40.644Z</time></trkpt><trkpt lat="44.2588917" lon="8.31864"><ele>764.5</ele><time>2026-04-26T09:22:41.644Z</time></trkpt><trkpt lat="44.2588383" lon="8.3187133"><ele>759.3333333333333</ele><time>2026-04-26T09:22:42.645Z</time></trkpt><trkpt lat="44.25877" lon="8.3187867"><ele>754.1666666666666</ele><time>2026-04-26T09:22:43.644Z</time></trkpt><trkpt lat="44.2587017" lon="8.3188433"><ele>749.0</ele><time>2026-04-26T09:22:44.644Z</time></trkpt><trkpt lat="44.2586317" lon="8.3188817"><ele>751.1428571428571</ele><time>2026-04-26T09:22:45.645Z</time></trkpt><trkpt lat="44.25856" lon="8.31894"><ele>753.2857142857142</ele><time>2026-04-26T09:22:46.644Z</time></trkpt><trkpt lat="44.258505" lon="8.318995"><ele>755.4285714285714</ele><time>2026-04-26T09:22:47.644Z</time></trkpt><trkpt lat="44.2584467" lon="8.3190683"><ele>757.5714285714286</ele><time>2026-04-26T09:22:48.645Z</time></trkpt><trkpt lat="44.258395" lon="8.319145"><ele>759.7142857142857</ele><time>2026-04-26T09:22:49.644Z</time></trkpt><trkpt lat="44.2583517" lon="8.319225"><ele>761.8571428571429</ele><time>2026-04-26T09:22:50.645Z</time></trkpt><trkpt lat="44.25833" lon="8.3193167"><ele>764.0</ele><time>2026-04-26T09:22:51.644Z</time></trkpt><trkpt lat="44.2583" lon="8.3194133"><ele>764.0</ele><time>2026-04-26T09:22:52.644Z</time></trkpt><trkpt lat="44.2582633" lon="8.3195117"><ele>764.0</ele><time>2026-04-26T09:22:53.644Z</time></trkpt><trkpt lat="44.2582117" lon="8.31962"><ele>764.0</ele><time>2026-04-26T09:22:54.644Z</time></trkpt><trkpt lat="44.2581617" lon="8.3197067"><ele>764.0</ele><time>2026-04-26T09:22:55.645Z</time></trkpt><trkpt lat="44.2581117" lon="8.3197867"><ele>764.0</ele><time>2026-04-26T09:22:56.644Z</time></trkpt><trkpt lat="44.2580533" lon="8.31988"><ele>764.0</ele><time>2026-04-26T09:22:57.644Z</time></trkpt><trkpt lat="44.2579933" lon="8.3199667"><ele>760.5</ele><time>2026-04-26T09:22:58.644Z</time></trkpt><trkpt lat="44.2579333" lon="8.3200483"><ele>757.0</ele><time>2026-04-26T09:22:59.644Z</time></trkpt><trkpt lat="44.25788" lon="8.32013"><ele>753.5</ele><time>2026-04-26T09:23:00.645Z</time></trkpt><trkpt lat="44.2578217" lon="8.3202233"><ele>750.0</ele><time>2026-04-26T09:23:01.644Z</time></trkpt><trkpt lat="44.2577767" lon="8.3203117"><ele>746.5</ele><time>2026-04-26T09:23:02.644Z</time></trkpt><trkpt lat="44.2577317" lon="8.32041"><ele>743.0</ele><time>2026-04-26T09:23:03.644Z</time></trkpt><trkpt lat="44.25768" lon="8.320515"><ele>745.8</ele><time>2026-04-26T09:23:04.644Z</time></trkpt><trkpt lat="44.2576317" lon="8.3206317"><ele>748.5999999999999</ele><time>2026-04-26T09:23:05.644Z</time></trkpt><trkpt lat="44.2575783" lon="8.3207517"><ele>751.4000000000001</ele><time>2026-04-26T09:23:06.644Z</time></trkpt><trkpt lat="44.25753" lon="8.3208733"><ele>754.2</ele><time>2026-04-26T09:23:07.644Z</time></trkpt><trkpt lat="44.257475" lon="8.320995"><ele>757.0</ele><time>2026-04-26T09:23:08.644Z</time></trkpt><trkpt lat="44.2574283" lon="8.3211067"><ele>757.0</ele><time>2026-04-26T09:23:09.644Z</time></trkpt><trkpt lat="44.2573817" lon="8.3212367"><ele>757.0</ele><time>2026-04-26T09:23:10.644Z</time></trkpt><trkpt lat="44.2573333" lon="8.3213733"><ele>757.0</ele><time>2026-04-26T09:23:11.644Z</time></trkpt><trkpt lat="44.2572817" lon="8.3214983"><ele>757.0</ele><time>2026-04-26T09:23:12.644Z</time></trkpt><trkpt lat="44.25724" lon="8.3216367"><ele>757.0</ele><time>2026-04-26T09:23:13.644Z</time></trkpt><trkpt lat="44.257195" lon="8.3217767"><ele>753.8</ele><time>2026-04-26T09:23:14.644Z</time></trkpt><trkpt lat="44.2571483" lon="8.3219133"><ele>750.6</ele><time>2026-04-26T09:23:15.645Z</time></trkpt><trkpt lat="44.2571" lon="8.3220267"><ele>747.4</ele><time>2026-04-26T09:23:16.645Z</time></trkpt><trkpt lat="44.2570483" lon="8.3221317"><ele>744.1999999999999</ele><time>2026-04-26T09:23:17.645Z</time></trkpt><trkpt lat="44.2569933" lon="8.3222167"><ele>741.0</ele><time>2026-04-26T09:23:18.645Z</time></trkpt><trkpt lat="44.2569217" lon="8.3223017"><ele>741.0</ele><time>2026-04-26T09:23:19.645Z</time></trkpt><trkpt lat="44.25687" lon="8.3223817"><ele>741.0</ele><time>2026-04-26T09:23:20.645Z</time></trkpt><trkpt lat="44.2568" lon="8.3225033"><ele>741.0</ele><time>2026-04-26T09:23:22.645Z</time></trkpt><trkpt lat="44.2567317" lon="8.3225833"><ele>741.0</ele><time>2026-04-26T09:23:24.645Z</time></trkpt><trkpt lat="44.2566317" lon="8.3226933"><ele>741.0</ele><time>2026-04-26T09:23:26.645Z</time></trkpt><trkpt lat="44.256575" lon="8.32276"><ele>741.0</ele><time>2026-04-26T09:23:27.646Z</time></trkpt><trkpt lat="44.2565217" lon="8.3228267"><ele>741.0</ele><time>2026-04-26T09:23:28.645Z</time></trkpt><trkpt lat="44.2564733" lon="8.3228917"><ele>741.0</ele><time>2026-04-26T09:23:29.645Z</time></trkpt><trkpt lat="44.2564067" lon="8.3229533"><ele>741.0</ele><time>2026-04-26T09:23:30.646Z</time></trkpt><trkpt lat="44.256335" lon="8.3230083"><ele>741.0</ele><time>2026-04-26T09:23:31.645Z</time></trkpt><trkpt lat="44.2562567" lon="8.3230483"><ele>741.0</ele><time>2026-04-26T09:23:32.645Z</time></trkpt><trkpt lat="44.2561733" lon="8.3230783"><ele>738.5</ele><time>2026-04-26T09:23:33.645Z</time></trkpt><trkpt lat="44.2560867" lon="8.3231167"><ele>736.0</ele><time>2026-04-26T09:23:34.645Z</time></trkpt><trkpt lat="44.2560083" lon="8.323155"><ele>733.5</ele><time>2026-04-26T09:23:35.645Z</time></trkpt><trkpt lat="44.2559233" lon="8.3231983"><ele>731.0</ele><time>2026-04-26T09:23:36.645Z</time></trkpt><trkpt lat="44.2558383" lon="8.32324"><ele>728.5</ele><time>2026-04-26T09:23:37.645Z</time></trkpt><trkpt lat="44.25575" lon="8.32328"><ele>726.0</ele><time>2026-04-26T09:23:38.645Z</time></trkpt><trkpt lat="44.2556683" lon="8.3233233"><ele>722.0</ele><time>2026-04-26T09:23:39.645Z</time></trkpt><trkpt lat="44.2555967" lon="8.3233783"><ele>718.0</ele><time>2026-04-26T09:23:40.645Z</time></trkpt><trkpt lat="44.2555367" lon="8.3234483"><ele>714.0</ele><time>2026-04-26T09:23:41.645Z</time></trkpt><trkpt lat="44.2554767" lon="8.3235567"><ele>710.0</ele><time>2026-04-26T09:23:43.645Z</time></trkpt><trkpt lat="44.2554467" lon="8.32373"><ele>706.0</ele><time>2026-04-26T09:23:45.645Z</time></trkpt><trkpt lat="44.2554633" lon="8.3239"><ele>705.5</ele><time>2026-04-26T09:23:47.645Z</time></trkpt><trkpt lat="44.2554783" lon="8.3240367"><ele>705.0</ele><time>2026-04-26T09:23:49.645Z</time></trkpt><trkpt lat="44.255505" lon="8.324175"><ele>704.5</ele><time>2026-04-26T09:23:51.645Z</time></trkpt><trkpt lat="44.2555217" lon="8.3242717"><ele>704.0</ele><time>2026-04-26T09:23:52.645Z</time></trkpt><trkpt lat="44.2555383" lon="8.3243783"><ele>703.5</ele><time>2026-04-26T09:23:53.645Z</time></trkpt><trkpt lat="44.255555" lon="8.3245017"><ele>703.0</ele><time>2026-04-26T09:23:54.645Z</time></trkpt><trkpt lat="44.2555683" lon="8.32461"><ele>703.0</ele><time>2026-04-26T09:23:55.645Z</time></trkpt><trkpt lat="44.2555733" lon="8.3247217"><ele>703.0</ele><time>2026-04-26T09:23:56.645Z</time></trkpt><trkpt lat="44.25558" lon="8.32482"><ele>703.0</ele><time>2026-04-26T09:23:57.645Z</time></trkpt><trkpt lat="44.255595" lon="8.324925"><ele>703.0</ele><time>2026-04-26T09:23:58.645Z</time></trkpt><trkpt lat="44.25563" lon="8.3250317"><ele>703.0</ele><time>2026-04-26T09:23:59.646Z</time></trkpt><trkpt lat="44.25568" lon="8.3251417"><ele>703.0</ele><time>2026-04-26T09:24:00.646Z</time></trkpt><trkpt lat="44.2557317" lon="8.3252533"><ele>703.0</ele><time>2026-04-26T09:24:01.645Z</time></trkpt><trkpt lat="44.2557967" lon="8.325375"><ele>703.0</ele><time>2026-04-26T09:24:02.645Z</time></trkpt><trkpt lat="44.2558583" lon="8.325495"><ele>703.0</ele><time>2026-04-26T09:24:03.645Z</time></trkpt><trkpt lat="44.2559133" lon="8.3256233"><ele>703.0</ele><time>2026-04-26T09:24:04.645Z</time></trkpt><trkpt lat="44.255965" lon="8.3257433"><ele>703.0</ele><time>2026-04-26T09:24:05.646Z</time></trkpt><trkpt lat="44.2560217" lon="8.32587"><ele>703.0</ele><time>2026-04-26T09:24:06.645Z</time></trkpt><trkpt lat="44.2560733" lon="8.3259783"><ele>703.0</ele><time>2026-04-26T09:24:07.645Z</time></trkpt><trkpt lat="44.2561167" lon="8.3260717"><ele>703.0</ele><time>2026-04-26T09:24:08.645Z</time></trkpt><trkpt lat="44.25614" lon="8.3261633"><ele>703.0</ele><time>2026-04-26T09:24:09.645Z</time></trkpt><trkpt lat="44.2561433" lon="8.3262767"><ele>703.0</ele><time>2026-04-26T09:24:10.645Z</time></trkpt><trkpt lat="44.2561317" lon="8.3263917"><ele>703.0</ele><time>2026-04-26T09:24:11.645Z</time></trkpt><trkpt lat="44.2561217" lon="8.3265117"><ele>700.8</ele><time>2026-04-26T09:24:12.645Z</time></trkpt><trkpt lat="44.2561133" lon="8.3266383"><ele>698.5999999999999</ele><time>2026-04-26T09:24:13.645Z</time></trkpt><trkpt lat="44.2561133" lon="8.326785"><ele>696.4000000000001</ele><time>2026-04-26T09:24:14.645Z</time></trkpt><trkpt lat="44.2561217" lon="8.326945"><ele>694.2</ele><time>2026-04-26T09:24:15.645Z</time></trkpt><trkpt lat="44.256135" lon="8.3270917"><ele>692.0</ele><time>2026-04-26T09:24:16.645Z</time></trkpt><trkpt lat="44.2561633" lon="8.3272333"><ele>691.8</ele><time>2026-04-26T09:24:17.645Z</time></trkpt><trkpt lat="44.25621" lon="8.3273683"><ele>691.6</ele><time>2026-04-26T09:24:18.645Z</time></trkpt><trkpt lat="44.256265" lon="8.3275033"><ele>691.4</ele><time>2026-04-26T09:24:19.645Z</time></trkpt><trkpt lat="44.2563183" lon="8.3276183"><ele>691.1999999999999</ele><time>2026-04-26T09:24:20.645Z</time></trkpt><trkpt lat="44.2563617" lon="8.3277217"><ele>691.0</ele><time>2026-04-26T09:24:21.645Z</time></trkpt><trkpt lat="44.2563983" lon="8.327835"><ele>691.0</ele><time>2026-04-26T09:24:22.645Z</time></trkpt><trkpt lat="44.2564217" lon="8.327965"><ele>691.0</ele><time>2026-04-26T09:24:23.645Z</time></trkpt><trkpt lat="44.25643" lon="8.3281033"><ele>691.0</ele><time>2026-04-26T09:24:24.645Z</time></trkpt><trkpt lat="44.2564217" lon="8.3282317"><ele>691.0</ele><time>2026-04-26T09:24:25.645Z</time></trkpt><trkpt lat="44.2564" lon="8.3283583"><ele>691.0</ele><time>2026-04-26T09:24:26.645Z</time></trkpt><trkpt lat="44.25637" lon="8.3284783"><ele>689.1666666666667</ele><time>2026-04-26T09:24:27.645Z</time></trkpt><trkpt lat="44.2563433" lon="8.3285933"><ele>687.3333333333334</ele><time>2026-04-26T09:24:28.645Z</time></trkpt><trkpt lat="44.25633" lon="8.3287167"><ele>685.5</ele><time>2026-04-26T09:24:29.645Z</time></trkpt><trkpt lat="44.2563133" lon="8.32883"><ele>683.6666666666666</ele><time>2026-04-26T09:24:30.645Z</time></trkpt><trkpt lat="44.25629" lon="8.3289467"><ele>681.8333333333333</ele><time>2026-04-26T09:24:31.645Z</time></trkpt><trkpt lat="44.25627" lon="8.3290467"><ele>680.0</ele><time>2026-04-26T09:24:32.645Z</time></trkpt><trkpt lat="44.2562483" lon="8.32916"><ele>679.5</ele><time>2026-04-26T09:24:33.645Z</time></trkpt><trkpt lat="44.2562233" lon="8.32926"><ele>679.0</ele><time>2026-04-26T09:24:34.646Z</time></trkpt><trkpt lat="44.2561733" lon="8.3293517"><ele>678.5</ele><time>2026-04-26T09:24:35.645Z</time></trkpt><trkpt lat="44.256115" lon="8.3294383"><ele>678.0</ele><time>2026-04-26T09:24:36.645Z</time></trkpt><trkpt lat="44.25606" lon="8.32953"><ele>677.5</ele><time>2026-04-26T09:24:37.645Z</time></trkpt><trkpt lat="44.2560083" lon="8.3296317"><ele>677.0</ele><time>2026-04-26T09:24:38.645Z</time></trkpt><trkpt lat="44.255965" lon="8.3297433"><ele>677.0</ele><time>2026-04-26T09:24:39.645Z</time></trkpt><trkpt lat="44.25592" lon="8.3298533"><ele>677.0</ele><time>2026-04-26T09:24:40.645Z</time></trkpt><trkpt lat="44.2558717" lon="8.3299633"><ele>677.0</ele><time>2026-04-26T09:24:41.645Z</time></trkpt><trkpt lat="44.2558367" lon="8.3300633"><ele>677.0</ele><time>2026-04-26T09:24:42.645Z</time></trkpt><trkpt lat="44.2558083" lon="8.3301717"><ele>677.0</ele><time>2026-04-26T09:24:43.645Z</time></trkpt><trkpt lat="44.25579" lon="8.33028"><ele>677.0</ele><time>2026-04-26T09:24:44.645Z</time></trkpt><trkpt lat="44.2557633" lon="8.3303817"><ele>677.0</ele><time>2026-04-26T09:24:45.645Z</time></trkpt><trkpt lat="44.25573" lon="8.3304817"><ele>677.0</ele><time>2026-04-26T09:24:46.645Z</time></trkpt><trkpt lat="44.2556933" lon="8.330595"><ele>677.0</ele><time>2026-04-26T09:24:47.645Z</time></trkpt><trkpt lat="44.25565" lon="8.3307133"><ele>677.0</ele><time>2026-04-26T09:24:48.645Z</time></trkpt><trkpt lat="44.255625" lon="8.33083"><ele>677.0</ele><time>2026-04-26T09:24:49.645Z</time></trkpt><trkpt lat="44.2556133" lon="8.3309717"><ele>676.4000000000001</ele><time>2026-04-26T09:24:50.645Z</time></trkpt><trkpt lat="44.255615" lon="8.3311217"><ele>675.8000000000001</ele><time>2026-04-26T09:24:51.645Z</time></trkpt><trkpt lat="44.255635" lon="8.33126"><ele>675.2</ele><time>2026-04-26T09:24:52.645Z</time></trkpt><trkpt lat="44.2556683" lon="8.33139"><ele>674.6</ele><time>2026-04-26T09:24:53.645Z</time></trkpt><trkpt lat="44.2556983" lon="8.331505"><ele>674.0</ele><time>2026-04-26T09:24:54.645Z</time></trkpt><trkpt lat="44.2557367" lon="8.3316133"><ele>672.3333333333333</ele><time>2026-04-26T09:24:55.645Z</time></trkpt><trkpt lat="44.2557883" lon="8.33171"><ele>670.6666666666666</ele><time>2026-04-26T09:24:56.646Z</time></trkpt><trkpt lat="44.2558367" lon="8.33179"><ele>669.0</ele><time>2026-04-26T09:24:57.645Z</time></trkpt><trkpt lat="44.2558917" lon="8.3318367"><ele>667.3333333333334</ele><time>2026-04-26T09:24:58.645Z</time></trkpt><trkpt lat="44.2560033" lon="8.3318517"><ele>665.6666666666667</ele><time>2026-04-26T09:25:00.645Z</time></trkpt><trkpt lat="44.2561017" lon="8.3317883"><ele>664.0</ele><time>2026-04-26T09:25:02.645Z</time></trkpt><trkpt lat="44.2562033" lon="8.3316733"><ele>664.0</ele><time>2026-04-26T09:25:04.645Z</time></trkpt><trkpt lat="44.2562483" lon="8.3316083"><ele>664.0</ele><time>2026-04-26T09:25:05.645Z</time></trkpt><trkpt lat="44.2563367" lon="8.3315033"><ele>664.0</ele><time>2026-04-26T09:25:07.645Z</time></trkpt><trkpt lat="44.2563933" lon="8.331445"><ele>664.0</ele><time>2026-04-26T09:25:09.645Z</time></trkpt><trkpt lat="44.25646" lon="8.3315283"><ele>664.0</ele><time>2026-04-26T09:25:29.645Z</time></trkpt><trkpt lat="44.2564633" lon="8.3316717"><ele>664.0</ele><time>2026-04-26T09:25:31.645Z</time></trkpt><trkpt lat="44.2564583" lon="8.3318417"><ele>664.0</ele><time>2026-04-26T09:25:33.645Z</time></trkpt><trkpt lat="44.256445" lon="8.3319333"><ele>664.0</ele><time>2026-04-26T09:25:34.645Z</time></trkpt><trkpt lat="44.25642" lon="8.332015"><ele>664.0</ele><time>2026-04-26T09:25:35.645Z</time></trkpt><trkpt lat="44.256375" lon="8.3320917"><ele>664.0</ele><time>2026-04-26T09:25:36.645Z</time></trkpt><trkpt lat="44.2563083" lon="8.3321583"><ele>664.0</ele><time>2026-04-26T09:25:37.645Z</time></trkpt><trkpt lat="44.2562317" lon="8.3322317"><ele>664.0</ele><time>2026-04-26T09:25:38.645Z</time></trkpt><trkpt lat="44.2560767" lon="8.3323867"><ele>661.75</ele><time>2026-04-26T09:25:40.646Z</time></trkpt><trkpt lat="44.2559867" lon="8.332465"><ele>659.5</ele><time>2026-04-26T09:25:41.645Z</time></trkpt><trkpt lat="44.25589" lon="8.332535"><ele>657.25</ele><time>2026-04-26T09:25:42.645Z</time></trkpt><trkpt lat="44.2557783" lon="8.3326067"><ele>655.0</ele><time>2026-04-26T09:25:43.645Z</time></trkpt><trkpt lat="44.2556617" lon="8.332665"><ele>652.75</ele><time>2026-04-26T09:25:44.645Z</time></trkpt><trkpt lat="44.2555467" lon="8.3327283"><ele>650.5</ele><time>2026-04-26T09:25:45.645Z</time></trkpt><trkpt lat="44.2554267" lon="8.332805"><ele>648.25</ele><time>2026-04-26T09:25:46.645Z</time></trkpt><trkpt lat="44.2553217" lon="8.332895"><ele>646.0</ele><time>2026-04-26T09:25:47.645Z</time></trkpt><trkpt lat="44.255205" lon="8.3330067"><ele>645.75</ele><time>2026-04-26T09:25:48.645Z</time></trkpt><trkpt lat="44.255105" lon="8.3331233"><ele>645.5</ele><time>2026-04-26T09:25:49.645Z</time></trkpt><trkpt lat="44.255015" lon="8.3332533"><ele>645.25</ele><time>2026-04-26T09:25:50.645Z</time></trkpt><trkpt lat="44.2549333" lon="8.3333783"><ele>645.0</ele><time>2026-04-26T09:25:51.645Z</time></trkpt><trkpt lat="44.25486" lon="8.3335167"><ele>645.0</ele><time>2026-04-26T09:25:52.645Z</time></trkpt><trkpt lat="44.25479" lon="8.333645"><ele>645.0</ele><time>2026-04-26T09:25:53.645Z</time></trkpt><trkpt lat="44.254735" lon="8.333785"><ele>645.0</ele><time>2026-04-26T09:25:54.645Z</time></trkpt><trkpt lat="44.254695" lon="8.3339217"><ele>645.0</ele><time>2026-04-26T09:25:55.645Z</time></trkpt><trkpt lat="44.254675" lon="8.3340633"><ele>645.0</ele><time>2026-04-26T09:25:56.645Z</time></trkpt><trkpt lat="44.2546533" lon="8.3341933"><ele>643.6666666666666</ele><time>2026-04-26T09:25:57.646Z</time></trkpt><trkpt lat="44.2546267" lon="8.33431"><ele>642.3333333333334</ele><time>2026-04-26T09:25:58.645Z</time></trkpt><trkpt lat="44.25459" lon="8.3344217"><ele>641.0</ele><time>2026-04-26T09:25:59.645Z</time></trkpt><trkpt lat="44.2545417" lon="8.3345017"><ele>639.6666666666667</ele><time>2026-04-26T09:26:00.645Z</time></trkpt><trkpt lat="44.254475" lon="8.33456"><ele>638.3333333333334</ele><time>2026-04-26T09:26:01.645Z</time></trkpt><trkpt lat="44.2543817" lon="8.3345967"><ele>637.0</ele><time>2026-04-26T09:26:02.646Z</time></trkpt><trkpt lat="44.2542917" lon="8.3346383"><ele>637.0</ele><time>2026-04-26T09:26:03.645Z</time></trkpt><trkpt lat="44.2542133" lon="8.3347"><ele>637.0</ele><time>2026-04-26T09:26:04.645Z</time></trkpt><trkpt lat="44.2541417" lon="8.3347817"><ele>637.0</ele><time>2026-04-26T09:26:05.645Z</time></trkpt><trkpt lat="44.254075" lon="8.3348817"><ele>637.0</ele><time>2026-04-26T09:26:06.645Z</time></trkpt><trkpt lat="44.2540133" lon="8.335"><ele>637.0</ele><time>2026-04-26T09:26:07.645Z</time></trkpt><trkpt lat="44.2539567" lon="8.33512"><ele>636.6</ele><time>2026-04-26T09:26:08.645Z</time></trkpt><trkpt lat="44.2539" lon="8.335245"><ele>636.2</ele><time>2026-04-26T09:26:09.645Z</time></trkpt><trkpt lat="44.2538417" lon="8.335375"><ele>635.8</ele><time>2026-04-26T09:26:10.645Z</time></trkpt><trkpt lat="44.2537933" lon="8.3354917"><ele>635.4</ele><time>2026-04-26T09:26:11.645Z</time></trkpt><trkpt lat="44.253755" lon="8.335595"><ele>635.0</ele><time>2026-04-26T09:26:12.645Z</time></trkpt><trkpt lat="44.25373" lon="8.3357117"><ele>635.0</ele><time>2026-04-26T09:26:13.645Z</time></trkpt><trkpt lat="44.25372" lon="8.3358267"><ele>635.0</ele><time>2026-04-26T09:26:14.645Z</time></trkpt><trkpt lat="44.253725" lon="8.335935"><ele>635.0</ele><time>2026-04-26T09:26:15.645Z</time></trkpt><trkpt lat="44.2537533" lon="8.3360683"><ele>635.0</ele><time>2026-04-26T09:26:16.645Z</time></trkpt><trkpt lat="44.25379" lon="8.3362033"><ele>635.0</ele><time>2026-04-26T09:26:17.645Z</time></trkpt><trkpt lat="44.2538167" lon="8.336345"><ele>636.3333333333333</ele><time>2026-04-26T09:26:18.645Z</time></trkpt><trkpt lat="44.253835" lon="8.33648"><ele>637.6666666666666</ele><time>2026-04-26T09:26:19.645Z</time></trkpt><trkpt lat="44.2538383" lon="8.33662"><ele>639.0</ele><time>2026-04-26T09:26:20.645Z</time></trkpt><trkpt lat="44.2538233" lon="8.3367483"><ele>640.3333333333334</ele><time>2026-04-26T09:26:21.645Z</time></trkpt><trkpt lat="44.2538033" lon="8.3368583"><ele>641.6666666666667</ele><time>2026-04-26T09:26:22.645Z</time></trkpt><trkpt lat="44.2537783" lon="8.336945"><ele>643.0</ele><time>2026-04-26T09:26:23.645Z</time></trkpt><trkpt lat="44.25371" lon="8.3371067"><ele>643.0</ele><time>2026-04-26T09:26:25.645Z</time></trkpt><trkpt lat="44.2536667" lon="8.3371883"><ele>643.0</ele><time>2026-04-26T09:26:26.645Z</time></trkpt><trkpt lat="44.2536233" lon="8.337265"><ele>643.0</ele><time>2026-04-26T09:26:27.645Z</time></trkpt><trkpt lat="44.2535767" lon="8.3373267"><ele>643.0</ele><time>2026-04-26T09:26:28.645Z</time></trkpt><trkpt lat="44.253525" lon="8.3373917"><ele>643.0</ele><time>2026-04-26T09:26:29.645Z</time></trkpt><trkpt lat="44.2534717" lon="8.337455"><ele>643.0</ele><time>2026-04-26T09:26:30.645Z</time></trkpt><trkpt lat="44.2534183" lon="8.337515"><ele>643.0</ele><time>2026-04-26T09:26:31.645Z</time></trkpt><trkpt lat="44.2533783" lon="8.3375867"><ele>640.8333333333334</ele><time>2026-04-26T09:26:32.646Z</time></trkpt><trkpt lat="44.2533283" lon="8.3376767"><ele>638.6666666666667</ele><time>2026-04-26T09:26:33.645Z</time></trkpt><trkpt lat="44.25328" lon="8.33777"><ele>636.5</ele><time>2026-04-26T09:26:34.645Z</time></trkpt><trkpt lat="44.2532417" lon="8.337875"><ele>634.3333333333334</ele><time>2026-04-26T09:26:35.646Z</time></trkpt><trkpt lat="44.25322" lon="8.33799"><ele>632.1666666666666</ele><time>2026-04-26T09:26:36.645Z</time></trkpt><trkpt lat="44.253205" lon="8.3381217"><ele>630.0</ele><time>2026-04-26T09:26:37.645Z</time></trkpt><trkpt lat="44.2531983" lon="8.3382383"><ele>627.0</ele><time>2026-04-26T09:26:38.645Z</time></trkpt><trkpt lat="44.2532183" lon="8.3383667"><ele>624.0</ele><time>2026-04-26T09:26:39.645Z</time></trkpt><trkpt lat="44.2532633" lon="8.338495"><ele>621.0</ele><time>2026-04-26T09:26:40.645Z</time></trkpt><trkpt lat="44.2532983" lon="8.3386217"><ele>618.0</ele><time>2026-04-26T09:26:41.645Z</time></trkpt><trkpt lat="44.2533383" lon="8.3387483"><ele>615.0</ele><time>2026-04-26T09:26:42.646Z</time></trkpt><trkpt lat="44.25337" lon="8.33888"><ele>613.0</ele><time>2026-04-26T09:26:43.645Z</time></trkpt><trkpt lat="44.2534083" lon="8.339005"><ele>611.0</ele><time>2026-04-26T09:26:44.645Z</time></trkpt><trkpt lat="44.253445" lon="8.3391133"><ele>609.0</ele><time>2026-04-26T09:26:45.645Z</time></trkpt><trkpt lat="44.2534717" lon="8.339215"><ele>607.0</ele><time>2026-04-26T09:26:46.645Z</time></trkpt><trkpt lat="44.2534917" lon="8.3393167"><ele>605.0</ele><time>2026-04-26T09:26:47.645Z</time></trkpt><trkpt lat="44.2535067" lon="8.3394167"><ele>603.0</ele><time>2026-04-26T09:26:48.646Z</time></trkpt><trkpt lat="44.2535117" lon="8.3395083"><ele>603.0</ele><time>2026-04-26T09:26:49.645Z</time></trkpt><trkpt lat="44.2534983" lon="8.3396083"><ele>603.0</ele><time>2026-04-26T09:26:50.645Z</time></trkpt><trkpt lat="44.253475" lon="8.3397067"><ele>603.0</ele><time>2026-04-26T09:26:51.645Z</time></trkpt><trkpt lat="44.2534383" lon="8.339795"><ele>603.0</ele><time>2026-04-26T09:26:52.645Z</time></trkpt><trkpt lat="44.253395" lon="8.3398783"><ele>603.0</ele><time>2026-04-26T09:26:53.645Z</time></trkpt><trkpt lat="44.2533533" lon="8.3399683"><ele>603.0</ele><time>2026-04-26T09:26:54.645Z</time></trkpt><trkpt lat="44.2533167" lon="8.340055"><ele>603.0</ele><time>2026-04-26T09:26:55.645Z</time></trkpt><trkpt lat="44.2532683" lon="8.3401383"><ele>601.6</ele><time>2026-04-26T09:26:56.645Z</time></trkpt><trkpt lat="44.2532233" lon="8.340205"><ele>600.1999999999999</ele><time>2026-04-26T09:26:57.645Z</time></trkpt><trkpt lat="44.2531617" lon="8.34036"><ele>598.8</ele><time>2026-04-26T09:26:59.646Z</time></trkpt><trkpt lat="44.25309" lon="8.3405067"><ele>597.4</ele><time>2026-04-26T09:27:01.645Z</time></trkpt><trkpt lat="44.2530317" lon="8.3405817"><ele>596.0</ele><time>2026-04-26T09:27:02.645Z</time></trkpt><trkpt lat="44.2529767" lon="8.340645"><ele>595.3333333333333</ele><time>2026-04-26T09:27:03.645Z</time></trkpt><trkpt lat="44.25292" lon="8.340715"><ele>594.6666666666666</ele><time>2026-04-26T09:27:04.645Z</time></trkpt><trkpt lat="44.2528633" lon="8.3408033"><ele>594.0</ele><time>2026-04-26T09:27:05.646Z</time></trkpt><trkpt lat="44.2528117" lon="8.3408967"><ele>593.3333333333334</ele><time>2026-04-26T09:27:06.645Z</time></trkpt><trkpt lat="44.2527517" lon="8.340985"><ele>592.6666666666667</ele><time>2026-04-26T09:27:07.645Z</time></trkpt><trkpt lat="44.2526767" lon="8.341075"><ele>592.0</ele><time>2026-04-26T09:27:08.645Z</time></trkpt><trkpt lat="44.2525967" lon="8.3411617"><ele>592.0</ele><time>2026-04-26T09:27:09.645Z</time></trkpt><trkpt lat="44.25252" lon="8.34126"><ele>592.0</ele><time>2026-04-26T09:27:10.645Z</time></trkpt><trkpt lat="44.2524533" lon="8.34136"><ele>592.0</ele><time>2026-04-26T09:27:11.645Z</time></trkpt><trkpt lat="44.252395" lon="8.3414733"><ele>592.0</ele><time>2026-04-26T09:27:12.645Z</time></trkpt><trkpt lat="44.252345" lon="8.3416067"><ele>592.0</ele><time>2026-04-26T09:27:13.645Z</time></trkpt><trkpt lat="44.252285" lon="8.3417483"><ele>590.5</ele><time>2026-04-26T09:27:14.645Z</time></trkpt><trkpt lat="44.2522217" lon="8.3418883"><ele>589.0</ele><time>2026-04-26T09:27:15.645Z</time></trkpt><trkpt lat="44.25216" lon="8.3420217"><ele>587.5</ele><time>2026-04-26T09:27:16.645Z</time></trkpt><trkpt lat="44.252095" lon="8.342155"><ele>586.0</ele><time>2026-04-26T09:27:17.645Z</time></trkpt><trkpt lat="44.252045" lon="8.34229"><ele>589.0</ele><time>2026-04-26T09:27:18.645Z</time></trkpt><trkpt lat="44.2520017" lon="8.34241"><ele>592.0</ele><time>2026-04-26T09:27:19.645Z</time></trkpt><trkpt lat="44.2519817" lon="8.342525"><ele>595.0</ele><time>2026-04-26T09:27:20.645Z</time></trkpt><trkpt lat="44.2519817" lon="8.3426433"><ele>598.0</ele><time>2026-04-26T09:27:21.645Z</time></trkpt><trkpt lat="44.2519917" lon="8.34277"><ele>601.0</ele><time>2026-04-26T09:27:22.645Z</time></trkpt><trkpt lat="44.2520033" lon="8.3429033"><ele>600.6</ele><time>2026-04-26T09:27:23.645Z</time></trkpt><trkpt lat="44.2520133" lon="8.3430533"><ele>600.2</ele><time>2026-04-26T09:27:24.645Z</time></trkpt><trkpt lat="44.25202" lon="8.3432017"><ele>599.8</ele><time>2026-04-26T09:27:25.645Z</time></trkpt><trkpt lat="44.2520233" lon="8.3433533"><ele>599.4</ele><time>2026-04-26T09:27:26.645Z</time></trkpt><trkpt lat="44.25203" lon="8.3435033"><ele>599.0</ele><time>2026-04-26T09:27:27.645Z</time></trkpt><trkpt lat="44.2520283" lon="8.343645"><ele>599.0</ele><time>2026-04-26T09:27:28.645Z</time></trkpt><trkpt lat="44.2520367" lon="8.3437683"><ele>599.0</ele><time>2026-04-26T09:27:29.645Z</time></trkpt><trkpt lat="44.252045" lon="8.3438833"><ele>599.0</ele><time>2026-04-26T09:27:30.645Z</time></trkpt><trkpt lat="44.25206" lon="8.343975"><ele>599.0</ele><time>2026-04-26T09:27:31.645Z</time></trkpt><trkpt lat="44.252085" lon="8.3440567"><ele>599.0</ele><time>2026-04-26T09:27:32.645Z</time></trkpt><trkpt lat="44.2521333" lon="8.3442"><ele>599.0</ele><time>2026-04-26T09:27:34.645Z</time></trkpt><trkpt lat="44.2521633" lon="8.34435"><ele>598.6</ele><time>2026-04-26T09:27:36.645Z</time></trkpt><trkpt lat="44.2521967" lon="8.34451"><ele>598.2</ele><time>2026-04-26T09:27:38.646Z</time></trkpt><trkpt lat="44.2522133" lon="8.3446017"><ele>597.8000000000001</ele><time>2026-04-26T09:27:39.645Z</time></trkpt><trkpt lat="44.2522383" lon="8.344775"><ele>597.4</ele><time>2026-04-26T09:27:41.645Z</time></trkpt><trkpt lat="44.2522383" lon="8.34487"><ele>597.0</ele><time>2026-04-26T09:27:42.645Z</time></trkpt><trkpt lat="44.25224" lon="8.3449717"><ele>596.6666666666666</ele><time>2026-04-26T09:27:43.645Z</time></trkpt><trkpt lat="44.2522367" lon="8.3450817"><ele>596.3333333333334</ele><time>2026-04-26T09:27:44.645Z</time></trkpt><trkpt lat="44.2522267" lon="8.3451883"><ele>596.0</ele><time>2026-04-26T09:27:45.645Z</time></trkpt><trkpt lat="44.252205" lon="8.3452867"><ele>595.6666666666667</ele><time>2026-04-26T09:27:46.645Z</time></trkpt><trkpt lat="44.252175" lon="8.3453683"><ele>595.3333333333334</ele><time>2026-04-26T09:27:47.645Z</time></trkpt><trkpt lat="44.2521133" lon="8.34549"><ele>595.0</ele><time>2026-04-26T09:27:49.646Z</time></trkpt><trkpt lat="44.2520467" lon="8.3455917"><ele>595.0</ele><time>2026-04-26T09:27:51.645Z</time></trkpt><trkpt lat="44.2520317" lon="8.345715"><ele>595.0</ele><time>2026-04-26T09:27:53.645Z</time></trkpt><trkpt lat="44.2520467" lon="8.3458083"><ele>595.0</ele><time>2026-04-26T09:27:54.645Z</time></trkpt><trkpt lat="44.2520617" lon="8.3459067"><ele>595.0</ele><time>2026-04-26T09:27:55.645Z</time></trkpt><trkpt lat="44.2520783" lon="8.345995"><ele>595.0</ele><time>2026-04-26T09:27:56.645Z</time></trkpt><trkpt lat="44.2520867" lon="8.3460833"><ele>595.0</ele><time>2026-04-26T09:27:57.645Z</time></trkpt><trkpt lat="44.2520883" lon="8.3461817"><ele>595.0</ele><time>2026-04-26T09:27:58.645Z</time></trkpt><trkpt lat="44.252085" lon="8.3462817"><ele>595.2857142857143</ele><time>2026-04-26T09:27:59.645Z</time></trkpt><trkpt lat="44.2520883" lon="8.34638"><ele>595.5714285714286</ele><time>2026-04-26T09:28:00.645Z</time></trkpt><trkpt lat="44.25209" lon="8.346475"><ele>595.8571428571429</ele><time>2026-04-26T09:28:01.645Z</time></trkpt><trkpt lat="44.252095" lon="8.3465767"><ele>596.1428571428571</ele><time>2026-04-26T09:28:02.645Z</time></trkpt><trkpt lat="44.2520967" lon="8.3466833"><ele>596.4285714285714</ele><time>2026-04-26T09:28:03.646Z</time></trkpt><trkpt lat="44.2521033" lon="8.3467967"><ele>596.7142857142858</ele><time>2026-04-26T09:28:04.645Z</time></trkpt><trkpt lat="44.2521017" lon="8.3469083"><ele>597.0</ele><time>2026-04-26T09:28:05.645Z</time></trkpt><trkpt lat="44.252085" lon="8.34702"><ele>597.0</ele><time>2026-04-26T09:28:06.645Z</time></trkpt><trkpt lat="44.2520367" lon="8.347175"><ele>597.0</ele><time>2026-04-26T09:28:08.645Z</time></trkpt><trkpt lat="44.25205" lon="8.347335"><ele>597.0</ele><time>2026-04-26T09:28:10.645Z</time></trkpt><trkpt lat="44.25204" lon="8.3474817"><ele>597.0</ele><time>2026-04-26T09:28:12.645Z</time></trkpt><trkpt lat="44.2519683" lon="8.3475867"><ele>597.0</ele><time>2026-04-26T09:28:14.645Z</time></trkpt><trkpt lat="44.2518733" lon="8.3476833"><ele>597.1666666666666</ele><time>2026-04-26T09:28:16.645Z</time></trkpt><trkpt lat="44.2518283" lon="8.3477483"><ele>597.3333333333334</ele><time>2026-04-26T09:28:17.645Z</time></trkpt><trkpt lat="44.2517767" lon="8.3478217"><ele>597.5</ele><time>2026-04-26T09:28:18.645Z</time></trkpt><trkpt lat="44.2517267" lon="8.34789"><ele>597.6666666666667</ele><time>2026-04-26T09:28:19.645Z</time></trkpt><trkpt lat="44.2516867" lon="8.34797"><ele>597.8333333333334</ele><time>2026-04-26T09:28:20.645Z</time></trkpt><trkpt lat="44.2516533" lon="8.3480533"><ele>598.0</ele><time>2026-04-26T09:28:21.645Z</time></trkpt><trkpt lat="44.251595" lon="8.3482033"><ele>600.1999999999999</ele><time>2026-04-26T09:28:23.645Z</time></trkpt><trkpt lat="44.2515033" lon="8.3483267"><ele>602.4</ele><time>2026-04-26T09:28:25.645Z</time></trkpt><trkpt lat="44.25144" lon="8.3484017"><ele>604.5999999999999</ele><time>2026-04-26T09:28:26.645Z</time></trkpt><trkpt lat="44.2513733" lon="8.348485"><ele>606.8</ele><time>2026-04-26T09:28:27.645Z</time></trkpt><trkpt lat="44.2513083" lon="8.3485633"><ele>609.0</ele><time>2026-04-26T09:28:28.645Z</time></trkpt><trkpt lat="44.2512433" lon="8.3486483"><ele>606.8333333333334</ele><time>2026-04-26T09:28:29.645Z</time></trkpt><trkpt lat="44.2511883" lon="8.3487317"><ele>604.6666666666666</ele><time>2026-04-26T09:28:30.645Z</time></trkpt><trkpt lat="44.25114" lon="8.3488133"><ele>602.5</ele><time>2026-04-26T09:28:31.645Z</time></trkpt><trkpt lat="44.2510917" lon="8.3489067"><ele>600.3333333333333</ele><time>2026-04-26T09:28:32.645Z</time></trkpt><trkpt lat="44.251035" lon="8.3489817"><ele>598.1666666666666</ele><time>2026-04-26T09:28:33.645Z</time></trkpt><trkpt lat="44.2509683" lon="8.3490433"><ele>596.0</ele><time>2026-04-26T09:28:34.645Z</time></trkpt><trkpt lat="44.2508933" lon="8.3491"><ele>596.0</ele><time>2026-04-26T09:28:35.645Z</time></trkpt><trkpt lat="44.2508283" lon="8.34916"><ele>596.0</ele><time>2026-04-26T09:28:36.645Z</time></trkpt><trkpt lat="44.2507733" lon="8.3492267"><ele>596.0</ele><time>2026-04-26T09:28:37.645Z</time></trkpt><trkpt lat="44.2507183" lon="8.349305"><ele>596.0</ele><time>2026-04-26T09:28:38.646Z</time></trkpt><trkpt lat="44.2506717" lon="8.3493817"><ele>596.0</ele><time>2026-04-26T09:28:39.645Z</time></trkpt><trkpt lat="44.2506383" lon="8.3494683"><ele>596.0</ele><time>2026-04-26T09:28:40.645Z</time></trkpt><trkpt lat="44.2506067" lon="8.349545"><ele>596.0</ele><time>2026-04-26T09:28:41.645Z</time></trkpt><trkpt lat="44.2505717" lon="8.349695"><ele>593.2857142857142</ele><time>2026-04-26T09:28:43.646Z</time></trkpt><trkpt lat="44.250555" lon="8.34978"><ele>590.5714285714286</ele><time>2026-04-26T09:28:44.645Z</time></trkpt><trkpt lat="44.25053" lon="8.349865"><ele>587.8571428571429</ele><time>2026-04-26T09:28:45.645Z</time></trkpt><trkpt lat="44.250475" lon="8.3500017"><ele>585.1428571428571</ele><time>2026-04-26T09:28:47.646Z</time></trkpt><trkpt lat="44.25044" lon="8.3500817"><ele>582.4285714285714</ele><time>2026-04-26T09:28:48.645Z</time></trkpt><trkpt lat="44.250405" lon="8.3501617"><ele>579.7142857142857</ele><time>2026-04-26T09:28:49.645Z</time></trkpt><trkpt lat="44.250365" lon="8.350235"><ele>577.0</ele><time>2026-04-26T09:28:50.645Z</time></trkpt><trkpt lat="44.2502867" lon="8.3503717"><ele>577.0</ele><time>2026-04-26T09:28:52.645Z</time></trkpt><trkpt lat="44.2502517" lon="8.3504467"><ele>577.0</ele><time>2026-04-26T09:28:53.645Z</time></trkpt><trkpt lat="44.2502217" lon="8.3505283"><ele>577.0</ele><time>2026-04-26T09:28:54.645Z</time></trkpt><trkpt lat="44.2501983" lon="8.3506167"><ele>577.0</ele><time>2026-04-26T09:28:55.645Z</time></trkpt><trkpt lat="44.2501783" lon="8.3507117"><ele>577.0</ele><time>2026-04-26T09:28:56.645Z</time></trkpt><trkpt lat="44.250155" lon="8.3508083"><ele>577.0</ele><time>2026-04-26T09:28:57.645Z</time></trkpt><trkpt lat="44.2501367" lon="8.3509083"><ele>577.0</ele><time>2026-04-26T09:28:58.645Z</time></trkpt><trkpt lat="44.25011" lon="8.351"><ele>577.0</ele><time>2026-04-26T09:28:59.645Z</time></trkpt><trkpt lat="44.2500472" lon="8.3511102"><ele>577.0</ele><time>2026-04-26T09:29:01.645Z</time></trkpt><trkpt lat="44.2499873" lon="8.3511545"><ele>577.0</ele><time>2026-04-26T09:29:02.645Z</time></trkpt><trkpt lat="44.2499039" lon="8.3511916"><ele>577.0</ele><time>2026-04-26T09:29:03.645Z</time></trkpt><trkpt lat="44.2498272" lon="8.3512408"><ele>577.0</ele><time>2026-04-26T09:29:04.645Z</time></trkpt><trkpt lat="44.2497542" lon="8.3512981"><ele>577.0</ele><time>2026-04-26T09:29:05.645Z</time></trkpt><trkpt lat="44.2496859" lon="8.351378"><ele>577.0</ele><time>2026-04-26T09:29:06.646Z</time></trkpt><trkpt lat="44.2496199" lon="8.3514668"><ele>577.0</ele><time>2026-04-26T09:29:07.645Z</time></trkpt><trkpt lat="44.2495625" lon="8.351558"><ele>577.0</ele><time>2026-04-26T09:29:08.645Z</time></trkpt><trkpt lat="44.2495092" lon="8.3516493"><ele>577.0</ele><time>2026-04-26T09:29:09.646Z</time></trkpt><trkpt lat="44.2494685" lon="8.3517409"><ele>577.0</ele><time>2026-04-26T09:29:10.645Z</time></trkpt><trkpt lat="44.2494428" lon="8.3518363"><ele>577.0</ele><time>2026-04-26T09:29:11.645Z</time></trkpt><trkpt lat="44.2494315" lon="8.3519269"><ele>577.0</ele><time>2026-04-26T09:29:12.645Z</time></trkpt><trkpt lat="44.2494344" lon="8.352016"><ele>577.0</ele><time>2026-04-26T09:29:13.645Z</time></trkpt><trkpt lat="44.2494442" lon="8.3521147"><ele>577.0</ele><time>2026-04-26T09:29:14.645Z</time></trkpt><trkpt lat="44.249459" lon="8.3522058"><ele>577.0</ele><time>2026-04-26T09:29:15.645Z</time></trkpt><trkpt lat="44.2494767" lon="8.3523048"><ele>577.0</ele><time>2026-04-26T09:29:16.645Z</time></trkpt><trkpt lat="44.2494915" lon="8.3523973"><ele>577.0</ele><time>2026-04-26T09:29:17.645Z</time></trkpt><trkpt lat="44.2494916" lon="8.3525604"><ele>577.75</ele><time>2026-04-26T09:29:19.645Z</time></trkpt><trkpt lat="44.2494705" lon="8.352647"><ele>578.5</ele><time>2026-04-26T09:29:20.645Z</time></trkpt><trkpt lat="44.2494089" lon="8.3528748"><ele>579.25</ele><time>2026-04-26T09:29:22.645Z</time></trkpt><trkpt lat="44.2493843" lon="8.3530064"><ele>580.0</ele><time>2026-04-26T09:29:23.645Z</time></trkpt><trkpt lat="44.2493532" lon="8.3532837"><ele>580.2</ele><time>2026-04-26T09:29:25.645Z</time></trkpt><trkpt lat="44.2493526" lon="8.3534156"><ele>580.4</ele><time>2026-04-26T09:29:26.645Z</time></trkpt><trkpt lat="44.2493621" lon="8.3535371"><ele>580.6</ele><time>2026-04-26T09:29:27.646Z</time></trkpt><trkpt lat="44.2494222" lon="8.3537621"><ele>580.8</ele><time>2026-04-26T09:29:29.645Z</time></trkpt><trkpt lat="44.2494593" lon="8.3538543"><ele>581.0</ele><time>2026-04-26T09:29:30.645Z</time></trkpt><trkpt lat="44.2494873" lon="8.35394"><ele>581.3333333333333</ele><time>2026-04-26T09:29:31.645Z</time></trkpt><trkpt lat="44.249475" lon="8.3541017"><ele>581.6666666666666</ele><time>2026-04-26T09:29:33.645Z</time></trkpt><trkpt lat="44.2494067" lon="8.3542967"><ele>582.0</ele><time>2026-04-26T09:29:35.645Z</time></trkpt><trkpt lat="44.2493267" lon="8.3545467"><ele>582.5</ele><time>2026-04-26T09:29:37.645Z</time></trkpt><trkpt lat="44.2492183" lon="8.35477"><ele>583.0</ele><time>2026-04-26T09:29:39.645Z</time></trkpt><trkpt lat="44.2491367" lon="8.3549367"><ele>583.5</ele><time>2026-04-26T09:29:41.645Z</time></trkpt><trkpt lat="44.2491133" lon="8.3550233"><ele>584.0</ele><time>2026-04-26T09:29:42.645Z</time></trkpt><trkpt lat="44.2491017" lon="8.3551133"><ele>584.0</ele><time>2026-04-26T09:29:43.645Z</time></trkpt><trkpt lat="44.2490883" lon="8.35521"><ele>584.0</ele><time>2026-04-26T09:29:44.646Z</time></trkpt><trkpt lat="44.2490733" lon="8.3553917"><ele>584.0</ele><time>2026-04-26T09:29:46.646Z</time></trkpt><trkpt lat="44.2490717" lon="8.3554817"><ele>584.0</ele><time>2026-04-26T09:29:47.645Z</time></trkpt><trkpt lat="44.2490733" lon="8.3556917"><ele>584.0</ele><time>2026-04-26T09:29:49.645Z</time></trkpt><trkpt lat="44.2490483" lon="8.3558617"><ele>584.0</ele><time>2026-04-26T09:29:51.645Z</time></trkpt><trkpt lat="44.2489667" lon="8.356035"><ele>584.0</ele><time>2026-04-26T09:29:53.645Z</time></trkpt><trkpt lat="44.24887" lon="8.3562367"><ele>584.0</ele><time>2026-04-26T09:29:55.645Z</time></trkpt><trkpt lat="44.24883" lon="8.35635"><ele>584.0</ele><time>2026-04-26T09:29:56.645Z</time></trkpt><trkpt lat="44.2487983" lon="8.35646"><ele>577.75</ele><time>2026-04-26T09:29:57.645Z</time></trkpt><trkpt lat="44.2487633" lon="8.3566783"><ele>571.5</ele><time>2026-04-26T09:29:59.646Z</time></trkpt><trkpt lat="44.248725" lon="8.3568833"><ele>565.25</ele><time>2026-04-26T09:30:01.645Z</time></trkpt><trkpt lat="44.2486767" lon="8.3569667"><ele>559.0</ele><time>2026-04-26T09:30:02.645Z</time></trkpt><trkpt lat="44.2486183" lon="8.35704"><ele>561.3333333333334</ele><time>2026-04-26T09:30:03.645Z</time></trkpt><trkpt lat="44.2485183" lon="8.3572133"><ele>563.6666666666666</ele><time>2026-04-26T09:30:05.645Z</time></trkpt><trkpt lat="44.2484533" lon="8.3574233"><ele>566.0</ele><time>2026-04-26T09:30:07.645Z</time></trkpt><trkpt lat="44.2484033" lon="8.357635"><ele>566.0</ele><time>2026-04-26T09:30:09.645Z</time></trkpt><trkpt lat="44.248385" lon="8.3577233"><ele>566.0</ele><time>2026-04-26T09:30:10.645Z</time></trkpt><trkpt lat="44.2483467" lon="8.3578267"><ele>566.0</ele><time>2026-04-26T09:30:12.646Z</time></trkpt><trkpt lat="44.248335" lon="8.3579167"><ele>566.0</ele><time>2026-04-26T09:30:15.646Z</time></trkpt><trkpt lat="44.2483833" lon="8.3580217"><ele>566.0</ele><time>2026-04-26T09:30:26.645Z</time></trkpt><trkpt lat="44.2484867" lon="8.358205"><ele>566.3333333333333</ele><time>2026-04-26T09:30:29.645Z</time></trkpt><trkpt lat="44.2485283" lon="8.3582867"><ele>566.6666666666666</ele><time>2026-04-26T09:30:30.646Z</time></trkpt><trkpt lat="44.248585" lon="8.358365"><ele>567.0</ele><time>2026-04-26T09:30:31.645Z</time></trkpt><trkpt lat="44.2486517" lon="8.3584533"><ele>567.3333333333334</ele><time>2026-04-26T09:30:32.645Z</time></trkpt><trkpt lat="44.248725" lon="8.358545"><ele>567.6666666666667</ele><time>2026-04-26T09:30:33.645Z</time></trkpt><trkpt lat="44.2487983" lon="8.3586417"><ele>568.0</ele><time>2026-04-26T09:30:34.645Z</time></trkpt><trkpt lat="44.24887" lon="8.358725"><ele>568.0</ele><time>2026-04-26T09:30:35.645Z</time></trkpt><trkpt lat="44.24893" lon="8.35879"><ele>568.0</ele><time>2026-04-26T09:30:36.645Z</time></trkpt><trkpt lat="44.2490517" lon="8.358895"><ele>568.0</ele><time>2026-04-26T09:30:38.645Z</time></trkpt><trkpt lat="44.2491033" lon="8.35896"><ele>568.0</ele><time>2026-04-26T09:30:39.645Z</time></trkpt><trkpt lat="44.2491583" lon="8.3590383"><ele>568.0</ele><time>2026-04-26T09:30:40.645Z</time></trkpt><trkpt lat="44.24922" lon="8.35911"><ele>568.0</ele><time>2026-04-26T09:30:41.645Z</time></trkpt><trkpt lat="44.24939" lon="8.359265"><ele>567.0</ele><time>2026-04-26T09:30:43.645Z</time></trkpt><trkpt lat="44.2494867" lon="8.3593317"><ele>566.0</ele><time>2026-04-26T09:30:44.645Z</time></trkpt><trkpt lat="44.249585" lon="8.3593983"><ele>565.0</ele><time>2026-04-26T09:30:45.645Z</time></trkpt><trkpt lat="44.2496817" lon="8.359465"><ele>564.0</ele><time>2026-04-26T09:30:46.646Z</time></trkpt><trkpt lat="44.249775" lon="8.3595483"><ele>563.0</ele><time>2026-04-26T09:30:47.645Z</time></trkpt><trkpt lat="44.249935" lon="8.359745"><ele>562.8</ele><time>2026-04-26T09:30:49.645Z</time></trkpt><trkpt lat="44.2500067" lon="8.3598483"><ele>562.5999999999999</ele><time>2026-04-26T09:30:50.645Z</time></trkpt><trkpt lat="44.2500633" lon="8.3599417"><ele>562.4000000000001</ele><time>2026-04-26T09:30:51.645Z</time></trkpt><trkpt lat="44.2501133" lon="8.3600183"><ele>562.2</ele><time>2026-04-26T09:30:52.645Z</time></trkpt><trkpt lat="44.2501633" lon="8.360075"><ele>562.0</ele><time>2026-04-26T09:30:53.645Z</time></trkpt><trkpt lat="44.2502933" lon="8.3600983"><ele>562.0</ele><time>2026-04-26T09:30:55.645Z</time></trkpt><trkpt lat="44.2504583" lon="8.3600017"><ele>562.0</ele><time>2026-04-26T09:30:57.645Z</time></trkpt><trkpt lat="44.2505317" lon="8.3599167"><ele>562.0</ele><time>2026-04-26T09:30:58.646Z</time></trkpt><trkpt lat="44.250595" lon="8.359815"><ele>562.0</ele><time>2026-04-26T09:30:59.645Z</time></trkpt><trkpt lat="44.250705" lon="8.35959"><ele>564.4</ele><time>2026-04-26T09:31:01.645Z</time></trkpt><trkpt lat="44.2507683" lon="8.359495"><ele>566.8000000000001</ele><time>2026-04-26T09:31:02.645Z</time></trkpt><trkpt lat="44.2508267" lon="8.3594"><ele>569.2</ele><time>2026-04-26T09:31:03.645Z</time></trkpt><trkpt lat="44.2508833" lon="8.3593233"><ele>571.6</ele><time>2026-04-26T09:31:04.646Z</time></trkpt><trkpt lat="44.2509433" lon="8.3592433"><ele>574.0</ele><time>2026-04-26T09:31:05.645Z</time></trkpt><trkpt lat="44.2510767" lon="8.3590683"><ele>574.0</ele><time>2026-04-26T09:31:07.645Z</time></trkpt><trkpt lat="44.2511533" lon="8.3589883"><ele>574.0</ele><time>2026-04-26T09:31:08.645Z</time></trkpt><trkpt lat="44.2512383" lon="8.3589117"><ele>574.0</ele><time>2026-04-26T09:31:09.645Z</time></trkpt><trkpt lat="44.2513317" lon="8.35884"><ele>574.0</ele><time>2026-04-26T09:31:10.645Z</time></trkpt><trkpt lat="44.2515" lon="8.35871"><ele>574.2</ele><time>2026-04-26T09:31:12.645Z</time></trkpt><trkpt lat="44.2515817" lon="8.3586417"><ele>574.4</ele><time>2026-04-26T09:31:13.645Z</time></trkpt><trkpt lat="44.2516383" lon="8.3585733"><ele>574.6</ele><time>2026-04-26T09:31:14.645Z</time></trkpt><trkpt lat="44.25175" lon="8.3584767"><ele>574.8</ele><time>2026-04-26T09:31:16.645Z</time></trkpt><trkpt lat="44.251865" lon="8.3584033"><ele>575.0</ele><time>2026-04-26T09:31:18.645Z</time></trkpt><trkpt lat="44.2519667" lon="8.3582917"><ele>575.0</ele><time>2026-04-26T09:31:20.645Z</time></trkpt><trkpt lat="44.25206" lon="8.358175"><ele>575.0</ele><time>2026-04-26T09:31:22.646Z</time></trkpt><trkpt lat="44.2522217" lon="8.3580833"><ele>575.0</ele><time>2026-04-26T09:31:25.645Z</time></trkpt><trkpt lat="44.25229" lon="8.3580717"><ele>575.0</ele><time>2026-04-26T09:31:26.645Z</time></trkpt><trkpt lat="44.2523667" lon="8.3580733"><ele>575.0</ele><time>2026-04-26T09:31:27.645Z</time></trkpt><trkpt lat="44.2524617" lon="8.3580833"><ele>577.0</ele><time>2026-04-26T09:31:28.645Z</time></trkpt><trkpt lat="44.2525633" lon="8.3580933"><ele>579.0</ele><time>2026-04-26T09:31:29.645Z</time></trkpt><trkpt lat="44.252725" lon="8.3580633"><ele>581.0</ele><time>2026-04-26T09:31:31.645Z</time></trkpt><trkpt lat="44.2528133" lon="8.357965"><ele>583.0</ele><time>2026-04-26T09:31:33.645Z</time></trkpt><trkpt lat="44.252845" lon="8.357835"><ele>583.0</ele><time>2026-04-26T09:31:35.645Z</time></trkpt><trkpt lat="44.25286" lon="8.3576267"><ele>583.0</ele><time>2026-04-26T09:31:37.645Z</time></trkpt><trkpt lat="44.25288" lon="8.3574083"><ele>583.0</ele><time>2026-04-26T09:31:39.645Z</time></trkpt><trkpt lat="44.2528983" lon="8.357305"><ele>583.0</ele><time>2026-04-26T09:31:40.645Z</time></trkpt><trkpt lat="44.2529233" lon="8.3572067"><ele>581.4</ele><time>2026-04-26T09:31:41.645Z</time></trkpt><trkpt lat="44.252955" lon="8.357115"><ele>579.8</ele><time>2026-04-26T09:31:42.645Z</time></trkpt><trkpt lat="44.2530133" lon="8.35697"><ele>578.2</ele><time>2026-04-26T09:31:44.645Z</time></trkpt><trkpt lat="44.2531083" lon="8.356865"><ele>576.6</ele><time>2026-04-26T09:31:46.645Z</time></trkpt><trkpt lat="44.253165" lon="8.3568217"><ele>575.0</ele><time>2026-04-26T09:31:47.645Z</time></trkpt><trkpt lat="44.253275" lon="8.3567367"><ele>575.0</ele><time>2026-04-26T09:31:49.645Z</time></trkpt><trkpt lat="44.2533883" lon="8.35672"><ele>575.0</ele><time>2026-04-26T09:31:51.645Z</time></trkpt><trkpt lat="44.2534533" lon="8.3567267"><ele>575.0</ele><time>2026-04-26T09:31:52.645Z</time></trkpt><trkpt lat="44.2535833" lon="8.3567183"><ele>575.0</ele><time>2026-04-26T09:31:54.645Z</time></trkpt><trkpt lat="44.25369" lon="8.3566917"><ele>575.0</ele><time>2026-04-26T09:31:56.645Z</time></trkpt><trkpt lat="44.2538167" lon="8.3566967"><ele>575.5</ele><time>2026-04-26T09:31:58.645Z</time></trkpt><trkpt lat="44.253975" lon="8.3567817"><ele>576.0</ele><time>2026-04-26T09:32:00.645Z</time></trkpt><trkpt lat="44.2540467" lon="8.3568183"><ele>576.5</ele><time>2026-04-26T09:32:01.645Z</time></trkpt><trkpt lat="44.254185" lon="8.3568567"><ele>577.0</ele><time>2026-04-26T09:32:03.646Z</time></trkpt><trkpt lat="44.25425" lon="8.3568567"><ele>577.0</ele><time>2026-04-26T09:32:04.645Z</time></trkpt><trkpt lat="44.254325" lon="8.3568367"><ele>577.0</ele><time>2026-04-26T09:32:05.645Z</time></trkpt><trkpt lat="44.2544967" lon="8.3567883"><ele>577.0</ele><time>2026-04-26T09:32:07.645Z</time></trkpt><trkpt lat="44.2546783" lon="8.356735"><ele>577.0</ele><time>2026-04-26T09:32:09.645Z</time></trkpt><trkpt lat="44.2547717" lon="8.3567117"><ele>579.0</ele><time>2026-04-26T09:32:10.646Z</time></trkpt><trkpt lat="44.25487" lon="8.35671"><ele>581.0</ele><time>2026-04-26T09:32:11.646Z</time></trkpt><trkpt lat="44.2549533" lon="8.35671"><ele>583.0</ele><time>2026-04-26T09:32:12.645Z</time></trkpt><trkpt lat="44.2550367" lon="8.35671"><ele>585.0</ele><time>2026-04-26T09:32:13.645Z</time></trkpt><trkpt lat="44.2551867" lon="8.3567283"><ele>587.0</ele><time>2026-04-26T09:32:15.645Z</time></trkpt><trkpt lat="44.2553133" lon="8.3568133"><ele>587.0</ele><time>2026-04-26T09:32:17.645Z</time></trkpt><trkpt lat="44.2553683" lon="8.3568617"><ele>587.0</ele><time>2026-04-26T09:32:18.645Z</time></trkpt><trkpt lat="44.2554533" lon="8.3569483"><ele>587.0</ele><time>2026-04-26T09:32:20.646Z</time></trkpt><trkpt lat="44.2555483" lon="8.3568783"><ele>587.0</ele><time>2026-04-26T09:32:23.645Z</time></trkpt><trkpt lat="44.2556983" lon="8.356685"><ele>585.2</ele><time>2026-04-26T09:32:26.645Z</time></trkpt><trkpt lat="44.2557583" lon="8.3566133"><ele>583.4000000000001</ele><time>2026-04-26T09:32:27.646Z</time></trkpt><trkpt lat="44.25583" lon="8.3565567"><ele>581.5999999999999</ele><time>2026-04-26T09:32:28.645Z</time></trkpt><trkpt lat="44.2559433" lon="8.356505"><ele>579.8</ele><time>2026-04-26T09:32:30.645Z</time></trkpt><trkpt lat="44.2560133" lon="8.35649"><ele>578.0</ele><time>2026-04-26T09:32:31.645Z</time></trkpt><trkpt lat="44.2561367" lon="8.3565117"><ele>578.0</ele><time>2026-04-26T09:32:33.645Z</time></trkpt><trkpt lat="44.2562383" lon="8.356625"><ele>578.0</ele><time>2026-04-26T09:32:35.645Z</time></trkpt><trkpt lat="44.2562983" lon="8.3566783"><ele>578.0</ele><time>2026-04-26T09:32:36.645Z</time></trkpt><trkpt lat="44.2563633" lon="8.356705"><ele>578.0</ele><time>2026-04-26T09:32:37.645Z</time></trkpt><trkpt lat="44.2564833" lon="8.35669"><ele>578.0</ele><time>2026-04-26T09:32:39.645Z</time></trkpt><trkpt lat="44.2566367" lon="8.3566167"><ele>578.6</ele><time>2026-04-26T09:32:41.645Z</time></trkpt><trkpt lat="44.2568183" lon="8.3566083"><ele>579.1999999999999</ele><time>2026-04-26T09:32:43.645Z</time></trkpt><trkpt lat="44.25689" lon="8.3566117"><ele>579.8</ele><time>2026-04-26T09:32:44.645Z</time></trkpt><trkpt lat="44.2569583" lon="8.3566"><ele>580.4</ele><time>2026-04-26T09:32:45.645Z</time></trkpt><trkpt lat="44.2570733" lon="8.35658"><ele>581.0</ele><time>2026-04-26T09:32:47.645Z</time></trkpt><trkpt lat="44.2571967" lon="8.356585"><ele>581.0</ele><time>2026-04-26T09:32:49.645Z</time></trkpt><trkpt lat="44.2572833" lon="8.3566667"><ele>581.0</ele><time>2026-04-26T09:32:51.645Z</time></trkpt><trkpt lat="44.257395" lon="8.356825"><ele>581.0</ele><time>2026-04-26T09:32:54.645Z</time></trkpt><trkpt lat="44.2574117" lon="8.3569567"><ele>581.0</ele><time>2026-04-26T09:32:56.645Z</time></trkpt><trkpt lat="44.2573967" lon="8.3570983"><ele>580.25</ele><time>2026-04-26T09:32:58.645Z</time></trkpt><trkpt lat="44.2574233" lon="8.357325"><ele>579.5</ele><time>2026-04-26T09:33:01.645Z</time></trkpt><trkpt lat="44.2574517" lon="8.3574833"><ele>578.75</ele><time>2026-04-26T09:33:03.645Z</time></trkpt><trkpt lat="44.2574717" lon="8.3576433"><ele>578.0</ele><time>2026-04-26T09:33:05.645Z</time></trkpt><trkpt lat="44.2574983" lon="8.3577933"><ele>578.0</ele><time>2026-04-26T09:33:07.645Z</time></trkpt><trkpt lat="44.2575367" lon="8.3579683"><ele>578.0</ele><time>2026-04-26T09:33:09.645Z</time></trkpt><trkpt lat="44.25757" lon="8.3580633"><ele>578.0</ele><time>2026-04-26T09:33:10.645Z</time></trkpt><trkpt lat="44.2576083" lon="8.358145"><ele>578.0</ele><time>2026-04-26T09:33:11.645Z</time></trkpt><trkpt lat="44.2576467" lon="8.358225"><ele>578.0</ele><time>2026-04-26T09:33:12.645Z</time></trkpt><trkpt lat="44.2576817" lon="8.3583067"><ele>578.0</ele><time>2026-04-26T09:33:13.645Z</time></trkpt><trkpt lat="44.257725" lon="8.3583833"><ele>575.4</ele><time>2026-04-26T09:33:14.645Z</time></trkpt><trkpt lat="44.2577683" lon="8.3584617"><ele>572.8</ele><time>2026-04-26T09:33:15.645Z</time></trkpt><trkpt lat="44.2578383" lon="8.3586"><ele>570.2</ele><time>2026-04-26T09:33:17.645Z</time></trkpt><trkpt lat="44.2578983" lon="8.35873"><ele>567.6</ele><time>2026-04-26T09:33:19.645Z</time></trkpt><trkpt lat="44.2579417" lon="8.3588067"><ele>565.0</ele><time>2026-04-26T09:33:21.645Z</time></trkpt><trkpt lat="44.258035" lon="8.3589283"><ele>562.8</ele><time>2026-04-26T09:33:24.645Z</time></trkpt><trkpt lat="44.2581067" lon="8.3590267"><ele>560.6</ele><time>2026-04-26T09:33:26.645Z</time></trkpt><trkpt lat="44.2581483" lon="8.3590933"><ele>558.4</ele><time>2026-04-26T09:33:27.645Z</time></trkpt><trkpt lat="44.2582" lon="8.3591717"><ele>556.2</ele><time>2026-04-26T09:33:28.645Z</time></trkpt><trkpt lat="44.25832" lon="8.3593283"><ele>554.0</ele><time>2026-04-26T09:33:30.645Z</time></trkpt><trkpt lat="44.2583833" lon="8.3593967"><ele>556.3333333333333</ele><time>2026-04-26T09:33:31.646Z</time></trkpt><trkpt lat="44.2584417" lon="8.359465"><ele>558.6666666666666</ele><time>2026-04-26T09:33:32.645Z</time></trkpt><trkpt lat="44.2585033" lon="8.3595367"><ele>561.0</ele><time>2026-04-26T09:33:33.645Z</time></trkpt><trkpt lat="44.2585717" lon="8.359615"><ele>563.3333333333334</ele><time>2026-04-26T09:33:34.645Z</time></trkpt><trkpt lat="44.2586383" lon="8.3596967"><ele>565.6666666666667</ele><time>2026-04-26T09:33:35.646Z</time></trkpt><trkpt lat="44.2587017" lon="8.3597767"><ele>568.0</ele><time>2026-04-26T09:33:36.645Z</time></trkpt><trkpt lat="44.2587533" lon="8.3598717"><ele>568.0</ele><time>2026-04-26T09:33:37.645Z</time></trkpt><trkpt lat="44.2588383" lon="8.3600483"><ele>568.0</ele><time>2026-04-26T09:33:39.645Z</time></trkpt><trkpt lat="44.2588817" lon="8.3601267"><ele>568.0</ele><time>2026-04-26T09:33:40.645Z</time></trkpt><trkpt lat="44.259" lon="8.3602433"><ele>568.0</ele><time>2026-04-26T09:33:42.645Z</time></trkpt><trkpt lat="44.259145" lon="8.3603133"><ele>574.8</ele><time>2026-04-26T09:33:44.645Z</time></trkpt><trkpt lat="44.2592817" lon="8.360365"><ele>581.5999999999999</ele><time>2026-04-26T09:33:46.645Z</time></trkpt><trkpt lat="44.2593467" lon="8.36039"><ele>588.4000000000001</ele><time>2026-04-26T09:33:47.645Z</time></trkpt><trkpt lat="44.2594083" lon="8.3604183"><ele>595.2</ele><time>2026-04-26T09:33:48.645Z</time></trkpt><trkpt lat="44.2595233" lon="8.3604933"><ele>602.0</ele><time>2026-04-26T09:33:50.645Z</time></trkpt><trkpt lat="44.2595867" lon="8.36053"><ele>604.75</ele><time>2026-04-26T09:33:51.645Z</time></trkpt><trkpt lat="44.2597417" lon="8.3606233"><ele>607.5</ele><time>2026-04-26T09:33:54.645Z</time></trkpt><trkpt lat="44.2598567" lon="8.36064"><ele>610.25</ele><time>2026-04-26T09:33:56.645Z</time></trkpt><trkpt lat="44.2599733" lon="8.36068"><ele>613.0</ele><time>2026-04-26T09:33:58.645Z</time></trkpt><trkpt lat="44.2600617" lon="8.3607717"><ele>613.0</ele><time>2026-04-26T09:34:00.645Z</time></trkpt><trkpt lat="44.2600967" lon="8.3609917"><ele>613.0</ele><time>2026-04-26T09:34:02.645Z</time></trkpt><trkpt lat="44.2601533" lon="8.3611667"><ele>613.0</ele><time>2026-04-26T09:34:04.645Z</time></trkpt><trkpt lat="44.2603247" lon="8.3613154"><ele>613.4</ele><time>2026-04-26T09:34:07.645Z</time></trkpt><trkpt lat="44.2604951" lon="8.3613927"><ele>613.8</ele><time>2026-04-26T09:34:09.645Z</time></trkpt><trkpt lat="44.2605747" lon="8.3614342"><ele>614.2</ele><time>2026-04-26T09:34:10.645Z</time></trkpt><trkpt lat="44.2606575" lon="8.3614812"><ele>614.6</ele><time>2026-04-26T09:34:11.645Z</time></trkpt><trkpt lat="44.2607419" lon="8.3615294"><ele>615.0</ele><time>2026-04-26T09:34:12.645Z</time></trkpt><trkpt lat="44.2608296" lon="8.3615688"><ele>615.0</ele><time>2026-04-26T09:34:13.645Z</time></trkpt><trkpt lat="44.2609091" lon="8.3616014"><ele>615.0</ele><time>2026-04-26T09:34:14.645Z</time></trkpt><trkpt lat="44.2609925" lon="8.3616261"><ele>615.0</ele><time>2026-04-26T09:34:15.645Z</time></trkpt><trkpt lat="44.2610727" lon="8.3616447"><ele>615.0</ele><time>2026-04-26T09:34:16.645Z</time></trkpt><trkpt lat="44.2612322" lon="8.3616949"><ele>615.0</ele><time>2026-04-26T09:34:18.645Z</time></trkpt><trkpt lat="44.261375" lon="8.3618137"><ele>615.0</ele><time>2026-04-26T09:34:20.645Z</time></trkpt><trkpt lat="44.2614273" lon="8.3618899"><ele>615.0</ele><time>2026-04-26T09:34:21.645Z</time></trkpt><trkpt lat="44.2614725" lon="8.3619648"><ele>615.0</ele><time>2026-04-26T09:34:22.645Z</time></trkpt><trkpt lat="44.2615489" lon="8.362098"><ele>615.0</ele><time>2026-04-26T09:34:24.645Z</time></trkpt><trkpt lat="44.2615907" lon="8.3621648"><ele>615.0</ele><time>2026-04-26T09:34:25.645Z</time></trkpt><trkpt lat="44.2616334" lon="8.3623137"><ele>615.0</ele><time>2026-04-26T09:34:27.646Z</time></trkpt><trkpt lat="44.2616577" lon="8.3623988"><ele>614.5</ele><time>2026-04-26T09:34:28.645Z</time></trkpt><trkpt lat="44.2616782" lon="8.3624851"><ele>614.0</ele><time>2026-04-26T09:34:29.645Z</time></trkpt><trkpt lat="44.2616955" lon="8.3626445"><ele>613.5</ele><time>2026-04-26T09:34:31.645Z</time></trkpt><trkpt lat="44.2617096" lon="8.3627632"><ele>613.0</ele><time>2026-04-26T09:34:33.645Z</time></trkpt><trkpt lat="44.2617293" lon="8.3628674"><ele>612.5</ele><time>2026-04-26T09:34:36.645Z</time></trkpt><trkpt lat="44.2617333" lon="8.3629867"><ele>612.0</ele><time>2026-04-26T09:34:38.645Z</time></trkpt><trkpt lat="44.2617517" lon="8.3630767"><ele>609.8333333333334</ele><time>2026-04-26T09:34:39.645Z</time></trkpt><trkpt lat="44.26178" lon="8.3631767"><ele>607.6666666666666</ele><time>2026-04-26T09:34:40.646Z</time></trkpt><trkpt lat="44.261815" lon="8.3632767"><ele>605.5</ele><time>2026-04-26T09:34:41.645Z</time></trkpt><trkpt lat="44.2618633" lon="8.3633983"><ele>603.3333333333333</ele><time>2026-04-26T09:34:42.645Z</time></trkpt><trkpt lat="44.261905" lon="8.3635183"><ele>601.1666666666666</ele><time>2026-04-26T09:34:43.646Z</time></trkpt><trkpt lat="44.2619433" lon="8.3636317"><ele>599.0</ele><time>2026-04-26T09:34:44.645Z</time></trkpt><trkpt lat="44.261985" lon="8.3637583"><ele>597.4</ele><time>2026-04-26T09:34:45.645Z</time></trkpt><trkpt lat="44.2620067" lon="8.3638917"><ele>595.8</ele><time>2026-04-26T09:34:46.645Z</time></trkpt><trkpt lat="44.2620333" lon="8.36404"><ele>594.2</ele><time>2026-04-26T09:34:47.645Z</time></trkpt><trkpt lat="44.2620567" lon="8.3641867"><ele>592.6</ele><time>2026-04-26T09:34:48.645Z</time></trkpt><trkpt lat="44.2620667" lon="8.36433"><ele>591.0</ele><time>2026-04-26T09:34:49.645Z</time></trkpt><trkpt lat="44.2620667" lon="8.3644717"><ele>591.0</ele><time>2026-04-26T09:34:50.645Z</time></trkpt><trkpt lat="44.2620467" lon="8.364625"><ele>591.0</ele><time>2026-04-26T09:34:51.645Z</time></trkpt><trkpt lat="44.26203" lon="8.364785"><ele>591.0</ele><time>2026-04-26T09:34:52.645Z</time></trkpt><trkpt lat="44.2620233" lon="8.3649417"><ele>591.0</ele><time>2026-04-26T09:34:53.645Z</time></trkpt><trkpt lat="44.26203" lon="8.36509"><ele>591.0</ele><time>2026-04-26T09:34:54.645Z</time></trkpt><trkpt lat="44.2620383" lon="8.3652333"><ele>590.6</ele><time>2026-04-26T09:34:55.645Z</time></trkpt><trkpt lat="44.2620467" lon="8.36538"><ele>590.2</ele><time>2026-04-26T09:34:56.645Z</time></trkpt><trkpt lat="44.2620567" lon="8.3655267"><ele>589.8</ele><time>2026-04-26T09:34:57.645Z</time></trkpt><trkpt lat="44.2620617" lon="8.36567"><ele>589.4</ele><time>2026-04-26T09:34:58.645Z</time></trkpt><trkpt lat="44.2620633" lon="8.3658017"><ele>589.0</ele><time>2026-04-26T09:34:59.645Z</time></trkpt><trkpt lat="44.2620583" lon="8.365925"><ele>588.5</ele><time>2026-04-26T09:35:00.645Z</time></trkpt><trkpt lat="44.2620483" lon="8.36607"><ele>588.0</ele><time>2026-04-26T09:35:01.645Z</time></trkpt><trkpt lat="44.2620417" lon="8.3662"><ele>587.5</ele><time>2026-04-26T09:35:02.645Z</time></trkpt><trkpt lat="44.2620383" lon="8.3663183"><ele>587.0</ele><time>2026-04-26T09:35:03.645Z</time></trkpt><trkpt lat="44.2620417" lon="8.36643"><ele>586.5</ele><time>2026-04-26T09:35:04.645Z</time></trkpt><trkpt lat="44.262055" lon="8.3665283"><ele>586.0</ele><time>2026-04-26T09:35:05.645Z</time></trkpt><trkpt lat="44.262085" lon="8.3666217"><ele>587.3333333333334</ele><time>2026-04-26T09:35:06.645Z</time></trkpt><trkpt lat="44.2621367" lon="8.3667117"><ele>588.6666666666667</ele><time>2026-04-26T09:35:07.645Z</time></trkpt><trkpt lat="44.2621967" lon="8.3667917"><ele>590.0</ele><time>2026-04-26T09:35:08.645Z</time></trkpt><trkpt lat="44.2622667" lon="8.3668683"><ele>591.3333333333334</ele><time>2026-04-26T09:35:09.645Z</time></trkpt><trkpt lat="44.26234" lon="8.3669433"><ele>592.6666666666666</ele><time>2026-04-26T09:35:10.645Z</time></trkpt><trkpt lat="44.2624133" lon="8.3670267"><ele>594.0</ele><time>2026-04-26T09:35:11.645Z</time></trkpt><trkpt lat="44.26249" lon="8.3671033"><ele>594.0</ele><time>2026-04-26T09:35:12.645Z</time></trkpt><trkpt lat="44.2625567" lon="8.36718"><ele>594.0</ele><time>2026-04-26T09:35:13.645Z</time></trkpt><trkpt lat="44.262625" lon="8.3672517"><ele>594.0</ele><time>2026-04-26T09:35:14.645Z</time></trkpt><trkpt lat="44.262685" lon="8.3673267"><ele>594.0</ele><time>2026-04-26T09:35:15.645Z</time></trkpt><trkpt lat="44.2627333" lon="8.3674033"><ele>594.0</ele><time>2026-04-26T09:35:16.646Z</time></trkpt><trkpt lat="44.26276" lon="8.367485"><ele>594.0</ele><time>2026-04-26T09:35:17.645Z</time></trkpt><trkpt lat="44.2627717" lon="8.36758"><ele>591.2</ele><time>2026-04-26T09:35:18.645Z</time></trkpt><trkpt lat="44.2627633" lon="8.3676967"><ele>588.4</ele><time>2026-04-26T09:35:19.646Z</time></trkpt><trkpt lat="44.2627483" lon="8.3678133"><ele>585.6</ele><time>2026-04-26T09:35:20.646Z</time></trkpt><trkpt lat="44.262755" lon="8.36793"><ele>582.8</ele><time>2026-04-26T09:35:21.645Z</time></trkpt><trkpt lat="44.2627783" lon="8.3680583"><ele>580.0</ele><time>2026-04-26T09:35:22.645Z</time></trkpt><trkpt lat="44.262825" lon="8.3681867"><ele>577.75</ele><time>2026-04-26T09:35:23.646Z</time></trkpt><trkpt lat="44.2628817" lon="8.3683183"><ele>575.5</ele><time>2026-04-26T09:35:24.646Z</time></trkpt><trkpt lat="44.2629517" lon="8.3684533"><ele>573.25</ele><time>2026-04-26T09:35:25.646Z</time></trkpt><trkpt lat="44.2630317" lon="8.3685983"><ele>571.0</ele><time>2026-04-26T09:35:26.646Z</time></trkpt><trkpt lat="44.26311" lon="8.3687533"><ele>570.3333333333334</ele><time>2026-04-26T09:35:27.646Z</time></trkpt><trkpt lat="44.2631883" lon="8.3689167"><ele>569.6666666666666</ele><time>2026-04-26T09:35:28.646Z</time></trkpt><trkpt lat="44.2632783" lon="8.3690683"><ele>569.0</ele><time>2026-04-26T09:35:29.646Z</time></trkpt><trkpt lat="44.2633867" lon="8.36925"><ele>569.0</ele><time>2026-04-26T09:35:30.646Z</time></trkpt><trkpt lat="44.2634967" lon="8.3694067"><ele>569.0</ele><time>2026-04-26T09:35:31.646Z</time></trkpt><trkpt lat="44.2636033" lon="8.36957"><ele>569.0</ele><time>2026-04-26T09:35:32.646Z</time></trkpt><trkpt lat="44.2637183" lon="8.3697267"><ele>569.0</ele><time>2026-04-26T09:35:33.646Z</time></trkpt><trkpt lat="44.2638433" lon="8.3698817"><ele>569.0</ele><time>2026-04-26T09:35:34.646Z</time></trkpt><trkpt lat="44.2639583" lon="8.3700017"><ele>569.0</ele><time>2026-04-26T09:35:35.647Z</time></trkpt><trkpt lat="44.264065" lon="8.37012"><ele>569.0</ele><time>2026-04-26T09:35:36.646Z</time></trkpt><trkpt lat="44.2641483" lon="8.370225"><ele>569.0</ele><time>2026-04-26T09:35:37.646Z</time></trkpt><trkpt lat="44.2642167" lon="8.3703383"><ele>569.0</ele><time>2026-04-26T09:35:38.646Z</time></trkpt><trkpt lat="44.26427" lon="8.370445"><ele>569.0</ele><time>2026-04-26T09:35:39.646Z</time></trkpt><trkpt lat="44.2643117" lon="8.3705383"><ele>569.0</ele><time>2026-04-26T09:35:40.646Z</time></trkpt><trkpt lat="44.2643317" lon="8.3706317"><ele>569.0</ele><time>2026-04-26T09:35:41.646Z</time></trkpt><trkpt lat="44.2643417" lon="8.3707383"><ele>569.0</ele><time>2026-04-26T09:35:42.646Z</time></trkpt><trkpt lat="44.264335" lon="8.3708617"><ele>567.5</ele><time>2026-04-26T09:35:43.646Z</time></trkpt><trkpt lat="44.264315" lon="8.37098"><ele>566.0</ele><time>2026-04-26T09:35:44.646Z</time></trkpt><trkpt lat="44.2642917" lon="8.3710983"><ele>564.5</ele><time>2026-04-26T09:35:45.646Z</time></trkpt><trkpt lat="44.2642533" lon="8.3712017"><ele>563.0</ele><time>2026-04-26T09:35:46.646Z</time></trkpt><trkpt lat="44.26421" lon="8.3713083"><ele>561.5</ele><time>2026-04-26T09:35:47.646Z</time></trkpt><trkpt lat="44.2641717" lon="8.3714083"><ele>560.0</ele><time>2026-04-26T09:35:48.646Z</time></trkpt><trkpt lat="44.2641383" lon="8.37151"><ele>559.5</ele><time>2026-04-26T09:35:49.646Z</time></trkpt><trkpt lat="44.2641117" lon="8.3716333"><ele>559.0</ele><time>2026-04-26T09:35:50.646Z</time></trkpt><trkpt lat="44.2640933" lon="8.3717433"><ele>558.5</ele><time>2026-04-26T09:35:51.646Z</time></trkpt><trkpt lat="44.2640817" lon="8.3718633"><ele>558.0</ele><time>2026-04-26T09:35:52.646Z</time></trkpt><trkpt lat="44.2640767" lon="8.3719917"><ele>557.5</ele><time>2026-04-26T09:35:53.647Z</time></trkpt><trkpt lat="44.2640783" lon="8.3721233"><ele>557.0</ele><time>2026-04-26T09:35:54.646Z</time></trkpt><trkpt lat="44.2640833" lon="8.372245"><ele>555.4</ele><time>2026-04-26T09:35:55.646Z</time></trkpt><trkpt lat="44.26408" lon="8.372365"><ele>553.8000000000001</ele><time>2026-04-26T09:35:56.646Z</time></trkpt><trkpt lat="44.2640717" lon="8.3724967"><ele>552.2</ele><time>2026-04-26T09:35:57.646Z</time></trkpt><trkpt lat="44.26406" lon="8.37264"><ele>550.6</ele><time>2026-04-26T09:35:58.646Z</time></trkpt><trkpt lat="44.2640483" lon="8.3727683"><ele>549.0</ele><time>2026-04-26T09:35:59.647Z</time></trkpt><trkpt lat="44.26404" lon="8.3728783"><ele>549.0</ele><time>2026-04-26T09:36:00.646Z</time></trkpt><trkpt lat="44.26403" lon="8.37298"><ele>549.0</ele><time>2026-04-26T09:36:01.647Z</time></trkpt><trkpt lat="44.2640033" lon="8.3730867"><ele>549.0</ele><time>2026-04-26T09:36:02.646Z</time></trkpt><trkpt lat="44.2639767" lon="8.3731833"><ele>549.0</ele><time>2026-04-26T09:36:03.647Z</time></trkpt><trkpt lat="44.2639683" lon="8.37328"><ele>549.0</ele><time>2026-04-26T09:36:04.646Z</time></trkpt><trkpt lat="44.2639783" lon="8.3733867"><ele>549.0</ele><time>2026-04-26T09:36:05.646Z</time></trkpt><trkpt lat="44.2639983" lon="8.3734967"><ele>547.1428571428571</ele><time>2026-04-26T09:36:06.646Z</time></trkpt><trkpt lat="44.26401" lon="8.3735983"><ele>545.2857142857143</ele><time>2026-04-26T09:36:07.646Z</time></trkpt><trkpt lat="44.2639967" lon="8.37369"><ele>543.4285714285714</ele><time>2026-04-26T09:36:08.647Z</time></trkpt><trkpt lat="44.26396" lon="8.3737717"><ele>541.5714285714286</ele><time>2026-04-26T09:36:09.647Z</time></trkpt><trkpt lat="44.2639117" lon="8.3738483"><ele>539.7142857142857</ele><time>2026-04-26T09:36:10.646Z</time></trkpt><trkpt lat="44.2638633" lon="8.37393"><ele>537.8571428571429</ele><time>2026-04-26T09:36:11.646Z</time></trkpt><trkpt lat="44.2638167" lon="8.37401"><ele>536.0</ele><time>2026-04-26T09:36:12.646Z</time></trkpt><trkpt lat="44.26378" lon="8.37409"><ele>532.3333333333333</ele><time>2026-04-26T09:36:13.646Z</time></trkpt><trkpt lat="44.263745" lon="8.374175"><ele>528.6666666666666</ele><time>2026-04-26T09:36:14.647Z</time></trkpt><trkpt lat="44.26371" lon="8.3742617"><ele>525.0</ele><time>2026-04-26T09:36:15.646Z</time></trkpt><trkpt lat="44.263685" lon="8.374355"><ele>521.3333333333334</ele><time>2026-04-26T09:36:16.646Z</time></trkpt><trkpt lat="44.2636567" lon="8.3744567"><ele>517.6666666666667</ele><time>2026-04-26T09:36:17.646Z</time></trkpt><trkpt lat="44.26362" lon="8.3745533"><ele>514.0</ele><time>2026-04-26T09:36:18.646Z</time></trkpt><trkpt lat="44.2635767" lon="8.3746483"><ele>512.3333333333334</ele><time>2026-04-26T09:36:19.646Z</time></trkpt><trkpt lat="44.2635317" lon="8.3747483"><ele>510.6666666666667</ele><time>2026-04-26T09:36:20.646Z</time></trkpt><trkpt lat="44.263485" lon="8.374835"><ele>509.0</ele><time>2026-04-26T09:36:21.646Z</time></trkpt><trkpt lat="44.26344" lon="8.3749133"><ele>507.33333333333337</ele><time>2026-04-26T09:36:22.646Z</time></trkpt><trkpt lat="44.2633883" lon="8.37499"><ele>505.6666666666667</ele><time>2026-04-26T09:36:23.646Z</time></trkpt><trkpt lat="44.2633367" lon="8.3750667"><ele>504.0</ele><time>2026-04-26T09:36:24.646Z</time></trkpt><trkpt lat="44.2633017" lon="8.3752017"><ele>504.0</ele><time>2026-04-26T09:36:26.646Z</time></trkpt><trkpt lat="44.26336" lon="8.3753317"><ele>504.0</ele><time>2026-04-26T09:36:28.646Z</time></trkpt><trkpt lat="44.2634167" lon="8.37539"><ele>504.0</ele><time>2026-04-26T09:36:29.646Z</time></trkpt><trkpt lat="44.2634733" lon="8.37546"><ele>504.0</ele><time>2026-04-26T09:36:30.647Z</time></trkpt><trkpt lat="44.26352" lon="8.37555"><ele>504.0</ele><time>2026-04-26T09:36:31.646Z</time></trkpt><trkpt lat="44.2635467" lon="8.3756567"><ele>504.0</ele><time>2026-04-26T09:36:32.646Z</time></trkpt><trkpt lat="44.263575" lon="8.37576"><ele>505.1666666666667</ele><time>2026-04-26T09:36:33.646Z</time></trkpt><trkpt lat="44.2636233" lon="8.3758367"><ele>506.33333333333337</ele><time>2026-04-26T09:36:34.647Z</time></trkpt><trkpt lat="44.2636917" lon="8.3758983"><ele>507.5</ele><time>2026-04-26T09:36:35.646Z</time></trkpt><trkpt lat="44.26377" lon="8.3759467"><ele>508.6666666666667</ele><time>2026-04-26T09:36:36.647Z</time></trkpt><trkpt lat="44.263855" lon="8.375985"><ele>509.83333333333337</ele><time>2026-04-26T09:36:37.646Z</time></trkpt><trkpt lat="44.2639383" lon="8.376045"><ele>511.0</ele><time>2026-04-26T09:36:38.646Z</time></trkpt><trkpt lat="44.2640067" lon="8.376125"><ele>511.0</ele><time>2026-04-26T09:36:39.646Z</time></trkpt><trkpt lat="44.2640767" lon="8.37624"><ele>511.0</ele><time>2026-04-26T09:36:40.647Z</time></trkpt><trkpt lat="44.264145" lon="8.3763583"><ele>511.0</ele><time>2026-04-26T09:36:41.646Z</time></trkpt><trkpt lat="44.26422" lon="8.3764517"><ele>511.0</ele><time>2026-04-26T09:36:42.646Z</time></trkpt><trkpt lat="44.2643" lon="8.376515"><ele>511.0</ele><time>2026-04-26T09:36:43.646Z</time></trkpt><trkpt lat="44.2643717" lon="8.3765717"><ele>506.4</ele><time>2026-04-26T09:36:44.646Z</time></trkpt><trkpt lat="44.2644317" lon="8.3766417"><ele>501.8</ele><time>2026-04-26T09:36:45.646Z</time></trkpt><trkpt lat="44.2644767" lon="8.3767317"><ele>497.19999999999993</ele><time>2026-04-26T09:36:46.646Z</time></trkpt><trkpt lat="44.2645167" lon="8.37684"><ele>492.59999999999997</ele><time>2026-04-26T09:36:47.646Z</time></trkpt><trkpt lat="44.264555" lon="8.376975"><ele>488.0</ele><time>2026-04-26T09:36:48.646Z</time></trkpt><trkpt lat="44.264585" lon="8.3771633"><ele>482.25</ele><time>2026-04-26T09:36:49.647Z</time></trkpt><trkpt lat="44.2646167" lon="8.377355"><ele>476.5</ele><time>2026-04-26T09:36:50.647Z</time></trkpt><trkpt lat="44.2646517" lon="8.377535"><ele>470.75</ele><time>2026-04-26T09:36:51.646Z</time></trkpt><trkpt lat="44.264675" lon="8.37769"><ele>465.0</ele><time>2026-04-26T09:36:52.646Z</time></trkpt><trkpt lat="44.264685" lon="8.3778683"><ele>461.5</ele><time>2026-04-26T09:36:53.646Z</time></trkpt><trkpt lat="44.2646867" lon="8.3780467"><ele>458.0</ele><time>2026-04-26T09:36:54.646Z</time></trkpt><trkpt lat="44.2646883" lon="8.3782"><ele>454.5</ele><time>2026-04-26T09:36:55.647Z</time></trkpt><trkpt lat="44.2646833" lon="8.3783617"><ele>451.0</ele><time>2026-04-26T09:36:56.646Z</time></trkpt><trkpt lat="44.2646833" lon="8.378515"><ele>451.0</ele><time>2026-04-26T09:36:57.647Z</time></trkpt><trkpt lat="44.2646883" lon="8.3786633"><ele>451.0</ele><time>2026-04-26T09:36:58.647Z</time></trkpt><trkpt lat="44.2647083" lon="8.378825"><ele>451.0</ele><time>2026-04-26T09:36:59.646Z</time></trkpt><trkpt lat="44.264745" lon="8.37898"><ele>451.0</ele><time>2026-04-26T09:37:00.646Z</time></trkpt><trkpt lat="44.2647817" lon="8.3791333"><ele>454.20000000000005</ele><time>2026-04-26T09:37:01.647Z</time></trkpt><trkpt lat="44.2648333" lon="8.379275"><ele>457.40000000000003</ele><time>2026-04-26T09:37:02.646Z</time></trkpt><trkpt lat="44.264885" lon="8.3794017"><ele>460.6</ele><time>2026-04-26T09:37:03.646Z</time></trkpt><trkpt lat="44.2649383" lon="8.3795367"><ele>463.8</ele><time>2026-04-26T09:37:04.646Z</time></trkpt><trkpt lat="44.2649917" lon="8.3796817"><ele>467.0</ele><time>2026-04-26T09:37:05.646Z</time></trkpt><trkpt lat="44.2650533" lon="8.379825"><ele>467.0</ele><time>2026-04-26T09:37:06.646Z</time></trkpt><trkpt lat="44.26512" lon="8.379955"><ele>467.00000000000006</ele><time>2026-04-26T09:37:07.646Z</time></trkpt><trkpt lat="44.2651883" lon="8.3800817"><ele>467.00000000000006</ele><time>2026-04-26T09:37:08.646Z</time></trkpt><trkpt lat="44.2652533" lon="8.3802017"><ele>467.0</ele><time>2026-04-26T09:37:09.646Z</time></trkpt><trkpt lat="44.2653117" lon="8.3803267"><ele>467.0</ele><time>2026-04-26T09:37:10.646Z</time></trkpt><trkpt lat="44.265355" lon="8.380455"><ele>463.40000000000003</ele><time>2026-04-26T09:37:11.646Z</time></trkpt><trkpt lat="44.2654017" lon="8.380575"><ele>459.80000000000007</ele><time>2026-04-26T09:37:12.646Z</time></trkpt><trkpt lat="44.2654517" lon="8.3807"><ele>456.2</ele><time>2026-04-26T09:37:13.646Z</time></trkpt><trkpt lat="44.2655033" lon="8.380815"><ele>452.6</ele><time>2026-04-26T09:37:14.646Z</time></trkpt><trkpt lat="44.26555" lon="8.3809183"><ele>449.0</ele><time>2026-04-26T09:37:15.646Z</time></trkpt><trkpt lat="44.2655917" lon="8.3810033"><ele>448.99999999999994</ele><time>2026-04-26T09:37:16.646Z</time></trkpt><trkpt lat="44.26563" lon="8.3811383"><ele>449.0</ele><time>2026-04-26T09:37:18.646Z</time></trkpt><trkpt lat="44.2655683" lon="8.3812167"><ele>449.0</ele><time>2026-04-26T09:37:20.646Z</time></trkpt><trkpt lat="44.265445" lon="8.3811883"><ele>449.0</ele><time>2026-04-26T09:37:22.646Z</time></trkpt><trkpt lat="44.2653833" lon="8.3811433"><ele>448.99999999999994</ele><time>2026-04-26T09:37:23.646Z</time></trkpt><trkpt lat="44.2653267" lon="8.3810967"><ele>449.0</ele><time>2026-04-26T09:37:24.646Z</time></trkpt><trkpt lat="44.265265" lon="8.3810617"><ele>448.99999999999994</ele><time>2026-04-26T09:37:25.646Z</time></trkpt><trkpt lat="44.2651833" lon="8.381055"><ele>449.0</ele><time>2026-04-26T09:37:27.646Z</time></trkpt><trkpt lat="44.2651383" lon="8.381125"><ele>449.0</ele><time>2026-04-26T09:37:31.647Z</time></trkpt><trkpt lat="44.2651517" lon="8.3812333"><ele>449.0</ele><time>2026-04-26T09:37:33.646Z</time></trkpt><trkpt lat="44.2651683" lon="8.3813267"><ele>448.99999999999994</ele><time>2026-04-26T09:37:34.646Z</time></trkpt><trkpt lat="44.2651833" lon="8.3814367"><ele>449.0</ele><time>2026-04-26T09:37:35.646Z</time></trkpt><trkpt lat="44.26521" lon="8.3815417"><ele>447.6</ele><time>2026-04-26T09:37:36.646Z</time></trkpt><trkpt lat="44.265245" lon="8.3816233"><ele>446.2</ele><time>2026-04-26T09:37:37.646Z</time></trkpt><trkpt lat="44.265315" lon="8.3817117"><ele>444.80000000000007</ele><time>2026-04-26T09:37:39.646Z</time></trkpt><trkpt lat="44.2654217" lon="8.381695"><ele>443.40000000000003</ele><time>2026-04-26T09:37:41.646Z</time></trkpt><trkpt lat="44.2655483" lon="8.3816417"><ele>442.0</ele><time>2026-04-26T09:37:43.646Z</time></trkpt><trkpt lat="44.265625" lon="8.381635"><ele>442.00000000000006</ele><time>2026-04-26T09:37:44.646Z</time></trkpt><trkpt lat="44.2657067" lon="8.3816567"><ele>442.0</ele><time>2026-04-26T09:37:45.646Z</time></trkpt><trkpt lat="44.2657833" lon="8.3817083"><ele>442.0</ele><time>2026-04-26T09:37:46.646Z</time></trkpt><trkpt lat="44.2658517" lon="8.3817483"><ele>442.0</ele><time>2026-04-26T09:37:47.646Z</time></trkpt><trkpt lat="44.26592" lon="8.3817717"><ele>442.00000000000006</ele><time>2026-04-26T09:37:48.646Z</time></trkpt><trkpt lat="44.26603" lon="8.3817867"><ele>442.0</ele><time>2026-04-26T09:37:50.646Z</time></trkpt><trkpt lat="44.266075" lon="8.381885"><ele>442.00000000000006</ele><time>2026-04-26T09:37:52.646Z</time></trkpt><trkpt lat="44.2660767" lon="8.3820733"><ele>442.0</ele><time>2026-04-26T09:37:54.646Z</time></trkpt><trkpt lat="44.26606" lon="8.382195"><ele>442.0</ele><time>2026-04-26T09:37:55.646Z</time></trkpt><trkpt lat="44.26603" lon="8.3823"><ele>442.0</ele><time>2026-04-26T09:37:56.646Z</time></trkpt><trkpt lat="44.2660017" lon="8.3824"><ele>442.00000000000006</ele><time>2026-04-26T09:37:57.646Z</time></trkpt><trkpt lat="44.26598" lon="8.3824833"><ele>442.0</ele><time>2026-04-26T09:37:58.646Z</time></trkpt><trkpt lat="44.265975" lon="8.3826117"><ele>437.6</ele><time>2026-04-26T09:38:00.646Z</time></trkpt><trkpt lat="44.2660333" lon="8.382785"><ele>433.20000000000005</ele><time>2026-04-26T09:38:02.646Z</time></trkpt><trkpt lat="44.266095" lon="8.3828867"><ele>428.8</ele><time>2026-04-26T09:38:03.646Z</time></trkpt><trkpt lat="44.2661683" lon="8.38299"><ele>424.4</ele><time>2026-04-26T09:38:04.646Z</time></trkpt><trkpt lat="44.2662317" lon="8.383095"><ele>420.0</ele><time>2026-04-26T09:38:05.646Z</time></trkpt><trkpt lat="44.2662933" lon="8.3831983"><ele>420.6</ele><time>2026-04-26T09:38:06.646Z</time></trkpt><trkpt lat="44.2663417" lon="8.3832817"><ele>421.2</ele><time>2026-04-26T09:38:07.646Z</time></trkpt><trkpt lat="44.2663767" lon="8.3833717"><ele>421.79999999999995</ele><time>2026-04-26T09:38:08.646Z</time></trkpt><trkpt lat="44.2664483" lon="8.3835"><ele>422.4</ele><time>2026-04-26T09:38:10.646Z</time></trkpt><trkpt lat="44.2665667" lon="8.3835633"><ele>423.0</ele><time>2026-04-26T09:38:12.646Z</time></trkpt><trkpt lat="44.2666167" lon="8.3836217"><ele>423.0</ele><time>2026-04-26T09:38:13.646Z</time></trkpt><trkpt lat="44.2666617" lon="8.3837683"><ele>423.0</ele><time>2026-04-26T09:38:15.646Z</time></trkpt><trkpt lat="44.2666167" lon="8.3839367"><ele>423.0</ele><time>2026-04-26T09:38:17.646Z</time></trkpt><trkpt lat="44.2665633" lon="8.3840133"><ele>423.0</ele><time>2026-04-26T09:38:18.646Z</time></trkpt><trkpt lat="44.2664833" lon="8.38413"><ele>423.0</ele><time>2026-04-26T09:38:20.646Z</time></trkpt><trkpt lat="44.266455" lon="8.3842467"><ele>419.25</ele><time>2026-04-26T09:38:22.646Z</time></trkpt><trkpt lat="44.2665233" lon="8.3844467"><ele>415.5</ele><time>2026-04-26T09:38:24.646Z</time></trkpt><trkpt lat="44.2665867" lon="8.3845717"><ele>411.75</ele><time>2026-04-26T09:38:25.646Z</time></trkpt><trkpt lat="44.2666533" lon="8.384695"><ele>408.0</ele><time>2026-04-26T09:38:26.646Z</time></trkpt><trkpt lat="44.2667083" lon="8.384805"><ele>404.79999999999995</ele><time>2026-04-26T09:38:27.646Z</time></trkpt><trkpt lat="44.2667633" lon="8.3849033"><ele>401.6</ele><time>2026-04-26T09:38:28.646Z</time></trkpt><trkpt lat="44.2668117" lon="8.3849933"><ele>398.4</ele><time>2026-04-26T09:38:29.646Z</time></trkpt><trkpt lat="44.266855" lon="8.3850683"><ele>395.20000000000005</ele><time>2026-04-26T09:38:30.646Z</time></trkpt><trkpt lat="44.2669233" lon="8.38519"><ele>392.0</ele><time>2026-04-26T09:38:32.646Z</time></trkpt><trkpt lat="44.26693" lon="8.38535"><ele>392.0</ele><time>2026-04-26T09:38:34.647Z</time></trkpt><trkpt lat="44.2668617" lon="8.385485"><ele>392.0</ele><time>2026-04-26T09:38:36.646Z</time></trkpt><trkpt lat="44.2668017" lon="8.3855283"><ele>392.0</ele><time>2026-04-26T09:38:37.646Z</time></trkpt><trkpt lat="44.2667367" lon="8.3855483"><ele>392.0</ele><time>2026-04-26T09:38:38.646Z</time></trkpt><trkpt lat="44.266665" lon="8.3855617"><ele>392.0</ele><time>2026-04-26T09:38:39.646Z</time></trkpt><trkpt lat="44.26654" lon="8.385615"><ele>391.0</ele><time>2026-04-26T09:38:41.646Z</time></trkpt><trkpt lat="44.2664867" lon="8.38567"><ele>390.0</ele><time>2026-04-26T09:38:42.646Z</time></trkpt><trkpt lat="44.2664383" lon="8.3857367"><ele>389.0</ele><time>2026-04-26T09:38:43.646Z</time></trkpt><trkpt lat="44.2664067" lon="8.3858133"><ele>388.0</ele><time>2026-04-26T09:38:44.646Z</time></trkpt><trkpt lat="44.2663817" lon="8.3858967"><ele>387.0</ele><time>2026-04-26T09:38:45.646Z</time></trkpt><trkpt lat="44.2663717" lon="8.38599"><ele>386.0</ele><time>2026-04-26T09:38:46.646Z</time></trkpt><trkpt lat="44.2663683" lon="8.38609"><ele>385.0</ele><time>2026-04-26T09:38:47.646Z</time></trkpt><trkpt lat="44.2663633" lon="8.3861933"><ele>378.1666666666667</ele><time>2026-04-26T09:38:48.647Z</time></trkpt><trkpt lat="44.2663667" lon="8.3863"><ele>371.33333333333337</ele><time>2026-04-26T09:38:49.646Z</time></trkpt><trkpt lat="44.266375" lon="8.3864167"><ele>364.5</ele><time>2026-04-26T09:38:50.646Z</time></trkpt><trkpt lat="44.2663833" lon="8.3865267"><ele>357.6666666666667</ele><time>2026-04-26T09:38:51.646Z</time></trkpt><trkpt lat="44.26639" lon="8.38662"><ele>350.83333333333337</ele><time>2026-04-26T09:38:52.646Z</time></trkpt><trkpt lat="44.2663967" lon="8.3867833"><ele>344.0</ele><time>2026-04-26T09:38:54.646Z</time></trkpt><trkpt lat="44.26644" lon="8.3869617"><ele>348.79999999999995</ele><time>2026-04-26T09:38:56.646Z</time></trkpt><trkpt lat="44.266485" lon="8.38708"><ele>353.59999999999997</ele><time>2026-04-26T09:38:57.646Z</time></trkpt><trkpt lat="44.266535" lon="8.387195"><ele>358.4</ele><time>2026-04-26T09:38:58.646Z</time></trkpt><trkpt lat="44.2665867" lon="8.3873017"><ele>363.2</ele><time>2026-04-26T09:38:59.646Z</time></trkpt><trkpt lat="44.2666367" lon="8.387425"><ele>368.0</ele><time>2026-04-26T09:39:00.647Z</time></trkpt><trkpt lat="44.2666883" lon="8.387545"><ele>368.0</ele><time>2026-04-26T09:39:01.646Z</time></trkpt><trkpt lat="44.266725" lon="8.3876533"><ele>368.0</ele><time>2026-04-26T09:39:02.646Z</time></trkpt><trkpt lat="44.2667617" lon="8.387745"><ele>368.0</ele><time>2026-04-26T09:39:03.647Z</time></trkpt><trkpt lat="44.26682" lon="8.3878833"><ele>368.0</ele><time>2026-04-26T09:39:05.646Z</time></trkpt><trkpt lat="44.2668917" lon="8.3880233"><ele>368.0</ele><time>2026-04-26T09:39:07.646Z</time></trkpt><trkpt lat="44.266935" lon="8.3880883"><ele>365.0</ele><time>2026-04-26T09:39:08.646Z</time></trkpt><trkpt lat="44.2670083" lon="8.3882117"><ele>362.0</ele><time>2026-04-26T09:39:10.646Z</time></trkpt><trkpt lat="44.2670533" lon="8.3882983"><ele>359.0</ele><time>2026-04-26T09:39:11.646Z</time></trkpt><trkpt lat="44.2671083" lon="8.388385"><ele>356.0</ele><time>2026-04-26T09:39:12.646Z</time></trkpt><trkpt lat="44.267165" lon="8.38848"><ele>353.0</ele><time>2026-04-26T09:39:13.646Z</time></trkpt><trkpt lat="44.2672167" lon="8.3885783"><ele>353.0</ele><time>2026-04-26T09:39:14.646Z</time></trkpt><trkpt lat="44.2672517" lon="8.388665"><ele>353.0</ele><time>2026-04-26T09:39:15.646Z</time></trkpt><trkpt lat="44.267275" lon="8.38876"><ele>353.0</ele><time>2026-04-26T09:39:16.646Z</time></trkpt><trkpt lat="44.267285" lon="8.3888617"><ele>353.0</ele><time>2026-04-26T09:39:17.646Z</time></trkpt><trkpt lat="44.2672833" lon="8.3889583"><ele>353.0</ele><time>2026-04-26T09:39:18.646Z</time></trkpt><trkpt lat="44.2673033" lon="8.3891267"><ele>353.0</ele><time>2026-04-26T09:39:20.646Z</time></trkpt><trkpt lat="44.2673967" lon="8.38924"><ele>355.4</ele><time>2026-04-26T09:39:22.646Z</time></trkpt><trkpt lat="44.2674583" lon="8.3892917"><ele>357.79999999999995</ele><time>2026-04-26T09:39:23.646Z</time></trkpt><trkpt lat="44.2675533" lon="8.3893733"><ele>360.2</ele><time>2026-04-26T09:39:25.646Z</time></trkpt><trkpt lat="44.267605" lon="8.3894833"><ele>362.6</ele><time>2026-04-26T09:39:27.646Z</time></trkpt><trkpt lat="44.2675667" lon="8.3896533"><ele>365.0</ele><time>2026-04-26T09:39:29.646Z</time></trkpt><trkpt lat="44.267525" lon="8.3897317"><ele>365.0</ele><time>2026-04-26T09:39:30.646Z</time></trkpt><trkpt lat="44.2674317" lon="8.38983"><ele>365.0</ele><time>2026-04-26T09:39:32.646Z</time></trkpt><trkpt lat="44.2673383" lon="8.3899317"><ele>365.0</ele><time>2026-04-26T09:39:34.646Z</time></trkpt><trkpt lat="44.2672983" lon="8.39001"><ele>365.0</ele><time>2026-04-26T09:39:35.646Z</time></trkpt><trkpt lat="44.26723" lon="8.3901817"><ele>365.0</ele><time>2026-04-26T09:39:37.646Z</time></trkpt><trkpt lat="44.2671883" lon="8.3902717"><ele>359.83333333333337</ele><time>2026-04-26T09:39:38.646Z</time></trkpt><trkpt lat="44.2671417" lon="8.3903533"><ele>354.6666666666667</ele><time>2026-04-26T09:39:39.646Z</time></trkpt><trkpt lat="44.267095" lon="8.390435"><ele>349.5</ele><time>2026-04-26T09:39:40.646Z</time></trkpt><trkpt lat="44.2670467" lon="8.39051"><ele>344.3333333333333</ele><time>2026-04-26T09:39:41.646Z</time></trkpt><trkpt lat="44.26695" lon="8.39063"><ele>339.16666666666663</ele><time>2026-04-26T09:39:43.646Z</time></trkpt><trkpt lat="44.266905" lon="8.3907317"><ele>334.0</ele><time>2026-04-26T09:39:44.646Z</time></trkpt><trkpt lat="44.266875" lon="8.3908217"><ele>334.0</ele><time>2026-04-26T09:39:45.646Z</time></trkpt><trkpt lat="44.2668367" lon="8.3909233"><ele>334.0</ele><time>2026-04-26T09:39:46.646Z</time></trkpt><trkpt lat="44.26679" lon="8.3910033"><ele>334.0</ele><time>2026-04-26T09:39:47.646Z</time></trkpt><trkpt lat="44.26674" lon="8.3910817"><ele>334.0</ele><time>2026-04-26T09:39:48.646Z</time></trkpt><trkpt lat="44.2666933" lon="8.3911533"><ele>334.0</ele><time>2026-04-26T09:39:49.646Z</time></trkpt><trkpt lat="44.266645" lon="8.3912217"><ele>334.0</ele><time>2026-04-26T09:39:50.646Z</time></trkpt><trkpt lat="44.2665983" lon="8.3912983"><ele>334.0</ele><time>2026-04-26T09:39:51.646Z</time></trkpt><trkpt lat="44.2665583" lon="8.391375"><ele>335.5</ele><time>2026-04-26T09:39:52.646Z</time></trkpt><trkpt lat="44.2665117" lon="8.391445"><ele>337.0</ele><time>2026-04-26T09:39:53.646Z</time></trkpt><trkpt lat="44.2664633" lon="8.3915133"><ele>338.5</ele><time>2026-04-26T09:39:54.646Z</time></trkpt><trkpt lat="44.2664133" lon="8.3916067"><ele>340.0</ele><time>2026-04-26T09:39:55.646Z</time></trkpt><trkpt lat="44.2663633" lon="8.391715"><ele>341.5</ele><time>2026-04-26T09:39:56.646Z</time></trkpt><trkpt lat="44.2663333" lon="8.3918233"><ele>343.0</ele><time>2026-04-26T09:39:57.646Z</time></trkpt><trkpt lat="44.2663117" lon="8.3919533"><ele>337.0</ele><time>2026-04-26T09:39:58.647Z</time></trkpt><trkpt lat="44.2662933" lon="8.3920883"><ele>331.0</ele><time>2026-04-26T09:39:59.646Z</time></trkpt><trkpt lat="44.2662917" lon="8.3922233"><ele>325.0</ele><time>2026-04-26T09:40:00.646Z</time></trkpt><trkpt lat="44.26629" lon="8.392355"><ele>319.0</ele><time>2026-04-26T09:40:01.646Z</time></trkpt><trkpt lat="44.2662733" lon="8.392475"><ele>313.0</ele><time>2026-04-26T09:40:02.646Z</time></trkpt><trkpt lat="44.2662467" lon="8.3925833"><ele>313.0</ele><time>2026-04-26T09:40:03.646Z</time></trkpt><trkpt lat="44.26622" lon="8.3926733"><ele>313.0</ele><time>2026-04-26T09:40:04.646Z</time></trkpt><trkpt lat="44.2662" lon="8.3927667"><ele>313.0</ele><time>2026-04-26T09:40:05.646Z</time></trkpt><trkpt lat="44.2661783" lon="8.392855"><ele>313.0</ele><time>2026-04-26T09:40:06.646Z</time></trkpt><trkpt lat="44.2661633" lon="8.392955"><ele>313.0</ele><time>2026-04-26T09:40:07.646Z</time></trkpt><trkpt lat="44.2661533" lon="8.3930533"><ele>313.0</ele><time>2026-04-26T09:40:08.646Z</time></trkpt><trkpt lat="44.2661467" lon="8.3931433"><ele>313.0</ele><time>2026-04-26T09:40:09.646Z</time></trkpt><trkpt lat="44.266165" lon="8.3932783"><ele>312.0</ele><time>2026-04-26T09:40:11.646Z</time></trkpt><trkpt lat="44.2662517" lon="8.3933217"><ele>311.0</ele><time>2026-04-26T09:40:13.646Z</time></trkpt><trkpt lat="44.266315" lon="8.3933383"><ele>310.0</ele><time>2026-04-26T09:40:14.646Z</time></trkpt><trkpt lat="44.2663867" lon="8.39335"><ele>309.0</ele><time>2026-04-26T09:40:15.646Z</time></trkpt><trkpt lat="44.26646" lon="8.3933667"><ele>308.0</ele><time>2026-04-26T09:40:16.646Z</time></trkpt><trkpt lat="44.2665233" lon="8.3933833"><ele>307.0</ele><time>2026-04-26T09:40:17.646Z</time></trkpt><trkpt lat="44.266625" lon="8.3934333"><ele>310.8333333333333</ele><time>2026-04-26T09:40:19.646Z</time></trkpt><trkpt lat="44.266675" lon="8.3934983"><ele>314.66666666666663</ele><time>2026-04-26T09:40:20.646Z</time></trkpt><trkpt lat="44.2667167" lon="8.3935917"><ele>318.5</ele><time>2026-04-26T09:40:21.646Z</time></trkpt><trkpt lat="44.26675" lon="8.3936883"><ele>322.3333333333333</ele><time>2026-04-26T09:40:22.646Z</time></trkpt><trkpt lat="44.26684" lon="8.3937917"><ele>326.1666666666667</ele><time>2026-04-26T09:40:24.646Z</time></trkpt><trkpt lat="44.2669117" lon="8.3937967"><ele>330.0</ele><time>2026-04-26T09:40:25.646Z</time></trkpt><trkpt lat="44.2669983" lon="8.393765"><ele>330.0</ele><time>2026-04-26T09:40:26.646Z</time></trkpt><trkpt lat="44.2670833" lon="8.3937233"><ele>330.0</ele><time>2026-04-26T09:40:27.646Z</time></trkpt><trkpt lat="44.2671633" lon="8.3936883"><ele>330.0</ele><time>2026-04-26T09:40:28.646Z</time></trkpt><trkpt lat="44.267245" lon="8.3936683"><ele>330.0</ele><time>2026-04-26T09:40:29.646Z</time></trkpt><trkpt lat="44.2673217" lon="8.3936767"><ele>330.0</ele><time>2026-04-26T09:40:30.646Z</time></trkpt><trkpt lat="44.2673917" lon="8.3937033"><ele>330.0</ele><time>2026-04-26T09:40:31.646Z</time></trkpt><trkpt lat="44.2674933" lon="8.3937267"><ele>329.6</ele><time>2026-04-26T09:40:33.646Z</time></trkpt><trkpt lat="44.267585" lon="8.393765"><ele>329.2</ele><time>2026-04-26T09:40:35.646Z</time></trkpt><trkpt lat="44.2676517" lon="8.39387"><ele>328.79999999999995</ele><time>2026-04-26T09:40:37.646Z</time></trkpt><trkpt lat="44.267645" lon="8.39403"><ele>328.4</ele><time>2026-04-26T09:40:39.646Z</time></trkpt><trkpt lat="44.2675733" lon="8.3941467"><ele>328.0</ele><time>2026-04-26T09:40:41.646Z</time></trkpt><trkpt lat="44.2675467" lon="8.3942717"><ele>328.0</ele><time>2026-04-26T09:40:44.646Z</time></trkpt><trkpt lat="44.2675367" lon="8.39444"><ele>328.0</ele><time>2026-04-26T09:40:46.646Z</time></trkpt><trkpt lat="44.2675367" lon="8.3945417"><ele>328.0</ele><time>2026-04-26T09:40:47.646Z</time></trkpt><trkpt lat="44.2675333" lon="8.39464"><ele>328.0</ele><time>2026-04-26T09:40:48.646Z</time></trkpt><trkpt lat="44.26753" lon="8.3947417"><ele>328.0</ele><time>2026-04-26T09:40:49.646Z</time></trkpt><trkpt lat="44.2675367" lon="8.3948383"><ele>328.0</ele><time>2026-04-26T09:40:50.646Z</time></trkpt><trkpt lat="44.267545" lon="8.3949467"><ele>327.59999999999997</ele><time>2026-04-26T09:40:51.646Z</time></trkpt><trkpt lat="44.2675533" lon="8.3950783"><ele>327.2</ele><time>2026-04-26T09:40:52.646Z</time></trkpt><trkpt lat="44.26756" lon="8.3952467"><ele>326.8</ele><time>2026-04-26T09:40:53.646Z</time></trkpt><trkpt lat="44.2675717" lon="8.39542"><ele>326.4</ele><time>2026-04-26T09:40:54.646Z</time></trkpt><trkpt lat="44.26758" lon="8.3955617"><ele>326.0</ele><time>2026-04-26T09:40:55.646Z</time></trkpt><trkpt lat="44.26759" lon="8.3956717"><ele>325.6</ele><time>2026-04-26T09:40:56.646Z</time></trkpt><trkpt lat="44.2675983" lon="8.3958217"><ele>325.20000000000005</ele><time>2026-04-26T09:40:58.646Z</time></trkpt><trkpt lat="44.2675667" lon="8.3959783"><ele>324.79999999999995</ele><time>2026-04-26T09:41:00.646Z</time></trkpt><trkpt lat="44.2675383" lon="8.39607"><ele>324.4</ele><time>2026-04-26T09:41:01.646Z</time></trkpt><trkpt lat="44.2675117" lon="8.3961767"><ele>324.0</ele><time>2026-04-26T09:41:02.646Z</time></trkpt><trkpt lat="44.26748" lon="8.3962767"><ele>323.6</ele><time>2026-04-26T09:41:03.646Z</time></trkpt><trkpt lat="44.2674583" lon="8.3964067"><ele>323.2</ele><time>2026-04-26T09:41:04.646Z</time></trkpt><trkpt lat="44.267445" lon="8.3965183"><ele>322.8</ele><time>2026-04-26T09:41:05.646Z</time></trkpt><trkpt lat="44.267435" lon="8.3966133"><ele>322.40000000000003</ele><time>2026-04-26T09:41:06.646Z</time></trkpt><trkpt lat="44.2674067" lon="8.3967617"><ele>322.0</ele><time>2026-04-26T09:41:08.646Z</time></trkpt><trkpt lat="44.267395" lon="8.3969"><ele>322.0</ele><time>2026-04-26T09:41:10.646Z</time></trkpt><trkpt lat="44.2674217" lon="8.39701"><ele>322.0</ele><time>2026-04-26T09:41:12.646Z</time></trkpt><trkpt lat="44.26748" lon="8.3971033"><ele>322.0</ele><time>2026-04-26T09:41:14.646Z</time></trkpt><trkpt lat="44.267585" lon="8.397145"><ele>322.0</ele><time>2026-04-26T09:41:16.646Z</time></trkpt><trkpt lat="44.26765" lon="8.3971533"><ele>322.0</ele><time>2026-04-26T09:41:17.646Z</time></trkpt><trkpt lat="44.2677467" lon="8.3972233"><ele>319.0</ele><time>2026-04-26T09:41:19.646Z</time></trkpt><trkpt lat="44.267775" lon="8.397355"><ele>316.0</ele><time>2026-04-26T09:41:21.646Z</time></trkpt><trkpt lat="44.2677617" lon="8.3974417"><ele>313.0</ele><time>2026-04-26T09:41:22.646Z</time></trkpt><trkpt lat="44.2677467" lon="8.3976033"><ele>310.0</ele><time>2026-04-26T09:41:24.646Z</time></trkpt><trkpt lat="44.2678317" lon="8.3977267"><ele>307.0</ele><time>2026-04-26T09:41:26.646Z</time></trkpt><trkpt lat="44.2678967" lon="8.39775"><ele>306.99999999999994</ele><time>2026-04-26T09:41:27.646Z</time></trkpt><trkpt lat="44.2679683" lon="8.3977483"><ele>307.0</ele><time>2026-04-26T09:41:28.647Z</time></trkpt><trkpt lat="44.2680433" lon="8.3977167"><ele>307.0</ele><time>2026-04-26T09:41:29.646Z</time></trkpt><trkpt lat="44.2681183" lon="8.3976733"><ele>307.0</ele><time>2026-04-26T09:41:30.647Z</time></trkpt><trkpt lat="44.2681833" lon="8.3976233"><ele>307.0</ele><time>2026-04-26T09:41:31.646Z</time></trkpt><trkpt lat="44.268245" lon="8.397585"><ele>306.99999999999994</ele><time>2026-04-26T09:41:32.646Z</time></trkpt><trkpt lat="44.26831" lon="8.3975633"><ele>307.0</ele><time>2026-04-26T09:41:33.646Z</time></trkpt><trkpt lat="44.26842" lon="8.397565"><ele>310.75</ele><time>2026-04-26T09:41:35.646Z</time></trkpt><trkpt lat="44.2685267" lon="8.3976267"><ele>314.5</ele><time>2026-04-26T09:41:37.646Z</time></trkpt><trkpt lat="44.26863" lon="8.3977133"><ele>318.25</ele><time>2026-04-26T09:41:39.646Z</time></trkpt><trkpt lat="44.26872" lon="8.397805"><ele>322.0</ele><time>2026-04-26T09:41:41.646Z</time></trkpt><trkpt lat="44.268845" lon="8.397855"><ele>322.0</ele><time>2026-04-26T09:41:43.646Z</time></trkpt><trkpt lat="44.2689333" lon="8.3978517"><ele>322.0</ele><time>2026-04-26T09:41:44.646Z</time></trkpt><trkpt lat="44.2690133" lon="8.3978533"><ele>322.0</ele><time>2026-04-26T09:41:45.647Z</time></trkpt><trkpt lat="44.26909" lon="8.3978567"><ele>322.0</ele><time>2026-04-26T09:41:46.646Z</time></trkpt><trkpt lat="44.2691567" lon="8.3978633"><ele>322.0</ele><time>2026-04-26T09:41:47.646Z</time></trkpt><trkpt lat="44.269265" lon="8.39791"><ele>322.0</ele><time>2026-04-26T09:41:49.647Z</time></trkpt><trkpt lat="44.269355" lon="8.3979383"><ele>322.16666666666663</ele><time>2026-04-26T09:41:51.646Z</time></trkpt><trkpt lat="44.2694183" lon="8.3979233"><ele>322.3333333333333</ele><time>2026-04-26T09:42:01.646Z</time></trkpt><trkpt lat="44.2695433" lon="8.397895"><ele>322.5</ele><time>2026-04-26T09:42:03.647Z</time></trkpt><trkpt lat="44.269625" lon="8.3978883"><ele>322.6666666666667</ele><time>2026-04-26T09:42:04.646Z</time></trkpt><trkpt lat="44.2697083" lon="8.397885"><ele>322.83333333333337</ele><time>2026-04-26T09:42:05.646Z</time></trkpt><trkpt lat="44.269775" lon="8.3978967"><ele>323.0</ele><time>2026-04-26T09:42:06.646Z</time></trkpt><trkpt lat="44.26987" lon="8.3979517"><ele>322.83333333333337</ele><time>2026-04-26T09:42:08.646Z</time></trkpt><trkpt lat="44.2698717" lon="8.398075"><ele>322.6666666666667</ele><time>2026-04-26T09:42:10.646Z</time></trkpt><trkpt lat="44.2698133" lon="8.3982067"><ele>322.5</ele><time>2026-04-26T09:42:12.646Z</time></trkpt><trkpt lat="44.26977" lon="8.3982717"><ele>322.3333333333333</ele><time>2026-04-26T09:42:13.646Z</time></trkpt><trkpt lat="44.2697267" lon="8.398345"><ele>322.16666666666663</ele><time>2026-04-26T09:42:14.646Z</time></trkpt><trkpt lat="44.26969" lon="8.398425"><ele>322.0</ele><time>2026-04-26T09:42:15.646Z</time></trkpt><trkpt lat="44.2696617" lon="8.39851"><ele>316.6</ele><time>2026-04-26T09:42:16.646Z</time></trkpt><trkpt lat="44.26965" lon="8.3986067"><ele>311.20000000000005</ele><time>2026-04-26T09:42:17.646Z</time></trkpt><trkpt lat="44.2696433" lon="8.3987333"><ele>305.8</ele><time>2026-04-26T09:42:18.647Z</time></trkpt><trkpt lat="44.2696333" lon="8.3988617"><ele>300.4</ele><time>2026-04-26T09:42:19.646Z</time></trkpt><trkpt lat="44.2696033" lon="8.3990017"><ele>295.0</ele><time>2026-04-26T09:42:20.646Z</time></trkpt><trkpt lat="44.2695633" lon="8.3991517"><ele>292.6</ele><time>2026-04-26T09:42:21.646Z</time></trkpt><trkpt lat="44.2695233" lon="8.399295"><ele>290.2</ele><time>2026-04-26T09:42:22.646Z</time></trkpt><trkpt lat="44.2694867" lon="8.3994333"><ele>287.8</ele><time>2026-04-26T09:42:23.646Z</time></trkpt><trkpt lat="44.2694583" lon="8.39956"><ele>285.4</ele><time>2026-04-26T09:42:24.646Z</time></trkpt><trkpt lat="44.2694433" lon="8.3996883"><ele>283.0</ele><time>2026-04-26T09:42:25.646Z</time></trkpt><trkpt lat="44.2694367" lon="8.3997983"><ele>283.0</ele><time>2026-04-26T09:42:26.646Z</time></trkpt><trkpt lat="44.269435" lon="8.3999083"><ele>283.0</ele><time>2026-04-26T09:42:27.646Z</time></trkpt><trkpt lat="44.2694333" lon="8.400055"><ele>283.0</ele><time>2026-04-26T09:42:29.646Z</time></trkpt><trkpt lat="44.2694067" lon="8.4001833"><ele>283.0</ele><time>2026-04-26T09:42:46.646Z</time></trkpt><trkpt lat="44.2693567" lon="8.400275"><ele>283.0</ele><time>2026-04-26T09:42:49.646Z</time></trkpt><trkpt lat="44.2693083" lon="8.400375"><ele>283.0</ele><time>2026-04-26T09:42:52.646Z</time></trkpt><trkpt lat="44.2692583" lon="8.40048"><ele>283.0</ele><time>2026-04-26T09:42:55.646Z</time></trkpt><trkpt lat="44.2692267" lon="8.4006033"><ele>283.0</ele><time>2026-04-26T09:42:57.646Z</time></trkpt><trkpt lat="44.2691983" lon="8.4007333"><ele>283.0</ele><time>2026-04-26T09:42:59.646Z</time></trkpt><trkpt lat="44.2691817" lon="8.400845"><ele>283.0</ele><time>2026-04-26T09:43:01.646Z</time></trkpt><trkpt lat="44.2691383" lon="8.4009533"><ele>283.0</ele><time>2026-04-26T09:43:03.646Z</time></trkpt><trkpt lat="44.269095" lon="8.4010533"><ele>283.0</ele><time>2026-04-26T09:43:05.646Z</time></trkpt><trkpt lat="44.2690633" lon="8.40117"><ele>283.0</ele><time>2026-04-26T09:43:07.646Z</time></trkpt><trkpt lat="44.2690567" lon="8.4012783"><ele>283.0</ele><time>2026-04-26T09:43:09.646Z</time></trkpt><trkpt lat="44.26904" lon="8.4014083"><ele>283.0</ele><time>2026-04-26T09:43:12.646Z</time></trkpt><trkpt lat="44.2689917" lon="8.4014867"><ele>283.0</ele><time>2026-04-26T09:43:14.646Z</time></trkpt><trkpt lat="44.26893" lon="8.4015683"><ele>283.0</ele><time>2026-04-26T09:43:16.646Z</time></trkpt><trkpt lat="44.2689033" lon="8.4016917"><ele>283.0</ele><time>2026-04-26T09:43:18.646Z</time></trkpt><trkpt lat="44.268915" lon="8.40178"><ele>280.8</ele><time>2026-04-26T09:43:19.647Z</time></trkpt><trkpt lat="44.2689383" lon="8.4019367"><ele>278.6</ele><time>2026-04-26T09:43:21.647Z</time></trkpt><trkpt lat="44.2689433" lon="8.4021067"><ele>276.4</ele><time>2026-04-26T09:43:23.646Z</time></trkpt><trkpt lat="44.2689383" lon="8.4022183"><ele>274.2</ele><time>2026-04-26T09:43:24.646Z</time></trkpt><trkpt lat="44.268935" lon="8.40232"><ele>272.0</ele><time>2026-04-26T09:43:25.646Z</time></trkpt><trkpt lat="44.26894" lon="8.40247"><ele>266.83333333333337</ele><time>2026-04-26T09:43:27.647Z</time></trkpt><trkpt lat="44.2689033" lon="8.4025483"><ele>261.6666666666667</ele><time>2026-04-26T09:43:29.646Z</time></trkpt><trkpt lat="44.2688233" lon="8.4025533"><ele>256.5</ele><time>2026-04-26T09:43:31.646Z</time></trkpt><trkpt lat="44.2687467" lon="8.40255"><ele>251.33333333333331</ele><time>2026-04-26T09:43:33.646Z</time></trkpt><trkpt lat="44.2686783" lon="8.4025567"><ele>246.16666666666666</ele><time>2026-04-26T09:43:35.646Z</time></trkpt><trkpt lat="44.2685817" lon="8.4026067"><ele>241.0</ele><time>2026-04-26T09:43:37.647Z</time></trkpt><trkpt lat="44.2684833" lon="8.402665"><ele>241.0</ele><time>2026-04-26T09:43:39.646Z</time></trkpt><trkpt lat="44.268395" lon="8.402725"><ele>241.00000000000003</ele><time>2026-04-26T09:43:41.646Z</time></trkpt><trkpt lat="44.2683117" lon="8.402805"><ele>241.00000000000003</ele><time>2026-04-26T09:43:43.646Z</time></trkpt><trkpt lat="44.2682317" lon="8.402925"><ele>241.0</ele><time>2026-04-26T09:43:45.646Z</time></trkpt><trkpt lat="44.2681967" lon="8.4029983"><ele>241.0</ele><time>2026-04-26T09:43:46.646Z</time></trkpt><trkpt lat="44.2681583" lon="8.4030883"><ele>241.49999999999997</ele><time>2026-04-26T09:43:47.646Z</time></trkpt><trkpt lat="44.2681283" lon="8.4031783"><ele>242.0</ele><time>2026-04-26T09:43:48.646Z</time></trkpt><trkpt lat="44.2680983" lon="8.4032667"><ele>242.5</ele><time>2026-04-26T09:43:49.646Z</time></trkpt><trkpt lat="44.268065" lon="8.4033483"><ele>243.0</ele><time>2026-04-26T09:43:50.646Z</time></trkpt><trkpt lat="44.26803" lon="8.4034233"><ele>243.49999999999997</ele><time>2026-04-26T09:43:51.646Z</time></trkpt><trkpt lat="44.2679517" lon="8.4035567"><ele>244.0</ele><time>2026-04-26T09:43:53.646Z</time></trkpt><trkpt lat="44.2678767" lon="8.4036633"><ele>238.0</ele><time>2026-04-26T09:43:55.646Z</time></trkpt><trkpt lat="44.2677967" lon="8.4037667"><ele>232.0</ele><time>2026-04-26T09:43:57.646Z</time></trkpt><trkpt lat="44.2677033" lon="8.4038633"><ele>226.0</ele><time>2026-04-26T09:43:59.646Z</time></trkpt><trkpt lat="44.26761" lon="8.4039733"><ele>220.0</ele><time>2026-04-26T09:44:01.646Z</time></trkpt><trkpt lat="44.2675317" lon="8.404065"><ele>219.99999999999997</ele><time>2026-04-26T09:44:03.646Z</time></trkpt><trkpt lat="44.267475" lon="8.4041117"><ele>220.0</ele><time>2026-04-26T09:44:05.646Z</time></trkpt><trkpt lat="44.267425" lon="8.4041717"><ele>220.0</ele><time>2026-04-26T09:44:07.646Z</time></trkpt><trkpt lat="44.2673583" lon="8.4042733"><ele>220.0</ele><time>2026-04-26T09:44:10.646Z</time></trkpt><trkpt lat="44.26732" lon="8.40436"><ele>219.99999999999997</ele><time>2026-04-26T09:44:12.646Z</time></trkpt><trkpt lat="44.2672883" lon="8.4044633"><ele>220.0</ele><time>2026-04-26T09:44:14.646Z</time></trkpt><trkpt lat="44.2672483" lon="8.4045783"><ele>214.33333333333331</ele><time>2026-04-26T09:44:16.646Z</time></trkpt><trkpt lat="44.2671717" lon="8.4046283"><ele>208.66666666666666</ele><time>2026-04-26T09:44:18.646Z</time></trkpt><trkpt lat="44.2670983" lon="8.4046633"><ele>203.0</ele><time>2026-04-26T09:44:20.646Z</time></trkpt><trkpt lat="44.26711" lon="8.4047683"><ele>197.33333333333331</ele><time>2026-04-26T09:44:23.646Z</time></trkpt><trkpt lat="44.2671717" lon="8.404875"><ele>191.66666666666666</ele><time>2026-04-26T09:44:25.646Z</time></trkpt><trkpt lat="44.2672167" lon="8.4049417"><ele>186.0</ele><time>2026-04-26T09:44:26.646Z</time></trkpt><trkpt lat="44.2672633" lon="8.40507"><ele>186.20000000000002</ele><time>2026-04-26T09:44:28.646Z</time></trkpt><trkpt lat="44.267295" lon="8.405205"><ele>186.4</ele><time>2026-04-26T09:44:30.646Z</time></trkpt><trkpt lat="44.2673533" lon="8.4053417"><ele>186.6</ele><time>2026-04-26T09:44:32.646Z</time></trkpt><trkpt lat="44.2674267" lon="8.4054617"><ele>186.8</ele><time>2026-04-26T09:44:34.647Z</time></trkpt><trkpt lat="44.2675033" lon="8.405575"><ele>187.0</ele><time>2026-04-26T09:44:36.646Z</time></trkpt><trkpt lat="44.2675767" lon="8.4056617"><ele>187.0</ele><time>2026-04-26T09:44:38.646Z</time></trkpt><trkpt lat="44.2676083" lon="8.405775"><ele>187.0</ele><time>2026-04-26T09:44:40.646Z</time></trkpt><trkpt lat="44.26759" lon="8.4059267"><ele>187.0</ele><time>2026-04-26T09:44:42.647Z</time></trkpt><trkpt lat="44.2675783" lon="8.4060733"><ele>187.0</ele><time>2026-04-26T09:44:44.646Z</time></trkpt><trkpt lat="44.267615" lon="8.4061867"><ele>187.0</ele><time>2026-04-26T09:44:46.646Z</time></trkpt><trkpt lat="44.2676533" lon="8.4062917"><ele>184.16666666666669</ele><time>2026-04-26T09:44:48.646Z</time></trkpt><trkpt lat="44.267685" lon="8.4063917"><ele>181.33333333333334</ele><time>2026-04-26T09:44:50.646Z</time></trkpt><trkpt lat="44.2676767" lon="8.4065483"><ele>178.5</ele><time>2026-04-26T09:44:52.646Z</time></trkpt><trkpt lat="44.26767" lon="8.4066567"><ele>175.66666666666666</ele><time>2026-04-26T09:44:53.646Z</time></trkpt><trkpt lat="44.2676633" lon="8.4067633"><ele>172.83333333333331</ele><time>2026-04-26T09:44:54.647Z</time></trkpt><trkpt lat="44.2676517" lon="8.4068683"><ele>170.0</ele><time>2026-04-26T09:44:55.646Z</time></trkpt><trkpt lat="44.2676417" lon="8.4069667"><ele>170.0</ele><time>2026-04-26T09:44:56.646Z</time></trkpt><trkpt lat="44.2676167" lon="8.407065"><ele>170.0</ele><time>2026-04-26T09:44:57.647Z</time></trkpt><trkpt lat="44.2675917" lon="8.4071583"><ele>170.0</ele><time>2026-04-26T09:44:58.646Z</time></trkpt><trkpt lat="44.2675533" lon="8.4073117"><ele>170.0</ele><time>2026-04-26T09:45:00.646Z</time></trkpt><trkpt lat="44.267555" lon="8.4074383"><ele>170.0</ele><time>2026-04-26T09:45:02.646Z</time></trkpt><trkpt lat="44.267605" lon="8.40753"><ele>170.0</ele><time>2026-04-26T09:45:04.646Z</time></trkpt><trkpt lat="44.2677333" lon="8.4075733"><ele>168.0</ele><time>2026-04-26T09:45:06.646Z</time></trkpt><trkpt lat="44.2678067" lon="8.4075633"><ele>166.0</ele><time>2026-04-26T09:45:07.647Z</time></trkpt><trkpt lat="44.2678717" lon="8.40755"><ele>164.0</ele><time>2026-04-26T09:45:08.646Z</time></trkpt><trkpt lat="44.267955" lon="8.407535"><ele>162.0</ele><time>2026-04-26T09:45:10.646Z</time></trkpt><trkpt lat="44.2680167" lon="8.4075011"><ele>160.0</ele><time>2026-04-26T09:45:44.646Z</time></trkpt><trkpt lat="44.2680907" lon="8.4074127"><ele>158.0</ele><time>2026-04-26T09:45:46.646Z</time></trkpt><trkpt lat="44.2681366" lon="8.4073477"><ele>158.0</ele><time>2026-04-26T09:45:47.647Z</time></trkpt><trkpt lat="44.2682131" lon="8.4072398"><ele>158.0</ele><time>2026-04-26T09:45:49.647Z</time></trkpt><trkpt lat="44.2683051" lon="8.407135"><ele>158.0</ele><time>2026-04-26T09:45:51.646Z</time></trkpt><trkpt lat="44.2683602" lon="8.4070773"><ele>158.0</ele><time>2026-04-26T09:45:52.646Z</time></trkpt><trkpt lat="44.2684158" lon="8.4070213"><ele>158.0</ele><time>2026-04-26T09:45:53.646Z</time></trkpt><trkpt lat="44.2685042" lon="8.4069325"><ele>162.2</ele><time>2026-04-26T09:45:55.646Z</time></trkpt><trkpt lat="44.2685549" lon="8.4068349"><ele>166.4</ele><time>2026-04-26T09:45:57.647Z</time></trkpt><trkpt lat="44.2686169" lon="8.4067143"><ele>170.6</ele><time>2026-04-26T09:45:59.646Z</time></trkpt><trkpt lat="44.2686903" lon="8.4065958"><ele>174.79999999999998</ele><time>2026-04-26T09:46:01.646Z</time></trkpt><trkpt lat="44.2687598" lon="8.4064889"><ele>179.0</ele><time>2026-04-26T09:46:03.646Z</time></trkpt><trkpt lat="44.2688084" lon="8.4063605"><ele>180.5</ele><time>2026-04-26T09:46:05.646Z</time></trkpt><trkpt lat="44.2688338" lon="8.4062773"><ele>182.0</ele><time>2026-04-26T09:46:06.646Z</time></trkpt><trkpt lat="44.2688609" lon="8.4061827"><ele>183.5</ele><time>2026-04-26T09:46:07.646Z</time></trkpt><trkpt lat="44.2688867" lon="8.406089"><ele>185.0</ele><time>2026-04-26T09:46:08.646Z</time></trkpt><trkpt lat="44.2689121" lon="8.4060035"><ele>186.5</ele><time>2026-04-26T09:46:09.646Z</time></trkpt><trkpt lat="44.2689824" lon="8.4058561"><ele>188.0</ele><time>2026-04-26T09:46:11.646Z</time></trkpt><trkpt lat="44.2690324" lon="8.4057868"><ele>188.0</ele><time>2026-04-26T09:46:12.646Z</time></trkpt><trkpt lat="44.2690862" lon="8.4057122"><ele>188.0</ele><time>2026-04-26T09:46:13.646Z</time></trkpt><trkpt lat="44.2691406" lon="8.405638"><ele>188.0</ele><time>2026-04-26T09:46:14.646Z</time></trkpt><trkpt lat="44.2691938" lon="8.4055638"><ele>188.0</ele><time>2026-04-26T09:46:15.646Z</time></trkpt><trkpt lat="44.2692361" lon="8.405492"><ele>188.0</ele><time>2026-04-26T09:46:16.646Z</time></trkpt><trkpt lat="44.2692732" lon="8.4054156"><ele>188.0</ele><time>2026-04-26T09:46:17.646Z</time></trkpt><trkpt lat="44.2693055" lon="8.4053359"><ele>188.0</ele><time>2026-04-26T09:46:18.646Z</time></trkpt><trkpt lat="44.2693408" lon="8.4052532"><ele>191.66666666666666</ele><time>2026-04-26T09:46:19.647Z</time></trkpt><trkpt lat="44.2693824" lon="8.4051673"><ele>195.33333333333331</ele><time>2026-04-26T09:46:20.646Z</time></trkpt><trkpt lat="44.2694268" lon="8.4050869"><ele>199.0</ele><time>2026-04-26T09:46:21.646Z</time></trkpt><trkpt lat="44.2694694" lon="8.4050168"><ele>202.66666666666666</ele><time>2026-04-26T09:46:22.646Z</time></trkpt><trkpt lat="44.2695406" lon="8.4048791"><ele>206.33333333333334</ele><time>2026-04-26T09:46:24.647Z</time></trkpt><trkpt lat="44.2696147" lon="8.4047868"><ele>210.0</ele><time>2026-04-26T09:46:26.646Z</time></trkpt><trkpt lat="44.2697009" lon="8.4047675"><ele>207.33333333333334</ele><time>2026-04-26T09:46:28.646Z</time></trkpt><trkpt lat="44.2698129" lon="8.4048359"><ele>204.66666666666669</ele><time>2026-04-26T09:46:30.646Z</time></trkpt><trkpt lat="44.2698698" lon="8.4048776"><ele>202.0</ele><time>2026-04-26T09:46:31.646Z</time></trkpt><trkpt lat="44.2699325" lon="8.404897"><ele>199.33333333333334</ele><time>2026-04-26T09:46:32.646Z</time></trkpt><trkpt lat="44.2699975" lon="8.4049103"><ele>196.66666666666669</ele><time>2026-04-26T09:46:33.646Z</time></trkpt><trkpt lat="44.270061" lon="8.4049231"><ele>194.0</ele><time>2026-04-26T09:46:34.646Z</time></trkpt><trkpt lat="44.2701618" lon="8.404951"><ele>194.0</ele><time>2026-04-26T09:46:36.646Z</time></trkpt><trkpt lat="44.2702497" lon="8.4049193"><ele>194.0</ele><time>2026-04-26T09:46:38.646Z</time></trkpt><trkpt lat="44.270314" lon="8.4048288"><ele>194.0</ele><time>2026-04-26T09:46:40.646Z</time></trkpt><trkpt lat="44.2703622" lon="8.4047143"><ele>194.0</ele><time>2026-04-26T09:46:42.646Z</time></trkpt><trkpt lat="44.2704098" lon="8.4045922"><ele>194.0</ele><time>2026-04-26T09:46:44.647Z</time></trkpt><trkpt lat="44.2704707" lon="8.4044601"><ele>200.2</ele><time>2026-04-26T09:46:46.646Z</time></trkpt><trkpt lat="44.270536" lon="8.4043439"><ele>206.39999999999998</ele><time>2026-04-26T09:46:48.646Z</time></trkpt><trkpt lat="44.2705951" lon="8.4042237"><ele>212.6</ele><time>2026-04-26T09:46:50.646Z</time></trkpt><trkpt lat="44.2706781" lon="8.4041354"><ele>218.8</ele><time>2026-04-26T09:46:52.647Z</time></trkpt><trkpt lat="44.2707379" lon="8.4040981"><ele>225.0</ele><time>2026-04-26T09:46:53.646Z</time></trkpt><trkpt lat="44.270808" lon="8.4040599"><ele>225.0</ele><time>2026-04-26T09:46:54.646Z</time></trkpt><trkpt lat="44.2708822" lon="8.4040158"><ele>225.0</ele><time>2026-04-26T09:46:55.646Z</time></trkpt><trkpt lat="44.2709561" lon="8.4039632"><ele>225.0</ele><time>2026-04-26T09:46:56.646Z</time></trkpt><trkpt lat="44.2710247" lon="8.4039078"><ele>225.0</ele><time>2026-04-26T09:46:57.646Z</time></trkpt><trkpt lat="44.2710924" lon="8.4038604"><ele>225.0</ele><time>2026-04-26T09:46:58.646Z</time></trkpt><trkpt lat="44.2711658" lon="8.4038186"><ele>225.0</ele><time>2026-04-26T09:46:59.646Z</time></trkpt><trkpt lat="44.2712369" lon="8.4037864"><ele>229.0</ele><time>2026-04-26T09:47:00.646Z</time></trkpt><trkpt lat="44.2713108" lon="8.4037611"><ele>233.0</ele><time>2026-04-26T09:47:01.647Z</time></trkpt><trkpt lat="44.2713842" lon="8.4037505"><ele>237.0</ele><time>2026-04-26T09:47:02.646Z</time></trkpt><trkpt lat="44.2714524" lon="8.4037557"><ele>241.0</ele><time>2026-04-26T09:47:03.646Z</time></trkpt><trkpt lat="44.2715568" lon="8.4037407"><ele>245.0</ele><time>2026-04-26T09:47:05.646Z</time></trkpt><trkpt lat="44.2716276" lon="8.4036754"><ele>249.0</ele><time>2026-04-26T09:47:07.646Z</time></trkpt><trkpt lat="44.2716919" lon="8.4035891"><ele>249.0</ele><time>2026-04-26T09:47:09.646Z</time></trkpt><trkpt lat="44.2717691" lon="8.4035972"><ele>249.0</ele><time>2026-04-26T09:47:11.646Z</time></trkpt><trkpt lat="44.2718602" lon="8.4036693"><ele>249.0</ele><time>2026-04-26T09:47:13.646Z</time></trkpt><trkpt lat="44.2719588" lon="8.4036839"><ele>249.0</ele><time>2026-04-26T09:47:15.646Z</time></trkpt><trkpt lat="44.2720258" lon="8.4036756"><ele>249.0</ele><time>2026-04-26T09:47:16.647Z</time></trkpt><trkpt lat="44.2721012" lon="8.4036743"><ele>249.0</ele><time>2026-04-26T09:47:17.646Z</time></trkpt><trkpt lat="44.2721751" lon="8.4036849"><ele>249.0</ele><time>2026-04-26T09:47:18.646Z</time></trkpt><trkpt lat="44.272243" lon="8.4036912"><ele>249.0</ele><time>2026-04-26T09:47:19.646Z</time></trkpt><trkpt lat="44.2723117" lon="8.4036836"><ele>249.0</ele><time>2026-04-26T09:47:20.646Z</time></trkpt><trkpt lat="44.2723788" lon="8.4036693"><ele>249.0</ele><time>2026-04-26T09:47:21.646Z</time></trkpt><trkpt lat="44.2724712" lon="8.4036436"><ele>249.0</ele><time>2026-04-26T09:47:23.647Z</time></trkpt><trkpt lat="44.2725212" lon="8.403578"><ele>249.0</ele><time>2026-04-26T09:47:25.646Z</time></trkpt><trkpt lat="44.2725923" lon="8.4034722"><ele>250.0</ele><time>2026-04-26T09:47:27.646Z</time></trkpt><trkpt lat="44.2726747" lon="8.4034182"><ele>250.99999999999997</ele><time>2026-04-26T09:47:29.646Z</time></trkpt><trkpt lat="44.2727704" lon="8.4033931"><ele>251.99999999999997</ele><time>2026-04-26T09:47:31.646Z</time></trkpt><trkpt lat="44.2728607" lon="8.4034258"><ele>253.0</ele><time>2026-04-26T09:47:33.646Z</time></trkpt><trkpt lat="44.2729241" lon="8.4035362"><ele>254.0</ele><time>2026-04-26T09:47:35.646Z</time></trkpt><trkpt lat="44.2730081" lon="8.4036226"><ele>254.0</ele><time>2026-04-26T09:47:37.646Z</time></trkpt><trkpt lat="44.2730848" lon="8.4037314"><ele>253.99999999999997</ele><time>2026-04-26T09:47:39.646Z</time></trkpt><trkpt lat="44.2731686" lon="8.4038517"><ele>253.99999999999997</ele><time>2026-04-26T09:47:41.646Z</time></trkpt><trkpt lat="44.2732903" lon="8.4039182"><ele>254.0</ele><time>2026-04-26T09:47:43.646Z</time></trkpt><trkpt lat="44.2733568" lon="8.4039485"><ele>254.0</ele><time>2026-04-26T09:47:44.646Z</time></trkpt><trkpt lat="44.2734631" lon="8.4039958"><ele>254.66666666666669</ele><time>2026-04-26T09:47:46.646Z</time></trkpt><trkpt lat="44.2735364" lon="8.4040273"><ele>255.33333333333334</ele><time>2026-04-26T09:47:48.646Z</time></trkpt><trkpt lat="44.2735834" lon="8.4040915"><ele>256.0</ele><time>2026-04-26T09:47:51.646Z</time></trkpt><trkpt lat="44.2735661" lon="8.4042305"><ele>256.6666666666667</ele><time>2026-04-26T09:47:54.647Z</time></trkpt><trkpt lat="44.2735301" lon="8.4043575"><ele>257.3333333333333</ele><time>2026-04-26T09:47:56.646Z</time></trkpt><trkpt lat="44.2734705" lon="8.4044706"><ele>258.0</ele><time>2026-04-26T09:47:58.646Z</time></trkpt><trkpt lat="44.2733974" lon="8.4045988"><ele>256.6666666666667</ele><time>2026-04-26T09:48:00.646Z</time></trkpt><trkpt lat="44.27336" lon="8.404744"><ele>255.33333333333331</ele><time>2026-04-26T09:48:02.647Z</time></trkpt><trkpt lat="44.2733395" lon="8.4048733"><ele>254.0</ele><time>2026-04-26T09:48:04.646Z</time></trkpt><trkpt lat="44.273313" lon="8.4049728"><ele>252.66666666666666</ele><time>2026-04-26T09:48:07.647Z</time></trkpt><trkpt lat="44.2732813" lon="8.4050648"><ele>251.33333333333331</ele><time>2026-04-26T09:48:13.646Z</time></trkpt><trkpt lat="44.2732422" lon="8.4051739"><ele>250.0</ele><time>2026-04-26T09:48:16.646Z</time></trkpt><trkpt lat="44.2731737" lon="8.405273"><ele>245.0</ele><time>2026-04-26T09:48:19.646Z</time></trkpt><trkpt lat="44.2730841" lon="8.4053311"><ele>240.0</ele><time>2026-04-26T09:48:21.646Z</time></trkpt><trkpt lat="44.2729977" lon="8.4053956"><ele>235.0</ele><time>2026-04-26T09:48:23.646Z</time></trkpt><trkpt lat="44.2729369" lon="8.4054926"><ele>230.0</ele><time>2026-04-26T09:48:25.646Z</time></trkpt><trkpt lat="44.2729287" lon="8.4056051"><ele>225.0</ele><time>2026-04-26T09:48:27.646Z</time></trkpt><trkpt lat="44.2729778" lon="8.4057618"><ele>225.0</ele><time>2026-04-26T09:48:29.646Z</time></trkpt><trkpt lat="44.2730153" lon="8.4058648"><ele>225.0</ele><time>2026-04-26T09:48:30.646Z</time></trkpt><trkpt lat="44.2730602" lon="8.4059653"><ele>225.0</ele><time>2026-04-26T09:48:31.646Z</time></trkpt><trkpt lat="44.2731098" lon="8.4060679"><ele>225.0</ele><time>2026-04-26T09:48:32.646Z</time></trkpt><trkpt lat="44.2731626" lon="8.4061659"><ele>225.0</ele><time>2026-04-26T09:48:33.646Z</time></trkpt><trkpt lat="44.2732176" lon="8.4062571"><ele>225.0</ele><time>2026-04-26T09:48:34.646Z</time></trkpt><trkpt lat="44.2732707" lon="8.4063397"><ele>227.0</ele><time>2026-04-26T09:48:35.646Z</time></trkpt><trkpt lat="44.2733202" lon="8.4064031"><ele>229.0</ele><time>2026-04-26T09:48:36.646Z</time></trkpt><trkpt lat="44.2733749" lon="8.4064484"><ele>231.0</ele><time>2026-04-26T09:48:37.646Z</time></trkpt><trkpt lat="44.2734662" lon="8.4064912"><ele>233.0</ele><time>2026-04-26T09:48:39.646Z</time></trkpt><trkpt lat="44.2735799" lon="8.406512"><ele>235.0</ele><time>2026-04-26T09:48:41.646Z</time></trkpt><trkpt lat="44.2736452" lon="8.4065214"><ele>237.0</ele><time>2026-04-26T09:48:42.646Z</time></trkpt><trkpt lat="44.2737109" lon="8.4065271"><ele>237.0</ele><time>2026-04-26T09:48:43.646Z</time></trkpt><trkpt lat="44.2737739" lon="8.4065322"><ele>237.0</ele><time>2026-04-26T09:48:44.646Z</time></trkpt><trkpt lat="44.2738767" lon="8.406545"><ele>237.0</ele><time>2026-04-26T09:48:46.646Z</time></trkpt><trkpt lat="44.2739583" lon="8.40656"><ele>237.0</ele><time>2026-04-26T09:48:48.646Z</time></trkpt><trkpt lat="44.2740133" lon="8.40662"><ele>237.0</ele><time>2026-04-26T09:48:51.646Z</time></trkpt><trkpt lat="44.2740067" lon="8.4067233"><ele>237.0</ele><time>2026-04-26T09:48:54.646Z</time></trkpt><trkpt lat="44.2739533" lon="8.4068283"><ele>237.0</ele><time>2026-04-26T09:48:56.646Z</time></trkpt><trkpt lat="44.2738833" lon="8.4069083"><ele>237.0</ele><time>2026-04-26T09:48:58.646Z</time></trkpt><trkpt lat="44.2737817" lon="8.4069367"><ele>237.0</ele><time>2026-04-26T09:49:00.647Z</time></trkpt><trkpt lat="44.273665" lon="8.407005"><ele>237.0</ele><time>2026-04-26T09:49:02.646Z</time></trkpt><trkpt lat="44.2736067" lon="8.40705"><ele>237.0</ele><time>2026-04-26T09:49:03.646Z</time></trkpt><trkpt lat="44.2735567" lon="8.4071117"><ele>234.8</ele><time>2026-04-26T09:49:04.646Z</time></trkpt><trkpt lat="44.2734767" lon="8.4072367"><ele>232.6</ele><time>2026-04-26T09:49:06.646Z</time></trkpt><trkpt lat="44.2734217" lon="8.4074"><ele>230.40000000000003</ele><time>2026-04-26T09:49:08.646Z</time></trkpt><trkpt lat="44.2733967" lon="8.4075133"><ele>228.20000000000002</ele><time>2026-04-26T09:49:09.647Z</time></trkpt><trkpt lat="44.273365" lon="8.4076217"><ele>226.0</ele><time>2026-04-26T09:49:10.646Z</time></trkpt><trkpt lat="44.2733233" lon="8.407735"><ele>225.99999999999997</ele><time>2026-04-26T09:49:11.646Z</time></trkpt><trkpt lat="44.27328" lon="8.4078483"><ele>226.0</ele><time>2026-04-26T09:49:12.646Z</time></trkpt><trkpt lat="44.2732483" lon="8.40797"><ele>226.0</ele><time>2026-04-26T09:49:13.646Z</time></trkpt><trkpt lat="44.2732217" lon="8.408085"><ele>226.0</ele><time>2026-04-26T09:49:14.646Z</time></trkpt><trkpt lat="44.2731933" lon="8.4081883"><ele>225.99999999999997</ele><time>2026-04-26T09:49:15.646Z</time></trkpt><trkpt lat="44.2731617" lon="8.40828"><ele>226.0</ele><time>2026-04-26T09:49:16.646Z</time></trkpt><trkpt lat="44.27312" lon="8.4083517"><ele>223.14285714285714</ele><time>2026-04-26T09:49:17.646Z</time></trkpt><trkpt lat="44.273075" lon="8.40842"><ele>220.28571428571428</ele><time>2026-04-26T09:49:18.646Z</time></trkpt><trkpt lat="44.273035" lon="8.408495"><ele>217.42857142857142</ele><time>2026-04-26T09:49:19.646Z</time></trkpt><trkpt lat="44.2730117" lon="8.4085833"><ele>214.57142857142856</ele><time>2026-04-26T09:49:20.646Z</time></trkpt><trkpt lat="44.272995" lon="8.40869"><ele>211.71428571428572</ele><time>2026-04-26T09:49:21.646Z</time></trkpt><trkpt lat="44.2729817" lon="8.4087983"><ele>208.85714285714283</ele><time>2026-04-26T09:49:22.646Z</time></trkpt><trkpt lat="44.2729717" lon="8.4089"><ele>206.0</ele><time>2026-04-26T09:49:23.646Z</time></trkpt><trkpt lat="44.2729267" lon="8.4090217"><ele>206.00000000000003</ele><time>2026-04-26T09:49:25.646Z</time></trkpt><trkpt lat="44.2728233" lon="8.4091183"><ele>206.0</ele><time>2026-04-26T09:49:27.646Z</time></trkpt><trkpt lat="44.2727583" lon="8.409165"><ele>206.0</ele><time>2026-04-26T09:49:28.646Z</time></trkpt><trkpt lat="44.272695" lon="8.4092367"><ele>206.0</ele><time>2026-04-26T09:49:29.646Z</time></trkpt><trkpt lat="44.2726383" lon="8.409315"><ele>206.00000000000003</ele><time>2026-04-26T09:49:30.646Z</time></trkpt><trkpt lat="44.2725783" lon="8.4094033"><ele>206.0</ele><time>2026-04-26T09:49:31.647Z</time></trkpt><trkpt lat="44.2725183" lon="8.40949"><ele>206.00000000000003</ele><time>2026-04-26T09:49:32.646Z</time></trkpt><trkpt lat="44.2724583" lon="8.409575"><ele>206.0</ele><time>2026-04-26T09:49:33.646Z</time></trkpt><trkpt lat="44.2724" lon="8.4096533"><ele>206.0</ele><time>2026-04-26T09:49:34.646Z</time></trkpt><trkpt lat="44.272345" lon="8.4097233"><ele>206.0</ele><time>2026-04-26T09:49:35.646Z</time></trkpt><trkpt lat="44.27229" lon="8.4097883"><ele>206.00000000000003</ele><time>2026-04-26T09:49:36.646Z</time></trkpt><trkpt lat="44.2722417" lon="8.4098633"><ele>206.0</ele><time>2026-04-26T09:49:37.646Z</time></trkpt><trkpt lat="44.2721917" lon="8.4099383"><ele>202.8</ele><time>2026-04-26T09:49:38.646Z</time></trkpt><trkpt lat="44.2721383" lon="8.409995"><ele>199.60000000000002</ele><time>2026-04-26T09:49:39.646Z</time></trkpt><trkpt lat="44.2720433" lon="8.4100533"><ele>196.4</ele><time>2026-04-26T09:49:41.646Z</time></trkpt><trkpt lat="44.27196" lon="8.410015"><ele>193.2</ele><time>2026-04-26T09:49:43.646Z</time></trkpt><trkpt lat="44.2718867" lon="8.4099017"><ele>190.0</ele><time>2026-04-26T09:49:45.647Z</time></trkpt><trkpt lat="44.271825" lon="8.4097983"><ele>190.0</ele><time>2026-04-26T09:49:47.646Z</time></trkpt><trkpt lat="44.2717467" lon="8.4097083"><ele>190.0</ele><time>2026-04-26T09:49:49.646Z</time></trkpt><trkpt lat="44.2716367" lon="8.4096333"><ele>190.0</ele><time>2026-04-26T09:49:51.646Z</time></trkpt><trkpt lat="44.2715717" lon="8.4096033"><ele>190.0</ele><time>2026-04-26T09:49:52.646Z</time></trkpt><trkpt lat="44.2714983" lon="8.409585"><ele>190.0</ele><time>2026-04-26T09:49:53.646Z</time></trkpt><trkpt lat="44.2714267" lon="8.4095867"><ele>190.0</ele><time>2026-04-26T09:49:54.647Z</time></trkpt><trkpt lat="44.271355" lon="8.4096067"><ele>186.83333333333334</ele><time>2026-04-26T09:49:55.646Z</time></trkpt><trkpt lat="44.27128" lon="8.409635"><ele>183.66666666666669</ele><time>2026-04-26T09:49:56.646Z</time></trkpt><trkpt lat="44.271215" lon="8.40967"><ele>180.5</ele><time>2026-04-26T09:49:57.647Z</time></trkpt><trkpt lat="44.2711517" lon="8.4096933"><ele>177.33333333333334</ele><time>2026-04-26T09:49:58.646Z</time></trkpt><trkpt lat="44.2710367" lon="8.40972"><ele>174.16666666666666</ele><time>2026-04-26T09:50:00.646Z</time></trkpt><trkpt lat="44.2709467" lon="8.4096667"><ele>171.0</ele><time>2026-04-26T09:50:02.646Z</time></trkpt><trkpt lat="44.27089" lon="8.4095517"><ele>171.0</ele><time>2026-04-26T09:50:04.646Z</time></trkpt><trkpt lat="44.2708283" lon="8.4094217"><ele>171.0</ele><time>2026-04-26T09:50:06.646Z</time></trkpt><trkpt lat="44.2707317" lon="8.4093717"><ele>171.0</ele><time>2026-04-26T09:50:08.646Z</time></trkpt><trkpt lat="44.2706583" lon="8.409465"><ele>171.0</ele><time>2026-04-26T09:50:10.646Z</time></trkpt><trkpt lat="44.2706433" lon="8.4096283"><ele>171.0</ele><time>2026-04-26T09:50:12.646Z</time></trkpt><trkpt lat="44.2706467" lon="8.4097167"><ele>171.0</ele><time>2026-04-26T09:50:13.646Z</time></trkpt><trkpt lat="44.270645" lon="8.409875"><ele>171.0</ele><time>2026-04-26T09:50:15.646Z</time></trkpt><trkpt lat="44.2706433" lon="8.4100383"><ele>171.0</ele><time>2026-04-26T09:50:17.646Z</time></trkpt><trkpt lat="44.2706233" lon="8.41017"><ele>171.0</ele><time>2026-04-26T09:50:19.646Z</time></trkpt><trkpt lat="44.2705633" lon="8.41025"><ele>171.0</ele><time>2026-04-26T09:50:21.646Z</time></trkpt><trkpt lat="44.2704683" lon="8.4103283"><ele>165.8</ele><time>2026-04-26T09:50:23.646Z</time></trkpt><trkpt lat="44.2703683" lon="8.4103983"><ele>160.60000000000002</ele><time>2026-04-26T09:50:25.646Z</time></trkpt><trkpt lat="44.270265" lon="8.4104667"><ele>155.4</ele><time>2026-04-26T09:50:27.646Z</time></trkpt><trkpt lat="44.270175" lon="8.4105583"><ele>150.2</ele><time>2026-04-26T09:50:29.646Z</time></trkpt><trkpt lat="44.2701017" lon="8.4106667"><ele>145.0</ele><time>2026-04-26T09:50:31.646Z</time></trkpt><trkpt lat="44.2699817" lon="8.41071"><ele>145.0</ele><time>2026-04-26T09:50:34.646Z</time></trkpt><trkpt lat="44.26991" lon="8.4106667"><ele>145.0</ele><time>2026-04-26T09:50:36.647Z</time></trkpt><trkpt lat="44.269825" lon="8.4106367"><ele>145.0</ele><time>2026-04-26T09:50:38.646Z</time></trkpt><trkpt lat="44.26973" lon="8.4106717"><ele>145.0</ele><time>2026-04-26T09:50:40.646Z</time></trkpt><trkpt lat="44.2696233" lon="8.4107183"><ele>145.0</ele><time>2026-04-26T09:50:42.646Z</time></trkpt><trkpt lat="44.2695267" lon="8.4107683"><ele>138.8</ele><time>2026-04-26T09:50:44.646Z</time></trkpt><trkpt lat="44.269435" lon="8.4108167"><ele>132.6</ele><time>2026-04-26T09:50:46.646Z</time></trkpt><trkpt lat="44.2693617" lon="8.4108817"><ele>126.4</ele><time>2026-04-26T09:50:48.646Z</time></trkpt><trkpt lat="44.2692933" lon="8.411"><ele>120.2</ele><time>2026-04-26T09:50:50.647Z</time></trkpt><trkpt lat="44.2692333" lon="8.41115"><ele>114.0</ele><time>2026-04-26T09:50:52.646Z</time></trkpt><trkpt lat="44.2691983" lon="8.411235"><ele>114.6</ele><time>2026-04-26T09:50:53.646Z</time></trkpt><trkpt lat="44.2691717" lon="8.4113317"><ele>115.2</ele><time>2026-04-26T09:50:54.646Z</time></trkpt><trkpt lat="44.269135" lon="8.4114933"><ele>115.79999999999998</ele><time>2026-04-26T09:50:56.646Z</time></trkpt><trkpt lat="44.2691267" lon="8.4115817"><ele>116.39999999999999</ele><time>2026-04-26T09:50:57.646Z</time></trkpt><trkpt lat="44.2691467" lon="8.4117333"><ele>117.0</ele><time>2026-04-26T09:50:59.646Z</time></trkpt><trkpt lat="44.2691917" lon="8.41187"><ele>117.0</ele><time>2026-04-26T09:51:01.646Z</time></trkpt><trkpt lat="44.2691975" lon="8.4119964"><ele>116.99999999999999</ele><time>2026-04-26T09:51:03.647Z</time></trkpt><trkpt lat="44.2691656" lon="8.4121568"><ele>116.99999999999999</ele><time>2026-04-26T09:51:05.646Z</time></trkpt><trkpt lat="44.269122" lon="8.4123146"><ele>117.0</ele><time>2026-04-26T09:51:07.647Z</time></trkpt><trkpt lat="44.2690793" lon="8.4124605"><ele>117.0</ele><time>2026-04-26T09:51:09.646Z</time></trkpt><trkpt lat="44.2690808" lon="8.412688"><ele>116.39999999999999</ele><time>2026-04-26T09:51:12.646Z</time></trkpt><trkpt lat="44.2691217" lon="8.4128403"><ele>115.79999999999998</ele><time>2026-04-26T09:51:14.646Z</time></trkpt><trkpt lat="44.2691616" lon="8.4129915"><ele>115.2</ele><time>2026-04-26T09:51:16.646Z</time></trkpt><trkpt lat="44.2691532" lon="8.4130795"><ele>114.6</ele><time>2026-04-26T09:51:17.646Z</time></trkpt><trkpt lat="44.2691364" lon="8.4131811"><ele>114.0</ele><time>2026-04-26T09:51:18.647Z</time></trkpt><trkpt lat="44.2691089" lon="8.4134303"><ele>112.80000000000001</ele><time>2026-04-26T09:51:20.646Z</time></trkpt><trkpt lat="44.2690884" lon="8.4135547"><ele>111.60000000000001</ele><time>2026-04-26T09:51:21.646Z</time></trkpt><trkpt lat="44.2690564" lon="8.4136701"><ele>110.4</ele><time>2026-04-26T09:51:22.646Z</time></trkpt><trkpt lat="44.2690137" lon="8.4137725"><ele>109.2</ele><time>2026-04-26T09:51:23.646Z</time></trkpt><trkpt lat="44.2689695" lon="8.4138702"><ele>108.0</ele><time>2026-04-26T09:51:24.646Z</time></trkpt><trkpt lat="44.2688947" lon="8.4140649"><ele>101.80000000000001</ele><time>2026-04-26T09:51:26.646Z</time></trkpt><trkpt lat="44.2688646" lon="8.4141627"><ele>95.60000000000001</ele><time>2026-04-26T09:51:27.646Z</time></trkpt><trkpt lat="44.2688458" lon="8.4142486"><ele>89.4</ele><time>2026-04-26T09:51:28.646Z</time></trkpt><trkpt lat="44.2688305" lon="8.4144047"><ele>83.2</ele><time>2026-04-26T09:51:30.646Z</time></trkpt><trkpt lat="44.2688335" lon="8.4145666"><ele>77.0</ele><time>2026-04-26T09:51:32.646Z</time></trkpt><trkpt lat="44.2688108" lon="8.4147297"><ele>76.66666666666667</ele><time>2026-04-26T09:51:34.646Z</time></trkpt><trkpt lat="44.2687845" lon="8.4148152"><ele>76.33333333333334</ele><time>2026-04-26T09:51:35.646Z</time></trkpt><trkpt lat="44.2687333" lon="8.415005"><ele>76.0</ele><time>2026-04-26T09:51:37.647Z</time></trkpt><trkpt lat="44.2687167" lon="8.4150933"><ele>75.66666666666667</ele><time>2026-04-26T09:51:38.646Z</time></trkpt><trkpt lat="44.268705" lon="8.415185"><ele>75.33333333333333</ele><time>2026-04-26T09:51:39.646Z</time></trkpt><trkpt lat="44.2686933" lon="8.4152717"><ele>75.0</ele><time>2026-04-26T09:51:40.646Z</time></trkpt><trkpt lat="44.268685" lon="8.4153633"><ele>75.0</ele><time>2026-04-26T09:51:41.647Z</time></trkpt><trkpt lat="44.268685" lon="8.4154583"><ele>75.0</ele><time>2026-04-26T09:51:42.646Z</time></trkpt><trkpt lat="44.2686867" lon="8.4155567"><ele>75.0</ele><time>2026-04-26T09:51:43.646Z</time></trkpt><trkpt lat="44.2686717" lon="8.41574"><ele>75.0</ele><time>2026-04-26T09:51:45.646Z</time></trkpt><trkpt lat="44.2686183" lon="8.4159083"><ele>75.0</ele><time>2026-04-26T09:51:47.646Z</time></trkpt><trkpt lat="44.268585" lon="8.4160017"><ele>74.0</ele><time>2026-04-26T09:51:48.646Z</time></trkpt><trkpt lat="44.268555" lon="8.4160817"><ele>73.0</ele><time>2026-04-26T09:51:49.646Z</time></trkpt><trkpt lat="44.2684833" lon="8.4162683"><ele>72.0</ele><time>2026-04-26T09:51:52.647Z</time></trkpt><trkpt lat="44.2684717" lon="8.4163583"><ele>71.0</ele><time>2026-04-26T09:51:54.646Z</time></trkpt><trkpt lat="44.2684667" lon="8.4164867"><ele>70.0</ele><time>2026-04-26T09:51:57.646Z</time></trkpt><trkpt lat="44.26846" lon="8.4165967"><ele>68.8</ele><time>2026-04-26T09:51:59.646Z</time></trkpt><trkpt lat="44.2684617" lon="8.41674"><ele>67.6</ele><time>2026-04-26T09:52:01.646Z</time></trkpt><trkpt lat="44.2684833" lon="8.4168917"><ele>66.4</ele><time>2026-04-26T09:52:03.646Z</time></trkpt><trkpt lat="44.2685433" lon="8.41702"><ele>65.2</ele><time>2026-04-26T09:52:05.646Z</time></trkpt><trkpt lat="44.26863" lon="8.4171383"><ele>64.0</ele><time>2026-04-26T09:52:07.646Z</time></trkpt><trkpt lat="44.2686783" lon="8.417255"><ele>62.6</ele><time>2026-04-26T09:52:09.646Z</time></trkpt><trkpt lat="44.268635" lon="8.4174533"><ele>61.2</ele><time>2026-04-26T09:52:12.646Z</time></trkpt><trkpt lat="44.2685633" lon="8.4176067"><ele>59.800000000000004</ele><time>2026-04-26T09:52:14.646Z</time></trkpt><trkpt lat="44.2685217" lon="8.4176933"><ele>58.400000000000006</ele><time>2026-04-26T09:52:15.646Z</time></trkpt><trkpt lat="44.268485" lon="8.4178017"><ele>57.0</ele><time>2026-04-26T09:52:16.646Z</time></trkpt><trkpt lat="44.2684517" lon="8.4179183"><ele>55.400000000000006</ele><time>2026-04-26T09:52:17.647Z</time></trkpt><trkpt lat="44.268425" lon="8.4180517"><ele>53.800000000000004</ele><time>2026-04-26T09:52:18.647Z</time></trkpt><trkpt lat="44.2684" lon="8.4181983"><ele>52.2</ele><time>2026-04-26T09:52:19.647Z</time></trkpt><trkpt lat="44.268375" lon="8.4183533"><ele>50.6</ele><time>2026-04-26T09:52:20.646Z</time></trkpt><trkpt lat="44.2683567" lon="8.418515"><ele>49.0</ele><time>2026-04-26T09:52:21.646Z</time></trkpt><trkpt lat="44.2683233" lon="8.41885"><ele>47.75</ele><time>2026-04-26T09:52:23.647Z</time></trkpt><trkpt lat="44.2683017" lon="8.419025"><ele>46.5</ele><time>2026-04-26T09:52:24.646Z</time></trkpt><trkpt lat="44.2682917" lon="8.41918"><ele>45.25</ele><time>2026-04-26T09:52:25.646Z</time></trkpt><trkpt lat="44.2682783" lon="8.41934"><ele>44.0</ele><time>2026-04-26T09:52:26.646Z</time></trkpt><trkpt lat="44.2682583" lon="8.4195067"><ele>43.400000000000006</ele><time>2026-04-26T09:52:27.646Z</time></trkpt><trkpt lat="44.26824" lon="8.41967"><ele>42.8</ele><time>2026-04-26T09:52:28.646Z</time></trkpt><trkpt lat="44.268225" lon="8.41983"><ele>42.2</ele><time>2026-04-26T09:52:29.646Z</time></trkpt><trkpt lat="44.2682117" lon="8.419975"><ele>41.599999999999994</ele><time>2026-04-26T09:52:30.646Z</time></trkpt><trkpt lat="44.2681983" lon="8.420115"><ele>41.0</ele><time>2026-04-26T09:52:31.646Z</time></trkpt><trkpt lat="44.2681833" lon="8.4203533"><ele>40.5</ele><time>2026-04-26T09:52:33.646Z</time></trkpt><trkpt lat="44.2682383" lon="8.42056"><ele>40.0</ele><time>2026-04-26T09:52:35.646Z</time></trkpt><trkpt lat="44.2683017" lon="8.4206483"><ele>39.5</ele><time>2026-04-26T09:52:36.647Z</time></trkpt><trkpt lat="44.2684083" lon="8.4208617"><ele>39.0</ele><time>2026-04-26T09:52:38.646Z</time></trkpt><trkpt lat="44.2684267" lon="8.421"><ele>39.0</ele><time>2026-04-26T09:52:39.646Z</time></trkpt><trkpt lat="44.268425" lon="8.4211483"><ele>39.0</ele><time>2026-04-26T09:52:40.646Z</time></trkpt><trkpt lat="44.2684" lon="8.4212917"><ele>39.0</ele><time>2026-04-26T09:52:41.646Z</time></trkpt><trkpt lat="44.2683667" lon="8.4214417"><ele>39.0</ele><time>2026-04-26T09:52:42.646Z</time></trkpt><trkpt lat="44.2683333" lon="8.421595"><ele>39.0</ele><time>2026-04-26T09:52:43.646Z</time></trkpt><trkpt lat="44.2683133" lon="8.42174"><ele>38.4</ele><time>2026-04-26T09:52:44.646Z</time></trkpt><trkpt lat="44.268305" lon="8.4218767"><ele>37.8</ele><time>2026-04-26T09:52:45.646Z</time></trkpt><trkpt lat="44.2682817" lon="8.422015"><ele>37.2</ele><time>2026-04-26T09:52:46.646Z</time></trkpt><trkpt lat="44.2682483" lon="8.4221533"><ele>36.6</ele><time>2026-04-26T09:52:47.646Z</time></trkpt><trkpt lat="44.2682283" lon="8.4223067"><ele>36.0</ele><time>2026-04-26T09:52:48.646Z</time></trkpt><trkpt lat="44.2682" lon="8.42264"><ele>32.0</ele><time>2026-04-26T09:52:50.646Z</time></trkpt><trkpt lat="44.2681917" lon="8.422985"><ele>28.0</ele><time>2026-04-26T09:52:52.646Z</time></trkpt><trkpt lat="44.26817" lon="8.4231483"><ele>24.0</ele><time>2026-04-26T09:52:53.646Z</time></trkpt><trkpt lat="44.2681533" lon="8.4233017"><ele>24.666666666666664</ele><time>2026-04-26T09:52:54.646Z</time></trkpt><trkpt lat="44.2680867" lon="8.4235983"><ele>25.333333333333332</ele><time>2026-04-26T09:52:56.646Z</time></trkpt><trkpt lat="44.2680383" lon="8.42374"><ele>26.0</ele><time>2026-04-26T09:52:57.646Z</time></trkpt><trkpt lat="44.267965" lon="8.4238667"><ele>26.0</ele><time>2026-04-26T09:52:58.646Z</time></trkpt><trkpt lat="44.267905" lon="8.4239833"><ele>26.0</ele><time>2026-04-26T09:52:59.647Z</time></trkpt><trkpt lat="44.26785" lon="8.4241183"><ele>26.0</ele><time>2026-04-26T09:53:00.646Z</time></trkpt><trkpt lat="44.267825" lon="8.4242717"><ele>26.0</ele><time>2026-04-26T09:53:01.646Z</time></trkpt><trkpt lat="44.2678317" lon="8.4244333"><ele>26.0</ele><time>2026-04-26T09:53:02.646Z</time></trkpt><trkpt lat="44.26788" lon="8.424575"><ele>25.200000000000003</ele><time>2026-04-26T09:53:03.646Z</time></trkpt><trkpt lat="44.2679433" lon="8.4247017"><ele>24.400000000000002</ele><time>2026-04-26T09:53:04.646Z</time></trkpt><trkpt lat="44.2680067" lon="8.42481"><ele>23.6</ele><time>2026-04-26T09:53:05.646Z</time></trkpt><trkpt lat="44.2680683" lon="8.4249083"><ele>22.8</ele><time>2026-04-26T09:53:06.646Z</time></trkpt><trkpt lat="44.268135" lon="8.4250167"><ele>22.0</ele><time>2026-04-26T09:53:07.646Z</time></trkpt><trkpt lat="44.268205" lon="8.4251333"><ele>21.25</ele><time>2026-04-26T09:53:08.646Z</time></trkpt><trkpt lat="44.2682867" lon="8.425255"><ele>20.5</ele><time>2026-04-26T09:53:09.646Z</time></trkpt><trkpt lat="44.2683717" lon="8.4253767"><ele>19.75</ele><time>2026-04-26T09:53:10.646Z</time></trkpt><trkpt lat="44.2684617" lon="8.4254967"><ele>19.0</ele><time>2026-04-26T09:53:11.646Z</time></trkpt><trkpt lat="44.2685517" lon="8.42562"><ele>18.5</ele><time>2026-04-26T09:53:12.646Z</time></trkpt><trkpt lat="44.2686433" lon="8.4257433"><ele>18.0</ele><time>2026-04-26T09:53:13.647Z</time></trkpt><trkpt lat="44.268735" lon="8.425865"><ele>17.5</ele><time>2026-04-26T09:53:14.646Z</time></trkpt><trkpt lat="44.2688283" lon="8.4259867"><ele>17.0</ele><time>2026-04-26T09:53:15.646Z</time></trkpt><trkpt lat="44.2689183" lon="8.4261067"><ele>18.25</ele><time>2026-04-26T09:53:16.647Z</time></trkpt><trkpt lat="44.26901" lon="8.4262267"><ele>19.5</ele><time>2026-04-26T09:53:17.646Z</time></trkpt><trkpt lat="44.2691017" lon="8.426345"><ele>20.75</ele><time>2026-04-26T09:53:18.646Z</time></trkpt><trkpt lat="44.2691933" lon="8.426465"><ele>22.0</ele><time>2026-04-26T09:53:19.646Z</time></trkpt><trkpt lat="44.26929" lon="8.4265883"><ele>22.5</ele><time>2026-04-26T09:53:20.646Z</time></trkpt><trkpt lat="44.2693883" lon="8.42671"><ele>23.0</ele><time>2026-04-26T09:53:21.646Z</time></trkpt><trkpt lat="44.26949" lon="8.4268367"><ele>23.5</ele><time>2026-04-26T09:53:22.646Z</time></trkpt><trkpt lat="44.2695833" lon="8.4269667"><ele>24.0</ele><time>2026-04-26T09:53:23.646Z</time></trkpt><trkpt lat="44.2696817" lon="8.4270933"><ele>23.25</ele><time>2026-04-26T09:53:24.646Z</time></trkpt><trkpt lat="44.2697867" lon="8.4272217"><ele>22.5</ele><time>2026-04-26T09:53:25.647Z</time></trkpt><trkpt lat="44.2698967" lon="8.4273467"><ele>21.75</ele><time>2026-04-26T09:53:26.646Z</time></trkpt><trkpt lat="44.2700033" lon="8.4274783"><ele>21.0</ele><time>2026-04-26T09:53:27.646Z</time></trkpt><trkpt lat="44.27011" lon="8.4276167"><ele>21.0</ele><time>2026-04-26T09:53:28.647Z</time></trkpt><trkpt lat="44.2702133" lon="8.4277583"><ele>21.0</ele><time>2026-04-26T09:53:29.646Z</time></trkpt><trkpt lat="44.2703233" lon="8.4279"><ele>21.0</ele><time>2026-04-26T09:53:30.646Z</time></trkpt><trkpt lat="44.2704317" lon="8.428035"><ele>21.0</ele><time>2026-04-26T09:53:31.646Z</time></trkpt><trkpt lat="44.2705383" lon="8.42817"><ele>19.0</ele><time>2026-04-26T09:53:32.646Z</time></trkpt><trkpt lat="44.2706533" lon="8.42831"><ele>17.0</ele><time>2026-04-26T09:53:33.646Z</time></trkpt><trkpt lat="44.2707617" lon="8.4284517"><ele>15.0</ele><time>2026-04-26T09:53:34.646Z</time></trkpt><trkpt lat="44.2708683" lon="8.428595"><ele>13.0</ele><time>2026-04-26T09:53:35.646Z</time></trkpt><trkpt lat="44.2709767" lon="8.4287283"><ele>13.333333333333332</ele><time>2026-04-26T09:53:36.647Z</time></trkpt><trkpt lat="44.271085" lon="8.428865"><ele>13.666666666666668</ele><time>2026-04-26T09:53:37.647Z</time></trkpt><trkpt lat="44.2711983" lon="8.4290067"><ele>14.0</ele><time>2026-04-26T09:53:38.646Z</time></trkpt><trkpt lat="44.2713" lon="8.429165"><ele>14.0</ele><time>2026-04-26T09:53:39.646Z</time></trkpt><trkpt lat="44.2714" lon="8.4293217"><ele>14.0</ele><time>2026-04-26T09:53:40.646Z</time></trkpt><trkpt lat="44.271505" lon="8.4294767"><ele>14.0</ele><time>2026-04-26T09:53:41.646Z</time></trkpt><trkpt lat="44.2716067" lon="8.429635"><ele>14.333333333333334</ele><time>2026-04-26T09:53:42.647Z</time></trkpt><trkpt lat="44.2717067" lon="8.4298"><ele>14.666666666666668</ele><time>2026-04-26T09:53:43.646Z</time></trkpt><trkpt lat="44.2717983" lon="8.42997"><ele>15.0</ele><time>2026-04-26T09:53:44.646Z</time></trkpt><trkpt lat="44.2718867" lon="8.4301433"><ele>15.0</ele><time>2026-04-26T09:53:45.646Z</time></trkpt></trkseg></trk></gpx>